<?xml version="1.0" encoding="UTF-8" standalone="no" ?>
<gpx xmlns="http://www.topografix.com/GPX/1/1" xmlns:xsi="http://www.w3.org/2001/XMLSchema-instance" xsi:schemaLocation="http://www.topografix.com/GPX/1/1 http://www.topografix.com/GPX/1/1/gpx.xsd" version="1.1" creator="VisuGPX - https://www.visugpx.com">
  <metadata>
    <name>Sortie d'après midi</name>
    <desc><![CDATA[Sortie d'après midi]]></desc>
  </metadata>
  <trk>
    <name><![CDATA[Sortie d'après midi_1]]></name>
    <trkseg>
      <trkpt lat="45.83475" lon="1.22411">
        <ele>265.8</ele>
        <time>2024-10-15T12:03:47Z</time>
      </trkpt>
      <trkpt lat="45.83475" lon="1.22411">
        <ele>265.8</ele>
        <time>2024-10-15T12:03:52Z</time>
      </trkpt>
      <trkpt lat="45.83473" lon="1.22415">
        <ele>265.7</ele>
        <time>2024-10-15T12:03:55Z</time>
      </trkpt>
      <trkpt lat="45.83472" lon="1.22415">
        <ele>265.7</ele>
        <time>2024-10-15T12:03:58Z</time>
      </trkpt>
      <trkpt lat="45.83469" lon="1.22414">
        <ele>265.6</ele>
        <time>2024-10-15T12:04:01Z</time>
      </trkpt>
      <trkpt lat="45.83472" lon="1.22406">
        <ele>265.3</ele>
        <time>2024-10-15T12:04:04Z</time>
      </trkpt>
      <trkpt lat="45.83472" lon="1.22388">
        <ele>264.8</ele>
        <time>2024-10-15T12:04:07Z</time>
      </trkpt>
      <trkpt lat="45.83469" lon="1.22361">
        <ele>264.1</ele>
        <time>2024-10-15T12:04:10Z</time>
      </trkpt>
      <trkpt lat="45.83471" lon="1.22343">
        <ele>263.4</ele>
        <time>2024-10-15T12:04:13Z</time>
      </trkpt>
      <trkpt lat="45.83469" lon="1.22321">
        <ele>262.4</ele>
        <time>2024-10-15T12:04:16Z</time>
      </trkpt>
      <trkpt lat="45.8347" lon="1.22299">
        <ele>261.4</ele>
        <time>2024-10-15T12:04:19Z</time>
      </trkpt>
      <trkpt lat="45.8347" lon="1.22275">
        <ele>260.4</ele>
        <time>2024-10-15T12:04:22Z</time>
      </trkpt>
      <trkpt lat="45.83473" lon="1.22252">
        <ele>259.3</ele>
        <time>2024-10-15T12:04:25Z</time>
      </trkpt>
      <trkpt lat="45.83479" lon="1.22227">
        <ele>258</ele>
        <time>2024-10-15T12:04:28Z</time>
      </trkpt>
      <trkpt lat="45.83487" lon="1.22207">
        <ele>256.7</ele>
        <time>2024-10-15T12:04:31Z</time>
      </trkpt>
      <trkpt lat="45.83498" lon="1.22187">
        <ele>255.5</ele>
        <time>2024-10-15T12:04:34Z</time>
      </trkpt>
      <trkpt lat="45.83513" lon="1.22171">
        <ele>254.3</ele>
        <time>2024-10-15T12:04:37Z</time>
      </trkpt>
      <trkpt lat="45.83529" lon="1.22157">
        <ele>253.3</ele>
        <time>2024-10-15T12:04:40Z</time>
      </trkpt>
      <trkpt lat="45.83545" lon="1.22146">
        <ele>252.4</ele>
        <time>2024-10-15T12:04:43Z</time>
      </trkpt>
      <trkpt lat="45.8356" lon="1.2214">
        <ele>252.5</ele>
        <time>2024-10-15T12:04:46Z</time>
      </trkpt>
      <trkpt lat="45.8357" lon="1.22137">
        <ele>252.6</ele>
        <time>2024-10-15T12:04:49Z</time>
      </trkpt>
      <trkpt lat="45.83579" lon="1.22137">
        <ele>252.8</ele>
        <time>2024-10-15T12:04:52Z</time>
      </trkpt>
      <trkpt lat="45.83588" lon="1.22139">
        <ele>253</ele>
        <time>2024-10-15T12:04:55Z</time>
      </trkpt>
      <trkpt lat="45.83593" lon="1.22132">
        <ele>253.1</ele>
        <time>2024-10-15T12:04:58Z</time>
      </trkpt>
      <trkpt lat="45.83591" lon="1.22125">
        <ele>253.1</ele>
        <time>2024-10-15T12:05:01Z</time>
      </trkpt>
      <trkpt lat="45.8359" lon="1.2211">
        <ele>252.9</ele>
        <time>2024-10-15T12:05:04Z</time>
      </trkpt>
      <trkpt lat="45.83589" lon="1.22092">
        <ele>252.6</ele>
        <time>2024-10-15T12:05:07Z</time>
      </trkpt>
      <trkpt lat="45.83594" lon="1.22075">
        <ele>252.4</ele>
        <time>2024-10-15T12:05:10Z</time>
      </trkpt>
      <trkpt lat="45.83599" lon="1.22062">
        <ele>252.3</ele>
        <time>2024-10-15T12:05:13Z</time>
      </trkpt>
      <trkpt lat="45.83604" lon="1.2206">
        <ele>252.2</ele>
        <time>2024-10-15T12:05:16Z</time>
      </trkpt>
      <trkpt lat="45.83611" lon="1.22063">
        <ele>252.1</ele>
        <time>2024-10-15T12:05:19Z</time>
      </trkpt>
      <trkpt lat="45.83622" lon="1.22067">
        <ele>252.1</ele>
        <time>2024-10-15T12:05:22Z</time>
      </trkpt>
      <trkpt lat="45.83632" lon="1.22072">
        <ele>252.1</ele>
        <time>2024-10-15T12:05:25Z</time>
      </trkpt>
      <trkpt lat="45.83644" lon="1.22079">
        <ele>252</ele>
        <time>2024-10-15T12:05:28Z</time>
      </trkpt>
      <trkpt lat="45.83653" lon="1.22087">
        <ele>251.9</ele>
        <time>2024-10-15T12:05:31Z</time>
      </trkpt>
      <trkpt lat="45.83663" lon="1.22093">
        <ele>251.6</ele>
        <time>2024-10-15T12:05:34Z</time>
      </trkpt>
      <trkpt lat="45.83678" lon="1.22101">
        <ele>250.8</ele>
        <time>2024-10-15T12:05:37Z</time>
      </trkpt>
      <trkpt lat="45.83693" lon="1.22115">
        <ele>250.2</ele>
        <time>2024-10-15T12:05:40Z</time>
      </trkpt>
      <trkpt lat="45.83702" lon="1.22134">
        <ele>250</ele>
        <time>2024-10-15T12:05:43Z</time>
      </trkpt>
      <trkpt lat="45.83708" lon="1.22152">
        <ele>250.1</ele>
        <time>2024-10-15T12:05:46Z</time>
      </trkpt>
      <trkpt lat="45.83714" lon="1.22168">
        <ele>250.1</ele>
        <time>2024-10-15T12:05:49Z</time>
      </trkpt>
      <trkpt lat="45.83721" lon="1.22182">
        <ele>250.1</ele>
        <time>2024-10-15T12:05:52Z</time>
      </trkpt>
      <trkpt lat="45.83726" lon="1.22188">
        <ele>250.1</ele>
        <time>2024-10-15T12:05:55Z</time>
      </trkpt>
      <trkpt lat="45.83732" lon="1.22181">
        <ele>250.1</ele>
        <time>2024-10-15T12:05:58Z</time>
      </trkpt>
      <trkpt lat="45.83743" lon="1.22176">
        <ele>250</ele>
        <time>2024-10-15T12:06:01Z</time>
      </trkpt>
      <trkpt lat="45.83755" lon="1.2218">
        <ele>249.8</ele>
        <time>2024-10-15T12:06:04Z</time>
      </trkpt>
      <trkpt lat="45.83768" lon="1.22183">
        <ele>249.8</ele>
        <time>2024-10-15T12:06:07Z</time>
      </trkpt>
      <trkpt lat="45.83781" lon="1.22192">
        <ele>249.9</ele>
        <time>2024-10-15T12:06:10Z</time>
      </trkpt>
      <trkpt lat="45.83791" lon="1.22203">
        <ele>249.9</ele>
        <time>2024-10-15T12:06:13Z</time>
      </trkpt>
      <trkpt lat="45.83801" lon="1.22216">
        <ele>250.1</ele>
        <time>2024-10-15T12:06:16Z</time>
      </trkpt>
      <trkpt lat="45.83809" lon="1.2223">
        <ele>250.2</ele>
        <time>2024-10-15T12:06:19Z</time>
      </trkpt>
      <trkpt lat="45.83817" lon="1.22243">
        <ele>250.3</ele>
        <time>2024-10-15T12:06:22Z</time>
      </trkpt>
      <trkpt lat="45.83826" lon="1.22256">
        <ele>250.4</ele>
        <time>2024-10-15T12:06:25Z</time>
      </trkpt>
      <trkpt lat="45.83835" lon="1.22269">
        <ele>250.5</ele>
        <time>2024-10-15T12:06:28Z</time>
      </trkpt>
      <trkpt lat="45.83843" lon="1.22284">
        <ele>250.7</ele>
        <time>2024-10-15T12:06:31Z</time>
      </trkpt>
      <trkpt lat="45.83852" lon="1.22296">
        <ele>251</ele>
        <time>2024-10-15T12:06:34Z</time>
      </trkpt>
      <trkpt lat="45.83863" lon="1.22305">
        <ele>251.3</ele>
        <time>2024-10-15T12:06:37Z</time>
      </trkpt>
      <trkpt lat="45.83873" lon="1.22312">
        <ele>251.7</ele>
        <time>2024-10-15T12:06:40Z</time>
      </trkpt>
      <trkpt lat="45.83883" lon="1.22318">
        <ele>252.2</ele>
        <time>2024-10-15T12:06:43Z</time>
      </trkpt>
      <trkpt lat="45.83892" lon="1.22323">
        <ele>252.6</ele>
        <time>2024-10-15T12:06:46Z</time>
      </trkpt>
      <trkpt lat="45.83897" lon="1.22334">
        <ele>253</ele>
        <time>2024-10-15T12:06:49Z</time>
      </trkpt>
      <trkpt lat="45.83906" lon="1.22341">
        <ele>253</ele>
        <time>2024-10-15T12:06:52Z</time>
      </trkpt>
      <trkpt lat="45.8392" lon="1.22342">
        <ele>253</ele>
        <time>2024-10-15T12:06:55Z</time>
      </trkpt>
      <trkpt lat="45.83933" lon="1.22348">
        <ele>253</ele>
        <time>2024-10-15T12:06:58Z</time>
      </trkpt>
      <trkpt lat="45.83944" lon="1.22359">
        <ele>253.1</ele>
        <time>2024-10-15T12:07:01Z</time>
      </trkpt>
      <trkpt lat="45.83955" lon="1.22372">
        <ele>253.1</ele>
        <time>2024-10-15T12:07:04Z</time>
      </trkpt>
      <trkpt lat="45.83964" lon="1.22386">
        <ele>253.1</ele>
        <time>2024-10-15T12:07:07Z</time>
      </trkpt>
      <trkpt lat="45.8397" lon="1.22403">
        <ele>253</ele>
        <time>2024-10-15T12:07:10Z</time>
      </trkpt>
      <trkpt lat="45.83976" lon="1.22421">
        <ele>252.8</ele>
        <time>2024-10-15T12:07:13Z</time>
      </trkpt>
      <trkpt lat="45.83984" lon="1.2244">
        <ele>252.7</ele>
        <time>2024-10-15T12:07:16Z</time>
      </trkpt>
      <trkpt lat="45.83997" lon="1.22453">
        <ele>252.7</ele>
        <time>2024-10-15T12:07:19Z</time>
      </trkpt>
      <trkpt lat="45.84011" lon="1.22458">
        <ele>252.9</ele>
        <time>2024-10-15T12:07:22Z</time>
      </trkpt>
      <trkpt lat="45.84024" lon="1.22459">
        <ele>253.1</ele>
        <time>2024-10-15T12:07:25Z</time>
      </trkpt>
      <trkpt lat="45.84038" lon="1.22459">
        <ele>253.5</ele>
        <time>2024-10-15T12:07:28Z</time>
      </trkpt>
      <trkpt lat="45.8405" lon="1.22455">
        <ele>253.8</ele>
        <time>2024-10-15T12:07:31Z</time>
      </trkpt>
      <trkpt lat="45.84062" lon="1.22449">
        <ele>253.9</ele>
        <time>2024-10-15T12:07:34Z</time>
      </trkpt>
      <trkpt lat="45.84075" lon="1.22447">
        <ele>253.8</ele>
        <time>2024-10-15T12:07:37Z</time>
      </trkpt>
      <trkpt lat="45.84088" lon="1.2245">
        <ele>253.7</ele>
        <time>2024-10-15T12:07:40Z</time>
      </trkpt>
      <trkpt lat="45.84102" lon="1.22457">
        <ele>253.6</ele>
        <time>2024-10-15T12:07:43Z</time>
      </trkpt>
      <trkpt lat="45.84113" lon="1.22471">
        <ele>253.6</ele>
        <time>2024-10-15T12:07:46Z</time>
      </trkpt>
      <trkpt lat="45.84121" lon="1.22489">
        <ele>253.6</ele>
        <time>2024-10-15T12:07:49Z</time>
      </trkpt>
      <trkpt lat="45.84128" lon="1.22507">
        <ele>253.7</ele>
        <time>2024-10-15T12:07:52Z</time>
      </trkpt>
      <trkpt lat="45.84136" lon="1.22523">
        <ele>253.8</ele>
        <time>2024-10-15T12:07:55Z</time>
      </trkpt>
      <trkpt lat="45.84148" lon="1.22538">
        <ele>254</ele>
        <time>2024-10-15T12:07:58Z</time>
      </trkpt>
      <trkpt lat="45.84158" lon="1.22552">
        <ele>254.2</ele>
        <time>2024-10-15T12:08:01Z</time>
      </trkpt>
      <trkpt lat="45.84168" lon="1.22563">
        <ele>254.4</ele>
        <time>2024-10-15T12:08:04Z</time>
      </trkpt>
      <trkpt lat="45.84178" lon="1.22571">
        <ele>254.6</ele>
        <time>2024-10-15T12:08:07Z</time>
      </trkpt>
      <trkpt lat="45.84186" lon="1.22577">
        <ele>254.8</ele>
        <time>2024-10-15T12:08:10Z</time>
      </trkpt>
      <trkpt lat="45.84188" lon="1.22587">
        <ele>254.8</ele>
        <time>2024-10-15T12:08:13Z</time>
      </trkpt>
      <trkpt lat="45.84183" lon="1.226">
        <ele>254.8</ele>
        <time>2024-10-15T12:08:16Z</time>
      </trkpt>
      <trkpt lat="45.84187" lon="1.22613">
        <ele>254.9</ele>
        <time>2024-10-15T12:08:19Z</time>
      </trkpt>
      <trkpt lat="45.84202" lon="1.22617">
        <ele>254.9</ele>
        <time>2024-10-15T12:08:22Z</time>
      </trkpt>
      <trkpt lat="45.84216" lon="1.2262">
        <ele>254.9</ele>
        <time>2024-10-15T12:08:25Z</time>
      </trkpt>
      <trkpt lat="45.84229" lon="1.22623">
        <ele>255</ele>
        <time>2024-10-15T12:08:28Z</time>
      </trkpt>
      <trkpt lat="45.84241" lon="1.2262">
        <ele>255.1</ele>
        <time>2024-10-15T12:08:31Z</time>
      </trkpt>
      <trkpt lat="45.84252" lon="1.22612">
        <ele>255.2</ele>
        <time>2024-10-15T12:08:34Z</time>
      </trkpt>
      <trkpt lat="45.84262" lon="1.22602">
        <ele>255.3</ele>
        <time>2024-10-15T12:08:37Z</time>
      </trkpt>
      <trkpt lat="45.84271" lon="1.22589">
        <ele>255.5</ele>
        <time>2024-10-15T12:08:40Z</time>
      </trkpt>
      <trkpt lat="45.84281" lon="1.22579">
        <ele>255.7</ele>
        <time>2024-10-15T12:08:43Z</time>
      </trkpt>
      <trkpt lat="45.84292" lon="1.22577">
        <ele>255.8</ele>
        <time>2024-10-15T12:08:46Z</time>
      </trkpt>
      <trkpt lat="45.84302" lon="1.22585">
        <ele>255.9</ele>
        <time>2024-10-15T12:08:49Z</time>
      </trkpt>
      <trkpt lat="45.8431" lon="1.22599">
        <ele>256</ele>
        <time>2024-10-15T12:08:52Z</time>
      </trkpt>
      <trkpt lat="45.84319" lon="1.22612">
        <ele>256.1</ele>
        <time>2024-10-15T12:08:55Z</time>
      </trkpt>
      <trkpt lat="45.84328" lon="1.22622">
        <ele>256.2</ele>
        <time>2024-10-15T12:08:58Z</time>
      </trkpt>
      <trkpt lat="45.84338" lon="1.22626">
        <ele>256.3</ele>
        <time>2024-10-15T12:09:01Z</time>
      </trkpt>
      <trkpt lat="45.8435" lon="1.22625">
        <ele>256.3</ele>
        <time>2024-10-15T12:09:04Z</time>
      </trkpt>
      <trkpt lat="45.84362" lon="1.22621">
        <ele>256.5</ele>
        <time>2024-10-15T12:09:07Z</time>
      </trkpt>
      <trkpt lat="45.84374" lon="1.22619">
        <ele>256.6</ele>
        <time>2024-10-15T12:09:10Z</time>
      </trkpt>
      <trkpt lat="45.84384" lon="1.22629">
        <ele>256.7</ele>
        <time>2024-10-15T12:09:13Z</time>
      </trkpt>
      <trkpt lat="45.84391" lon="1.22645">
        <ele>256.8</ele>
        <time>2024-10-15T12:09:16Z</time>
      </trkpt>
      <trkpt lat="45.84397" lon="1.2266">
        <ele>257</ele>
        <time>2024-10-15T12:09:19Z</time>
      </trkpt>
      <trkpt lat="45.84406" lon="1.22672">
        <ele>257.3</ele>
        <time>2024-10-15T12:09:22Z</time>
      </trkpt>
      <trkpt lat="45.84413" lon="1.22684">
        <ele>257.6</ele>
        <time>2024-10-15T12:09:25Z</time>
      </trkpt>
      <trkpt lat="45.84425" lon="1.22683">
        <ele>257.8</ele>
        <time>2024-10-15T12:09:28Z</time>
      </trkpt>
      <trkpt lat="45.84436" lon="1.22681">
        <ele>258</ele>
        <time>2024-10-15T12:09:31Z</time>
      </trkpt>
      <trkpt lat="45.8445" lon="1.2268">
        <ele>258.1</ele>
        <time>2024-10-15T12:09:34Z</time>
      </trkpt>
      <trkpt lat="45.84464" lon="1.22681">
        <ele>258.1</ele>
        <time>2024-10-15T12:09:37Z</time>
      </trkpt>
      <trkpt lat="45.84478" lon="1.22684">
        <ele>258.1</ele>
        <time>2024-10-15T12:09:40Z</time>
      </trkpt>
      <trkpt lat="45.84491" lon="1.22689">
        <ele>258.3</ele>
        <time>2024-10-15T12:09:43Z</time>
      </trkpt>
      <trkpt lat="45.84502" lon="1.22697">
        <ele>258.4</ele>
        <time>2024-10-15T12:09:46Z</time>
      </trkpt>
      <trkpt lat="45.84511" lon="1.22709">
        <ele>258.5</ele>
        <time>2024-10-15T12:09:49Z</time>
      </trkpt>
      <trkpt lat="45.84521" lon="1.22716">
        <ele>258.5</ele>
        <time>2024-10-15T12:09:52Z</time>
      </trkpt>
      <trkpt lat="45.8453" lon="1.22721">
        <ele>258.4</ele>
        <time>2024-10-15T12:09:55Z</time>
      </trkpt>
      <trkpt lat="45.84542" lon="1.22725">
        <ele>258.3</ele>
        <time>2024-10-15T12:09:58Z</time>
      </trkpt>
      <trkpt lat="45.84555" lon="1.22732">
        <ele>258.3</ele>
        <time>2024-10-15T12:10:01Z</time>
      </trkpt>
      <trkpt lat="45.84567" lon="1.22735">
        <ele>258.6</ele>
        <time>2024-10-15T12:10:04Z</time>
      </trkpt>
      <trkpt lat="45.84577" lon="1.22734">
        <ele>258.9</ele>
        <time>2024-10-15T12:10:07Z</time>
      </trkpt>
      <trkpt lat="45.84588" lon="1.22728">
        <ele>259.3</ele>
        <time>2024-10-15T12:10:10Z</time>
      </trkpt>
      <trkpt lat="45.84598" lon="1.22725">
        <ele>259.7</ele>
        <time>2024-10-15T12:10:13Z</time>
      </trkpt>
      <trkpt lat="45.84607" lon="1.22722">
        <ele>260.1</ele>
        <time>2024-10-15T12:10:16Z</time>
      </trkpt>
      <trkpt lat="45.84616" lon="1.22723">
        <ele>260.7</ele>
        <time>2024-10-15T12:10:19Z</time>
      </trkpt>
      <trkpt lat="45.84624" lon="1.22723">
        <ele>261.2</ele>
        <time>2024-10-15T12:10:22Z</time>
      </trkpt>
      <trkpt lat="45.84634" lon="1.22724">
        <ele>262</ele>
        <time>2024-10-15T12:10:25Z</time>
      </trkpt>
      <trkpt lat="45.8464" lon="1.22726">
        <ele>262.6</ele>
        <time>2024-10-15T12:10:28Z</time>
      </trkpt>
      <trkpt lat="45.84645" lon="1.22734">
        <ele>263.1</ele>
        <time>2024-10-15T12:10:31Z</time>
      </trkpt>
      <trkpt lat="45.84652" lon="1.22739">
        <ele>263.4</ele>
        <time>2024-10-15T12:10:34Z</time>
      </trkpt>
      <trkpt lat="45.8466" lon="1.22742">
        <ele>263.9</ele>
        <time>2024-10-15T12:10:37Z</time>
      </trkpt>
      <trkpt lat="45.84667" lon="1.22743">
        <ele>264.5</ele>
        <time>2024-10-15T12:10:40Z</time>
      </trkpt>
      <trkpt lat="45.84673" lon="1.2274">
        <ele>265.3</ele>
        <time>2024-10-15T12:10:43Z</time>
      </trkpt>
      <trkpt lat="45.8468" lon="1.22738">
        <ele>266.1</ele>
        <time>2024-10-15T12:10:46Z</time>
      </trkpt>
      <trkpt lat="45.84687" lon="1.22735">
        <ele>266.9</ele>
        <time>2024-10-15T12:10:49Z</time>
      </trkpt>
      <trkpt lat="45.84693" lon="1.22733">
        <ele>267.7</ele>
        <time>2024-10-15T12:10:52Z</time>
      </trkpt>
      <trkpt lat="45.84699" lon="1.22737">
        <ele>268.4</ele>
        <time>2024-10-15T12:10:55Z</time>
      </trkpt>
      <trkpt lat="45.84705" lon="1.22741">
        <ele>269.1</ele>
        <time>2024-10-15T12:10:58Z</time>
      </trkpt>
      <trkpt lat="45.84712" lon="1.22744">
        <ele>269.9</ele>
        <time>2024-10-15T12:11:01Z</time>
      </trkpt>
      <trkpt lat="45.84719" lon="1.22747">
        <ele>270.7</ele>
        <time>2024-10-15T12:11:04Z</time>
      </trkpt>
      <trkpt lat="45.84726" lon="1.22746">
        <ele>271.5</ele>
        <time>2024-10-15T12:11:07Z</time>
      </trkpt>
      <trkpt lat="45.8473" lon="1.22739">
        <ele>272.2</ele>
        <time>2024-10-15T12:11:10Z</time>
      </trkpt>
      <trkpt lat="45.84733" lon="1.2273">
        <ele>273</ele>
        <time>2024-10-15T12:11:13Z</time>
      </trkpt>
      <trkpt lat="45.84734" lon="1.22721">
        <ele>273.7</ele>
        <time>2024-10-15T12:11:16Z</time>
      </trkpt>
      <trkpt lat="45.84738" lon="1.22712">
        <ele>274.4</ele>
        <time>2024-10-15T12:11:19Z</time>
      </trkpt>
      <trkpt lat="45.84745" lon="1.22712">
        <ele>275.4</ele>
        <time>2024-10-15T12:11:22Z</time>
      </trkpt>
      <trkpt lat="45.84749" lon="1.22723">
        <ele>275.8</ele>
        <time>2024-10-15T12:11:25Z</time>
      </trkpt>
      <trkpt lat="45.84753" lon="1.22734">
        <ele>276.3</ele>
        <time>2024-10-15T12:11:28Z</time>
      </trkpt>
      <trkpt lat="45.84756" lon="1.22744">
        <ele>276.7</ele>
        <time>2024-10-15T12:11:31Z</time>
      </trkpt>
      <trkpt lat="45.84759" lon="1.22754">
        <ele>277.2</ele>
        <time>2024-10-15T12:11:34Z</time>
      </trkpt>
      <trkpt lat="45.84763" lon="1.22765">
        <ele>277.7</ele>
        <time>2024-10-15T12:11:37Z</time>
      </trkpt>
      <trkpt lat="45.84766" lon="1.22775">
        <ele>278.3</ele>
        <time>2024-10-15T12:11:40Z</time>
      </trkpt>
      <trkpt lat="45.8477" lon="1.22784">
        <ele>278.9</ele>
        <time>2024-10-15T12:11:43Z</time>
      </trkpt>
      <trkpt lat="45.84774" lon="1.22793">
        <ele>279.6</ele>
        <time>2024-10-15T12:11:46Z</time>
      </trkpt>
      <trkpt lat="45.84777" lon="1.22803">
        <ele>280.2</ele>
        <time>2024-10-15T12:11:49Z</time>
      </trkpt>
      <trkpt lat="45.8478" lon="1.22813">
        <ele>280.8</ele>
        <time>2024-10-15T12:11:52Z</time>
      </trkpt>
      <trkpt lat="45.84783" lon="1.22823">
        <ele>281.4</ele>
        <time>2024-10-15T12:11:55Z</time>
      </trkpt>
      <trkpt lat="45.84787" lon="1.22833">
        <ele>282</ele>
        <time>2024-10-15T12:11:58Z</time>
      </trkpt>
      <trkpt lat="45.8479" lon="1.22842">
        <ele>282.7</ele>
        <time>2024-10-15T12:12:01Z</time>
      </trkpt>
      <trkpt lat="45.84794" lon="1.22851">
        <ele>283.4</ele>
        <time>2024-10-15T12:12:04Z</time>
      </trkpt>
      <trkpt lat="45.84797" lon="1.22861">
        <ele>284</ele>
        <time>2024-10-15T12:12:07Z</time>
      </trkpt>
      <trkpt lat="45.848" lon="1.2287">
        <ele>284.6</ele>
        <time>2024-10-15T12:12:10Z</time>
      </trkpt>
      <trkpt lat="45.84804" lon="1.22881">
        <ele>285.3</ele>
        <time>2024-10-15T12:12:13Z</time>
      </trkpt>
      <trkpt lat="45.84807" lon="1.22891">
        <ele>285.9</ele>
        <time>2024-10-15T12:12:16Z</time>
      </trkpt>
      <trkpt lat="45.84811" lon="1.22902">
        <ele>286.4</ele>
        <time>2024-10-15T12:12:19Z</time>
      </trkpt>
      <trkpt lat="45.84814" lon="1.22913">
        <ele>286.9</ele>
        <time>2024-10-15T12:12:22Z</time>
      </trkpt>
      <trkpt lat="45.84818" lon="1.22925">
        <ele>287.2</ele>
        <time>2024-10-15T12:12:25Z</time>
      </trkpt>
      <trkpt lat="45.84822" lon="1.22938">
        <ele>287.4</ele>
        <time>2024-10-15T12:12:28Z</time>
      </trkpt>
      <trkpt lat="45.84827" lon="1.22952">
        <ele>287.4</ele>
        <time>2024-10-15T12:12:31Z</time>
      </trkpt>
      <trkpt lat="45.84833" lon="1.22966">
        <ele>287.2</ele>
        <time>2024-10-15T12:12:34Z</time>
      </trkpt>
      <trkpt lat="45.84839" lon="1.22982">
        <ele>286.6</ele>
        <time>2024-10-15T12:12:37Z</time>
      </trkpt>
      <trkpt lat="45.84846" lon="1.22998">
        <ele>285.7</ele>
        <time>2024-10-15T12:12:40Z</time>
      </trkpt>
      <trkpt lat="45.84851" lon="1.23014">
        <ele>284.7</ele>
        <time>2024-10-15T12:12:43Z</time>
      </trkpt>
      <trkpt lat="45.8486" lon="1.23029">
        <ele>283.5</ele>
        <time>2024-10-15T12:12:46Z</time>
      </trkpt>
      <trkpt lat="45.84872" lon="1.2304">
        <ele>282.4</ele>
        <time>2024-10-15T12:12:49Z</time>
      </trkpt>
      <trkpt lat="45.84886" lon="1.23044">
        <ele>281.1</ele>
        <time>2024-10-15T12:12:52Z</time>
      </trkpt>
      <trkpt lat="45.84899" lon="1.23034">
        <ele>279.9</ele>
        <time>2024-10-15T12:12:55Z</time>
      </trkpt>
      <trkpt lat="45.84909" lon="1.23023">
        <ele>278.9</ele>
        <time>2024-10-15T12:12:58Z</time>
      </trkpt>
      <trkpt lat="45.84918" lon="1.23009">
        <ele>278</ele>
        <time>2024-10-15T12:13:01Z</time>
      </trkpt>
      <trkpt lat="45.84924" lon="1.22994">
        <ele>277.2</ele>
        <time>2024-10-15T12:13:04Z</time>
      </trkpt>
      <trkpt lat="45.84929" lon="1.2298">
        <ele>276.6</ele>
        <time>2024-10-15T12:13:07Z</time>
      </trkpt>
      <trkpt lat="45.84931" lon="1.22973">
        <ele>276.4</ele>
        <time>2024-10-15T12:13:10Z</time>
      </trkpt>
      <trkpt lat="45.84934" lon="1.22973">
        <ele>275.7</ele>
        <time>2024-10-15T12:13:13Z</time>
      </trkpt>
      <trkpt lat="45.84935" lon="1.22984">
        <ele>275.2</ele>
        <time>2024-10-15T12:13:16Z</time>
      </trkpt>
      <trkpt lat="45.8493" lon="1.23006">
        <ele>274</ele>
        <time>2024-10-15T12:13:19Z</time>
      </trkpt>
      <trkpt lat="45.84922" lon="1.23032">
        <ele>272.4</ele>
        <time>2024-10-15T12:13:22Z</time>
      </trkpt>
      <trkpt lat="45.8491" lon="1.23061">
        <ele>270.4</ele>
        <time>2024-10-15T12:13:25Z</time>
      </trkpt>
      <trkpt lat="45.84901" lon="1.23091">
        <ele>268.3</ele>
        <time>2024-10-15T12:13:28Z</time>
      </trkpt>
      <trkpt lat="45.84888" lon="1.23124">
        <ele>266.3</ele>
        <time>2024-10-15T12:13:31Z</time>
      </trkpt>
      <trkpt lat="45.84872" lon="1.2315">
        <ele>265.1</ele>
        <time>2024-10-15T12:13:34Z</time>
      </trkpt>
      <trkpt lat="45.84856" lon="1.23173">
        <ele>264.4</ele>
        <time>2024-10-15T12:13:37Z</time>
      </trkpt>
      <trkpt lat="45.84839" lon="1.23193">
        <ele>264.2</ele>
        <time>2024-10-15T12:13:40Z</time>
      </trkpt>
      <trkpt lat="45.84827" lon="1.23207">
        <ele>264.3</ele>
        <time>2024-10-15T12:13:43Z</time>
      </trkpt>
      <trkpt lat="45.84826" lon="1.23225">
        <ele>264.2</ele>
        <time>2024-10-15T12:13:46Z</time>
      </trkpt>
      <trkpt lat="45.84833" lon="1.23243">
        <ele>264.1</ele>
        <time>2024-10-15T12:13:49Z</time>
      </trkpt>
      <trkpt lat="45.84846" lon="1.23257">
        <ele>264.6</ele>
        <time>2024-10-15T12:13:52Z</time>
      </trkpt>
      <trkpt lat="45.84857" lon="1.23266">
        <ele>265.6</ele>
        <time>2024-10-15T12:13:55Z</time>
      </trkpt>
      <trkpt lat="45.84867" lon="1.23274">
        <ele>266.7</ele>
        <time>2024-10-15T12:13:58Z</time>
      </trkpt>
      <trkpt lat="45.84876" lon="1.23281">
        <ele>267.7</ele>
        <time>2024-10-15T12:14:01Z</time>
      </trkpt>
      <trkpt lat="45.84884" lon="1.23286">
        <ele>268.8</ele>
        <time>2024-10-15T12:14:04Z</time>
      </trkpt>
      <trkpt lat="45.84892" lon="1.23292">
        <ele>270</ele>
        <time>2024-10-15T12:14:07Z</time>
      </trkpt>
      <trkpt lat="45.84899" lon="1.23297">
        <ele>271</ele>
        <time>2024-10-15T12:14:10Z</time>
      </trkpt>
      <trkpt lat="45.84907" lon="1.23303">
        <ele>272.1</ele>
        <time>2024-10-15T12:14:13Z</time>
      </trkpt>
      <trkpt lat="45.84914" lon="1.23308">
        <ele>273.1</ele>
        <time>2024-10-15T12:14:16Z</time>
      </trkpt>
      <trkpt lat="45.84922" lon="1.23312">
        <ele>274.1</ele>
        <time>2024-10-15T12:14:19Z</time>
      </trkpt>
      <trkpt lat="45.8493" lon="1.23316">
        <ele>274.9</ele>
        <time>2024-10-15T12:14:22Z</time>
      </trkpt>
      <trkpt lat="45.84939" lon="1.23318">
        <ele>275.6</ele>
        <time>2024-10-15T12:14:25Z</time>
      </trkpt>
      <trkpt lat="45.84947" lon="1.2332">
        <ele>276.3</ele>
        <time>2024-10-15T12:14:28Z</time>
      </trkpt>
      <trkpt lat="45.84955" lon="1.23323">
        <ele>277</ele>
        <time>2024-10-15T12:14:31Z</time>
      </trkpt>
      <trkpt lat="45.84964" lon="1.23325">
        <ele>277.6</ele>
        <time>2024-10-15T12:14:34Z</time>
      </trkpt>
      <trkpt lat="45.84973" lon="1.23328">
        <ele>278.3</ele>
        <time>2024-10-15T12:14:37Z</time>
      </trkpt>
      <trkpt lat="45.84981" lon="1.2333">
        <ele>278.8</ele>
        <time>2024-10-15T12:14:40Z</time>
      </trkpt>
      <trkpt lat="45.84989" lon="1.23335">
        <ele>279.3</ele>
        <time>2024-10-15T12:14:43Z</time>
      </trkpt>
      <trkpt lat="45.84995" lon="1.23343">
        <ele>279.8</ele>
        <time>2024-10-15T12:14:46Z</time>
      </trkpt>
      <trkpt lat="45.85002" lon="1.23351">
        <ele>280.2</ele>
        <time>2024-10-15T12:14:49Z</time>
      </trkpt>
      <trkpt lat="45.85008" lon="1.23359">
        <ele>280.6</ele>
        <time>2024-10-15T12:14:52Z</time>
      </trkpt>
      <trkpt lat="45.85015" lon="1.23369">
        <ele>281.1</ele>
        <time>2024-10-15T12:14:55Z</time>
      </trkpt>
      <trkpt lat="45.85021" lon="1.2338">
        <ele>281.5</ele>
        <time>2024-10-15T12:14:58Z</time>
      </trkpt>
      <trkpt lat="45.85028" lon="1.23389">
        <ele>281.8</ele>
        <time>2024-10-15T12:15:01Z</time>
      </trkpt>
      <trkpt lat="45.85036" lon="1.23399">
        <ele>282.2</ele>
        <time>2024-10-15T12:15:04Z</time>
      </trkpt>
      <trkpt lat="45.85043" lon="1.23409">
        <ele>282.6</ele>
        <time>2024-10-15T12:15:07Z</time>
      </trkpt>
      <trkpt lat="45.8505" lon="1.23419">
        <ele>282.9</ele>
        <time>2024-10-15T12:15:10Z</time>
      </trkpt>
      <trkpt lat="45.85057" lon="1.23429">
        <ele>283.2</ele>
        <time>2024-10-15T12:15:13Z</time>
      </trkpt>
      <trkpt lat="45.85064" lon="1.23439">
        <ele>283.5</ele>
        <time>2024-10-15T12:15:16Z</time>
      </trkpt>
      <trkpt lat="45.85073" lon="1.2345">
        <ele>283.9</ele>
        <time>2024-10-15T12:15:19Z</time>
      </trkpt>
      <trkpt lat="45.85081" lon="1.23459">
        <ele>284.2</ele>
        <time>2024-10-15T12:15:22Z</time>
      </trkpt>
      <trkpt lat="45.85089" lon="1.23466">
        <ele>284.6</ele>
        <time>2024-10-15T12:15:25Z</time>
      </trkpt>
      <trkpt lat="45.85097" lon="1.23473">
        <ele>284.9</ele>
        <time>2024-10-15T12:15:28Z</time>
      </trkpt>
      <trkpt lat="45.85105" lon="1.2348">
        <ele>285.2</ele>
        <time>2024-10-15T12:15:31Z</time>
      </trkpt>
      <trkpt lat="45.85113" lon="1.23487">
        <ele>285.5</ele>
        <time>2024-10-15T12:15:34Z</time>
      </trkpt>
      <trkpt lat="45.85121" lon="1.23495">
        <ele>285.8</ele>
        <time>2024-10-15T12:15:37Z</time>
      </trkpt>
      <trkpt lat="45.85128" lon="1.23504">
        <ele>286.1</ele>
        <time>2024-10-15T12:15:40Z</time>
      </trkpt>
      <trkpt lat="45.85136" lon="1.23511">
        <ele>286.5</ele>
        <time>2024-10-15T12:15:43Z</time>
      </trkpt>
      <trkpt lat="45.85144" lon="1.23519">
        <ele>286.8</ele>
        <time>2024-10-15T12:15:46Z</time>
      </trkpt>
      <trkpt lat="45.85154" lon="1.23521">
        <ele>287</ele>
        <time>2024-10-15T12:15:49Z</time>
      </trkpt>
      <trkpt lat="45.85161" lon="1.23514">
        <ele>287.3</ele>
        <time>2024-10-15T12:15:52Z</time>
      </trkpt>
      <trkpt lat="45.85168" lon="1.23505">
        <ele>287.8</ele>
        <time>2024-10-15T12:15:55Z</time>
      </trkpt>
      <trkpt lat="45.85176" lon="1.23498">
        <ele>288.2</ele>
        <time>2024-10-15T12:15:58Z</time>
      </trkpt>
      <trkpt lat="45.85185" lon="1.23492">
        <ele>288.6</ele>
        <time>2024-10-15T12:16:01Z</time>
      </trkpt>
      <trkpt lat="45.85192" lon="1.23489">
        <ele>289.1</ele>
        <time>2024-10-15T12:16:04Z</time>
      </trkpt>
      <trkpt lat="45.85201" lon="1.23486">
        <ele>289.6</ele>
        <time>2024-10-15T12:16:07Z</time>
      </trkpt>
      <trkpt lat="45.8521" lon="1.23485">
        <ele>290.2</ele>
        <time>2024-10-15T12:16:10Z</time>
      </trkpt>
      <trkpt lat="45.85219" lon="1.23483">
        <ele>290.8</ele>
        <time>2024-10-15T12:16:13Z</time>
      </trkpt>
      <trkpt lat="45.85227" lon="1.23482">
        <ele>291.4</ele>
        <time>2024-10-15T12:16:16Z</time>
      </trkpt>
      <trkpt lat="45.85237" lon="1.2348">
        <ele>291.9</ele>
        <time>2024-10-15T12:16:19Z</time>
      </trkpt>
      <trkpt lat="45.85247" lon="1.23478">
        <ele>292.4</ele>
        <time>2024-10-15T12:16:22Z</time>
      </trkpt>
      <trkpt lat="45.85256" lon="1.23476">
        <ele>292.9</ele>
        <time>2024-10-15T12:16:25Z</time>
      </trkpt>
      <trkpt lat="45.85265" lon="1.23476">
        <ele>293.3</ele>
        <time>2024-10-15T12:16:28Z</time>
      </trkpt>
      <trkpt lat="45.85275" lon="1.23476">
        <ele>293.8</ele>
        <time>2024-10-15T12:16:31Z</time>
      </trkpt>
      <trkpt lat="45.85285" lon="1.2348">
        <ele>294.3</ele>
        <time>2024-10-15T12:16:34Z</time>
      </trkpt>
      <trkpt lat="45.85292" lon="1.23492">
        <ele>294.8</ele>
        <time>2024-10-15T12:16:37Z</time>
      </trkpt>
      <trkpt lat="45.85296" lon="1.23502">
        <ele>295.2</ele>
        <time>2024-10-15T12:16:40Z</time>
      </trkpt>
      <trkpt lat="45.85302" lon="1.23515">
        <ele>295.5</ele>
        <time>2024-10-15T12:16:43Z</time>
      </trkpt>
      <trkpt lat="45.85307" lon="1.23529">
        <ele>295.7</ele>
        <time>2024-10-15T12:16:46Z</time>
      </trkpt>
      <trkpt lat="45.85314" lon="1.23545">
        <ele>295.8</ele>
        <time>2024-10-15T12:16:49Z</time>
      </trkpt>
      <trkpt lat="45.8532" lon="1.23559">
        <ele>295.9</ele>
        <time>2024-10-15T12:16:52Z</time>
      </trkpt>
      <trkpt lat="45.85326" lon="1.23574">
        <ele>296.1</ele>
        <time>2024-10-15T12:16:55Z</time>
      </trkpt>
      <trkpt lat="45.85333" lon="1.23587">
        <ele>296.3</ele>
        <time>2024-10-15T12:16:58Z</time>
      </trkpt>
      <trkpt lat="45.85337" lon="1.23599">
        <ele>296.6</ele>
        <time>2024-10-15T12:17:01Z</time>
      </trkpt>
      <trkpt lat="45.85341" lon="1.23611">
        <ele>296.9</ele>
        <time>2024-10-15T12:17:04Z</time>
      </trkpt>
      <trkpt lat="45.85346" lon="1.23624">
        <ele>297.2</ele>
        <time>2024-10-15T12:17:07Z</time>
      </trkpt>
      <trkpt lat="45.85353" lon="1.23639">
        <ele>297.8</ele>
        <time>2024-10-15T12:17:10Z</time>
      </trkpt>
      <trkpt lat="45.85358" lon="1.23652">
        <ele>298.4</ele>
        <time>2024-10-15T12:17:13Z</time>
      </trkpt>
      <trkpt lat="45.85362" lon="1.23663">
        <ele>299</ele>
        <time>2024-10-15T12:17:16Z</time>
      </trkpt>
      <trkpt lat="45.85366" lon="1.23674">
        <ele>299.7</ele>
        <time>2024-10-15T12:17:19Z</time>
      </trkpt>
      <trkpt lat="45.85371" lon="1.23685">
        <ele>300.5</ele>
        <time>2024-10-15T12:17:22Z</time>
      </trkpt>
      <trkpt lat="45.85373" lon="1.23694">
        <ele>301.1</ele>
        <time>2024-10-15T12:17:25Z</time>
      </trkpt>
      <trkpt lat="45.85376" lon="1.23702">
        <ele>301.7</ele>
        <time>2024-10-15T12:17:28Z</time>
      </trkpt>
      <trkpt lat="45.85381" lon="1.23713">
        <ele>302.4</ele>
        <time>2024-10-15T12:17:31Z</time>
      </trkpt>
      <trkpt lat="45.85386" lon="1.23724">
        <ele>302.8</ele>
        <time>2024-10-15T12:17:34Z</time>
      </trkpt>
      <trkpt lat="45.85391" lon="1.23734">
        <ele>303.1</ele>
        <time>2024-10-15T12:17:37Z</time>
      </trkpt>
      <trkpt lat="45.85396" lon="1.23749">
        <ele>303</ele>
        <time>2024-10-15T12:17:40Z</time>
      </trkpt>
      <trkpt lat="45.85403" lon="1.23767">
        <ele>302.4</ele>
        <time>2024-10-15T12:17:43Z</time>
      </trkpt>
      <trkpt lat="45.85413" lon="1.23787">
        <ele>301.5</ele>
        <time>2024-10-15T12:17:46Z</time>
      </trkpt>
      <trkpt lat="45.85427" lon="1.23796">
        <ele>301.1</ele>
        <time>2024-10-15T12:17:49Z</time>
      </trkpt>
      <trkpt lat="45.85442" lon="1.23798">
        <ele>301.1</ele>
        <time>2024-10-15T12:17:52Z</time>
      </trkpt>
      <trkpt lat="45.85456" lon="1.23795">
        <ele>301.5</ele>
        <time>2024-10-15T12:17:55Z</time>
      </trkpt>
      <trkpt lat="45.85466" lon="1.23793">
        <ele>301.8</ele>
        <time>2024-10-15T12:17:58Z</time>
      </trkpt>
      <trkpt lat="45.85478" lon="1.23791">
        <ele>302.4</ele>
        <time>2024-10-15T12:18:01Z</time>
      </trkpt>
      <trkpt lat="45.85488" lon="1.2379">
        <ele>303</ele>
        <time>2024-10-15T12:18:04Z</time>
      </trkpt>
      <trkpt lat="45.85497" lon="1.23788">
        <ele>303.5</ele>
        <time>2024-10-15T12:18:07Z</time>
      </trkpt>
      <trkpt lat="45.85508" lon="1.23783">
        <ele>304.1</ele>
        <time>2024-10-15T12:18:10Z</time>
      </trkpt>
      <trkpt lat="45.85517" lon="1.23776">
        <ele>304.7</ele>
        <time>2024-10-15T12:18:13Z</time>
      </trkpt>
      <trkpt lat="45.85526" lon="1.2377">
        <ele>305.4</ele>
        <time>2024-10-15T12:18:16Z</time>
      </trkpt>
      <trkpt lat="45.85536" lon="1.23762">
        <ele>306</ele>
        <time>2024-10-15T12:18:19Z</time>
      </trkpt>
      <trkpt lat="45.85545" lon="1.23755">
        <ele>306.5</ele>
        <time>2024-10-15T12:18:22Z</time>
      </trkpt>
      <trkpt lat="45.85553" lon="1.23748">
        <ele>306.8</ele>
        <time>2024-10-15T12:18:25Z</time>
      </trkpt>
      <trkpt lat="45.85562" lon="1.23743">
        <ele>307.2</ele>
        <time>2024-10-15T12:18:28Z</time>
      </trkpt>
      <trkpt lat="45.85571" lon="1.23737">
        <ele>307.6</ele>
        <time>2024-10-15T12:18:31Z</time>
      </trkpt>
      <trkpt lat="45.8558" lon="1.23731">
        <ele>308.1</ele>
        <time>2024-10-15T12:18:34Z</time>
      </trkpt>
      <trkpt lat="45.85589" lon="1.23726">
        <ele>308.5</ele>
        <time>2024-10-15T12:18:37Z</time>
      </trkpt>
      <trkpt lat="45.85597" lon="1.23722">
        <ele>309</ele>
        <time>2024-10-15T12:18:40Z</time>
      </trkpt>
      <trkpt lat="45.85605" lon="1.23719">
        <ele>309.5</ele>
        <time>2024-10-15T12:18:43Z</time>
      </trkpt>
      <trkpt lat="45.85614" lon="1.23716">
        <ele>309.9</ele>
        <time>2024-10-15T12:18:46Z</time>
      </trkpt>
      <trkpt lat="45.85622" lon="1.23711">
        <ele>310.4</ele>
        <time>2024-10-15T12:18:49Z</time>
      </trkpt>
      <trkpt lat="45.85631" lon="1.23709">
        <ele>310.8</ele>
        <time>2024-10-15T12:18:52Z</time>
      </trkpt>
      <trkpt lat="45.85641" lon="1.23702">
        <ele>311.2</ele>
        <time>2024-10-15T12:18:55Z</time>
      </trkpt>
      <trkpt lat="45.85651" lon="1.23696">
        <ele>311.6</ele>
        <time>2024-10-15T12:18:58Z</time>
      </trkpt>
      <trkpt lat="45.85661" lon="1.23689">
        <ele>311.9</ele>
        <time>2024-10-15T12:19:01Z</time>
      </trkpt>
      <trkpt lat="45.8567" lon="1.23682">
        <ele>312.3</ele>
        <time>2024-10-15T12:19:04Z</time>
      </trkpt>
      <trkpt lat="45.85679" lon="1.23676">
        <ele>312.7</ele>
        <time>2024-10-15T12:19:07Z</time>
      </trkpt>
      <trkpt lat="45.85686" lon="1.23673">
        <ele>313.1</ele>
        <time>2024-10-15T12:19:10Z</time>
      </trkpt>
      <trkpt lat="45.85695" lon="1.23667">
        <ele>313.7</ele>
        <time>2024-10-15T12:19:13Z</time>
      </trkpt>
      <trkpt lat="45.85702" lon="1.2366">
        <ele>314.3</ele>
        <time>2024-10-15T12:19:16Z</time>
      </trkpt>
      <trkpt lat="45.8571" lon="1.23654">
        <ele>314.9</ele>
        <time>2024-10-15T12:19:19Z</time>
      </trkpt>
      <trkpt lat="45.85718" lon="1.2365">
        <ele>315.6</ele>
        <time>2024-10-15T12:19:22Z</time>
      </trkpt>
      <trkpt lat="45.85725" lon="1.23646">
        <ele>316.2</ele>
        <time>2024-10-15T12:19:25Z</time>
      </trkpt>
      <trkpt lat="45.85731" lon="1.23644">
        <ele>316.7</ele>
        <time>2024-10-15T12:19:28Z</time>
      </trkpt>
      <trkpt lat="45.85739" lon="1.23641">
        <ele>317.1</ele>
        <time>2024-10-15T12:19:31Z</time>
      </trkpt>
      <trkpt lat="45.85746" lon="1.23638">
        <ele>317.4</ele>
        <time>2024-10-15T12:19:34Z</time>
      </trkpt>
      <trkpt lat="45.85754" lon="1.23635">
        <ele>317.7</ele>
        <time>2024-10-15T12:19:37Z</time>
      </trkpt>
      <trkpt lat="45.85761" lon="1.2363">
        <ele>318</ele>
        <time>2024-10-15T12:19:40Z</time>
      </trkpt>
      <trkpt lat="45.85769" lon="1.23625">
        <ele>318.4</ele>
        <time>2024-10-15T12:19:43Z</time>
      </trkpt>
      <trkpt lat="45.85776" lon="1.2362">
        <ele>318.9</ele>
        <time>2024-10-15T12:19:46Z</time>
      </trkpt>
      <trkpt lat="45.85784" lon="1.23614">
        <ele>319.4</ele>
        <time>2024-10-15T12:19:49Z</time>
      </trkpt>
      <trkpt lat="45.85793" lon="1.23609">
        <ele>319.9</ele>
        <time>2024-10-15T12:19:52Z</time>
      </trkpt>
      <trkpt lat="45.85801" lon="1.23603">
        <ele>320.4</ele>
        <time>2024-10-15T12:19:55Z</time>
      </trkpt>
      <trkpt lat="45.85809" lon="1.23597">
        <ele>320.9</ele>
        <time>2024-10-15T12:19:58Z</time>
      </trkpt>
      <trkpt lat="45.85816" lon="1.23591">
        <ele>321.4</ele>
        <time>2024-10-15T12:20:01Z</time>
      </trkpt>
      <trkpt lat="45.85824" lon="1.23587">
        <ele>321.9</ele>
        <time>2024-10-15T12:20:04Z</time>
      </trkpt>
      <trkpt lat="45.85833" lon="1.23583">
        <ele>322.4</ele>
        <time>2024-10-15T12:20:07Z</time>
      </trkpt>
      <trkpt lat="45.85841" lon="1.23577">
        <ele>323</ele>
        <time>2024-10-15T12:20:10Z</time>
      </trkpt>
      <trkpt lat="45.85849" lon="1.23572">
        <ele>323.6</ele>
        <time>2024-10-15T12:20:13Z</time>
      </trkpt>
      <trkpt lat="45.85858" lon="1.23565">
        <ele>324.1</ele>
        <time>2024-10-15T12:20:16Z</time>
      </trkpt>
      <trkpt lat="45.85866" lon="1.2356">
        <ele>324.6</ele>
        <time>2024-10-15T12:20:19Z</time>
      </trkpt>
      <trkpt lat="45.85875" lon="1.23554">
        <ele>325</ele>
        <time>2024-10-15T12:20:22Z</time>
      </trkpt>
      <trkpt lat="45.85884" lon="1.23551">
        <ele>325.4</ele>
        <time>2024-10-15T12:20:25Z</time>
      </trkpt>
      <trkpt lat="45.85895" lon="1.23552">
        <ele>325.6</ele>
        <time>2024-10-15T12:20:28Z</time>
      </trkpt>
      <trkpt lat="45.85906" lon="1.23556">
        <ele>325.8</ele>
        <time>2024-10-15T12:20:31Z</time>
      </trkpt>
      <trkpt lat="45.85916" lon="1.2356">
        <ele>325.9</ele>
        <time>2024-10-15T12:20:34Z</time>
      </trkpt>
      <trkpt lat="45.85925" lon="1.23564">
        <ele>325.9</ele>
        <time>2024-10-15T12:20:37Z</time>
      </trkpt>
      <trkpt lat="45.85927" lon="1.23569">
        <ele>326</ele>
        <time>2024-10-15T12:20:40Z</time>
      </trkpt>
      <trkpt lat="45.85928" lon="1.23574">
        <ele>326</ele>
        <time>2024-10-15T12:20:43Z</time>
      </trkpt>
      <trkpt lat="45.85931" lon="1.23578">
        <ele>326</ele>
        <time>2024-10-15T12:20:46Z</time>
      </trkpt>
      <trkpt lat="45.8594" lon="1.23579">
        <ele>326.4</ele>
        <time>2024-10-15T12:20:49Z</time>
      </trkpt>
      <trkpt lat="45.85951" lon="1.23578">
        <ele>326.6</ele>
        <time>2024-10-15T12:20:52Z</time>
      </trkpt>
      <trkpt lat="45.85961" lon="1.23583">
        <ele>326.7</ele>
        <time>2024-10-15T12:20:55Z</time>
      </trkpt>
      <trkpt lat="45.85973" lon="1.23588">
        <ele>326.9</ele>
        <time>2024-10-15T12:20:58Z</time>
      </trkpt>
      <trkpt lat="45.85984" lon="1.23595">
        <ele>327.2</ele>
        <time>2024-10-15T12:21:01Z</time>
      </trkpt>
      <trkpt lat="45.85996" lon="1.23601">
        <ele>327.5</ele>
        <time>2024-10-15T12:21:04Z</time>
      </trkpt>
      <trkpt lat="45.86007" lon="1.23606">
        <ele>327.8</ele>
        <time>2024-10-15T12:21:07Z</time>
      </trkpt>
      <trkpt lat="45.86019" lon="1.23612">
        <ele>328.2</ele>
        <time>2024-10-15T12:21:10Z</time>
      </trkpt>
      <trkpt lat="45.86031" lon="1.23617">
        <ele>328.5</ele>
        <time>2024-10-15T12:21:13Z</time>
      </trkpt>
      <trkpt lat="45.86043" lon="1.23623">
        <ele>328.8</ele>
        <time>2024-10-15T12:21:16Z</time>
      </trkpt>
      <trkpt lat="45.86055" lon="1.23629">
        <ele>329</ele>
        <time>2024-10-15T12:21:19Z</time>
      </trkpt>
      <trkpt lat="45.86067" lon="1.23635">
        <ele>329.2</ele>
        <time>2024-10-15T12:21:22Z</time>
      </trkpt>
      <trkpt lat="45.8608" lon="1.23641">
        <ele>329.5</ele>
        <time>2024-10-15T12:21:25Z</time>
      </trkpt>
      <trkpt lat="45.86092" lon="1.23647">
        <ele>329.8</ele>
        <time>2024-10-15T12:21:28Z</time>
      </trkpt>
      <trkpt lat="45.86104" lon="1.23653">
        <ele>330.1</ele>
        <time>2024-10-15T12:21:31Z</time>
      </trkpt>
      <trkpt lat="45.86115" lon="1.23659">
        <ele>330.4</ele>
        <time>2024-10-15T12:21:34Z</time>
      </trkpt>
      <trkpt lat="45.86126" lon="1.23664">
        <ele>330.8</ele>
        <time>2024-10-15T12:21:37Z</time>
      </trkpt>
      <trkpt lat="45.86135" lon="1.23669">
        <ele>331.3</ele>
        <time>2024-10-15T12:21:40Z</time>
      </trkpt>
      <trkpt lat="45.86146" lon="1.23673">
        <ele>331.9</ele>
        <time>2024-10-15T12:21:43Z</time>
      </trkpt>
      <trkpt lat="45.86156" lon="1.23678">
        <ele>332.5</ele>
        <time>2024-10-15T12:21:46Z</time>
      </trkpt>
      <trkpt lat="45.86165" lon="1.23683">
        <ele>333</ele>
        <time>2024-10-15T12:21:49Z</time>
      </trkpt>
      <trkpt lat="45.86175" lon="1.23688">
        <ele>333.5</ele>
        <time>2024-10-15T12:21:52Z</time>
      </trkpt>
      <trkpt lat="45.86185" lon="1.23693">
        <ele>333.9</ele>
        <time>2024-10-15T12:21:55Z</time>
      </trkpt>
      <trkpt lat="45.86195" lon="1.23699">
        <ele>334.2</ele>
        <time>2024-10-15T12:21:58Z</time>
      </trkpt>
      <trkpt lat="45.86206" lon="1.23704">
        <ele>334.5</ele>
        <time>2024-10-15T12:22:01Z</time>
      </trkpt>
      <trkpt lat="45.86217" lon="1.2371">
        <ele>334.8</ele>
        <time>2024-10-15T12:22:04Z</time>
      </trkpt>
      <trkpt lat="45.86229" lon="1.23716">
        <ele>334.9</ele>
        <time>2024-10-15T12:22:07Z</time>
      </trkpt>
      <trkpt lat="45.8624" lon="1.23722">
        <ele>335.1</ele>
        <time>2024-10-15T12:22:10Z</time>
      </trkpt>
      <trkpt lat="45.86252" lon="1.23728">
        <ele>335.1</ele>
        <time>2024-10-15T12:22:13Z</time>
      </trkpt>
      <trkpt lat="45.86264" lon="1.23735">
        <ele>335.1</ele>
        <time>2024-10-15T12:22:16Z</time>
      </trkpt>
      <trkpt lat="45.86278" lon="1.23741">
        <ele>335.1</ele>
        <time>2024-10-15T12:22:19Z</time>
      </trkpt>
      <trkpt lat="45.86291" lon="1.23748">
        <ele>335.1</ele>
        <time>2024-10-15T12:22:22Z</time>
      </trkpt>
      <trkpt lat="45.86303" lon="1.23754">
        <ele>335.1</ele>
        <time>2024-10-15T12:22:25Z</time>
      </trkpt>
      <trkpt lat="45.86316" lon="1.23761">
        <ele>335.2</ele>
        <time>2024-10-15T12:22:28Z</time>
      </trkpt>
      <trkpt lat="45.86329" lon="1.23768">
        <ele>335.2</ele>
        <time>2024-10-15T12:22:31Z</time>
      </trkpt>
      <trkpt lat="45.86342" lon="1.2377">
        <ele>335.2</ele>
        <time>2024-10-15T12:22:34Z</time>
      </trkpt>
      <trkpt lat="45.86354" lon="1.23768">
        <ele>334.9</ele>
        <time>2024-10-15T12:22:37Z</time>
      </trkpt>
      <trkpt lat="45.86362" lon="1.23767">
        <ele>334.6</ele>
        <time>2024-10-15T12:22:40Z</time>
      </trkpt>
      <trkpt lat="45.86368" lon="1.23768">
        <ele>334.5</ele>
        <time>2024-10-15T12:22:43Z</time>
      </trkpt>
      <trkpt lat="45.86381" lon="1.23764">
        <ele>334.2</ele>
        <time>2024-10-15T12:22:46Z</time>
      </trkpt>
      <trkpt lat="45.86395" lon="1.23755">
        <ele>333.8</ele>
        <time>2024-10-15T12:22:49Z</time>
      </trkpt>
      <trkpt lat="45.86409" lon="1.23742">
        <ele>333.5</ele>
        <time>2024-10-15T12:22:52Z</time>
      </trkpt>
      <trkpt lat="45.86421" lon="1.23727">
        <ele>333.3</ele>
        <time>2024-10-15T12:22:55Z</time>
      </trkpt>
      <trkpt lat="45.86435" lon="1.23712">
        <ele>333.3</ele>
        <time>2024-10-15T12:22:58Z</time>
      </trkpt>
      <trkpt lat="45.86449" lon="1.23699">
        <ele>333.3</ele>
        <time>2024-10-15T12:23:01Z</time>
      </trkpt>
      <trkpt lat="45.86462" lon="1.23682">
        <ele>333.4</ele>
        <time>2024-10-15T12:23:04Z</time>
      </trkpt>
      <trkpt lat="45.86476" lon="1.23669">
        <ele>333.6</ele>
        <time>2024-10-15T12:23:07Z</time>
      </trkpt>
      <trkpt lat="45.8649" lon="1.23653">
        <ele>333.9</ele>
        <time>2024-10-15T12:23:10Z</time>
      </trkpt>
      <trkpt lat="45.86503" lon="1.2364">
        <ele>334.3</ele>
        <time>2024-10-15T12:23:13Z</time>
      </trkpt>
      <trkpt lat="45.86515" lon="1.23626">
        <ele>334.8</ele>
        <time>2024-10-15T12:23:16Z</time>
      </trkpt>
      <trkpt lat="45.86526" lon="1.23614">
        <ele>335.4</ele>
        <time>2024-10-15T12:23:19Z</time>
      </trkpt>
      <trkpt lat="45.86537" lon="1.23603">
        <ele>336.1</ele>
        <time>2024-10-15T12:23:22Z</time>
      </trkpt>
      <trkpt lat="45.86547" lon="1.23593">
        <ele>336.8</ele>
        <time>2024-10-15T12:23:25Z</time>
      </trkpt>
      <trkpt lat="45.86557" lon="1.23581">
        <ele>337.3</ele>
        <time>2024-10-15T12:23:28Z</time>
      </trkpt>
      <trkpt lat="45.86567" lon="1.23567">
        <ele>337.2</ele>
        <time>2024-10-15T12:23:31Z</time>
      </trkpt>
      <trkpt lat="45.8658" lon="1.23552">
        <ele>336.6</ele>
        <time>2024-10-15T12:23:34Z</time>
      </trkpt>
      <trkpt lat="45.86595" lon="1.23536">
        <ele>335.9</ele>
        <time>2024-10-15T12:23:37Z</time>
      </trkpt>
      <trkpt lat="45.8661" lon="1.23518">
        <ele>335.2</ele>
        <time>2024-10-15T12:23:40Z</time>
      </trkpt>
      <trkpt lat="45.86624" lon="1.235">
        <ele>334.6</ele>
        <time>2024-10-15T12:23:43Z</time>
      </trkpt>
      <trkpt lat="45.86636" lon="1.23481">
        <ele>334.1</ele>
        <time>2024-10-15T12:23:46Z</time>
      </trkpt>
      <trkpt lat="45.8665" lon="1.23458">
        <ele>333.6</ele>
        <time>2024-10-15T12:23:49Z</time>
      </trkpt>
      <trkpt lat="45.86661" lon="1.23437">
        <ele>333.4</ele>
        <time>2024-10-15T12:23:52Z</time>
      </trkpt>
      <trkpt lat="45.86672" lon="1.23418">
        <ele>333.2</ele>
        <time>2024-10-15T12:23:55Z</time>
      </trkpt>
      <trkpt lat="45.86683" lon="1.23401">
        <ele>333.2</ele>
        <time>2024-10-15T12:23:58Z</time>
      </trkpt>
      <trkpt lat="45.86695" lon="1.23385">
        <ele>333.2</ele>
        <time>2024-10-15T12:24:01Z</time>
      </trkpt>
      <trkpt lat="45.86704" lon="1.23367">
        <ele>333.3</ele>
        <time>2024-10-15T12:24:04Z</time>
      </trkpt>
      <trkpt lat="45.86715" lon="1.2335">
        <ele>333.7</ele>
        <time>2024-10-15T12:24:07Z</time>
      </trkpt>
      <trkpt lat="45.86724" lon="1.23333">
        <ele>334.3</ele>
        <time>2024-10-15T12:24:10Z</time>
      </trkpt>
      <trkpt lat="45.86734" lon="1.23317">
        <ele>334.9</ele>
        <time>2024-10-15T12:24:13Z</time>
      </trkpt>
      <trkpt lat="45.86743" lon="1.23303">
        <ele>335.6</ele>
        <time>2024-10-15T12:24:16Z</time>
      </trkpt>
      <trkpt lat="45.86751" lon="1.23286">
        <ele>336.3</ele>
        <time>2024-10-15T12:24:19Z</time>
      </trkpt>
      <trkpt lat="45.86757" lon="1.23269">
        <ele>337</ele>
        <time>2024-10-15T12:24:22Z</time>
      </trkpt>
      <trkpt lat="45.86761" lon="1.2325">
        <ele>337.6</ele>
        <time>2024-10-15T12:24:25Z</time>
      </trkpt>
      <trkpt lat="45.86764" lon="1.2323">
        <ele>338.3</ele>
        <time>2024-10-15T12:24:28Z</time>
      </trkpt>
      <trkpt lat="45.86767" lon="1.23211">
        <ele>339</ele>
        <time>2024-10-15T12:24:31Z</time>
      </trkpt>
      <trkpt lat="45.86768" lon="1.23192">
        <ele>339.7</ele>
        <time>2024-10-15T12:24:34Z</time>
      </trkpt>
      <trkpt lat="45.86771" lon="1.23176">
        <ele>339.8</ele>
        <time>2024-10-15T12:24:37Z</time>
      </trkpt>
      <trkpt lat="45.86773" lon="1.23159">
        <ele>340.2</ele>
        <time>2024-10-15T12:24:40Z</time>
      </trkpt>
      <trkpt lat="45.86776" lon="1.23142">
        <ele>340.6</ele>
        <time>2024-10-15T12:24:43Z</time>
      </trkpt>
      <trkpt lat="45.86778" lon="1.23125">
        <ele>341.1</ele>
        <time>2024-10-15T12:24:46Z</time>
      </trkpt>
      <trkpt lat="45.86781" lon="1.23109">
        <ele>341.6</ele>
        <time>2024-10-15T12:24:49Z</time>
      </trkpt>
      <trkpt lat="45.86782" lon="1.23093">
        <ele>342.2</ele>
        <time>2024-10-15T12:24:52Z</time>
      </trkpt>
      <trkpt lat="45.86784" lon="1.23077">
        <ele>342.8</ele>
        <time>2024-10-15T12:24:55Z</time>
      </trkpt>
      <trkpt lat="45.86787" lon="1.23061">
        <ele>343.4</ele>
        <time>2024-10-15T12:24:58Z</time>
      </trkpt>
      <trkpt lat="45.8679" lon="1.23048">
        <ele>343.9</ele>
        <time>2024-10-15T12:25:01Z</time>
      </trkpt>
      <trkpt lat="45.86795" lon="1.23034">
        <ele>344.3</ele>
        <time>2024-10-15T12:25:04Z</time>
      </trkpt>
      <trkpt lat="45.86803" lon="1.2302">
        <ele>344.6</ele>
        <time>2024-10-15T12:25:07Z</time>
      </trkpt>
      <trkpt lat="45.86813" lon="1.23006">
        <ele>344.8</ele>
        <time>2024-10-15T12:25:10Z</time>
      </trkpt>
      <trkpt lat="45.86823" lon="1.22992">
        <ele>344.9</ele>
        <time>2024-10-15T12:25:13Z</time>
      </trkpt>
      <trkpt lat="45.86835" lon="1.2298">
        <ele>344.9</ele>
        <time>2024-10-15T12:25:16Z</time>
      </trkpt>
      <trkpt lat="45.86845" lon="1.22972">
        <ele>344.9</ele>
        <time>2024-10-15T12:25:19Z</time>
      </trkpt>
      <trkpt lat="45.86855" lon="1.22967">
        <ele>344.9</ele>
        <time>2024-10-15T12:25:22Z</time>
      </trkpt>
      <trkpt lat="45.86866" lon="1.22963">
        <ele>344.8</ele>
        <time>2024-10-15T12:25:25Z</time>
      </trkpt>
      <trkpt lat="45.86881" lon="1.22961">
        <ele>344.5</ele>
        <time>2024-10-15T12:25:28Z</time>
      </trkpt>
      <trkpt lat="45.86897" lon="1.22967">
        <ele>344.1</ele>
        <time>2024-10-15T12:25:31Z</time>
      </trkpt>
      <trkpt lat="45.86908" lon="1.22983">
        <ele>343.6</ele>
        <time>2024-10-15T12:25:34Z</time>
      </trkpt>
      <trkpt lat="45.86916" lon="1.23002">
        <ele>343.1</ele>
        <time>2024-10-15T12:25:37Z</time>
      </trkpt>
      <trkpt lat="45.8692" lon="1.23016">
        <ele>342.9</ele>
        <time>2024-10-15T12:25:40Z</time>
      </trkpt>
      <trkpt lat="45.86916" lon="1.23025">
        <ele>342.8</ele>
        <time>2024-10-15T12:25:43Z</time>
      </trkpt>
      <trkpt lat="45.86917" lon="1.23037">
        <ele>342.6</ele>
        <time>2024-10-15T12:25:46Z</time>
      </trkpt>
      <trkpt lat="45.86928" lon="1.23045">
        <ele>342.5</ele>
        <time>2024-10-15T12:25:49Z</time>
      </trkpt>
      <trkpt lat="45.86941" lon="1.23047">
        <ele>342.4</ele>
        <time>2024-10-15T12:25:52Z</time>
      </trkpt>
      <trkpt lat="45.86955" lon="1.23054">
        <ele>342.2</ele>
        <time>2024-10-15T12:25:55Z</time>
      </trkpt>
      <trkpt lat="45.8697" lon="1.23059">
        <ele>342</ele>
        <time>2024-10-15T12:25:58Z</time>
      </trkpt>
      <trkpt lat="45.86985" lon="1.23061">
        <ele>341.9</ele>
        <time>2024-10-15T12:26:01Z</time>
      </trkpt>
      <trkpt lat="45.86998" lon="1.23056">
        <ele>341.7</ele>
        <time>2024-10-15T12:26:04Z</time>
      </trkpt>
      <trkpt lat="45.87011" lon="1.23047">
        <ele>341.7</ele>
        <time>2024-10-15T12:26:07Z</time>
      </trkpt>
      <trkpt lat="45.87023" lon="1.23041">
        <ele>341.7</ele>
        <time>2024-10-15T12:26:10Z</time>
      </trkpt>
      <trkpt lat="45.87033" lon="1.23036">
        <ele>341.7</ele>
        <time>2024-10-15T12:26:13Z</time>
      </trkpt>
      <trkpt lat="45.87039" lon="1.23041">
        <ele>341.8</ele>
        <time>2024-10-15T12:26:16Z</time>
      </trkpt>
      <trkpt lat="45.87044" lon="1.23048">
        <ele>341.8</ele>
        <time>2024-10-15T12:26:19Z</time>
      </trkpt>
      <trkpt lat="45.87049" lon="1.23045">
        <ele>341.8</ele>
        <time>2024-10-15T12:26:22Z</time>
      </trkpt>
      <trkpt lat="45.8705" lon="1.2304">
        <ele>341.8</ele>
        <time>2024-10-15T12:26:25Z</time>
      </trkpt>
      <trkpt lat="45.87049" lon="1.23039">
        <ele>341.8</ele>
        <time>2024-10-15T12:26:28Z</time>
      </trkpt>
      <trkpt lat="45.87048" lon="1.23039">
        <ele>341.8</ele>
        <time>2024-10-15T12:26:31Z</time>
      </trkpt>
      <trkpt lat="45.87048" lon="1.23039">
        <ele>341.8</ele>
        <time>2024-10-15T12:26:34Z</time>
      </trkpt>
      <trkpt lat="45.87048" lon="1.23038">
        <ele>341.8</ele>
        <time>2024-10-15T12:26:37Z</time>
      </trkpt>
      <trkpt lat="45.87048" lon="1.23038">
        <ele>341.8</ele>
        <time>2024-10-15T12:26:40Z</time>
      </trkpt>
      <trkpt lat="45.87049" lon="1.23038">
        <ele>341.8</ele>
        <time>2024-10-15T12:26:43Z</time>
      </trkpt>
      <trkpt lat="45.87049" lon="1.23038">
        <ele>341.8</ele>
        <time>2024-10-15T12:26:46Z</time>
      </trkpt>
      <trkpt lat="45.87049" lon="1.23037">
        <ele>341.8</ele>
        <time>2024-10-15T12:26:49Z</time>
      </trkpt>
      <trkpt lat="45.87048" lon="1.23038">
        <ele>341.8</ele>
        <time>2024-10-15T12:26:50Z</time>
      </trkpt>
      <trkpt lat="45.87047" lon="1.23038">
        <ele>341.8</ele>
        <time>2024-10-15T12:35:22Z</time>
      </trkpt>
      <trkpt lat="45.87047" lon="1.23038">
        <ele>341.8</ele>
        <time>2024-10-15T12:35:25Z</time>
      </trkpt>
      <trkpt lat="45.87044" lon="1.23041">
        <ele>341.8</ele>
        <time>2024-10-15T12:35:28Z</time>
      </trkpt>
      <trkpt lat="45.87043" lon="1.23043">
        <ele>341.8</ele>
        <time>2024-10-15T12:35:31Z</time>
      </trkpt>
      <trkpt lat="45.87042" lon="1.23045">
        <ele>341.8</ele>
        <time>2024-10-15T12:35:34Z</time>
      </trkpt>
      <trkpt lat="45.87042" lon="1.23045">
        <ele>341.8</ele>
        <time>2024-10-15T12:35:37Z</time>
      </trkpt>
      <trkpt lat="45.87042" lon="1.23045">
        <ele>341.8</ele>
        <time>2024-10-15T12:35:40Z</time>
      </trkpt>
      <trkpt lat="45.87042" lon="1.23045">
        <ele>341.8</ele>
        <time>2024-10-15T12:35:43Z</time>
      </trkpt>
      <trkpt lat="45.87042" lon="1.23045">
        <ele>341.8</ele>
        <time>2024-10-15T12:35:46Z</time>
      </trkpt>
      <trkpt lat="45.87042" lon="1.23046">
        <ele>341.8</ele>
        <time>2024-10-15T12:35:49Z</time>
      </trkpt>
      <trkpt lat="45.87042" lon="1.23045">
        <ele>341.8</ele>
        <time>2024-10-15T12:35:52Z</time>
      </trkpt>
      <trkpt lat="45.87042" lon="1.23045">
        <ele>341.8</ele>
        <time>2024-10-15T12:35:55Z</time>
      </trkpt>
      <trkpt lat="45.87042" lon="1.23045">
        <ele>341.8</ele>
        <time>2024-10-15T12:35:58Z</time>
      </trkpt>
      <trkpt lat="45.87042" lon="1.23045">
        <ele>341.8</ele>
        <time>2024-10-15T12:36:01Z</time>
      </trkpt>
      <trkpt lat="45.87041" lon="1.23044">
        <ele>341.8</ele>
        <time>2024-10-15T12:36:04Z</time>
      </trkpt>
      <trkpt lat="45.8704" lon="1.23044">
        <ele>341.8</ele>
        <time>2024-10-15T12:36:07Z</time>
      </trkpt>
      <trkpt lat="45.87041" lon="1.23044">
        <ele>341.8</ele>
        <time>2024-10-15T12:36:10Z</time>
      </trkpt>
      <trkpt lat="45.87041" lon="1.23044">
        <ele>341.8</ele>
        <time>2024-10-15T12:36:13Z</time>
      </trkpt>
      <trkpt lat="45.87041" lon="1.23043">
        <ele>341.8</ele>
        <time>2024-10-15T12:36:16Z</time>
      </trkpt>
      <trkpt lat="45.87042" lon="1.23043">
        <ele>341.8</ele>
        <time>2024-10-15T12:36:19Z</time>
      </trkpt>
      <trkpt lat="45.87042" lon="1.23043">
        <ele>341.8</ele>
        <time>2024-10-15T12:36:22Z</time>
      </trkpt>
      <trkpt lat="45.87042" lon="1.23042">
        <ele>341.8</ele>
        <time>2024-10-15T12:36:25Z</time>
      </trkpt>
      <trkpt lat="45.87042" lon="1.23042">
        <ele>341.8</ele>
        <time>2024-10-15T12:36:28Z</time>
      </trkpt>
      <trkpt lat="45.87043" lon="1.23041">
        <ele>341.8</ele>
        <time>2024-10-15T12:36:31Z</time>
      </trkpt>
      <trkpt lat="45.87043" lon="1.23041">
        <ele>341.8</ele>
        <time>2024-10-15T12:36:34Z</time>
      </trkpt>
      <trkpt lat="45.87042" lon="1.23039">
        <ele>341.8</ele>
        <time>2024-10-15T12:36:37Z</time>
      </trkpt>
      <trkpt lat="45.87042" lon="1.23039">
        <ele>341.8</ele>
        <time>2024-10-15T12:36:40Z</time>
      </trkpt>
      <trkpt lat="45.87042" lon="1.23039">
        <ele>341.8</ele>
        <time>2024-10-15T12:36:43Z</time>
      </trkpt>
      <trkpt lat="45.87042" lon="1.23039">
        <ele>341.8</ele>
        <time>2024-10-15T12:36:46Z</time>
      </trkpt>
      <trkpt lat="45.87043" lon="1.23039">
        <ele>341.8</ele>
        <time>2024-10-15T12:36:49Z</time>
      </trkpt>
      <trkpt lat="45.87044" lon="1.23038">
        <ele>341.8</ele>
        <time>2024-10-15T12:36:52Z</time>
      </trkpt>
      <trkpt lat="45.87043" lon="1.23038">
        <ele>341.8</ele>
        <time>2024-10-15T12:36:55Z</time>
      </trkpt>
      <trkpt lat="45.87044" lon="1.23038">
        <ele>341.8</ele>
        <time>2024-10-15T12:36:58Z</time>
      </trkpt>
      <trkpt lat="45.87044" lon="1.23037">
        <ele>341.8</ele>
        <time>2024-10-15T12:37:01Z</time>
      </trkpt>
      <trkpt lat="45.87045" lon="1.23037">
        <ele>341.8</ele>
        <time>2024-10-15T12:37:04Z</time>
      </trkpt>
      <trkpt lat="45.87046" lon="1.23037">
        <ele>341.8</ele>
        <time>2024-10-15T12:37:07Z</time>
      </trkpt>
      <trkpt lat="45.87046" lon="1.23037">
        <ele>341.8</ele>
        <time>2024-10-15T12:37:10Z</time>
      </trkpt>
      <trkpt lat="45.87045" lon="1.23038">
        <ele>341.8</ele>
        <time>2024-10-15T12:37:13Z</time>
      </trkpt>
      <trkpt lat="45.87045" lon="1.23039">
        <ele>341.8</ele>
        <time>2024-10-15T12:37:16Z</time>
      </trkpt>
      <trkpt lat="45.87045" lon="1.2304">
        <ele>341.8</ele>
        <time>2024-10-15T12:37:19Z</time>
      </trkpt>
      <trkpt lat="45.87046" lon="1.23041">
        <ele>341.8</ele>
        <time>2024-10-15T12:37:22Z</time>
      </trkpt>
      <trkpt lat="45.87046" lon="1.2304">
        <ele>341.8</ele>
        <time>2024-10-15T12:37:25Z</time>
      </trkpt>
      <trkpt lat="45.87047" lon="1.23041">
        <ele>341.8</ele>
        <time>2024-10-15T12:37:28Z</time>
      </trkpt>
      <trkpt lat="45.87047" lon="1.23041">
        <ele>341.8</ele>
        <time>2024-10-15T12:37:31Z</time>
      </trkpt>
      <trkpt lat="45.87045" lon="1.23039">
        <ele>341.8</ele>
        <time>2024-10-15T12:37:34Z</time>
      </trkpt>
      <trkpt lat="45.87045" lon="1.23038">
        <ele>341.8</ele>
        <time>2024-10-15T12:37:37Z</time>
      </trkpt>
      <trkpt lat="45.87045" lon="1.23038">
        <ele>341.8</ele>
        <time>2024-10-15T12:37:40Z</time>
      </trkpt>
      <trkpt lat="45.87045" lon="1.23038">
        <ele>341.8</ele>
        <time>2024-10-15T12:37:43Z</time>
      </trkpt>
      <trkpt lat="45.87045" lon="1.23038">
        <ele>341.8</ele>
        <time>2024-10-15T12:37:46Z</time>
      </trkpt>
      <trkpt lat="45.87045" lon="1.23038">
        <ele>341.8</ele>
        <time>2024-10-15T12:37:49Z</time>
      </trkpt>
      <trkpt lat="45.87045" lon="1.23038">
        <ele>341.8</ele>
        <time>2024-10-15T12:37:52Z</time>
      </trkpt>
      <trkpt lat="45.87045" lon="1.23038">
        <ele>341.8</ele>
        <time>2024-10-15T12:37:55Z</time>
      </trkpt>
      <trkpt lat="45.87045" lon="1.23038">
        <ele>341.8</ele>
        <time>2024-10-15T12:37:58Z</time>
      </trkpt>
      <trkpt lat="45.87045" lon="1.23038">
        <ele>341.8</ele>
        <time>2024-10-15T12:38:01Z</time>
      </trkpt>
      <trkpt lat="45.87045" lon="1.23038">
        <ele>341.8</ele>
        <time>2024-10-15T12:38:04Z</time>
      </trkpt>
      <trkpt lat="45.87045" lon="1.23038">
        <ele>341.8</ele>
        <time>2024-10-15T12:38:07Z</time>
      </trkpt>
      <trkpt lat="45.87045" lon="1.23037">
        <ele>341.8</ele>
        <time>2024-10-15T12:38:10Z</time>
      </trkpt>
      <trkpt lat="45.87045" lon="1.23037">
        <ele>341.8</ele>
        <time>2024-10-15T12:38:13Z</time>
      </trkpt>
      <trkpt lat="45.87045" lon="1.23037">
        <ele>341.8</ele>
        <time>2024-10-15T12:38:16Z</time>
      </trkpt>
      <trkpt lat="45.87045" lon="1.23037">
        <ele>341.8</ele>
        <time>2024-10-15T12:38:19Z</time>
      </trkpt>
      <trkpt lat="45.87046" lon="1.23037">
        <ele>341.8</ele>
        <time>2024-10-15T12:38:22Z</time>
      </trkpt>
      <trkpt lat="45.87046" lon="1.23036">
        <ele>341.8</ele>
        <time>2024-10-15T12:38:25Z</time>
      </trkpt>
      <trkpt lat="45.87047" lon="1.23036">
        <ele>341.8</ele>
        <time>2024-10-15T12:38:28Z</time>
      </trkpt>
      <trkpt lat="45.87047" lon="1.23037">
        <ele>341.8</ele>
        <time>2024-10-15T12:38:31Z</time>
      </trkpt>
      <trkpt lat="45.87047" lon="1.23037">
        <ele>341.8</ele>
        <time>2024-10-15T12:38:34Z</time>
      </trkpt>
      <trkpt lat="45.87047" lon="1.23038">
        <ele>341.8</ele>
        <time>2024-10-15T12:38:37Z</time>
      </trkpt>
      <trkpt lat="45.87047" lon="1.23038">
        <ele>341.8</ele>
        <time>2024-10-15T12:38:40Z</time>
      </trkpt>
      <trkpt lat="45.87044" lon="1.23039">
        <ele>341.8</ele>
        <time>2024-10-15T12:38:43Z</time>
      </trkpt>
      <trkpt lat="45.87043" lon="1.23042">
        <ele>341.8</ele>
        <time>2024-10-15T12:38:46Z</time>
      </trkpt>
      <trkpt lat="45.87044" lon="1.23042">
        <ele>341.8</ele>
        <time>2024-10-15T12:38:49Z</time>
      </trkpt>
      <trkpt lat="45.87044" lon="1.23042">
        <ele>341.8</ele>
        <time>2024-10-15T12:38:52Z</time>
      </trkpt>
      <trkpt lat="45.87044" lon="1.23041">
        <ele>341.8</ele>
        <time>2024-10-15T12:38:55Z</time>
      </trkpt>
      <trkpt lat="45.87044" lon="1.23042">
        <ele>341.8</ele>
        <time>2024-10-15T12:38:58Z</time>
      </trkpt>
      <trkpt lat="45.87044" lon="1.23041">
        <ele>341.8</ele>
        <time>2024-10-15T12:39:01Z</time>
      </trkpt>
      <trkpt lat="45.87045" lon="1.23041">
        <ele>341.8</ele>
        <time>2024-10-15T12:39:04Z</time>
      </trkpt>
      <trkpt lat="45.87045" lon="1.23042">
        <ele>341.8</ele>
        <time>2024-10-15T12:39:07Z</time>
      </trkpt>
      <trkpt lat="45.87045" lon="1.23042">
        <ele>341.8</ele>
        <time>2024-10-15T12:39:10Z</time>
      </trkpt>
      <trkpt lat="45.87045" lon="1.23042">
        <ele>341.8</ele>
        <time>2024-10-15T12:39:13Z</time>
      </trkpt>
      <trkpt lat="45.87045" lon="1.23043">
        <ele>341.8</ele>
        <time>2024-10-15T12:39:16Z</time>
      </trkpt>
      <trkpt lat="45.87045" lon="1.23043">
        <ele>341.8</ele>
        <time>2024-10-15T12:39:19Z</time>
      </trkpt>
      <trkpt lat="45.87045" lon="1.23043">
        <ele>341.8</ele>
        <time>2024-10-15T12:39:22Z</time>
      </trkpt>
      <trkpt lat="45.87045" lon="1.23043">
        <ele>341.8</ele>
        <time>2024-10-15T12:39:25Z</time>
      </trkpt>
      <trkpt lat="45.87045" lon="1.23043">
        <ele>341.8</ele>
        <time>2024-10-15T12:39:28Z</time>
      </trkpt>
      <trkpt lat="45.87045" lon="1.23043">
        <ele>341.8</ele>
        <time>2024-10-15T12:39:31Z</time>
      </trkpt>
      <trkpt lat="45.87044" lon="1.23043">
        <ele>341.8</ele>
        <time>2024-10-15T12:39:34Z</time>
      </trkpt>
      <trkpt lat="45.87044" lon="1.23042">
        <ele>341.8</ele>
        <time>2024-10-15T12:39:37Z</time>
      </trkpt>
      <trkpt lat="45.87045" lon="1.23042">
        <ele>341.8</ele>
        <time>2024-10-15T12:39:40Z</time>
      </trkpt>
      <trkpt lat="45.87045" lon="1.23041">
        <ele>341.8</ele>
        <time>2024-10-15T12:39:43Z</time>
      </trkpt>
      <trkpt lat="45.87045" lon="1.23041">
        <ele>341.8</ele>
        <time>2024-10-15T12:39:46Z</time>
      </trkpt>
      <trkpt lat="45.87045" lon="1.2304">
        <ele>341.8</ele>
        <time>2024-10-15T12:39:49Z</time>
      </trkpt>
      <trkpt lat="45.87045" lon="1.2304">
        <ele>341.8</ele>
        <time>2024-10-15T12:39:52Z</time>
      </trkpt>
      <trkpt lat="45.87045" lon="1.2304">
        <ele>341.7</ele>
        <time>2024-10-15T12:39:55Z</time>
      </trkpt>
      <trkpt lat="45.87046" lon="1.23039">
        <ele>341.7</ele>
        <time>2024-10-15T12:39:58Z</time>
      </trkpt>
      <trkpt lat="45.87045" lon="1.23038">
        <ele>341.7</ele>
        <time>2024-10-15T12:40:01Z</time>
      </trkpt>
      <trkpt lat="45.87045" lon="1.23038">
        <ele>341.7</ele>
        <time>2024-10-15T12:40:04Z</time>
      </trkpt>
      <trkpt lat="45.87045" lon="1.23037">
        <ele>341.7</ele>
        <time>2024-10-15T12:40:07Z</time>
      </trkpt>
      <trkpt lat="45.87046" lon="1.23037">
        <ele>341.7</ele>
        <time>2024-10-15T12:40:10Z</time>
      </trkpt>
      <trkpt lat="45.87046" lon="1.23037">
        <ele>341.7</ele>
        <time>2024-10-15T12:40:13Z</time>
      </trkpt>
      <trkpt lat="45.87046" lon="1.23037">
        <ele>341.7</ele>
        <time>2024-10-15T12:40:16Z</time>
      </trkpt>
      <trkpt lat="45.87045" lon="1.23037">
        <ele>341.7</ele>
        <time>2024-10-15T12:40:19Z</time>
      </trkpt>
      <trkpt lat="45.87045" lon="1.23037">
        <ele>341.7</ele>
        <time>2024-10-15T12:40:22Z</time>
      </trkpt>
      <trkpt lat="45.87045" lon="1.23037">
        <ele>341.7</ele>
        <time>2024-10-15T12:40:25Z</time>
      </trkpt>
      <trkpt lat="45.87045" lon="1.23036">
        <ele>341.7</ele>
        <time>2024-10-15T12:40:28Z</time>
      </trkpt>
      <trkpt lat="45.87045" lon="1.23036">
        <ele>341.7</ele>
        <time>2024-10-15T12:40:31Z</time>
      </trkpt>
      <trkpt lat="45.87044" lon="1.23036">
        <ele>341.7</ele>
        <time>2024-10-15T12:40:34Z</time>
      </trkpt>
      <trkpt lat="45.87044" lon="1.23036">
        <ele>341.7</ele>
        <time>2024-10-15T12:40:37Z</time>
      </trkpt>
      <trkpt lat="45.87044" lon="1.23036">
        <ele>341.7</ele>
        <time>2024-10-15T12:40:40Z</time>
      </trkpt>
      <trkpt lat="45.87045" lon="1.23036">
        <ele>341.7</ele>
        <time>2024-10-15T12:40:43Z</time>
      </trkpt>
      <trkpt lat="45.87045" lon="1.23037">
        <ele>341.7</ele>
        <time>2024-10-15T12:40:46Z</time>
      </trkpt>
      <trkpt lat="45.87045" lon="1.23037">
        <ele>341.7</ele>
        <time>2024-10-15T12:40:49Z</time>
      </trkpt>
      <trkpt lat="45.87045" lon="1.23036">
        <ele>341.7</ele>
        <time>2024-10-15T12:40:52Z</time>
      </trkpt>
      <trkpt lat="45.87045" lon="1.23036">
        <ele>341.7</ele>
        <time>2024-10-15T12:40:55Z</time>
      </trkpt>
      <trkpt lat="45.87045" lon="1.23036">
        <ele>341.7</ele>
        <time>2024-10-15T12:40:58Z</time>
      </trkpt>
      <trkpt lat="45.87044" lon="1.23037">
        <ele>341.7</ele>
        <time>2024-10-15T12:41:01Z</time>
      </trkpt>
      <trkpt lat="45.87044" lon="1.23037">
        <ele>341.7</ele>
        <time>2024-10-15T12:41:04Z</time>
      </trkpt>
      <trkpt lat="45.87044" lon="1.23038">
        <ele>341.7</ele>
        <time>2024-10-15T12:41:07Z</time>
      </trkpt>
      <trkpt lat="45.87044" lon="1.23038">
        <ele>341.7</ele>
        <time>2024-10-15T12:41:10Z</time>
      </trkpt>
      <trkpt lat="45.87043" lon="1.23039">
        <ele>341.7</ele>
        <time>2024-10-15T12:41:13Z</time>
      </trkpt>
      <trkpt lat="45.87044" lon="1.2304">
        <ele>341.7</ele>
        <time>2024-10-15T12:41:16Z</time>
      </trkpt>
      <trkpt lat="45.87044" lon="1.23039">
        <ele>341.7</ele>
        <time>2024-10-15T12:41:19Z</time>
      </trkpt>
      <trkpt lat="45.87045" lon="1.23041">
        <ele>341.7</ele>
        <time>2024-10-15T12:41:22Z</time>
      </trkpt>
      <trkpt lat="45.87043" lon="1.23047">
        <ele>341.7</ele>
        <time>2024-10-15T12:41:25Z</time>
      </trkpt>
      <trkpt lat="45.87038" lon="1.23048">
        <ele>341.7</ele>
        <time>2024-10-15T12:41:28Z</time>
      </trkpt>
      <trkpt lat="45.87033" lon="1.23041">
        <ele>341.7</ele>
        <time>2024-10-15T12:41:31Z</time>
      </trkpt>
      <trkpt lat="45.87026" lon="1.23037">
        <ele>341.7</ele>
        <time>2024-10-15T12:41:34Z</time>
      </trkpt>
      <trkpt lat="45.87017" lon="1.23043">
        <ele>341.7</ele>
        <time>2024-10-15T12:41:37Z</time>
      </trkpt>
      <trkpt lat="45.87008" lon="1.2305">
        <ele>341.8</ele>
        <time>2024-10-15T12:41:40Z</time>
      </trkpt>
      <trkpt lat="45.87" lon="1.23056">
        <ele>341.8</ele>
        <time>2024-10-15T12:41:43Z</time>
      </trkpt>
      <trkpt lat="45.86992" lon="1.23061">
        <ele>341.9</ele>
        <time>2024-10-15T12:41:46Z</time>
      </trkpt>
      <trkpt lat="45.86982" lon="1.23062">
        <ele>342</ele>
        <time>2024-10-15T12:41:49Z</time>
      </trkpt>
      <trkpt lat="45.86973" lon="1.23061">
        <ele>342.1</ele>
        <time>2024-10-15T12:41:52Z</time>
      </trkpt>
      <trkpt lat="45.86963" lon="1.23059">
        <ele>342.2</ele>
        <time>2024-10-15T12:41:55Z</time>
      </trkpt>
      <trkpt lat="45.86955" lon="1.23056">
        <ele>342.3</ele>
        <time>2024-10-15T12:41:58Z</time>
      </trkpt>
      <trkpt lat="45.86946" lon="1.23052">
        <ele>342.4</ele>
        <time>2024-10-15T12:42:01Z</time>
      </trkpt>
      <trkpt lat="45.86938" lon="1.23049">
        <ele>342.4</ele>
        <time>2024-10-15T12:42:04Z</time>
      </trkpt>
      <trkpt lat="45.86931" lon="1.23047">
        <ele>342.5</ele>
        <time>2024-10-15T12:42:07Z</time>
      </trkpt>
      <trkpt lat="45.86924" lon="1.23045">
        <ele>342.6</ele>
        <time>2024-10-15T12:42:10Z</time>
      </trkpt>
      <trkpt lat="45.86917" lon="1.23041">
        <ele>342.6</ele>
        <time>2024-10-15T12:42:13Z</time>
      </trkpt>
      <trkpt lat="45.86915" lon="1.23031">
        <ele>342.7</ele>
        <time>2024-10-15T12:42:16Z</time>
      </trkpt>
      <trkpt lat="45.86918" lon="1.23017">
        <ele>342.9</ele>
        <time>2024-10-15T12:42:19Z</time>
      </trkpt>
      <trkpt lat="45.8692" lon="1.23002">
        <ele>343.1</ele>
        <time>2024-10-15T12:42:22Z</time>
      </trkpt>
      <trkpt lat="45.86914" lon="1.22989">
        <ele>343.5</ele>
        <time>2024-10-15T12:42:25Z</time>
      </trkpt>
      <trkpt lat="45.86907" lon="1.22978">
        <ele>343.8</ele>
        <time>2024-10-15T12:42:28Z</time>
      </trkpt>
      <trkpt lat="45.86898" lon="1.2297">
        <ele>344.2</ele>
        <time>2024-10-15T12:42:31Z</time>
      </trkpt>
      <trkpt lat="45.86887" lon="1.22966">
        <ele>344.5</ele>
        <time>2024-10-15T12:42:34Z</time>
      </trkpt>
      <trkpt lat="45.86875" lon="1.22964">
        <ele>344.7</ele>
        <time>2024-10-15T12:42:37Z</time>
      </trkpt>
      <trkpt lat="45.86864" lon="1.22965">
        <ele>344.8</ele>
        <time>2024-10-15T12:42:40Z</time>
      </trkpt>
      <trkpt lat="45.86852" lon="1.22969">
        <ele>344.9</ele>
        <time>2024-10-15T12:42:43Z</time>
      </trkpt>
      <trkpt lat="45.8684" lon="1.22976">
        <ele>344.9</ele>
        <time>2024-10-15T12:42:46Z</time>
      </trkpt>
      <trkpt lat="45.86828" lon="1.22986">
        <ele>344.9</ele>
        <time>2024-10-15T12:42:49Z</time>
      </trkpt>
      <trkpt lat="45.86818" lon="1.23001">
        <ele>344.8</ele>
        <time>2024-10-15T12:42:52Z</time>
      </trkpt>
      <trkpt lat="45.86806" lon="1.23016">
        <ele>344.7</ele>
        <time>2024-10-15T12:42:55Z</time>
      </trkpt>
      <trkpt lat="45.86798" lon="1.23031">
        <ele>344.4</ele>
        <time>2024-10-15T12:42:58Z</time>
      </trkpt>
      <trkpt lat="45.86792" lon="1.23049">
        <ele>343.8</ele>
        <time>2024-10-15T12:43:01Z</time>
      </trkpt>
      <trkpt lat="45.86786" lon="1.23069">
        <ele>343.1</ele>
        <time>2024-10-15T12:43:04Z</time>
      </trkpt>
      <trkpt lat="45.86783" lon="1.23093">
        <ele>342.2</ele>
        <time>2024-10-15T12:43:07Z</time>
      </trkpt>
      <trkpt lat="45.86779" lon="1.23119">
        <ele>341.3</ele>
        <time>2024-10-15T12:43:10Z</time>
      </trkpt>
      <trkpt lat="45.86775" lon="1.23147">
        <ele>340.4</ele>
        <time>2024-10-15T12:43:13Z</time>
      </trkpt>
      <trkpt lat="45.86772" lon="1.23175">
        <ele>339.8</ele>
        <time>2024-10-15T12:43:16Z</time>
      </trkpt>
      <trkpt lat="45.86769" lon="1.23203">
        <ele>339.3</ele>
        <time>2024-10-15T12:43:19Z</time>
      </trkpt>
      <trkpt lat="45.86765" lon="1.23231">
        <ele>338.3</ele>
        <time>2024-10-15T12:43:22Z</time>
      </trkpt>
      <trkpt lat="45.86761" lon="1.23259">
        <ele>337.3</ele>
        <time>2024-10-15T12:43:25Z</time>
      </trkpt>
      <trkpt lat="45.86753" lon="1.23284">
        <ele>336.5</ele>
        <time>2024-10-15T12:43:28Z</time>
      </trkpt>
      <trkpt lat="45.8674" lon="1.23305">
        <ele>335.5</ele>
        <time>2024-10-15T12:43:31Z</time>
      </trkpt>
      <trkpt lat="45.86726" lon="1.23325">
        <ele>334.5</ele>
        <time>2024-10-15T12:43:34Z</time>
      </trkpt>
      <trkpt lat="45.86716" lon="1.23339">
        <ele>334</ele>
        <time>2024-10-15T12:43:37Z</time>
      </trkpt>
      <trkpt lat="45.86713" lon="1.2335">
        <ele>333.7</ele>
        <time>2024-10-15T12:43:40Z</time>
      </trkpt>
      <trkpt lat="45.86716" lon="1.23357">
        <ele>334.1</ele>
        <time>2024-10-15T12:43:43Z</time>
      </trkpt>
      <trkpt lat="45.86725" lon="1.2337">
        <ele>335.4</ele>
        <time>2024-10-15T12:43:46Z</time>
      </trkpt>
      <trkpt lat="45.86738" lon="1.23368">
        <ele>336.5</ele>
        <time>2024-10-15T12:43:49Z</time>
      </trkpt>
      <trkpt lat="45.8675" lon="1.23363">
        <ele>337.9</ele>
        <time>2024-10-15T12:43:52Z</time>
      </trkpt>
      <trkpt lat="45.86755" lon="1.23357">
        <ele>338.5</ele>
        <time>2024-10-15T12:43:55Z</time>
      </trkpt>
      <trkpt lat="45.8676" lon="1.23353">
        <ele>338.5</ele>
        <time>2024-10-15T12:43:58Z</time>
      </trkpt>
      <trkpt lat="45.86764" lon="1.23356">
        <ele>338.7</ele>
        <time>2024-10-15T12:44:01Z</time>
      </trkpt>
      <trkpt lat="45.86759" lon="1.23359">
        <ele>338.9</ele>
        <time>2024-10-15T12:44:04Z</time>
      </trkpt>
      <trkpt lat="45.86757" lon="1.2335">
        <ele>339.2</ele>
        <time>2024-10-15T12:44:07Z</time>
      </trkpt>
      <trkpt lat="45.86758" lon="1.23345">
        <ele>339.3</ele>
        <time>2024-10-15T12:44:10Z</time>
      </trkpt>
      <trkpt lat="45.86758" lon="1.23345">
        <ele>339.3</ele>
        <time>2024-10-15T12:44:13Z</time>
      </trkpt>
      <trkpt lat="45.86758" lon="1.23346">
        <ele>339.3</ele>
        <time>2024-10-15T12:44:16Z</time>
      </trkpt>
      <trkpt lat="45.86758" lon="1.23346">
        <ele>339.3</ele>
        <time>2024-10-15T12:44:19Z</time>
      </trkpt>
      <trkpt lat="45.86758" lon="1.23346">
        <ele>339.3</ele>
        <time>2024-10-15T12:44:22Z</time>
      </trkpt>
      <trkpt lat="45.86758" lon="1.23346">
        <ele>339.4</ele>
        <time>2024-10-15T12:44:25Z</time>
      </trkpt>
      <trkpt lat="45.86758" lon="1.23345">
        <ele>339.4</ele>
        <time>2024-10-15T12:44:28Z</time>
      </trkpt>
      <trkpt lat="45.86758" lon="1.23346">
        <ele>339.4</ele>
        <time>2024-10-15T12:44:31Z</time>
      </trkpt>
      <trkpt lat="45.86758" lon="1.23346">
        <ele>339.4</ele>
        <time>2024-10-15T12:44:34Z</time>
      </trkpt>
      <trkpt lat="45.86758" lon="1.23345">
        <ele>339.4</ele>
        <time>2024-10-15T12:44:37Z</time>
      </trkpt>
      <trkpt lat="45.86758" lon="1.23345">
        <ele>339.4</ele>
        <time>2024-10-15T12:44:40Z</time>
      </trkpt>
      <trkpt lat="45.86758" lon="1.23344">
        <ele>339.4</ele>
        <time>2024-10-15T12:44:43Z</time>
      </trkpt>
      <trkpt lat="45.86759" lon="1.23344">
        <ele>339.4</ele>
        <time>2024-10-15T12:44:46Z</time>
      </trkpt>
      <trkpt lat="45.86759" lon="1.23344">
        <ele>339.5</ele>
        <time>2024-10-15T12:44:49Z</time>
      </trkpt>
      <trkpt lat="45.86758" lon="1.23344">
        <ele>339.5</ele>
        <time>2024-10-15T12:44:52Z</time>
      </trkpt>
      <trkpt lat="45.86758" lon="1.23345">
        <ele>339.5</ele>
        <time>2024-10-15T12:44:55Z</time>
      </trkpt>
      <trkpt lat="45.86758" lon="1.23345">
        <ele>339.5</ele>
        <time>2024-10-15T12:44:58Z</time>
      </trkpt>
      <trkpt lat="45.86758" lon="1.23344">
        <ele>339.5</ele>
        <time>2024-10-15T12:45:01Z</time>
      </trkpt>
      <trkpt lat="45.86758" lon="1.23345">
        <ele>339.5</ele>
        <time>2024-10-15T12:45:04Z</time>
      </trkpt>
      <trkpt lat="45.86758" lon="1.23345">
        <ele>339.5</ele>
        <time>2024-10-15T12:45:07Z</time>
      </trkpt>
      <trkpt lat="45.86758" lon="1.23345">
        <ele>339.5</ele>
        <time>2024-10-15T12:45:10Z</time>
      </trkpt>
      <trkpt lat="45.86758" lon="1.23345">
        <ele>339.5</ele>
        <time>2024-10-15T12:45:13Z</time>
      </trkpt>
      <trkpt lat="45.86759" lon="1.23345">
        <ele>339.5</ele>
        <time>2024-10-15T12:45:16Z</time>
      </trkpt>
      <trkpt lat="45.86759" lon="1.23345">
        <ele>339.5</ele>
        <time>2024-10-15T12:45:19Z</time>
      </trkpt>
      <trkpt lat="45.86759" lon="1.23345">
        <ele>339.5</ele>
        <time>2024-10-15T12:45:22Z</time>
      </trkpt>
      <trkpt lat="45.86759" lon="1.23345">
        <ele>339.5</ele>
        <time>2024-10-15T12:45:25Z</time>
      </trkpt>
      <trkpt lat="45.86759" lon="1.23346">
        <ele>339.6</ele>
        <time>2024-10-15T12:45:28Z</time>
      </trkpt>
      <trkpt lat="45.86759" lon="1.23346">
        <ele>339.6</ele>
        <time>2024-10-15T12:45:31Z</time>
      </trkpt>
      <trkpt lat="45.86758" lon="1.23346">
        <ele>339.6</ele>
        <time>2024-10-15T12:45:34Z</time>
      </trkpt>
      <trkpt lat="45.86757" lon="1.23346">
        <ele>339.6</ele>
        <time>2024-10-15T12:45:37Z</time>
      </trkpt>
      <trkpt lat="45.86757" lon="1.23347">
        <ele>339.6</ele>
        <time>2024-10-15T12:45:40Z</time>
      </trkpt>
      <trkpt lat="45.86757" lon="1.23347">
        <ele>339.7</ele>
        <time>2024-10-15T12:45:43Z</time>
      </trkpt>
      <trkpt lat="45.86757" lon="1.23347">
        <ele>339.7</ele>
        <time>2024-10-15T12:45:46Z</time>
      </trkpt>
      <trkpt lat="45.86757" lon="1.23347">
        <ele>339.7</ele>
        <time>2024-10-15T12:45:49Z</time>
      </trkpt>
      <trkpt lat="45.86758" lon="1.23348">
        <ele>339.7</ele>
        <time>2024-10-15T12:45:52Z</time>
      </trkpt>
      <trkpt lat="45.86758" lon="1.23348">
        <ele>339.7</ele>
        <time>2024-10-15T12:45:55Z</time>
      </trkpt>
      <trkpt lat="45.86758" lon="1.23348">
        <ele>339.7</ele>
        <time>2024-10-15T12:45:58Z</time>
      </trkpt>
      <trkpt lat="45.86758" lon="1.23348">
        <ele>339.7</ele>
        <time>2024-10-15T12:46:01Z</time>
      </trkpt>
      <trkpt lat="45.86758" lon="1.23348">
        <ele>339.7</ele>
        <time>2024-10-15T12:46:04Z</time>
      </trkpt>
      <trkpt lat="45.86758" lon="1.23348">
        <ele>339.7</ele>
        <time>2024-10-15T12:46:07Z</time>
      </trkpt>
      <trkpt lat="45.86758" lon="1.23348">
        <ele>339.7</ele>
        <time>2024-10-15T12:46:10Z</time>
      </trkpt>
      <trkpt lat="45.86758" lon="1.23349">
        <ele>339.8</ele>
        <time>2024-10-15T12:46:13Z</time>
      </trkpt>
      <trkpt lat="45.86758" lon="1.23348">
        <ele>339.8</ele>
        <time>2024-10-15T12:46:16Z</time>
      </trkpt>
      <trkpt lat="45.86759" lon="1.23349">
        <ele>339.8</ele>
        <time>2024-10-15T12:46:19Z</time>
      </trkpt>
      <trkpt lat="45.86759" lon="1.23349">
        <ele>339.8</ele>
        <time>2024-10-15T12:46:22Z</time>
      </trkpt>
      <trkpt lat="45.86759" lon="1.2335">
        <ele>339.8</ele>
        <time>2024-10-15T12:46:25Z</time>
      </trkpt>
      <trkpt lat="45.86759" lon="1.2335">
        <ele>339.8</ele>
        <time>2024-10-15T12:46:28Z</time>
      </trkpt>
      <trkpt lat="45.86759" lon="1.23349">
        <ele>339.8</ele>
        <time>2024-10-15T12:46:31Z</time>
      </trkpt>
      <trkpt lat="45.86758" lon="1.23349">
        <ele>339.9</ele>
        <time>2024-10-15T12:46:34Z</time>
      </trkpt>
      <trkpt lat="45.86758" lon="1.23349">
        <ele>339.9</ele>
        <time>2024-10-15T12:46:37Z</time>
      </trkpt>
      <trkpt lat="45.86758" lon="1.23349">
        <ele>339.9</ele>
        <time>2024-10-15T12:46:40Z</time>
      </trkpt>
      <trkpt lat="45.86758" lon="1.23349">
        <ele>339.9</ele>
        <time>2024-10-15T12:46:43Z</time>
      </trkpt>
      <trkpt lat="45.86758" lon="1.23349">
        <ele>339.9</ele>
        <time>2024-10-15T12:46:46Z</time>
      </trkpt>
      <trkpt lat="45.86758" lon="1.23349">
        <ele>339.9</ele>
        <time>2024-10-15T12:46:49Z</time>
      </trkpt>
      <trkpt lat="45.86758" lon="1.23349">
        <ele>339.9</ele>
        <time>2024-10-15T12:46:52Z</time>
      </trkpt>
      <trkpt lat="45.86758" lon="1.23349">
        <ele>339.9</ele>
        <time>2024-10-15T12:46:55Z</time>
      </trkpt>
      <trkpt lat="45.86758" lon="1.23349">
        <ele>339.9</ele>
        <time>2024-10-15T12:46:58Z</time>
      </trkpt>
      <trkpt lat="45.86759" lon="1.23349">
        <ele>339.9</ele>
        <time>2024-10-15T12:47:01Z</time>
      </trkpt>
      <trkpt lat="45.86759" lon="1.23349">
        <ele>339.9</ele>
        <time>2024-10-15T12:47:04Z</time>
      </trkpt>
      <trkpt lat="45.86759" lon="1.23348">
        <ele>339.9</ele>
        <time>2024-10-15T12:47:07Z</time>
      </trkpt>
      <trkpt lat="45.86759" lon="1.23348">
        <ele>339.9</ele>
        <time>2024-10-15T12:47:10Z</time>
      </trkpt>
      <trkpt lat="45.86759" lon="1.23348">
        <ele>340</ele>
        <time>2024-10-15T12:47:13Z</time>
      </trkpt>
      <trkpt lat="45.86759" lon="1.23348">
        <ele>340</ele>
        <time>2024-10-15T12:47:16Z</time>
      </trkpt>
      <trkpt lat="45.86759" lon="1.23348">
        <ele>340</ele>
        <time>2024-10-15T12:47:19Z</time>
      </trkpt>
      <trkpt lat="45.86758" lon="1.23348">
        <ele>340</ele>
        <time>2024-10-15T12:47:22Z</time>
      </trkpt>
      <trkpt lat="45.86758" lon="1.23347">
        <ele>340</ele>
        <time>2024-10-15T12:47:25Z</time>
      </trkpt>
      <trkpt lat="45.86758" lon="1.23347">
        <ele>340</ele>
        <time>2024-10-15T12:47:28Z</time>
      </trkpt>
      <trkpt lat="45.86758" lon="1.23347">
        <ele>340</ele>
        <time>2024-10-15T12:47:31Z</time>
      </trkpt>
      <trkpt lat="45.86758" lon="1.23346">
        <ele>340</ele>
        <time>2024-10-15T12:47:34Z</time>
      </trkpt>
      <trkpt lat="45.86758" lon="1.23346">
        <ele>340</ele>
        <time>2024-10-15T12:47:37Z</time>
      </trkpt>
      <trkpt lat="45.86758" lon="1.23346">
        <ele>340.1</ele>
        <time>2024-10-15T12:47:40Z</time>
      </trkpt>
      <trkpt lat="45.86759" lon="1.23345">
        <ele>340.1</ele>
        <time>2024-10-15T12:47:43Z</time>
      </trkpt>
      <trkpt lat="45.86759" lon="1.23345">
        <ele>340.1</ele>
        <time>2024-10-15T12:47:46Z</time>
      </trkpt>
      <trkpt lat="45.86759" lon="1.23345">
        <ele>340.1</ele>
        <time>2024-10-15T12:47:49Z</time>
      </trkpt>
      <trkpt lat="45.8676" lon="1.23345">
        <ele>340.1</ele>
        <time>2024-10-15T12:47:52Z</time>
      </trkpt>
      <trkpt lat="45.8676" lon="1.23345">
        <ele>340.1</ele>
        <time>2024-10-15T12:47:55Z</time>
      </trkpt>
      <trkpt lat="45.8676" lon="1.23345">
        <ele>340.1</ele>
        <time>2024-10-15T12:47:58Z</time>
      </trkpt>
      <trkpt lat="45.86759" lon="1.23345">
        <ele>340.1</ele>
        <time>2024-10-15T12:48:01Z</time>
      </trkpt>
      <trkpt lat="45.8676" lon="1.23344">
        <ele>340.1</ele>
        <time>2024-10-15T12:48:04Z</time>
      </trkpt>
      <trkpt lat="45.8676" lon="1.23345">
        <ele>340.2</ele>
        <time>2024-10-15T12:48:07Z</time>
      </trkpt>
      <trkpt lat="45.8676" lon="1.23346">
        <ele>340.2</ele>
        <time>2024-10-15T12:48:10Z</time>
      </trkpt>
      <trkpt lat="45.8676" lon="1.23346">
        <ele>340.2</ele>
        <time>2024-10-15T12:48:13Z</time>
      </trkpt>
      <trkpt lat="45.8676" lon="1.23346">
        <ele>340.2</ele>
        <time>2024-10-15T12:48:16Z</time>
      </trkpt>
      <trkpt lat="45.8676" lon="1.23345">
        <ele>340.2</ele>
        <time>2024-10-15T12:48:19Z</time>
      </trkpt>
      <trkpt lat="45.8676" lon="1.23345">
        <ele>340.2</ele>
        <time>2024-10-15T12:48:22Z</time>
      </trkpt>
      <trkpt lat="45.8676" lon="1.23345">
        <ele>340.2</ele>
        <time>2024-10-15T12:48:25Z</time>
      </trkpt>
      <trkpt lat="45.86759" lon="1.23345">
        <ele>340.3</ele>
        <time>2024-10-15T12:48:28Z</time>
      </trkpt>
      <trkpt lat="45.86759" lon="1.23345">
        <ele>340.3</ele>
        <time>2024-10-15T12:48:31Z</time>
      </trkpt>
      <trkpt lat="45.8676" lon="1.23345">
        <ele>340.3</ele>
        <time>2024-10-15T12:48:34Z</time>
      </trkpt>
      <trkpt lat="45.8676" lon="1.23345">
        <ele>340.3</ele>
        <time>2024-10-15T12:48:37Z</time>
      </trkpt>
      <trkpt lat="45.86759" lon="1.23345">
        <ele>340.3</ele>
        <time>2024-10-15T12:48:40Z</time>
      </trkpt>
      <trkpt lat="45.86759" lon="1.23345">
        <ele>340.3</ele>
        <time>2024-10-15T12:48:43Z</time>
      </trkpt>
      <trkpt lat="45.86759" lon="1.23345">
        <ele>340.3</ele>
        <time>2024-10-15T12:48:46Z</time>
      </trkpt>
      <trkpt lat="45.86759" lon="1.23345">
        <ele>340.3</ele>
        <time>2024-10-15T12:48:49Z</time>
      </trkpt>
      <trkpt lat="45.86759" lon="1.23345">
        <ele>340.3</ele>
        <time>2024-10-15T12:48:52Z</time>
      </trkpt>
      <trkpt lat="45.86759" lon="1.23345">
        <ele>340.3</ele>
        <time>2024-10-15T12:48:55Z</time>
      </trkpt>
      <trkpt lat="45.86759" lon="1.23344">
        <ele>340.3</ele>
        <time>2024-10-15T12:48:58Z</time>
      </trkpt>
      <trkpt lat="45.86759" lon="1.23344">
        <ele>340.3</ele>
        <time>2024-10-15T12:49:01Z</time>
      </trkpt>
      <trkpt lat="45.86759" lon="1.23344">
        <ele>340.3</ele>
        <time>2024-10-15T12:49:04Z</time>
      </trkpt>
      <trkpt lat="45.86759" lon="1.23345">
        <ele>340.3</ele>
        <time>2024-10-15T12:49:07Z</time>
      </trkpt>
      <trkpt lat="45.86759" lon="1.23345">
        <ele>340.4</ele>
        <time>2024-10-15T12:49:10Z</time>
      </trkpt>
      <trkpt lat="45.86759" lon="1.23345">
        <ele>340.4</ele>
        <time>2024-10-15T12:49:13Z</time>
      </trkpt>
      <trkpt lat="45.86759" lon="1.23345">
        <ele>340.4</ele>
        <time>2024-10-15T12:49:16Z</time>
      </trkpt>
      <trkpt lat="45.86759" lon="1.23345">
        <ele>340.4</ele>
        <time>2024-10-15T12:49:19Z</time>
      </trkpt>
      <trkpt lat="45.86759" lon="1.23346">
        <ele>340.4</ele>
        <time>2024-10-15T12:49:22Z</time>
      </trkpt>
      <trkpt lat="45.86759" lon="1.23346">
        <ele>340.4</ele>
        <time>2024-10-15T12:49:25Z</time>
      </trkpt>
      <trkpt lat="45.86759" lon="1.23346">
        <ele>340.4</ele>
        <time>2024-10-15T12:49:28Z</time>
      </trkpt>
      <trkpt lat="45.86759" lon="1.23346">
        <ele>340.4</ele>
        <time>2024-10-15T12:49:31Z</time>
      </trkpt>
      <trkpt lat="45.86759" lon="1.23346">
        <ele>340.4</ele>
        <time>2024-10-15T12:49:34Z</time>
      </trkpt>
      <trkpt lat="45.86759" lon="1.23346">
        <ele>340.4</ele>
        <time>2024-10-15T12:49:37Z</time>
      </trkpt>
      <trkpt lat="45.86759" lon="1.23347">
        <ele>340.5</ele>
        <time>2024-10-15T12:49:40Z</time>
      </trkpt>
      <trkpt lat="45.86759" lon="1.23347">
        <ele>340.5</ele>
        <time>2024-10-15T12:49:43Z</time>
      </trkpt>
      <trkpt lat="45.86759" lon="1.23347">
        <ele>340.5</ele>
        <time>2024-10-15T12:49:46Z</time>
      </trkpt>
      <trkpt lat="45.86759" lon="1.23346">
        <ele>340.5</ele>
        <time>2024-10-15T12:49:49Z</time>
      </trkpt>
      <trkpt lat="45.86759" lon="1.23346">
        <ele>340.5</ele>
        <time>2024-10-15T12:49:52Z</time>
      </trkpt>
      <trkpt lat="45.86759" lon="1.23347">
        <ele>340.5</ele>
        <time>2024-10-15T12:49:55Z</time>
      </trkpt>
      <trkpt lat="45.86759" lon="1.23347">
        <ele>340.5</ele>
        <time>2024-10-15T12:49:58Z</time>
      </trkpt>
      <trkpt lat="45.8676" lon="1.23347">
        <ele>340.5</ele>
        <time>2024-10-15T12:50:01Z</time>
      </trkpt>
      <trkpt lat="45.8676" lon="1.23347">
        <ele>340.5</ele>
        <time>2024-10-15T12:50:04Z</time>
      </trkpt>
      <trkpt lat="45.8676" lon="1.23347">
        <ele>340.5</ele>
        <time>2024-10-15T12:50:07Z</time>
      </trkpt>
      <trkpt lat="45.8676" lon="1.23347">
        <ele>340.5</ele>
        <time>2024-10-15T12:50:10Z</time>
      </trkpt>
      <trkpt lat="45.8676" lon="1.23347">
        <ele>340.6</ele>
        <time>2024-10-15T12:50:13Z</time>
      </trkpt>
      <trkpt lat="45.8676" lon="1.23347">
        <ele>340.6</ele>
        <time>2024-10-15T12:50:16Z</time>
      </trkpt>
      <trkpt lat="45.8676" lon="1.23347">
        <ele>340.6</ele>
        <time>2024-10-15T12:50:19Z</time>
      </trkpt>
      <trkpt lat="45.8676" lon="1.23347">
        <ele>340.6</ele>
        <time>2024-10-15T12:50:22Z</time>
      </trkpt>
      <trkpt lat="45.8676" lon="1.23347">
        <ele>340.6</ele>
        <time>2024-10-15T12:50:25Z</time>
      </trkpt>
      <trkpt lat="45.8676" lon="1.23347">
        <ele>340.6</ele>
        <time>2024-10-15T12:50:28Z</time>
      </trkpt>
      <trkpt lat="45.8676" lon="1.23346">
        <ele>340.6</ele>
        <time>2024-10-15T12:50:31Z</time>
      </trkpt>
      <trkpt lat="45.8676" lon="1.23346">
        <ele>340.6</ele>
        <time>2024-10-15T12:50:34Z</time>
      </trkpt>
      <trkpt lat="45.8676" lon="1.23346">
        <ele>340.6</ele>
        <time>2024-10-15T12:50:37Z</time>
      </trkpt>
      <trkpt lat="45.8676" lon="1.23346">
        <ele>340.6</ele>
        <time>2024-10-15T12:50:40Z</time>
      </trkpt>
      <trkpt lat="45.8676" lon="1.23347">
        <ele>340.6</ele>
        <time>2024-10-15T12:50:43Z</time>
      </trkpt>
      <trkpt lat="45.8676" lon="1.23346">
        <ele>340.6</ele>
        <time>2024-10-15T12:50:46Z</time>
      </trkpt>
      <trkpt lat="45.8676" lon="1.23346">
        <ele>340.6</ele>
        <time>2024-10-15T12:50:49Z</time>
      </trkpt>
      <trkpt lat="45.86761" lon="1.23345">
        <ele>340.7</ele>
        <time>2024-10-15T12:50:52Z</time>
      </trkpt>
      <trkpt lat="45.86761" lon="1.23344">
        <ele>340.7</ele>
        <time>2024-10-15T12:50:55Z</time>
      </trkpt>
      <trkpt lat="45.86761" lon="1.23345">
        <ele>340.7</ele>
        <time>2024-10-15T12:50:58Z</time>
      </trkpt>
      <trkpt lat="45.8676" lon="1.23346">
        <ele>340.7</ele>
        <time>2024-10-15T12:51:01Z</time>
      </trkpt>
      <trkpt lat="45.86761" lon="1.23347">
        <ele>340.8</ele>
        <time>2024-10-15T12:51:04Z</time>
      </trkpt>
      <trkpt lat="45.86761" lon="1.23347">
        <ele>340.8</ele>
        <time>2024-10-15T12:51:07Z</time>
      </trkpt>
      <trkpt lat="45.86761" lon="1.23347">
        <ele>340.8</ele>
        <time>2024-10-15T12:51:10Z</time>
      </trkpt>
      <trkpt lat="45.86761" lon="1.23347">
        <ele>340.8</ele>
        <time>2024-10-15T12:51:13Z</time>
      </trkpt>
      <trkpt lat="45.8676" lon="1.23347">
        <ele>340.8</ele>
        <time>2024-10-15T12:51:16Z</time>
      </trkpt>
      <trkpt lat="45.8676" lon="1.23348">
        <ele>340.8</ele>
        <time>2024-10-15T12:51:19Z</time>
      </trkpt>
      <trkpt lat="45.8676" lon="1.23348">
        <ele>340.8</ele>
        <time>2024-10-15T12:51:22Z</time>
      </trkpt>
      <trkpt lat="45.8676" lon="1.23349">
        <ele>340.9</ele>
        <time>2024-10-15T12:51:25Z</time>
      </trkpt>
      <trkpt lat="45.8676" lon="1.23348">
        <ele>340.9</ele>
        <time>2024-10-15T12:51:28Z</time>
      </trkpt>
      <trkpt lat="45.8676" lon="1.23348">
        <ele>340.9</ele>
        <time>2024-10-15T12:51:31Z</time>
      </trkpt>
      <trkpt lat="45.8676" lon="1.23348">
        <ele>340.9</ele>
        <time>2024-10-15T12:51:34Z</time>
      </trkpt>
      <trkpt lat="45.8676" lon="1.23348">
        <ele>340.9</ele>
        <time>2024-10-15T12:51:37Z</time>
      </trkpt>
      <trkpt lat="45.8676" lon="1.23347">
        <ele>340.9</ele>
        <time>2024-10-15T12:51:40Z</time>
      </trkpt>
      <trkpt lat="45.8676" lon="1.23347">
        <ele>340.9</ele>
        <time>2024-10-15T12:51:43Z</time>
      </trkpt>
      <trkpt lat="45.86759" lon="1.23347">
        <ele>340.9</ele>
        <time>2024-10-15T12:51:46Z</time>
      </trkpt>
      <trkpt lat="45.86759" lon="1.23347">
        <ele>340.9</ele>
        <time>2024-10-15T12:51:49Z</time>
      </trkpt>
      <trkpt lat="45.86759" lon="1.23348">
        <ele>341</ele>
        <time>2024-10-15T12:51:52Z</time>
      </trkpt>
      <trkpt lat="45.86759" lon="1.23348">
        <ele>341</ele>
        <time>2024-10-15T12:51:55Z</time>
      </trkpt>
      <trkpt lat="45.86759" lon="1.23348">
        <ele>341</ele>
        <time>2024-10-15T12:51:58Z</time>
      </trkpt>
      <trkpt lat="45.86758" lon="1.23349">
        <ele>341</ele>
        <time>2024-10-15T12:52:01Z</time>
      </trkpt>
      <trkpt lat="45.86758" lon="1.23348">
        <ele>341</ele>
        <time>2024-10-15T12:52:04Z</time>
      </trkpt>
      <trkpt lat="45.86759" lon="1.23349">
        <ele>341</ele>
        <time>2024-10-15T12:52:07Z</time>
      </trkpt>
      <trkpt lat="45.86759" lon="1.23349">
        <ele>341</ele>
        <time>2024-10-15T12:52:10Z</time>
      </trkpt>
      <trkpt lat="45.86758" lon="1.23348">
        <ele>341</ele>
        <time>2024-10-15T12:52:13Z</time>
      </trkpt>
      <trkpt lat="45.86759" lon="1.23348">
        <ele>341</ele>
        <time>2024-10-15T12:52:16Z</time>
      </trkpt>
      <trkpt lat="45.86759" lon="1.23348">
        <ele>341</ele>
        <time>2024-10-15T12:52:19Z</time>
      </trkpt>
      <trkpt lat="45.86759" lon="1.23347">
        <ele>341</ele>
        <time>2024-10-15T12:52:22Z</time>
      </trkpt>
      <trkpt lat="45.86759" lon="1.23348">
        <ele>341.1</ele>
        <time>2024-10-15T12:52:25Z</time>
      </trkpt>
      <trkpt lat="45.86759" lon="1.23348">
        <ele>341.1</ele>
        <time>2024-10-15T12:52:28Z</time>
      </trkpt>
      <trkpt lat="45.86759" lon="1.23348">
        <ele>341.1</ele>
        <time>2024-10-15T12:52:31Z</time>
      </trkpt>
      <trkpt lat="45.86759" lon="1.23348">
        <ele>341.1</ele>
        <time>2024-10-15T12:52:34Z</time>
      </trkpt>
      <trkpt lat="45.8676" lon="1.23348">
        <ele>341.1</ele>
        <time>2024-10-15T12:52:37Z</time>
      </trkpt>
      <trkpt lat="45.8676" lon="1.23348">
        <ele>341.1</ele>
        <time>2024-10-15T12:52:40Z</time>
      </trkpt>
      <trkpt lat="45.8676" lon="1.23348">
        <ele>341.1</ele>
        <time>2024-10-15T12:52:43Z</time>
      </trkpt>
      <trkpt lat="45.86761" lon="1.23349">
        <ele>341.2</ele>
        <time>2024-10-15T12:52:46Z</time>
      </trkpt>
      <trkpt lat="45.86761" lon="1.23349">
        <ele>341.2</ele>
        <time>2024-10-15T12:52:49Z</time>
      </trkpt>
      <trkpt lat="45.8676" lon="1.23349">
        <ele>341.2</ele>
        <time>2024-10-15T12:52:52Z</time>
      </trkpt>
      <trkpt lat="45.86761" lon="1.2335">
        <ele>341.2</ele>
        <time>2024-10-15T12:52:55Z</time>
      </trkpt>
      <trkpt lat="45.86761" lon="1.2335">
        <ele>341.2</ele>
        <time>2024-10-15T12:52:58Z</time>
      </trkpt>
      <trkpt lat="45.86761" lon="1.2335">
        <ele>341.2</ele>
        <time>2024-10-15T12:53:01Z</time>
      </trkpt>
      <trkpt lat="45.8676" lon="1.2335">
        <ele>341.2</ele>
        <time>2024-10-15T12:53:04Z</time>
      </trkpt>
      <trkpt lat="45.8676" lon="1.2335">
        <ele>341.2</ele>
        <time>2024-10-15T12:53:07Z</time>
      </trkpt>
      <trkpt lat="45.8676" lon="1.2335">
        <ele>341.2</ele>
        <time>2024-10-15T12:53:10Z</time>
      </trkpt>
      <trkpt lat="45.86761" lon="1.2335">
        <ele>341.2</ele>
        <time>2024-10-15T12:53:13Z</time>
      </trkpt>
      <trkpt lat="45.8676" lon="1.2335">
        <ele>341.3</ele>
        <time>2024-10-15T12:53:16Z</time>
      </trkpt>
      <trkpt lat="45.8676" lon="1.2335">
        <ele>341.3</ele>
        <time>2024-10-15T12:53:19Z</time>
      </trkpt>
      <trkpt lat="45.86761" lon="1.23349">
        <ele>341.3</ele>
        <time>2024-10-15T12:53:22Z</time>
      </trkpt>
      <trkpt lat="45.86761" lon="1.2335">
        <ele>341.3</ele>
        <time>2024-10-15T12:53:25Z</time>
      </trkpt>
      <trkpt lat="45.86761" lon="1.2335">
        <ele>341.3</ele>
        <time>2024-10-15T12:53:28Z</time>
      </trkpt>
      <trkpt lat="45.8676" lon="1.2335">
        <ele>341.3</ele>
        <time>2024-10-15T12:53:31Z</time>
      </trkpt>
      <trkpt lat="45.8676" lon="1.23351">
        <ele>341.3</ele>
        <time>2024-10-15T12:53:34Z</time>
      </trkpt>
      <trkpt lat="45.8676" lon="1.23351">
        <ele>341.3</ele>
        <time>2024-10-15T12:53:37Z</time>
      </trkpt>
      <trkpt lat="45.8676" lon="1.2335">
        <ele>341.4</ele>
        <time>2024-10-15T12:53:40Z</time>
      </trkpt>
      <trkpt lat="45.8676" lon="1.2335">
        <ele>341.4</ele>
        <time>2024-10-15T12:53:43Z</time>
      </trkpt>
      <trkpt lat="45.8676" lon="1.2335">
        <ele>341.4</ele>
        <time>2024-10-15T12:53:46Z</time>
      </trkpt>
      <trkpt lat="45.8676" lon="1.2335">
        <ele>341.4</ele>
        <time>2024-10-15T12:53:49Z</time>
      </trkpt>
      <trkpt lat="45.8676" lon="1.2335">
        <ele>341.4</ele>
        <time>2024-10-15T12:53:52Z</time>
      </trkpt>
      <trkpt lat="45.8676" lon="1.2335">
        <ele>341.4</ele>
        <time>2024-10-15T12:53:55Z</time>
      </trkpt>
      <trkpt lat="45.86759" lon="1.2335">
        <ele>341.4</ele>
        <time>2024-10-15T12:53:58Z</time>
      </trkpt>
      <trkpt lat="45.86759" lon="1.2335">
        <ele>341.4</ele>
        <time>2024-10-15T12:54:01Z</time>
      </trkpt>
      <trkpt lat="45.86759" lon="1.2335">
        <ele>341.4</ele>
        <time>2024-10-15T12:54:04Z</time>
      </trkpt>
      <trkpt lat="45.86759" lon="1.23349">
        <ele>341.4</ele>
        <time>2024-10-15T12:54:07Z</time>
      </trkpt>
      <trkpt lat="45.8676" lon="1.23349">
        <ele>341.5</ele>
        <time>2024-10-15T12:54:10Z</time>
      </trkpt>
      <trkpt lat="45.8676" lon="1.23349">
        <ele>341.5</ele>
        <time>2024-10-15T12:54:13Z</time>
      </trkpt>
      <trkpt lat="45.8676" lon="1.23349">
        <ele>341.5</ele>
        <time>2024-10-15T12:54:16Z</time>
      </trkpt>
      <trkpt lat="45.86761" lon="1.23349">
        <ele>341.5</ele>
        <time>2024-10-15T12:54:19Z</time>
      </trkpt>
      <trkpt lat="45.86761" lon="1.23349">
        <ele>341.5</ele>
        <time>2024-10-15T12:54:22Z</time>
      </trkpt>
      <trkpt lat="45.86761" lon="1.23349">
        <ele>341.5</ele>
        <time>2024-10-15T12:54:25Z</time>
      </trkpt>
      <trkpt lat="45.86761" lon="1.23348">
        <ele>341.5</ele>
        <time>2024-10-15T12:54:28Z</time>
      </trkpt>
      <trkpt lat="45.86761" lon="1.23348">
        <ele>341.5</ele>
        <time>2024-10-15T12:54:31Z</time>
      </trkpt>
      <trkpt lat="45.86761" lon="1.23348">
        <ele>341.5</ele>
        <time>2024-10-15T12:54:34Z</time>
      </trkpt>
      <trkpt lat="45.86761" lon="1.23348">
        <ele>341.5</ele>
        <time>2024-10-15T12:54:37Z</time>
      </trkpt>
      <trkpt lat="45.86761" lon="1.23348">
        <ele>341.5</ele>
        <time>2024-10-15T12:54:40Z</time>
      </trkpt>
      <trkpt lat="45.8676" lon="1.23348">
        <ele>341.6</ele>
        <time>2024-10-15T12:54:43Z</time>
      </trkpt>
      <trkpt lat="45.8676" lon="1.23348">
        <ele>341.6</ele>
        <time>2024-10-15T12:54:46Z</time>
      </trkpt>
      <trkpt lat="45.8676" lon="1.23348">
        <ele>341.6</ele>
        <time>2024-10-15T12:54:49Z</time>
      </trkpt>
      <trkpt lat="45.8676" lon="1.23348">
        <ele>341.6</ele>
        <time>2024-10-15T12:54:52Z</time>
      </trkpt>
      <trkpt lat="45.8676" lon="1.23348">
        <ele>341.6</ele>
        <time>2024-10-15T12:54:55Z</time>
      </trkpt>
      <trkpt lat="45.8676" lon="1.23348">
        <ele>341.6</ele>
        <time>2024-10-15T12:54:58Z</time>
      </trkpt>
      <trkpt lat="45.8676" lon="1.23348">
        <ele>341.6</ele>
        <time>2024-10-15T12:55:01Z</time>
      </trkpt>
      <trkpt lat="45.8676" lon="1.23348">
        <ele>341.6</ele>
        <time>2024-10-15T12:55:04Z</time>
      </trkpt>
      <trkpt lat="45.8676" lon="1.23349">
        <ele>341.6</ele>
        <time>2024-10-15T12:55:07Z</time>
      </trkpt>
      <trkpt lat="45.8676" lon="1.23349">
        <ele>341.6</ele>
        <time>2024-10-15T12:55:10Z</time>
      </trkpt>
      <trkpt lat="45.8676" lon="1.2335">
        <ele>341.6</ele>
        <time>2024-10-15T12:55:13Z</time>
      </trkpt>
      <trkpt lat="45.8676" lon="1.2335">
        <ele>341.6</ele>
        <time>2024-10-15T12:55:16Z</time>
      </trkpt>
      <trkpt lat="45.8676" lon="1.2335">
        <ele>341.7</ele>
        <time>2024-10-15T12:55:19Z</time>
      </trkpt>
      <trkpt lat="45.8676" lon="1.2335">
        <ele>341.7</ele>
        <time>2024-10-15T12:55:22Z</time>
      </trkpt>
      <trkpt lat="45.86761" lon="1.2335">
        <ele>341.7</ele>
        <time>2024-10-15T12:55:25Z</time>
      </trkpt>
      <trkpt lat="45.86761" lon="1.2335">
        <ele>341.7</ele>
        <time>2024-10-15T12:55:28Z</time>
      </trkpt>
      <trkpt lat="45.86761" lon="1.2335">
        <ele>341.7</ele>
        <time>2024-10-15T12:55:31Z</time>
      </trkpt>
      <trkpt lat="45.86761" lon="1.2335">
        <ele>341.7</ele>
        <time>2024-10-15T12:55:34Z</time>
      </trkpt>
      <trkpt lat="45.86761" lon="1.23351">
        <ele>341.7</ele>
        <time>2024-10-15T12:55:37Z</time>
      </trkpt>
      <trkpt lat="45.86761" lon="1.23351">
        <ele>341.7</ele>
        <time>2024-10-15T12:55:40Z</time>
      </trkpt>
      <trkpt lat="45.86761" lon="1.23351">
        <ele>341.8</ele>
        <time>2024-10-15T12:55:43Z</time>
      </trkpt>
      <trkpt lat="45.86761" lon="1.23351">
        <ele>341.8</ele>
        <time>2024-10-15T12:55:46Z</time>
      </trkpt>
      <trkpt lat="45.86761" lon="1.23351">
        <ele>341.8</ele>
        <time>2024-10-15T12:55:49Z</time>
      </trkpt>
      <trkpt lat="45.86762" lon="1.23351">
        <ele>341.8</ele>
        <time>2024-10-15T12:55:52Z</time>
      </trkpt>
      <trkpt lat="45.86761" lon="1.2335">
        <ele>341.8</ele>
        <time>2024-10-15T12:55:55Z</time>
      </trkpt>
      <trkpt lat="45.86761" lon="1.2335">
        <ele>341.8</ele>
        <time>2024-10-15T12:55:58Z</time>
      </trkpt>
      <trkpt lat="45.86761" lon="1.23351">
        <ele>341.8</ele>
        <time>2024-10-15T12:56:01Z</time>
      </trkpt>
      <trkpt lat="45.8676" lon="1.23351">
        <ele>341.9</ele>
        <time>2024-10-15T12:56:04Z</time>
      </trkpt>
      <trkpt lat="45.8676" lon="1.23351">
        <ele>341.9</ele>
        <time>2024-10-15T12:56:07Z</time>
      </trkpt>
      <trkpt lat="45.8676" lon="1.23352">
        <ele>341.9</ele>
        <time>2024-10-15T12:56:10Z</time>
      </trkpt>
      <trkpt lat="45.86759" lon="1.23352">
        <ele>341.9</ele>
        <time>2024-10-15T12:56:13Z</time>
      </trkpt>
      <trkpt lat="45.8676" lon="1.23352">
        <ele>341.9</ele>
        <time>2024-10-15T12:56:16Z</time>
      </trkpt>
      <trkpt lat="45.86761" lon="1.23352">
        <ele>341.9</ele>
        <time>2024-10-15T12:56:19Z</time>
      </trkpt>
      <trkpt lat="45.86761" lon="1.23351">
        <ele>342</ele>
        <time>2024-10-15T12:56:22Z</time>
      </trkpt>
      <trkpt lat="45.86761" lon="1.23352">
        <ele>342</ele>
        <time>2024-10-15T12:56:25Z</time>
      </trkpt>
      <trkpt lat="45.86761" lon="1.23352">
        <ele>342</ele>
        <time>2024-10-15T12:56:28Z</time>
      </trkpt>
      <trkpt lat="45.86761" lon="1.23352">
        <ele>342</ele>
        <time>2024-10-15T12:56:31Z</time>
      </trkpt>
      <trkpt lat="45.86761" lon="1.23352">
        <ele>342</ele>
        <time>2024-10-15T12:56:34Z</time>
      </trkpt>
      <trkpt lat="45.86761" lon="1.23352">
        <ele>342</ele>
        <time>2024-10-15T12:56:37Z</time>
      </trkpt>
      <trkpt lat="45.86761" lon="1.23351">
        <ele>342</ele>
        <time>2024-10-15T12:56:40Z</time>
      </trkpt>
      <trkpt lat="45.86761" lon="1.2335">
        <ele>342</ele>
        <time>2024-10-15T12:56:43Z</time>
      </trkpt>
      <trkpt lat="45.86761" lon="1.2335">
        <ele>342.1</ele>
        <time>2024-10-15T12:56:46Z</time>
      </trkpt>
      <trkpt lat="45.86761" lon="1.2335">
        <ele>342.1</ele>
        <time>2024-10-15T12:56:49Z</time>
      </trkpt>
      <trkpt lat="45.86761" lon="1.23349">
        <ele>342.1</ele>
        <time>2024-10-15T12:56:52Z</time>
      </trkpt>
      <trkpt lat="45.86762" lon="1.23349">
        <ele>342.1</ele>
        <time>2024-10-15T12:56:55Z</time>
      </trkpt>
      <trkpt lat="45.86762" lon="1.23349">
        <ele>342.1</ele>
        <time>2024-10-15T12:56:58Z</time>
      </trkpt>
      <trkpt lat="45.86762" lon="1.2335">
        <ele>342.1</ele>
        <time>2024-10-15T12:57:01Z</time>
      </trkpt>
      <trkpt lat="45.86762" lon="1.2335">
        <ele>342.1</ele>
        <time>2024-10-15T12:57:04Z</time>
      </trkpt>
      <trkpt lat="45.86761" lon="1.2335">
        <ele>342.1</ele>
        <time>2024-10-15T12:57:07Z</time>
      </trkpt>
      <trkpt lat="45.86761" lon="1.23349">
        <ele>342.2</ele>
        <time>2024-10-15T12:57:10Z</time>
      </trkpt>
      <trkpt lat="45.86761" lon="1.23349">
        <ele>342.2</ele>
        <time>2024-10-15T12:57:13Z</time>
      </trkpt>
      <trkpt lat="45.8676" lon="1.23349">
        <ele>342.2</ele>
        <time>2024-10-15T12:57:16Z</time>
      </trkpt>
      <trkpt lat="45.8676" lon="1.23348">
        <ele>342.2</ele>
        <time>2024-10-15T12:57:19Z</time>
      </trkpt>
      <trkpt lat="45.8676" lon="1.23349">
        <ele>342.2</ele>
        <time>2024-10-15T12:57:22Z</time>
      </trkpt>
      <trkpt lat="45.86761" lon="1.23353">
        <ele>342.3</ele>
        <time>2024-10-15T12:57:25Z</time>
      </trkpt>
      <trkpt lat="45.86762" lon="1.23359">
        <ele>342.5</ele>
        <time>2024-10-15T12:57:28Z</time>
      </trkpt>
      <trkpt lat="45.86765" lon="1.23362">
        <ele>342.6</ele>
        <time>2024-10-15T12:57:31Z</time>
      </trkpt>
      <trkpt lat="45.86768" lon="1.23365">
        <ele>342.8</ele>
        <time>2024-10-15T12:57:34Z</time>
      </trkpt>
      <trkpt lat="45.86774" lon="1.2337">
        <ele>343</ele>
        <time>2024-10-15T12:57:37Z</time>
      </trkpt>
      <trkpt lat="45.86779" lon="1.23373">
        <ele>343.3</ele>
        <time>2024-10-15T12:57:40Z</time>
      </trkpt>
      <trkpt lat="45.86787" lon="1.2338">
        <ele>343.6</ele>
        <time>2024-10-15T12:57:43Z</time>
      </trkpt>
      <trkpt lat="45.86795" lon="1.23385">
        <ele>344</ele>
        <time>2024-10-15T12:57:46Z</time>
      </trkpt>
      <trkpt lat="45.86802" lon="1.23389">
        <ele>344.3</ele>
        <time>2024-10-15T12:57:49Z</time>
      </trkpt>
      <trkpt lat="45.86808" lon="1.23393">
        <ele>344.5</ele>
        <time>2024-10-15T12:57:52Z</time>
      </trkpt>
      <trkpt lat="45.86811" lon="1.23399">
        <ele>345.2</ele>
        <time>2024-10-15T12:57:55Z</time>
      </trkpt>
      <trkpt lat="45.86811" lon="1.23405">
        <ele>345.1</ele>
        <time>2024-10-15T12:57:58Z</time>
      </trkpt>
      <trkpt lat="45.86809" lon="1.23413">
        <ele>345</ele>
        <time>2024-10-15T12:58:01Z</time>
      </trkpt>
      <trkpt lat="45.86805" lon="1.23422">
        <ele>345</ele>
        <time>2024-10-15T12:58:04Z</time>
      </trkpt>
      <trkpt lat="45.86802" lon="1.23432">
        <ele>345</ele>
        <time>2024-10-15T12:58:07Z</time>
      </trkpt>
      <trkpt lat="45.86799" lon="1.23443">
        <ele>345</ele>
        <time>2024-10-15T12:58:10Z</time>
      </trkpt>
      <trkpt lat="45.86796" lon="1.23454">
        <ele>345.1</ele>
        <time>2024-10-15T12:58:13Z</time>
      </trkpt>
      <trkpt lat="45.8679" lon="1.23464">
        <ele>344.6</ele>
        <time>2024-10-15T12:58:16Z</time>
      </trkpt>
      <trkpt lat="45.86781" lon="1.23474">
        <ele>344.3</ele>
        <time>2024-10-15T12:58:19Z</time>
      </trkpt>
      <trkpt lat="45.86777" lon="1.23489">
        <ele>344.3</ele>
        <time>2024-10-15T12:58:22Z</time>
      </trkpt>
      <trkpt lat="45.86779" lon="1.23502">
        <ele>344.4</ele>
        <time>2024-10-15T12:58:25Z</time>
      </trkpt>
      <trkpt lat="45.86778" lon="1.23514">
        <ele>344.3</ele>
        <time>2024-10-15T12:58:28Z</time>
      </trkpt>
      <trkpt lat="45.86775" lon="1.23528">
        <ele>344.1</ele>
        <time>2024-10-15T12:58:31Z</time>
      </trkpt>
      <trkpt lat="45.86772" lon="1.23542">
        <ele>344.1</ele>
        <time>2024-10-15T12:58:34Z</time>
      </trkpt>
      <trkpt lat="45.86769" lon="1.23556">
        <ele>344.1</ele>
        <time>2024-10-15T12:58:37Z</time>
      </trkpt>
      <trkpt lat="45.86766" lon="1.23567">
        <ele>344.2</ele>
        <time>2024-10-15T12:58:40Z</time>
      </trkpt>
      <trkpt lat="45.86767" lon="1.23576">
        <ele>344.2</ele>
        <time>2024-10-15T12:58:43Z</time>
      </trkpt>
      <trkpt lat="45.86765" lon="1.23584">
        <ele>344.2</ele>
        <time>2024-10-15T12:58:46Z</time>
      </trkpt>
      <trkpt lat="45.86762" lon="1.23594">
        <ele>344.3</ele>
        <time>2024-10-15T12:58:49Z</time>
      </trkpt>
      <trkpt lat="45.86761" lon="1.23605">
        <ele>344.3</ele>
        <time>2024-10-15T12:58:52Z</time>
      </trkpt>
      <trkpt lat="45.86758" lon="1.23617">
        <ele>344.4</ele>
        <time>2024-10-15T12:58:55Z</time>
      </trkpt>
      <trkpt lat="45.86756" lon="1.23629">
        <ele>344.5</ele>
        <time>2024-10-15T12:58:58Z</time>
      </trkpt>
      <trkpt lat="45.86755" lon="1.23639">
        <ele>344.6</ele>
        <time>2024-10-15T12:59:01Z</time>
      </trkpt>
      <trkpt lat="45.86754" lon="1.23647">
        <ele>344.7</ele>
        <time>2024-10-15T12:59:04Z</time>
      </trkpt>
      <trkpt lat="45.86753" lon="1.23656">
        <ele>344.7</ele>
        <time>2024-10-15T12:59:07Z</time>
      </trkpt>
      <trkpt lat="45.86751" lon="1.23673">
        <ele>344.9</ele>
        <time>2024-10-15T12:59:10Z</time>
      </trkpt>
      <trkpt lat="45.86751" lon="1.23687">
        <ele>345.1</ele>
        <time>2024-10-15T12:59:13Z</time>
      </trkpt>
      <trkpt lat="45.8675" lon="1.23702">
        <ele>345.2</ele>
        <time>2024-10-15T12:59:16Z</time>
      </trkpt>
      <trkpt lat="45.8675" lon="1.23717">
        <ele>345.4</ele>
        <time>2024-10-15T12:59:19Z</time>
      </trkpt>
      <trkpt lat="45.8675" lon="1.23731">
        <ele>345.6</ele>
        <time>2024-10-15T12:59:22Z</time>
      </trkpt>
      <trkpt lat="45.8675" lon="1.23744">
        <ele>345.8</ele>
        <time>2024-10-15T12:59:25Z</time>
      </trkpt>
      <trkpt lat="45.8675" lon="1.23758">
        <ele>345.9</ele>
        <time>2024-10-15T12:59:28Z</time>
      </trkpt>
      <trkpt lat="45.86749" lon="1.23771">
        <ele>346.2</ele>
        <time>2024-10-15T12:59:31Z</time>
      </trkpt>
      <trkpt lat="45.86747" lon="1.23784">
        <ele>346.3</ele>
        <time>2024-10-15T12:59:34Z</time>
      </trkpt>
      <trkpt lat="45.86747" lon="1.23796">
        <ele>346.5</ele>
        <time>2024-10-15T12:59:37Z</time>
      </trkpt>
      <trkpt lat="45.86747" lon="1.23805">
        <ele>346.6</ele>
        <time>2024-10-15T12:59:40Z</time>
      </trkpt>
      <trkpt lat="45.86748" lon="1.23808">
        <ele>346.6</ele>
        <time>2024-10-15T12:59:43Z</time>
      </trkpt>
      <trkpt lat="45.86748" lon="1.23809">
        <ele>346.7</ele>
        <time>2024-10-15T12:59:46Z</time>
      </trkpt>
      <trkpt lat="45.86747" lon="1.23808">
        <ele>346.7</ele>
        <time>2024-10-15T12:59:49Z</time>
      </trkpt>
      <trkpt lat="45.86747" lon="1.23808">
        <ele>346.7</ele>
        <time>2024-10-15T12:59:52Z</time>
      </trkpt>
      <trkpt lat="45.86747" lon="1.23813">
        <ele>346.7</ele>
        <time>2024-10-15T12:59:55Z</time>
      </trkpt>
      <trkpt lat="45.86746" lon="1.23827">
        <ele>346.8</ele>
        <time>2024-10-15T12:59:58Z</time>
      </trkpt>
      <trkpt lat="45.86746" lon="1.23843">
        <ele>346.7</ele>
        <time>2024-10-15T13:00:01Z</time>
      </trkpt>
      <trkpt lat="45.86745" lon="1.23862">
        <ele>346.6</ele>
        <time>2024-10-15T13:00:04Z</time>
      </trkpt>
      <trkpt lat="45.86746" lon="1.23879">
        <ele>346.5</ele>
        <time>2024-10-15T13:00:07Z</time>
      </trkpt>
      <trkpt lat="45.86747" lon="1.23895">
        <ele>346.4</ele>
        <time>2024-10-15T13:00:10Z</time>
      </trkpt>
      <trkpt lat="45.86747" lon="1.23909">
        <ele>346.4</ele>
        <time>2024-10-15T13:00:13Z</time>
      </trkpt>
      <trkpt lat="45.86748" lon="1.23922">
        <ele>346.3</ele>
        <time>2024-10-15T13:00:16Z</time>
      </trkpt>
      <trkpt lat="45.86748" lon="1.23933">
        <ele>346.3</ele>
        <time>2024-10-15T13:00:19Z</time>
      </trkpt>
      <trkpt lat="45.86747" lon="1.23941">
        <ele>346.2</ele>
        <time>2024-10-15T13:00:22Z</time>
      </trkpt>
      <trkpt lat="45.86746" lon="1.23942">
        <ele>346.2</ele>
        <time>2024-10-15T13:00:25Z</time>
      </trkpt>
      <trkpt lat="45.86746" lon="1.23941">
        <ele>346.2</ele>
        <time>2024-10-15T13:00:28Z</time>
      </trkpt>
      <trkpt lat="45.86746" lon="1.2394">
        <ele>346.2</ele>
        <time>2024-10-15T13:00:31Z</time>
      </trkpt>
      <trkpt lat="45.86747" lon="1.23943">
        <ele>346.2</ele>
        <time>2024-10-15T13:00:34Z</time>
      </trkpt>
      <trkpt lat="45.86751" lon="1.23941">
        <ele>346.2</ele>
        <time>2024-10-15T13:00:37Z</time>
      </trkpt>
      <trkpt lat="45.86751" lon="1.23934">
        <ele>346.2</ele>
        <time>2024-10-15T13:00:40Z</time>
      </trkpt>
      <trkpt lat="45.86752" lon="1.23922">
        <ele>346.1</ele>
        <time>2024-10-15T13:00:43Z</time>
      </trkpt>
      <trkpt lat="45.86749" lon="1.23915">
        <ele>346.1</ele>
        <time>2024-10-15T13:00:46Z</time>
      </trkpt>
      <trkpt lat="45.86747" lon="1.23913">
        <ele>346.1</ele>
        <time>2024-10-15T13:00:49Z</time>
      </trkpt>
      <trkpt lat="45.86747" lon="1.23913">
        <ele>346.1</ele>
        <time>2024-10-15T13:00:52Z</time>
      </trkpt>
      <trkpt lat="45.86747" lon="1.23913">
        <ele>346.1</ele>
        <time>2024-10-15T13:00:55Z</time>
      </trkpt>
      <trkpt lat="45.86747" lon="1.23913">
        <ele>346.1</ele>
        <time>2024-10-15T13:00:58Z</time>
      </trkpt>
      <trkpt lat="45.86747" lon="1.23913">
        <ele>346.1</ele>
        <time>2024-10-15T13:01:01Z</time>
      </trkpt>
      <trkpt lat="45.86747" lon="1.23913">
        <ele>346.1</ele>
        <time>2024-10-15T13:01:04Z</time>
      </trkpt>
      <trkpt lat="45.86748" lon="1.23914">
        <ele>346.1</ele>
        <time>2024-10-15T13:01:07Z</time>
      </trkpt>
      <trkpt lat="45.86748" lon="1.23918">
        <ele>346.1</ele>
        <time>2024-10-15T13:01:10Z</time>
      </trkpt>
      <trkpt lat="45.86749" lon="1.23928">
        <ele>346.1</ele>
        <time>2024-10-15T13:01:13Z</time>
      </trkpt>
      <trkpt lat="45.86749" lon="1.23941">
        <ele>346</ele>
        <time>2024-10-15T13:01:16Z</time>
      </trkpt>
      <trkpt lat="45.86751" lon="1.23955">
        <ele>346</ele>
        <time>2024-10-15T13:01:19Z</time>
      </trkpt>
      <trkpt lat="45.86755" lon="1.23966">
        <ele>346</ele>
        <time>2024-10-15T13:01:22Z</time>
      </trkpt>
      <trkpt lat="45.86766" lon="1.23968">
        <ele>346</ele>
        <time>2024-10-15T13:01:25Z</time>
      </trkpt>
      <trkpt lat="45.86777" lon="1.23967">
        <ele>346.1</ele>
        <time>2024-10-15T13:01:28Z</time>
      </trkpt>
      <trkpt lat="45.86788" lon="1.23967">
        <ele>346.3</ele>
        <time>2024-10-15T13:01:31Z</time>
      </trkpt>
      <trkpt lat="45.868" lon="1.23967">
        <ele>346.5</ele>
        <time>2024-10-15T13:01:34Z</time>
      </trkpt>
      <trkpt lat="45.86811" lon="1.23967">
        <ele>346.8</ele>
        <time>2024-10-15T13:01:37Z</time>
      </trkpt>
      <trkpt lat="45.86823" lon="1.23967">
        <ele>347.1</ele>
        <time>2024-10-15T13:01:40Z</time>
      </trkpt>
      <trkpt lat="45.86833" lon="1.23967">
        <ele>347.4</ele>
        <time>2024-10-15T13:01:43Z</time>
      </trkpt>
      <trkpt lat="45.86843" lon="1.23966">
        <ele>347.8</ele>
        <time>2024-10-15T13:01:46Z</time>
      </trkpt>
      <trkpt lat="45.86852" lon="1.23966">
        <ele>348.1</ele>
        <time>2024-10-15T13:01:49Z</time>
      </trkpt>
      <trkpt lat="45.86856" lon="1.23976">
        <ele>347.9</ele>
        <time>2024-10-15T13:01:52Z</time>
      </trkpt>
      <trkpt lat="45.86856" lon="1.23994">
        <ele>347.5</ele>
        <time>2024-10-15T13:01:55Z</time>
      </trkpt>
      <trkpt lat="45.86856" lon="1.24014">
        <ele>346.9</ele>
        <time>2024-10-15T13:01:58Z</time>
      </trkpt>
      <trkpt lat="45.86855" lon="1.24029">
        <ele>346.4</ele>
        <time>2024-10-15T13:02:01Z</time>
      </trkpt>
      <trkpt lat="45.86859" lon="1.24037">
        <ele>345.9</ele>
        <time>2024-10-15T13:02:04Z</time>
      </trkpt>
      <trkpt lat="45.8687" lon="1.24044">
        <ele>345.4</ele>
        <time>2024-10-15T13:02:07Z</time>
      </trkpt>
      <trkpt lat="45.86882" lon="1.24049">
        <ele>345.1</ele>
        <time>2024-10-15T13:02:10Z</time>
      </trkpt>
      <trkpt lat="45.86893" lon="1.24056">
        <ele>345</ele>
        <time>2024-10-15T13:02:13Z</time>
      </trkpt>
      <trkpt lat="45.86905" lon="1.24063">
        <ele>344.9</ele>
        <time>2024-10-15T13:02:16Z</time>
      </trkpt>
      <trkpt lat="45.86917" lon="1.2407">
        <ele>345.1</ele>
        <time>2024-10-15T13:02:19Z</time>
      </trkpt>
      <trkpt lat="45.86927" lon="1.24075">
        <ele>345.4</ele>
        <time>2024-10-15T13:02:22Z</time>
      </trkpt>
      <trkpt lat="45.86938" lon="1.24081">
        <ele>345.6</ele>
        <time>2024-10-15T13:02:25Z</time>
      </trkpt>
      <trkpt lat="45.86948" lon="1.24084">
        <ele>345.4</ele>
        <time>2024-10-15T13:02:28Z</time>
      </trkpt>
      <trkpt lat="45.8696" lon="1.2409">
        <ele>344.9</ele>
        <time>2024-10-15T13:02:31Z</time>
      </trkpt>
      <trkpt lat="45.86973" lon="1.24097">
        <ele>344.1</ele>
        <time>2024-10-15T13:02:34Z</time>
      </trkpt>
      <trkpt lat="45.86987" lon="1.24106">
        <ele>343.4</ele>
        <time>2024-10-15T13:02:37Z</time>
      </trkpt>
      <trkpt lat="45.87002" lon="1.2412">
        <ele>343</ele>
        <time>2024-10-15T13:02:40Z</time>
      </trkpt>
      <trkpt lat="45.87015" lon="1.2413">
        <ele>342.8</ele>
        <time>2024-10-15T13:02:43Z</time>
      </trkpt>
      <trkpt lat="45.87025" lon="1.24143">
        <ele>342.5</ele>
        <time>2024-10-15T13:02:46Z</time>
      </trkpt>
      <trkpt lat="45.87038" lon="1.24151">
        <ele>342.2</ele>
        <time>2024-10-15T13:02:49Z</time>
      </trkpt>
      <trkpt lat="45.87047" lon="1.24161">
        <ele>342.1</ele>
        <time>2024-10-15T13:02:52Z</time>
      </trkpt>
      <trkpt lat="45.87059" lon="1.24175">
        <ele>341.9</ele>
        <time>2024-10-15T13:02:55Z</time>
      </trkpt>
      <trkpt lat="45.87071" lon="1.24185">
        <ele>342</ele>
        <time>2024-10-15T13:02:58Z</time>
      </trkpt>
      <trkpt lat="45.87079" lon="1.24191">
        <ele>342.2</ele>
        <time>2024-10-15T13:03:01Z</time>
      </trkpt>
      <trkpt lat="45.8708" lon="1.24195">
        <ele>342.3</ele>
        <time>2024-10-15T13:03:04Z</time>
      </trkpt>
      <trkpt lat="45.87086" lon="1.24199">
        <ele>342.5</ele>
        <time>2024-10-15T13:03:07Z</time>
      </trkpt>
      <trkpt lat="45.87089" lon="1.24211">
        <ele>341.7</ele>
        <time>2024-10-15T13:03:10Z</time>
      </trkpt>
      <trkpt lat="45.87081" lon="1.2422">
        <ele>340.5</ele>
        <time>2024-10-15T13:03:13Z</time>
      </trkpt>
      <trkpt lat="45.87073" lon="1.24226">
        <ele>339.6</ele>
        <time>2024-10-15T13:03:16Z</time>
      </trkpt>
      <trkpt lat="45.87066" lon="1.24232">
        <ele>338.9</ele>
        <time>2024-10-15T13:03:19Z</time>
      </trkpt>
      <trkpt lat="45.87057" lon="1.24241">
        <ele>337.9</ele>
        <time>2024-10-15T13:03:22Z</time>
      </trkpt>
      <trkpt lat="45.87047" lon="1.24249">
        <ele>336.9</ele>
        <time>2024-10-15T13:03:25Z</time>
      </trkpt>
      <trkpt lat="45.87042" lon="1.2426">
        <ele>336.2</ele>
        <time>2024-10-15T13:03:28Z</time>
      </trkpt>
      <trkpt lat="45.87045" lon="1.24275">
        <ele>335.4</ele>
        <time>2024-10-15T13:03:31Z</time>
      </trkpt>
      <trkpt lat="45.87053" lon="1.24293">
        <ele>334.7</ele>
        <time>2024-10-15T13:03:34Z</time>
      </trkpt>
      <trkpt lat="45.87059" lon="1.24312">
        <ele>334.2</ele>
        <time>2024-10-15T13:03:37Z</time>
      </trkpt>
      <trkpt lat="45.87065" lon="1.24328">
        <ele>333.9</ele>
        <time>2024-10-15T13:03:40Z</time>
      </trkpt>
      <trkpt lat="45.87071" lon="1.24344">
        <ele>333.7</ele>
        <time>2024-10-15T13:03:43Z</time>
      </trkpt>
      <trkpt lat="45.87076" lon="1.2436">
        <ele>333.6</ele>
        <time>2024-10-15T13:03:46Z</time>
      </trkpt>
      <trkpt lat="45.8708" lon="1.24374">
        <ele>333.7</ele>
        <time>2024-10-15T13:03:49Z</time>
      </trkpt>
      <trkpt lat="45.87085" lon="1.24389">
        <ele>333.9</ele>
        <time>2024-10-15T13:03:52Z</time>
      </trkpt>
      <trkpt lat="45.87089" lon="1.24403">
        <ele>334.2</ele>
        <time>2024-10-15T13:03:55Z</time>
      </trkpt>
      <trkpt lat="45.87094" lon="1.24418">
        <ele>334.6</ele>
        <time>2024-10-15T13:03:58Z</time>
      </trkpt>
      <trkpt lat="45.87097" lon="1.24432">
        <ele>335</ele>
        <time>2024-10-15T13:04:01Z</time>
      </trkpt>
      <trkpt lat="45.87102" lon="1.24443">
        <ele>335.4</ele>
        <time>2024-10-15T13:04:04Z</time>
      </trkpt>
      <trkpt lat="45.87106" lon="1.24455">
        <ele>335.9</ele>
        <time>2024-10-15T13:04:07Z</time>
      </trkpt>
      <trkpt lat="45.87109" lon="1.24465">
        <ele>336.5</ele>
        <time>2024-10-15T13:04:10Z</time>
      </trkpt>
      <trkpt lat="45.87112" lon="1.24474">
        <ele>337</ele>
        <time>2024-10-15T13:04:13Z</time>
      </trkpt>
      <trkpt lat="45.87115" lon="1.24483">
        <ele>337.5</ele>
        <time>2024-10-15T13:04:16Z</time>
      </trkpt>
      <trkpt lat="45.87119" lon="1.24492">
        <ele>338</ele>
        <time>2024-10-15T13:04:19Z</time>
      </trkpt>
      <trkpt lat="45.87121" lon="1.24501">
        <ele>338.4</ele>
        <time>2024-10-15T13:04:22Z</time>
      </trkpt>
      <trkpt lat="45.87125" lon="1.2451">
        <ele>338.7</ele>
        <time>2024-10-15T13:04:25Z</time>
      </trkpt>
      <trkpt lat="45.87128" lon="1.24521">
        <ele>338.7</ele>
        <time>2024-10-15T13:04:28Z</time>
      </trkpt>
      <trkpt lat="45.87132" lon="1.24531">
        <ele>338.6</ele>
        <time>2024-10-15T13:04:31Z</time>
      </trkpt>
      <trkpt lat="45.87136" lon="1.24544">
        <ele>338.2</ele>
        <time>2024-10-15T13:04:34Z</time>
      </trkpt>
      <trkpt lat="45.87142" lon="1.24554">
        <ele>338</ele>
        <time>2024-10-15T13:04:37Z</time>
      </trkpt>
      <trkpt lat="45.8715" lon="1.24563">
        <ele>337.4</ele>
        <time>2024-10-15T13:04:40Z</time>
      </trkpt>
      <trkpt lat="45.8716" lon="1.24567">
        <ele>336.5</ele>
        <time>2024-10-15T13:04:43Z</time>
      </trkpt>
      <trkpt lat="45.87175" lon="1.24571">
        <ele>335.1</ele>
        <time>2024-10-15T13:04:46Z</time>
      </trkpt>
      <trkpt lat="45.8719" lon="1.24571">
        <ele>334.5</ele>
        <time>2024-10-15T13:04:49Z</time>
      </trkpt>
      <trkpt lat="45.87203" lon="1.2457">
        <ele>334.1</ele>
        <time>2024-10-15T13:04:52Z</time>
      </trkpt>
      <trkpt lat="45.87209" lon="1.24571">
        <ele>333.7</ele>
        <time>2024-10-15T13:04:55Z</time>
      </trkpt>
      <trkpt lat="45.87217" lon="1.24571">
        <ele>333</ele>
        <time>2024-10-15T13:04:58Z</time>
      </trkpt>
      <trkpt lat="45.87224" lon="1.24571">
        <ele>331.8</ele>
        <time>2024-10-15T13:05:01Z</time>
      </trkpt>
      <trkpt lat="45.87229" lon="1.24572">
        <ele>330.7</ele>
        <time>2024-10-15T13:05:04Z</time>
      </trkpt>
      <trkpt lat="45.87234" lon="1.2457">
        <ele>330.4</ele>
        <time>2024-10-15T13:05:07Z</time>
      </trkpt>
      <trkpt lat="45.87243" lon="1.24558">
        <ele>330.9</ele>
        <time>2024-10-15T13:05:10Z</time>
      </trkpt>
      <trkpt lat="45.87248" lon="1.24547">
        <ele>331.3</ele>
        <time>2024-10-15T13:05:13Z</time>
      </trkpt>
      <trkpt lat="45.87257" lon="1.24536">
        <ele>331.7</ele>
        <time>2024-10-15T13:05:16Z</time>
      </trkpt>
      <trkpt lat="45.87265" lon="1.24531">
        <ele>332</ele>
        <time>2024-10-15T13:05:19Z</time>
      </trkpt>
      <trkpt lat="45.87274" lon="1.24524">
        <ele>332.2</ele>
        <time>2024-10-15T13:05:22Z</time>
      </trkpt>
      <trkpt lat="45.87283" lon="1.24515">
        <ele>332.3</ele>
        <time>2024-10-15T13:05:25Z</time>
      </trkpt>
      <trkpt lat="45.87293" lon="1.24509">
        <ele>332.4</ele>
        <time>2024-10-15T13:05:28Z</time>
      </trkpt>
      <trkpt lat="45.87301" lon="1.24508">
        <ele>332.5</ele>
        <time>2024-10-15T13:05:31Z</time>
      </trkpt>
      <trkpt lat="45.8731" lon="1.24501">
        <ele>332.7</ele>
        <time>2024-10-15T13:05:34Z</time>
      </trkpt>
      <trkpt lat="45.87318" lon="1.24495">
        <ele>332.9</ele>
        <time>2024-10-15T13:05:37Z</time>
      </trkpt>
      <trkpt lat="45.87325" lon="1.2449">
        <ele>333</ele>
        <time>2024-10-15T13:05:40Z</time>
      </trkpt>
      <trkpt lat="45.87332" lon="1.24489">
        <ele>333.2</ele>
        <time>2024-10-15T13:05:43Z</time>
      </trkpt>
      <trkpt lat="45.87344" lon="1.24488">
        <ele>333.4</ele>
        <time>2024-10-15T13:05:46Z</time>
      </trkpt>
      <trkpt lat="45.87355" lon="1.24489">
        <ele>333.8</ele>
        <time>2024-10-15T13:05:49Z</time>
      </trkpt>
      <trkpt lat="45.87363" lon="1.24492">
        <ele>334.2</ele>
        <time>2024-10-15T13:05:52Z</time>
      </trkpt>
      <trkpt lat="45.87372" lon="1.24494">
        <ele>334.6</ele>
        <time>2024-10-15T13:05:55Z</time>
      </trkpt>
      <trkpt lat="45.87377" lon="1.24495">
        <ele>334.9</ele>
        <time>2024-10-15T13:05:58Z</time>
      </trkpt>
      <trkpt lat="45.87384" lon="1.24494">
        <ele>335.2</ele>
        <time>2024-10-15T13:06:01Z</time>
      </trkpt>
      <trkpt lat="45.87393" lon="1.24491">
        <ele>335.6</ele>
        <time>2024-10-15T13:06:04Z</time>
      </trkpt>
      <trkpt lat="45.87399" lon="1.24485">
        <ele>335.9</ele>
        <time>2024-10-15T13:06:07Z</time>
      </trkpt>
      <trkpt lat="45.87405" lon="1.24478">
        <ele>336.3</ele>
        <time>2024-10-15T13:06:10Z</time>
      </trkpt>
      <trkpt lat="45.87413" lon="1.2447">
        <ele>336.3</ele>
        <time>2024-10-15T13:06:13Z</time>
      </trkpt>
      <trkpt lat="45.87419" lon="1.24463">
        <ele>336.4</ele>
        <time>2024-10-15T13:06:16Z</time>
      </trkpt>
      <trkpt lat="45.87425" lon="1.24456">
        <ele>336.4</ele>
        <time>2024-10-15T13:06:19Z</time>
      </trkpt>
      <trkpt lat="45.8743" lon="1.24448">
        <ele>336.5</ele>
        <time>2024-10-15T13:06:22Z</time>
      </trkpt>
      <trkpt lat="45.87435" lon="1.2444">
        <ele>336.7</ele>
        <time>2024-10-15T13:06:25Z</time>
      </trkpt>
      <trkpt lat="45.87441" lon="1.24431">
        <ele>336.9</ele>
        <time>2024-10-15T13:06:28Z</time>
      </trkpt>
      <trkpt lat="45.87448" lon="1.24425">
        <ele>337.1</ele>
        <time>2024-10-15T13:06:31Z</time>
      </trkpt>
      <trkpt lat="45.87455" lon="1.2442">
        <ele>337.3</ele>
        <time>2024-10-15T13:06:34Z</time>
      </trkpt>
      <trkpt lat="45.87463" lon="1.24413">
        <ele>337.5</ele>
        <time>2024-10-15T13:06:37Z</time>
      </trkpt>
      <trkpt lat="45.87471" lon="1.24411">
        <ele>337.6</ele>
        <time>2024-10-15T13:06:40Z</time>
      </trkpt>
      <trkpt lat="45.87479" lon="1.24408">
        <ele>337.7</ele>
        <time>2024-10-15T13:06:43Z</time>
      </trkpt>
      <trkpt lat="45.87486" lon="1.24405">
        <ele>337.8</ele>
        <time>2024-10-15T13:06:46Z</time>
      </trkpt>
      <trkpt lat="45.87494" lon="1.24408">
        <ele>338.2</ele>
        <time>2024-10-15T13:06:49Z</time>
      </trkpt>
      <trkpt lat="45.87502" lon="1.24415">
        <ele>338.8</ele>
        <time>2024-10-15T13:06:52Z</time>
      </trkpt>
      <trkpt lat="45.87511" lon="1.24421">
        <ele>339.4</ele>
        <time>2024-10-15T13:06:55Z</time>
      </trkpt>
      <trkpt lat="45.87517" lon="1.24424">
        <ele>339.3</ele>
        <time>2024-10-15T13:06:58Z</time>
      </trkpt>
      <trkpt lat="45.87523" lon="1.24423">
        <ele>339.1</ele>
        <time>2024-10-15T13:07:01Z</time>
      </trkpt>
      <trkpt lat="45.87528" lon="1.24422">
        <ele>339</ele>
        <time>2024-10-15T13:07:04Z</time>
      </trkpt>
      <trkpt lat="45.87532" lon="1.24418">
        <ele>338.9</ele>
        <time>2024-10-15T13:07:07Z</time>
      </trkpt>
      <trkpt lat="45.87533" lon="1.24412">
        <ele>339</ele>
        <time>2024-10-15T13:07:10Z</time>
      </trkpt>
      <trkpt lat="45.87536" lon="1.24406">
        <ele>339.1</ele>
        <time>2024-10-15T13:07:13Z</time>
      </trkpt>
      <trkpt lat="45.87538" lon="1.244">
        <ele>339.2</ele>
        <time>2024-10-15T13:07:16Z</time>
      </trkpt>
      <trkpt lat="45.87543" lon="1.24394">
        <ele>339.3</ele>
        <time>2024-10-15T13:07:19Z</time>
      </trkpt>
      <trkpt lat="45.87546" lon="1.24391">
        <ele>339.4</ele>
        <time>2024-10-15T13:07:22Z</time>
      </trkpt>
      <trkpt lat="45.87552" lon="1.24394">
        <ele>339.9</ele>
        <time>2024-10-15T13:07:25Z</time>
      </trkpt>
      <trkpt lat="45.87557" lon="1.24402">
        <ele>340.1</ele>
        <time>2024-10-15T13:07:28Z</time>
      </trkpt>
      <trkpt lat="45.87563" lon="1.2441">
        <ele>340.4</ele>
        <time>2024-10-15T13:07:31Z</time>
      </trkpt>
      <trkpt lat="45.87569" lon="1.24418">
        <ele>340.8</ele>
        <time>2024-10-15T13:07:34Z</time>
      </trkpt>
      <trkpt lat="45.87576" lon="1.24423">
        <ele>341.3</ele>
        <time>2024-10-15T13:07:37Z</time>
      </trkpt>
      <trkpt lat="45.87583" lon="1.24428">
        <ele>341.8</ele>
        <time>2024-10-15T13:07:40Z</time>
      </trkpt>
      <trkpt lat="45.8759" lon="1.24427">
        <ele>342.3</ele>
        <time>2024-10-15T13:07:43Z</time>
      </trkpt>
      <trkpt lat="45.87598" lon="1.24427">
        <ele>343</ele>
        <time>2024-10-15T13:07:46Z</time>
      </trkpt>
      <trkpt lat="45.87603" lon="1.24424">
        <ele>343.5</ele>
        <time>2024-10-15T13:07:49Z</time>
      </trkpt>
      <trkpt lat="45.87608" lon="1.24422">
        <ele>343.9</ele>
        <time>2024-10-15T13:07:52Z</time>
      </trkpt>
      <trkpt lat="45.87611" lon="1.24417">
        <ele>344.4</ele>
        <time>2024-10-15T13:07:55Z</time>
      </trkpt>
      <trkpt lat="45.87617" lon="1.24414">
        <ele>345.1</ele>
        <time>2024-10-15T13:07:58Z</time>
      </trkpt>
      <trkpt lat="45.87622" lon="1.2441">
        <ele>345.7</ele>
        <time>2024-10-15T13:08:01Z</time>
      </trkpt>
      <trkpt lat="45.87627" lon="1.24405">
        <ele>346.4</ele>
        <time>2024-10-15T13:08:04Z</time>
      </trkpt>
      <trkpt lat="45.87631" lon="1.24401">
        <ele>347</ele>
        <time>2024-10-15T13:08:07Z</time>
      </trkpt>
      <trkpt lat="45.87634" lon="1.24397">
        <ele>347.5</ele>
        <time>2024-10-15T13:08:10Z</time>
      </trkpt>
      <trkpt lat="45.87637" lon="1.24395">
        <ele>347.9</ele>
        <time>2024-10-15T13:08:13Z</time>
      </trkpt>
      <trkpt lat="45.87641" lon="1.24393">
        <ele>348.5</ele>
        <time>2024-10-15T13:08:16Z</time>
      </trkpt>
      <trkpt lat="45.87646" lon="1.2439">
        <ele>349.2</ele>
        <time>2024-10-15T13:08:19Z</time>
      </trkpt>
      <trkpt lat="45.87652" lon="1.24388">
        <ele>350</ele>
        <time>2024-10-15T13:08:22Z</time>
      </trkpt>
      <trkpt lat="45.87657" lon="1.24387">
        <ele>350.6</ele>
        <time>2024-10-15T13:08:25Z</time>
      </trkpt>
      <trkpt lat="45.87662" lon="1.24387">
        <ele>351.2</ele>
        <time>2024-10-15T13:08:28Z</time>
      </trkpt>
      <trkpt lat="45.87667" lon="1.24386">
        <ele>351.7</ele>
        <time>2024-10-15T13:08:31Z</time>
      </trkpt>
      <trkpt lat="45.87671" lon="1.24386">
        <ele>352.2</ele>
        <time>2024-10-15T13:08:34Z</time>
      </trkpt>
      <trkpt lat="45.87677" lon="1.24388">
        <ele>352.7</ele>
        <time>2024-10-15T13:08:37Z</time>
      </trkpt>
      <trkpt lat="45.87679" lon="1.24395">
        <ele>352.7</ele>
        <time>2024-10-15T13:08:40Z</time>
      </trkpt>
      <trkpt lat="45.87681" lon="1.24404">
        <ele>352.6</ele>
        <time>2024-10-15T13:08:43Z</time>
      </trkpt>
      <trkpt lat="45.87682" lon="1.24416">
        <ele>352.6</ele>
        <time>2024-10-15T13:08:46Z</time>
      </trkpt>
      <trkpt lat="45.87682" lon="1.24428">
        <ele>352.7</ele>
        <time>2024-10-15T13:08:49Z</time>
      </trkpt>
      <trkpt lat="45.87681" lon="1.24439">
        <ele>352.7</ele>
        <time>2024-10-15T13:08:52Z</time>
      </trkpt>
      <trkpt lat="45.87681" lon="1.24451">
        <ele>352.9</ele>
        <time>2024-10-15T13:08:55Z</time>
      </trkpt>
      <trkpt lat="45.8768" lon="1.24462">
        <ele>353</ele>
        <time>2024-10-15T13:08:58Z</time>
      </trkpt>
      <trkpt lat="45.8768" lon="1.24474">
        <ele>353.2</ele>
        <time>2024-10-15T13:09:01Z</time>
      </trkpt>
      <trkpt lat="45.87679" lon="1.24485">
        <ele>353.3</ele>
        <time>2024-10-15T13:09:04Z</time>
      </trkpt>
      <trkpt lat="45.8768" lon="1.24497">
        <ele>353.4</ele>
        <time>2024-10-15T13:09:07Z</time>
      </trkpt>
      <trkpt lat="45.8768" lon="1.24508">
        <ele>353.6</ele>
        <time>2024-10-15T13:09:10Z</time>
      </trkpt>
      <trkpt lat="45.8768" lon="1.24521">
        <ele>353.7</ele>
        <time>2024-10-15T13:09:13Z</time>
      </trkpt>
      <trkpt lat="45.87681" lon="1.24535">
        <ele>353.7</ele>
        <time>2024-10-15T13:09:16Z</time>
      </trkpt>
      <trkpt lat="45.87681" lon="1.24553">
        <ele>353.6</ele>
        <time>2024-10-15T13:09:19Z</time>
      </trkpt>
      <trkpt lat="45.8768" lon="1.24571">
        <ele>353.6</ele>
        <time>2024-10-15T13:09:22Z</time>
      </trkpt>
      <trkpt lat="45.87678" lon="1.24588">
        <ele>353.6</ele>
        <time>2024-10-15T13:09:25Z</time>
      </trkpt>
      <trkpt lat="45.87674" lon="1.24606">
        <ele>353.6</ele>
        <time>2024-10-15T13:09:28Z</time>
      </trkpt>
      <trkpt lat="45.8767" lon="1.24622">
        <ele>353.6</ele>
        <time>2024-10-15T13:09:31Z</time>
      </trkpt>
      <trkpt lat="45.87666" lon="1.24639">
        <ele>353.5</ele>
        <time>2024-10-15T13:09:34Z</time>
      </trkpt>
      <trkpt lat="45.87661" lon="1.24661">
        <ele>353.4</ele>
        <time>2024-10-15T13:09:37Z</time>
      </trkpt>
      <trkpt lat="45.8766" lon="1.24687">
        <ele>353.3</ele>
        <time>2024-10-15T13:09:40Z</time>
      </trkpt>
      <trkpt lat="45.87662" lon="1.24713">
        <ele>353</ele>
        <time>2024-10-15T13:09:43Z</time>
      </trkpt>
      <trkpt lat="45.87665" lon="1.24738">
        <ele>352.7</ele>
        <time>2024-10-15T13:09:46Z</time>
      </trkpt>
      <trkpt lat="45.87666" lon="1.24763">
        <ele>352.4</ele>
        <time>2024-10-15T13:09:49Z</time>
      </trkpt>
      <trkpt lat="45.87663" lon="1.24789">
        <ele>352.2</ele>
        <time>2024-10-15T13:09:52Z</time>
      </trkpt>
      <trkpt lat="45.87658" lon="1.24812">
        <ele>352.2</ele>
        <time>2024-10-15T13:09:55Z</time>
      </trkpt>
      <trkpt lat="45.87651" lon="1.24832">
        <ele>352.3</ele>
        <time>2024-10-15T13:09:58Z</time>
      </trkpt>
      <trkpt lat="45.87642" lon="1.2485">
        <ele>352.5</ele>
        <time>2024-10-15T13:10:01Z</time>
      </trkpt>
      <trkpt lat="45.87632" lon="1.24864">
        <ele>352.9</ele>
        <time>2024-10-15T13:10:04Z</time>
      </trkpt>
      <trkpt lat="45.87621" lon="1.24877">
        <ele>353.2</ele>
        <time>2024-10-15T13:10:07Z</time>
      </trkpt>
      <trkpt lat="45.87611" lon="1.24887">
        <ele>353.5</ele>
        <time>2024-10-15T13:10:10Z</time>
      </trkpt>
      <trkpt lat="45.876" lon="1.24897">
        <ele>353.8</ele>
        <time>2024-10-15T13:10:13Z</time>
      </trkpt>
      <trkpt lat="45.87589" lon="1.24907">
        <ele>354.1</ele>
        <time>2024-10-15T13:10:16Z</time>
      </trkpt>
      <trkpt lat="45.87579" lon="1.24918">
        <ele>354.3</ele>
        <time>2024-10-15T13:10:19Z</time>
      </trkpt>
      <trkpt lat="45.87567" lon="1.24927">
        <ele>354.4</ele>
        <time>2024-10-15T13:10:22Z</time>
      </trkpt>
      <trkpt lat="45.87554" lon="1.24936">
        <ele>354.4</ele>
        <time>2024-10-15T13:10:25Z</time>
      </trkpt>
      <trkpt lat="45.87543" lon="1.24948">
        <ele>354.2</ele>
        <time>2024-10-15T13:10:28Z</time>
      </trkpt>
      <trkpt lat="45.87532" lon="1.24961">
        <ele>353.9</ele>
        <time>2024-10-15T13:10:31Z</time>
      </trkpt>
      <trkpt lat="45.87521" lon="1.24975">
        <ele>353.6</ele>
        <time>2024-10-15T13:10:34Z</time>
      </trkpt>
      <trkpt lat="45.87509" lon="1.24991">
        <ele>353</ele>
        <time>2024-10-15T13:10:37Z</time>
      </trkpt>
      <trkpt lat="45.87497" lon="1.25008">
        <ele>352.3</ele>
        <time>2024-10-15T13:10:40Z</time>
      </trkpt>
      <trkpt lat="45.87484" lon="1.25024">
        <ele>351.6</ele>
        <time>2024-10-15T13:10:43Z</time>
      </trkpt>
      <trkpt lat="45.87472" lon="1.25041">
        <ele>350.9</ele>
        <time>2024-10-15T13:10:46Z</time>
      </trkpt>
      <trkpt lat="45.87457" lon="1.25058">
        <ele>349.9</ele>
        <time>2024-10-15T13:10:49Z</time>
      </trkpt>
      <trkpt lat="45.87443" lon="1.25077">
        <ele>349.1</ele>
        <time>2024-10-15T13:10:52Z</time>
      </trkpt>
      <trkpt lat="45.87428" lon="1.25096">
        <ele>348.4</ele>
        <time>2024-10-15T13:10:55Z</time>
      </trkpt>
      <trkpt lat="45.87412" lon="1.25116">
        <ele>347.6</ele>
        <time>2024-10-15T13:10:58Z</time>
      </trkpt>
      <trkpt lat="45.87395" lon="1.25136">
        <ele>346.8</ele>
        <time>2024-10-15T13:11:01Z</time>
      </trkpt>
      <trkpt lat="45.8738" lon="1.25159">
        <ele>346</ele>
        <time>2024-10-15T13:11:04Z</time>
      </trkpt>
      <trkpt lat="45.87368" lon="1.25185">
        <ele>345.4</ele>
        <time>2024-10-15T13:11:07Z</time>
      </trkpt>
      <trkpt lat="45.87359" lon="1.25215">
        <ele>345.4</ele>
        <time>2024-10-15T13:11:10Z</time>
      </trkpt>
      <trkpt lat="45.87353" lon="1.25245">
        <ele>344.4</ele>
        <time>2024-10-15T13:11:13Z</time>
      </trkpt>
      <trkpt lat="45.87351" lon="1.25276">
        <ele>343.3</ele>
        <time>2024-10-15T13:11:16Z</time>
      </trkpt>
      <trkpt lat="45.87351" lon="1.25307">
        <ele>342.1</ele>
        <time>2024-10-15T13:11:19Z</time>
      </trkpt>
      <trkpt lat="45.87354" lon="1.2534">
        <ele>341</ele>
        <time>2024-10-15T13:11:22Z</time>
      </trkpt>
      <trkpt lat="45.87355" lon="1.25372">
        <ele>339.9</ele>
        <time>2024-10-15T13:11:25Z</time>
      </trkpt>
      <trkpt lat="45.87355" lon="1.25405">
        <ele>339.2</ele>
        <time>2024-10-15T13:11:28Z</time>
      </trkpt>
      <trkpt lat="45.87353" lon="1.25434">
        <ele>338.9</ele>
        <time>2024-10-15T13:11:31Z</time>
      </trkpt>
      <trkpt lat="45.87353" lon="1.25456">
        <ele>338.7</ele>
        <time>2024-10-15T13:11:34Z</time>
      </trkpt>
      <trkpt lat="45.87366" lon="1.25468">
        <ele>338.9</ele>
        <time>2024-10-15T13:11:37Z</time>
      </trkpt>
      <trkpt lat="45.87381" lon="1.25474">
        <ele>339.1</ele>
        <time>2024-10-15T13:11:40Z</time>
      </trkpt>
      <trkpt lat="45.87397" lon="1.25482">
        <ele>339.5</ele>
        <time>2024-10-15T13:11:43Z</time>
      </trkpt>
      <trkpt lat="45.87412" lon="1.25492">
        <ele>340</ele>
        <time>2024-10-15T13:11:46Z</time>
      </trkpt>
      <trkpt lat="45.87425" lon="1.25503">
        <ele>340.5</ele>
        <time>2024-10-15T13:11:49Z</time>
      </trkpt>
      <trkpt lat="45.87434" lon="1.25519">
        <ele>341.1</ele>
        <time>2024-10-15T13:11:52Z</time>
      </trkpt>
      <trkpt lat="45.87442" lon="1.25534">
        <ele>341.6</ele>
        <time>2024-10-15T13:11:55Z</time>
      </trkpt>
      <trkpt lat="45.87451" lon="1.25548">
        <ele>342.2</ele>
        <time>2024-10-15T13:11:58Z</time>
      </trkpt>
      <trkpt lat="45.87459" lon="1.2556">
        <ele>342.7</ele>
        <time>2024-10-15T13:12:01Z</time>
      </trkpt>
      <trkpt lat="45.87465" lon="1.25571">
        <ele>343.1</ele>
        <time>2024-10-15T13:12:04Z</time>
      </trkpt>
      <trkpt lat="45.87472" lon="1.25583">
        <ele>343.6</ele>
        <time>2024-10-15T13:12:07Z</time>
      </trkpt>
      <trkpt lat="45.87479" lon="1.25595">
        <ele>344</ele>
        <time>2024-10-15T13:12:10Z</time>
      </trkpt>
      <trkpt lat="45.87486" lon="1.25607">
        <ele>344.5</ele>
        <time>2024-10-15T13:12:13Z</time>
      </trkpt>
      <trkpt lat="45.87493" lon="1.25619">
        <ele>344.9</ele>
        <time>2024-10-15T13:12:16Z</time>
      </trkpt>
      <trkpt lat="45.875" lon="1.25631">
        <ele>345.4</ele>
        <time>2024-10-15T13:12:19Z</time>
      </trkpt>
      <trkpt lat="45.87506" lon="1.25643">
        <ele>345.8</ele>
        <time>2024-10-15T13:12:22Z</time>
      </trkpt>
      <trkpt lat="45.87513" lon="1.25656">
        <ele>346.2</ele>
        <time>2024-10-15T13:12:25Z</time>
      </trkpt>
      <trkpt lat="45.87519" lon="1.25668">
        <ele>346.6</ele>
        <time>2024-10-15T13:12:28Z</time>
      </trkpt>
      <trkpt lat="45.87525" lon="1.25681">
        <ele>346.9</ele>
        <time>2024-10-15T13:12:31Z</time>
      </trkpt>
      <trkpt lat="45.87531" lon="1.25695">
        <ele>347.1</ele>
        <time>2024-10-15T13:12:34Z</time>
      </trkpt>
      <trkpt lat="45.87537" lon="1.25708">
        <ele>347.3</ele>
        <time>2024-10-15T13:12:37Z</time>
      </trkpt>
      <trkpt lat="45.87543" lon="1.25723">
        <ele>347.4</ele>
        <time>2024-10-15T13:12:40Z</time>
      </trkpt>
      <trkpt lat="45.87549" lon="1.25738">
        <ele>347.4</ele>
        <time>2024-10-15T13:12:43Z</time>
      </trkpt>
      <trkpt lat="45.87555" lon="1.25753">
        <ele>347.2</ele>
        <time>2024-10-15T13:12:46Z</time>
      </trkpt>
      <trkpt lat="45.87561" lon="1.25769">
        <ele>347</ele>
        <time>2024-10-15T13:12:49Z</time>
      </trkpt>
      <trkpt lat="45.87566" lon="1.25784">
        <ele>346.7</ele>
        <time>2024-10-15T13:12:52Z</time>
      </trkpt>
      <trkpt lat="45.87575" lon="1.25792">
        <ele>346.5</ele>
        <time>2024-10-15T13:12:55Z</time>
      </trkpt>
      <trkpt lat="45.87588" lon="1.25786">
        <ele>346.6</ele>
        <time>2024-10-15T13:12:58Z</time>
      </trkpt>
      <trkpt lat="45.87599" lon="1.25776">
        <ele>346.8</ele>
        <time>2024-10-15T13:13:01Z</time>
      </trkpt>
      <trkpt lat="45.87609" lon="1.25766">
        <ele>347</ele>
        <time>2024-10-15T13:13:04Z</time>
      </trkpt>
      <trkpt lat="45.87617" lon="1.25754">
        <ele>347.3</ele>
        <time>2024-10-15T13:13:07Z</time>
      </trkpt>
      <trkpt lat="45.87625" lon="1.25742">
        <ele>347.6</ele>
        <time>2024-10-15T13:13:10Z</time>
      </trkpt>
      <trkpt lat="45.87633" lon="1.25731">
        <ele>347.9</ele>
        <time>2024-10-15T13:13:13Z</time>
      </trkpt>
      <trkpt lat="45.87641" lon="1.25722">
        <ele>348.2</ele>
        <time>2024-10-15T13:13:16Z</time>
      </trkpt>
      <trkpt lat="45.87647" lon="1.25715">
        <ele>348.5</ele>
        <time>2024-10-15T13:13:19Z</time>
      </trkpt>
      <trkpt lat="45.87654" lon="1.25706">
        <ele>348.7</ele>
        <time>2024-10-15T13:13:22Z</time>
      </trkpt>
      <trkpt lat="45.87663" lon="1.25696">
        <ele>348.9</ele>
        <time>2024-10-15T13:13:25Z</time>
      </trkpt>
      <trkpt lat="45.87672" lon="1.25686">
        <ele>349.2</ele>
        <time>2024-10-15T13:13:28Z</time>
      </trkpt>
      <trkpt lat="45.8768" lon="1.25677">
        <ele>349.4</ele>
        <time>2024-10-15T13:13:31Z</time>
      </trkpt>
      <trkpt lat="45.87689" lon="1.25669">
        <ele>349.7</ele>
        <time>2024-10-15T13:13:34Z</time>
      </trkpt>
      <trkpt lat="45.87698" lon="1.25661">
        <ele>349.9</ele>
        <time>2024-10-15T13:13:37Z</time>
      </trkpt>
      <trkpt lat="45.87706" lon="1.25654">
        <ele>350.2</ele>
        <time>2024-10-15T13:13:40Z</time>
      </trkpt>
      <trkpt lat="45.87714" lon="1.25648">
        <ele>350.4</ele>
        <time>2024-10-15T13:13:43Z</time>
      </trkpt>
      <trkpt lat="45.87723" lon="1.2564">
        <ele>350.7</ele>
        <time>2024-10-15T13:13:46Z</time>
      </trkpt>
      <trkpt lat="45.87731" lon="1.25632">
        <ele>351</ele>
        <time>2024-10-15T13:13:49Z</time>
      </trkpt>
      <trkpt lat="45.87738" lon="1.25625">
        <ele>351.4</ele>
        <time>2024-10-15T13:13:52Z</time>
      </trkpt>
      <trkpt lat="45.87747" lon="1.25619">
        <ele>351.9</ele>
        <time>2024-10-15T13:13:55Z</time>
      </trkpt>
      <trkpt lat="45.87755" lon="1.25614">
        <ele>352.3</ele>
        <time>2024-10-15T13:13:58Z</time>
      </trkpt>
      <trkpt lat="45.87764" lon="1.2561">
        <ele>352.7</ele>
        <time>2024-10-15T13:14:01Z</time>
      </trkpt>
      <trkpt lat="45.87772" lon="1.25606">
        <ele>353.1</ele>
        <time>2024-10-15T13:14:04Z</time>
      </trkpt>
      <trkpt lat="45.87781" lon="1.25605">
        <ele>353.5</ele>
        <time>2024-10-15T13:14:07Z</time>
      </trkpt>
      <trkpt lat="45.87789" lon="1.25606">
        <ele>353.9</ele>
        <time>2024-10-15T13:14:10Z</time>
      </trkpt>
      <trkpt lat="45.87799" lon="1.25607">
        <ele>354.3</ele>
        <time>2024-10-15T13:14:13Z</time>
      </trkpt>
      <trkpt lat="45.87808" lon="1.25607">
        <ele>354.6</ele>
        <time>2024-10-15T13:14:16Z</time>
      </trkpt>
      <trkpt lat="45.87816" lon="1.25607">
        <ele>354.9</ele>
        <time>2024-10-15T13:14:19Z</time>
      </trkpt>
      <trkpt lat="45.87824" lon="1.25609">
        <ele>355.2</ele>
        <time>2024-10-15T13:14:22Z</time>
      </trkpt>
      <trkpt lat="45.87833" lon="1.25611">
        <ele>355.4</ele>
        <time>2024-10-15T13:14:25Z</time>
      </trkpt>
      <trkpt lat="45.87841" lon="1.25615">
        <ele>355.6</ele>
        <time>2024-10-15T13:14:28Z</time>
      </trkpt>
      <trkpt lat="45.8785" lon="1.25618">
        <ele>355.8</ele>
        <time>2024-10-15T13:14:31Z</time>
      </trkpt>
      <trkpt lat="45.87858" lon="1.25622">
        <ele>356</ele>
        <time>2024-10-15T13:14:34Z</time>
      </trkpt>
      <trkpt lat="45.87867" lon="1.25623">
        <ele>356.3</ele>
        <time>2024-10-15T13:14:37Z</time>
      </trkpt>
      <trkpt lat="45.87874" lon="1.25623">
        <ele>356.5</ele>
        <time>2024-10-15T13:14:40Z</time>
      </trkpt>
      <trkpt lat="45.87878" lon="1.25623">
        <ele>356.6</ele>
        <time>2024-10-15T13:14:43Z</time>
      </trkpt>
      <trkpt lat="45.87884" lon="1.25623">
        <ele>356.8</ele>
        <time>2024-10-15T13:14:46Z</time>
      </trkpt>
      <trkpt lat="45.87891" lon="1.25624">
        <ele>357</ele>
        <time>2024-10-15T13:14:49Z</time>
      </trkpt>
      <trkpt lat="45.87898" lon="1.25624">
        <ele>357.3</ele>
        <time>2024-10-15T13:14:52Z</time>
      </trkpt>
      <trkpt lat="45.87906" lon="1.25623">
        <ele>357.6</ele>
        <time>2024-10-15T13:14:55Z</time>
      </trkpt>
      <trkpt lat="45.87914" lon="1.25624">
        <ele>357.9</ele>
        <time>2024-10-15T13:14:58Z</time>
      </trkpt>
      <trkpt lat="45.87922" lon="1.25625">
        <ele>358.3</ele>
        <time>2024-10-15T13:15:01Z</time>
      </trkpt>
      <trkpt lat="45.87928" lon="1.25627">
        <ele>358.6</ele>
        <time>2024-10-15T13:15:04Z</time>
      </trkpt>
      <trkpt lat="45.87931" lon="1.25629">
        <ele>358.7</ele>
        <time>2024-10-15T13:15:07Z</time>
      </trkpt>
      <trkpt lat="45.87936" lon="1.25629">
        <ele>358.9</ele>
        <time>2024-10-15T13:15:10Z</time>
      </trkpt>
      <trkpt lat="45.87942" lon="1.25631">
        <ele>359.2</ele>
        <time>2024-10-15T13:15:13Z</time>
      </trkpt>
      <trkpt lat="45.87949" lon="1.25631">
        <ele>359.5</ele>
        <time>2024-10-15T13:15:16Z</time>
      </trkpt>
      <trkpt lat="45.87955" lon="1.25631">
        <ele>359.7</ele>
        <time>2024-10-15T13:15:19Z</time>
      </trkpt>
      <trkpt lat="45.87954" lon="1.25631">
        <ele>359.7</ele>
        <time>2024-10-15T13:15:22Z</time>
      </trkpt>
      <trkpt lat="45.87954" lon="1.25631">
        <ele>359.7</ele>
        <time>2024-10-15T13:15:25Z</time>
      </trkpt>
      <trkpt lat="45.87954" lon="1.25631">
        <ele>359.8</ele>
        <time>2024-10-15T13:15:28Z</time>
      </trkpt>
      <trkpt lat="45.87958" lon="1.25632">
        <ele>359.9</ele>
        <time>2024-10-15T13:15:31Z</time>
      </trkpt>
      <trkpt lat="45.87964" lon="1.25633">
        <ele>360.2</ele>
        <time>2024-10-15T13:15:34Z</time>
      </trkpt>
      <trkpt lat="45.87972" lon="1.25631">
        <ele>360.5</ele>
        <time>2024-10-15T13:15:37Z</time>
      </trkpt>
      <trkpt lat="45.87978" lon="1.2563">
        <ele>360.8</ele>
        <time>2024-10-15T13:15:40Z</time>
      </trkpt>
      <trkpt lat="45.87986" lon="1.25629">
        <ele>361.2</ele>
        <time>2024-10-15T13:15:43Z</time>
      </trkpt>
      <trkpt lat="45.87995" lon="1.25628">
        <ele>361.5</ele>
        <time>2024-10-15T13:15:46Z</time>
      </trkpt>
      <trkpt lat="45.88005" lon="1.25626">
        <ele>361.9</ele>
        <time>2024-10-15T13:15:49Z</time>
      </trkpt>
      <trkpt lat="45.88015" lon="1.25625">
        <ele>362.2</ele>
        <time>2024-10-15T13:15:52Z</time>
      </trkpt>
      <trkpt lat="45.88025" lon="1.25623">
        <ele>362.5</ele>
        <time>2024-10-15T13:15:55Z</time>
      </trkpt>
      <trkpt lat="45.88034" lon="1.25623">
        <ele>362.8</ele>
        <time>2024-10-15T13:15:58Z</time>
      </trkpt>
      <trkpt lat="45.88043" lon="1.25624">
        <ele>363.1</ele>
        <time>2024-10-15T13:16:01Z</time>
      </trkpt>
      <trkpt lat="45.88053" lon="1.25621">
        <ele>363.4</ele>
        <time>2024-10-15T13:16:04Z</time>
      </trkpt>
      <trkpt lat="45.88061" lon="1.25619">
        <ele>363.7</ele>
        <time>2024-10-15T13:16:07Z</time>
      </trkpt>
      <trkpt lat="45.88066" lon="1.25618">
        <ele>363.8</ele>
        <time>2024-10-15T13:16:10Z</time>
      </trkpt>
      <trkpt lat="45.88065" lon="1.25617">
        <ele>363.9</ele>
        <time>2024-10-15T13:16:13Z</time>
      </trkpt>
      <trkpt lat="45.88066" lon="1.25617">
        <ele>363.9</ele>
        <time>2024-10-15T13:16:16Z</time>
      </trkpt>
      <trkpt lat="45.88072" lon="1.25617">
        <ele>363.9</ele>
        <time>2024-10-15T13:16:19Z</time>
      </trkpt>
      <trkpt lat="45.88079" lon="1.25616">
        <ele>363.9</ele>
        <time>2024-10-15T13:16:22Z</time>
      </trkpt>
      <trkpt lat="45.88087" lon="1.25616">
        <ele>364.1</ele>
        <time>2024-10-15T13:16:25Z</time>
      </trkpt>
      <trkpt lat="45.88094" lon="1.25615">
        <ele>364.1</ele>
        <time>2024-10-15T13:16:28Z</time>
      </trkpt>
      <trkpt lat="45.88102" lon="1.25614">
        <ele>364.2</ele>
        <time>2024-10-15T13:16:31Z</time>
      </trkpt>
      <trkpt lat="45.88102" lon="1.25625">
        <ele>364.2</ele>
        <time>2024-10-15T13:16:34Z</time>
      </trkpt>
      <trkpt lat="45.88104" lon="1.25641">
        <ele>364.1</ele>
        <time>2024-10-15T13:16:37Z</time>
      </trkpt>
      <trkpt lat="45.88113" lon="1.25651">
        <ele>364.3</ele>
        <time>2024-10-15T13:16:40Z</time>
      </trkpt>
      <trkpt lat="45.88124" lon="1.25656">
        <ele>365</ele>
        <time>2024-10-15T13:16:43Z</time>
      </trkpt>
      <trkpt lat="45.88134" lon="1.25661">
        <ele>365.7</ele>
        <time>2024-10-15T13:16:46Z</time>
      </trkpt>
      <trkpt lat="45.88144" lon="1.25667">
        <ele>366.7</ele>
        <time>2024-10-15T13:16:49Z</time>
      </trkpt>
      <trkpt lat="45.8815" lon="1.2567">
        <ele>367.1</ele>
        <time>2024-10-15T13:16:52Z</time>
      </trkpt>
      <trkpt lat="45.88151" lon="1.25661">
        <ele>367.1</ele>
        <time>2024-10-15T13:16:55Z</time>
      </trkpt>
      <trkpt lat="45.88153" lon="1.25648">
        <ele>367.1</ele>
        <time>2024-10-15T13:16:58Z</time>
      </trkpt>
      <trkpt lat="45.88159" lon="1.25634">
        <ele>367.1</ele>
        <time>2024-10-15T13:17:01Z</time>
      </trkpt>
      <trkpt lat="45.88167" lon="1.25619">
        <ele>367</ele>
        <time>2024-10-15T13:17:04Z</time>
      </trkpt>
      <trkpt lat="45.88174" lon="1.25604">
        <ele>366.8</ele>
        <time>2024-10-15T13:17:07Z</time>
      </trkpt>
      <trkpt lat="45.88181" lon="1.25589">
        <ele>366.4</ele>
        <time>2024-10-15T13:17:10Z</time>
      </trkpt>
      <trkpt lat="45.8819" lon="1.25579">
        <ele>366.2</ele>
        <time>2024-10-15T13:17:13Z</time>
      </trkpt>
      <trkpt lat="45.882" lon="1.25584">
        <ele>366.2</ele>
        <time>2024-10-15T13:17:16Z</time>
      </trkpt>
      <trkpt lat="45.8821" lon="1.25592">
        <ele>366.2</ele>
        <time>2024-10-15T13:17:19Z</time>
      </trkpt>
      <trkpt lat="45.8822" lon="1.25587">
        <ele>366.1</ele>
        <time>2024-10-15T13:17:22Z</time>
      </trkpt>
      <trkpt lat="45.88227" lon="1.25574">
        <ele>366.1</ele>
        <time>2024-10-15T13:17:25Z</time>
      </trkpt>
      <trkpt lat="45.88233" lon="1.2556">
        <ele>366</ele>
        <time>2024-10-15T13:17:28Z</time>
      </trkpt>
      <trkpt lat="45.88238" lon="1.25546">
        <ele>366.1</ele>
        <time>2024-10-15T13:17:31Z</time>
      </trkpt>
      <trkpt lat="45.88245" lon="1.25538">
        <ele>366.3</ele>
        <time>2024-10-15T13:17:34Z</time>
      </trkpt>
      <trkpt lat="45.88254" lon="1.25542">
        <ele>366.7</ele>
        <time>2024-10-15T13:17:37Z</time>
      </trkpt>
      <trkpt lat="45.88263" lon="1.25549">
        <ele>367</ele>
        <time>2024-10-15T13:17:40Z</time>
      </trkpt>
      <trkpt lat="45.88271" lon="1.25557">
        <ele>367.2</ele>
        <time>2024-10-15T13:17:43Z</time>
      </trkpt>
      <trkpt lat="45.88276" lon="1.25561">
        <ele>367.4</ele>
        <time>2024-10-15T13:17:46Z</time>
      </trkpt>
      <trkpt lat="45.88285" lon="1.25569">
        <ele>367.8</ele>
        <time>2024-10-15T13:17:49Z</time>
      </trkpt>
      <trkpt lat="45.88295" lon="1.25576">
        <ele>367.8</ele>
        <time>2024-10-15T13:17:52Z</time>
      </trkpt>
      <trkpt lat="45.88306" lon="1.25583">
        <ele>367.9</ele>
        <time>2024-10-15T13:17:55Z</time>
      </trkpt>
      <trkpt lat="45.88317" lon="1.25589">
        <ele>367.9</ele>
        <time>2024-10-15T13:17:58Z</time>
      </trkpt>
      <trkpt lat="45.88328" lon="1.25597">
        <ele>368.1</ele>
        <time>2024-10-15T13:18:01Z</time>
      </trkpt>
      <trkpt lat="45.88338" lon="1.25604">
        <ele>368.2</ele>
        <time>2024-10-15T13:18:04Z</time>
      </trkpt>
      <trkpt lat="45.88346" lon="1.25609">
        <ele>368.3</ele>
        <time>2024-10-15T13:18:07Z</time>
      </trkpt>
      <trkpt lat="45.88355" lon="1.25613">
        <ele>368.5</ele>
        <time>2024-10-15T13:18:10Z</time>
      </trkpt>
      <trkpt lat="45.88364" lon="1.2562">
        <ele>368.6</ele>
        <time>2024-10-15T13:18:13Z</time>
      </trkpt>
      <trkpt lat="45.88372" lon="1.25625">
        <ele>368.8</ele>
        <time>2024-10-15T13:18:16Z</time>
      </trkpt>
      <trkpt lat="45.88381" lon="1.25632">
        <ele>368.8</ele>
        <time>2024-10-15T13:18:19Z</time>
      </trkpt>
      <trkpt lat="45.8839" lon="1.25641">
        <ele>368.8</ele>
        <time>2024-10-15T13:18:22Z</time>
      </trkpt>
      <trkpt lat="45.884" lon="1.25649">
        <ele>368.7</ele>
        <time>2024-10-15T13:18:25Z</time>
      </trkpt>
      <trkpt lat="45.88408" lon="1.25657">
        <ele>368.6</ele>
        <time>2024-10-15T13:18:28Z</time>
      </trkpt>
      <trkpt lat="45.88417" lon="1.25665">
        <ele>368.5</ele>
        <time>2024-10-15T13:18:31Z</time>
      </trkpt>
      <trkpt lat="45.88427" lon="1.25674">
        <ele>368.3</ele>
        <time>2024-10-15T13:18:34Z</time>
      </trkpt>
      <trkpt lat="45.88437" lon="1.25684">
        <ele>368.1</ele>
        <time>2024-10-15T13:18:37Z</time>
      </trkpt>
      <trkpt lat="45.88448" lon="1.25692">
        <ele>367.8</ele>
        <time>2024-10-15T13:18:40Z</time>
      </trkpt>
      <trkpt lat="45.88459" lon="1.25701">
        <ele>367.6</ele>
        <time>2024-10-15T13:18:43Z</time>
      </trkpt>
      <trkpt lat="45.88471" lon="1.25709">
        <ele>367.3</ele>
        <time>2024-10-15T13:18:46Z</time>
      </trkpt>
      <trkpt lat="45.8848" lon="1.25717">
        <ele>367.1</ele>
        <time>2024-10-15T13:18:49Z</time>
      </trkpt>
      <trkpt lat="45.88489" lon="1.25725">
        <ele>366.8</ele>
        <time>2024-10-15T13:18:52Z</time>
      </trkpt>
      <trkpt lat="45.885" lon="1.25734">
        <ele>366.3</ele>
        <time>2024-10-15T13:18:55Z</time>
      </trkpt>
      <trkpt lat="45.88513" lon="1.25745">
        <ele>365.4</ele>
        <time>2024-10-15T13:18:58Z</time>
      </trkpt>
      <trkpt lat="45.88529" lon="1.25757">
        <ele>364.3</ele>
        <time>2024-10-15T13:19:01Z</time>
      </trkpt>
      <trkpt lat="45.88545" lon="1.25771">
        <ele>363.1</ele>
        <time>2024-10-15T13:19:04Z</time>
      </trkpt>
      <trkpt lat="45.88559" lon="1.25788">
        <ele>362</ele>
        <time>2024-10-15T13:19:07Z</time>
      </trkpt>
      <trkpt lat="45.8857" lon="1.25807">
        <ele>361</ele>
        <time>2024-10-15T13:19:10Z</time>
      </trkpt>
      <trkpt lat="45.88578" lon="1.25822">
        <ele>360.3</ele>
        <time>2024-10-15T13:19:13Z</time>
      </trkpt>
      <trkpt lat="45.88582" lon="1.25829">
        <ele>360</ele>
        <time>2024-10-15T13:19:16Z</time>
      </trkpt>
      <trkpt lat="45.88585" lon="1.25832">
        <ele>359.8</ele>
        <time>2024-10-15T13:19:19Z</time>
      </trkpt>
      <trkpt lat="45.88586" lon="1.25834">
        <ele>359.8</ele>
        <time>2024-10-15T13:19:22Z</time>
      </trkpt>
      <trkpt lat="45.88586" lon="1.25835">
        <ele>359.7</ele>
        <time>2024-10-15T13:19:25Z</time>
      </trkpt>
      <trkpt lat="45.88587" lon="1.25838">
        <ele>359.6</ele>
        <time>2024-10-15T13:19:28Z</time>
      </trkpt>
      <trkpt lat="45.88589" lon="1.25848">
        <ele>359.3</ele>
        <time>2024-10-15T13:19:31Z</time>
      </trkpt>
      <trkpt lat="45.88595" lon="1.25855">
        <ele>359.3</ele>
        <time>2024-10-15T13:19:34Z</time>
      </trkpt>
      <trkpt lat="45.88604" lon="1.25854">
        <ele>359.1</ele>
        <time>2024-10-15T13:19:37Z</time>
      </trkpt>
      <trkpt lat="45.88612" lon="1.25846">
        <ele>359</ele>
        <time>2024-10-15T13:19:40Z</time>
      </trkpt>
      <trkpt lat="45.88623" lon="1.25835">
        <ele>358.9</ele>
        <time>2024-10-15T13:19:43Z</time>
      </trkpt>
      <trkpt lat="45.88633" lon="1.25826">
        <ele>359</ele>
        <time>2024-10-15T13:19:46Z</time>
      </trkpt>
      <trkpt lat="45.88644" lon="1.25818">
        <ele>359.2</ele>
        <time>2024-10-15T13:19:49Z</time>
      </trkpt>
      <trkpt lat="45.88655" lon="1.2581">
        <ele>359.6</ele>
        <time>2024-10-15T13:19:52Z</time>
      </trkpt>
      <trkpt lat="45.88664" lon="1.25802">
        <ele>360</ele>
        <time>2024-10-15T13:19:55Z</time>
      </trkpt>
      <trkpt lat="45.88672" lon="1.25792">
        <ele>360.4</ele>
        <time>2024-10-15T13:19:58Z</time>
      </trkpt>
      <trkpt lat="45.88681" lon="1.25782">
        <ele>360.6</ele>
        <time>2024-10-15T13:20:01Z</time>
      </trkpt>
      <trkpt lat="45.88688" lon="1.25771">
        <ele>360.8</ele>
        <time>2024-10-15T13:20:04Z</time>
      </trkpt>
      <trkpt lat="45.88697" lon="1.25759">
        <ele>360.9</ele>
        <time>2024-10-15T13:20:07Z</time>
      </trkpt>
      <trkpt lat="45.88705" lon="1.25747">
        <ele>361</ele>
        <time>2024-10-15T13:20:10Z</time>
      </trkpt>
      <trkpt lat="45.88712" lon="1.25736">
        <ele>361.1</ele>
        <time>2024-10-15T13:20:13Z</time>
      </trkpt>
      <trkpt lat="45.88718" lon="1.25725">
        <ele>361.2</ele>
        <time>2024-10-15T13:20:16Z</time>
      </trkpt>
      <trkpt lat="45.88724" lon="1.25716">
        <ele>361.3</ele>
        <time>2024-10-15T13:20:19Z</time>
      </trkpt>
      <trkpt lat="45.8873" lon="1.25706">
        <ele>361.5</ele>
        <time>2024-10-15T13:20:22Z</time>
      </trkpt>
      <trkpt lat="45.88737" lon="1.25696">
        <ele>361.7</ele>
        <time>2024-10-15T13:20:25Z</time>
      </trkpt>
      <trkpt lat="45.88743" lon="1.25687">
        <ele>361.8</ele>
        <time>2024-10-15T13:20:28Z</time>
      </trkpt>
      <trkpt lat="45.8875" lon="1.25676">
        <ele>361.8</ele>
        <time>2024-10-15T13:20:31Z</time>
      </trkpt>
      <trkpt lat="45.88756" lon="1.25664">
        <ele>361.6</ele>
        <time>2024-10-15T13:20:34Z</time>
      </trkpt>
      <trkpt lat="45.88763" lon="1.25651">
        <ele>361.3</ele>
        <time>2024-10-15T13:20:37Z</time>
      </trkpt>
      <trkpt lat="45.8877" lon="1.25637">
        <ele>360.7</ele>
        <time>2024-10-15T13:20:40Z</time>
      </trkpt>
      <trkpt lat="45.8878" lon="1.2562">
        <ele>360</ele>
        <time>2024-10-15T13:20:43Z</time>
      </trkpt>
      <trkpt lat="45.88791" lon="1.25602">
        <ele>359.5</ele>
        <time>2024-10-15T13:20:46Z</time>
      </trkpt>
      <trkpt lat="45.88802" lon="1.25586">
        <ele>359.4</ele>
        <time>2024-10-15T13:20:49Z</time>
      </trkpt>
      <trkpt lat="45.88812" lon="1.25569">
        <ele>359.7</ele>
        <time>2024-10-15T13:20:52Z</time>
      </trkpt>
      <trkpt lat="45.88821" lon="1.25556">
        <ele>360.2</ele>
        <time>2024-10-15T13:20:55Z</time>
      </trkpt>
      <trkpt lat="45.8883" lon="1.25545">
        <ele>361</ele>
        <time>2024-10-15T13:20:58Z</time>
      </trkpt>
      <trkpt lat="45.88836" lon="1.25537">
        <ele>361.6</ele>
        <time>2024-10-15T13:21:01Z</time>
      </trkpt>
      <trkpt lat="45.88842" lon="1.25527">
        <ele>362.4</ele>
        <time>2024-10-15T13:21:04Z</time>
      </trkpt>
      <trkpt lat="45.88848" lon="1.25519">
        <ele>363.2</ele>
        <time>2024-10-15T13:21:07Z</time>
      </trkpt>
      <trkpt lat="45.88854" lon="1.25514">
        <ele>363.9</ele>
        <time>2024-10-15T13:21:10Z</time>
      </trkpt>
      <trkpt lat="45.8886" lon="1.25507">
        <ele>364.5</ele>
        <time>2024-10-15T13:21:13Z</time>
      </trkpt>
      <trkpt lat="45.88866" lon="1.25501">
        <ele>365.2</ele>
        <time>2024-10-15T13:21:16Z</time>
      </trkpt>
      <trkpt lat="45.88873" lon="1.25495">
        <ele>365.9</ele>
        <time>2024-10-15T13:21:19Z</time>
      </trkpt>
      <trkpt lat="45.88879" lon="1.25489">
        <ele>366.3</ele>
        <time>2024-10-15T13:21:22Z</time>
      </trkpt>
      <trkpt lat="45.88885" lon="1.25484">
        <ele>366.8</ele>
        <time>2024-10-15T13:21:25Z</time>
      </trkpt>
      <trkpt lat="45.88893" lon="1.25479">
        <ele>367.1</ele>
        <time>2024-10-15T13:21:28Z</time>
      </trkpt>
      <trkpt lat="45.889" lon="1.25473">
        <ele>367.4</ele>
        <time>2024-10-15T13:21:31Z</time>
      </trkpt>
      <trkpt lat="45.88907" lon="1.25466">
        <ele>367.5</ele>
        <time>2024-10-15T13:21:34Z</time>
      </trkpt>
      <trkpt lat="45.88914" lon="1.25458">
        <ele>367.5</ele>
        <time>2024-10-15T13:21:37Z</time>
      </trkpt>
      <trkpt lat="45.88923" lon="1.25449">
        <ele>367.3</ele>
        <time>2024-10-15T13:21:40Z</time>
      </trkpt>
      <trkpt lat="45.88933" lon="1.25438">
        <ele>366.9</ele>
        <time>2024-10-15T13:21:43Z</time>
      </trkpt>
      <trkpt lat="45.88944" lon="1.25426">
        <ele>366.2</ele>
        <time>2024-10-15T13:21:46Z</time>
      </trkpt>
      <trkpt lat="45.88957" lon="1.25413">
        <ele>365</ele>
        <time>2024-10-15T13:21:49Z</time>
      </trkpt>
      <trkpt lat="45.88974" lon="1.25402">
        <ele>363.6</ele>
        <time>2024-10-15T13:21:52Z</time>
      </trkpt>
      <trkpt lat="45.88992" lon="1.2539">
        <ele>362.8</ele>
        <time>2024-10-15T13:21:55Z</time>
      </trkpt>
      <trkpt lat="45.89007" lon="1.25381">
        <ele>362.8</ele>
        <time>2024-10-15T13:21:58Z</time>
      </trkpt>
      <trkpt lat="45.89017" lon="1.25371">
        <ele>363.6</ele>
        <time>2024-10-15T13:22:01Z</time>
      </trkpt>
      <trkpt lat="45.89024" lon="1.25361">
        <ele>364.6</ele>
        <time>2024-10-15T13:22:04Z</time>
      </trkpt>
      <trkpt lat="45.89029" lon="1.25353">
        <ele>365.5</ele>
        <time>2024-10-15T13:22:07Z</time>
      </trkpt>
      <trkpt lat="45.89034" lon="1.2535">
        <ele>366.4</ele>
        <time>2024-10-15T13:22:10Z</time>
      </trkpt>
      <trkpt lat="45.89037" lon="1.25342">
        <ele>367.3</ele>
        <time>2024-10-15T13:22:13Z</time>
      </trkpt>
      <trkpt lat="45.89044" lon="1.25336">
        <ele>368.5</ele>
        <time>2024-10-15T13:22:16Z</time>
      </trkpt>
      <trkpt lat="45.89051" lon="1.25329">
        <ele>369.5</ele>
        <time>2024-10-15T13:22:19Z</time>
      </trkpt>
      <trkpt lat="45.89057" lon="1.25319">
        <ele>370.3</ele>
        <time>2024-10-15T13:22:22Z</time>
      </trkpt>
      <trkpt lat="45.89063" lon="1.2531">
        <ele>370.8</ele>
        <time>2024-10-15T13:22:25Z</time>
      </trkpt>
      <trkpt lat="45.8907" lon="1.25299">
        <ele>371.3</ele>
        <time>2024-10-15T13:22:28Z</time>
      </trkpt>
      <trkpt lat="45.89077" lon="1.25289">
        <ele>371.5</ele>
        <time>2024-10-15T13:22:31Z</time>
      </trkpt>
      <trkpt lat="45.89083" lon="1.25282">
        <ele>371.7</ele>
        <time>2024-10-15T13:22:34Z</time>
      </trkpt>
      <trkpt lat="45.89088" lon="1.25275">
        <ele>371.7</ele>
        <time>2024-10-15T13:22:37Z</time>
      </trkpt>
      <trkpt lat="45.89095" lon="1.25263">
        <ele>371.5</ele>
        <time>2024-10-15T13:22:40Z</time>
      </trkpt>
      <trkpt lat="45.89102" lon="1.25251">
        <ele>371.3</ele>
        <time>2024-10-15T13:22:43Z</time>
      </trkpt>
      <trkpt lat="45.89109" lon="1.25238">
        <ele>371.3</ele>
        <time>2024-10-15T13:22:46Z</time>
      </trkpt>
      <trkpt lat="45.8912" lon="1.25228">
        <ele>371.3</ele>
        <time>2024-10-15T13:22:49Z</time>
      </trkpt>
      <trkpt lat="45.89129" lon="1.25222">
        <ele>371.5</ele>
        <time>2024-10-15T13:22:52Z</time>
      </trkpt>
      <trkpt lat="45.89136" lon="1.25218">
        <ele>371.6</ele>
        <time>2024-10-15T13:22:55Z</time>
      </trkpt>
      <trkpt lat="45.89143" lon="1.2521">
        <ele>371.6</ele>
        <time>2024-10-15T13:22:58Z</time>
      </trkpt>
      <trkpt lat="45.8915" lon="1.25203">
        <ele>371.5</ele>
        <time>2024-10-15T13:23:01Z</time>
      </trkpt>
      <trkpt lat="45.89155" lon="1.25188">
        <ele>370.9</ele>
        <time>2024-10-15T13:23:04Z</time>
      </trkpt>
      <trkpt lat="45.8916" lon="1.25176">
        <ele>370.3</ele>
        <time>2024-10-15T13:23:07Z</time>
      </trkpt>
      <trkpt lat="45.89165" lon="1.25164">
        <ele>369.5</ele>
        <time>2024-10-15T13:23:10Z</time>
      </trkpt>
      <trkpt lat="45.89171" lon="1.25152">
        <ele>368.9</ele>
        <time>2024-10-15T13:23:13Z</time>
      </trkpt>
      <trkpt lat="45.89176" lon="1.2514">
        <ele>368.4</ele>
        <time>2024-10-15T13:23:16Z</time>
      </trkpt>
      <trkpt lat="45.89179" lon="1.25126">
        <ele>368.1</ele>
        <time>2024-10-15T13:23:19Z</time>
      </trkpt>
      <trkpt lat="45.8918" lon="1.25117">
        <ele>368</ele>
        <time>2024-10-15T13:23:22Z</time>
      </trkpt>
      <trkpt lat="45.89184" lon="1.25117">
        <ele>367.9</ele>
        <time>2024-10-15T13:23:25Z</time>
      </trkpt>
      <trkpt lat="45.89186" lon="1.25117">
        <ele>367.9</ele>
        <time>2024-10-15T13:23:28Z</time>
      </trkpt>
      <trkpt lat="45.89186" lon="1.25116">
        <ele>367.9</ele>
        <time>2024-10-15T13:23:31Z</time>
      </trkpt>
      <trkpt lat="45.89185" lon="1.25114">
        <ele>367.8</ele>
        <time>2024-10-15T13:23:34Z</time>
      </trkpt>
      <trkpt lat="45.89185" lon="1.25114">
        <ele>367.8</ele>
        <time>2024-10-15T13:23:37Z</time>
      </trkpt>
      <trkpt lat="45.89185" lon="1.25114">
        <ele>367.8</ele>
        <time>2024-10-15T13:23:40Z</time>
      </trkpt>
      <trkpt lat="45.89185" lon="1.25114">
        <ele>367.8</ele>
        <time>2024-10-15T13:23:43Z</time>
      </trkpt>
      <trkpt lat="45.89185" lon="1.25114">
        <ele>367.8</ele>
        <time>2024-10-15T13:23:46Z</time>
      </trkpt>
      <trkpt lat="45.89185" lon="1.25114">
        <ele>367.8</ele>
        <time>2024-10-15T13:23:49Z</time>
      </trkpt>
      <trkpt lat="45.89185" lon="1.25114">
        <ele>367.8</ele>
        <time>2024-10-15T13:23:52Z</time>
      </trkpt>
      <trkpt lat="45.89185" lon="1.25114">
        <ele>367.8</ele>
        <time>2024-10-15T13:23:55Z</time>
      </trkpt>
      <trkpt lat="45.89187" lon="1.25114">
        <ele>367.8</ele>
        <time>2024-10-15T13:23:58Z</time>
      </trkpt>
      <trkpt lat="45.89195" lon="1.25119">
        <ele>367.8</ele>
        <time>2024-10-15T13:24:01Z</time>
      </trkpt>
      <trkpt lat="45.89205" lon="1.2513">
        <ele>367.7</ele>
        <time>2024-10-15T13:24:04Z</time>
      </trkpt>
      <trkpt lat="45.89216" lon="1.25141">
        <ele>367.7</ele>
        <time>2024-10-15T13:24:07Z</time>
      </trkpt>
      <trkpt lat="45.89227" lon="1.25148">
        <ele>367.7</ele>
        <time>2024-10-15T13:24:10Z</time>
      </trkpt>
      <trkpt lat="45.89236" lon="1.25157">
        <ele>367.8</ele>
        <time>2024-10-15T13:24:13Z</time>
      </trkpt>
      <trkpt lat="45.89246" lon="1.25167">
        <ele>368</ele>
        <time>2024-10-15T13:24:16Z</time>
      </trkpt>
      <trkpt lat="45.89256" lon="1.25178">
        <ele>368.1</ele>
        <time>2024-10-15T13:24:19Z</time>
      </trkpt>
      <trkpt lat="45.89267" lon="1.2519">
        <ele>368.4</ele>
        <time>2024-10-15T13:24:22Z</time>
      </trkpt>
      <trkpt lat="45.89277" lon="1.252">
        <ele>368.6</ele>
        <time>2024-10-15T13:24:25Z</time>
      </trkpt>
      <trkpt lat="45.89288" lon="1.25208">
        <ele>369</ele>
        <time>2024-10-15T13:24:28Z</time>
      </trkpt>
      <trkpt lat="45.89298" lon="1.25214">
        <ele>369.3</ele>
        <time>2024-10-15T13:24:31Z</time>
      </trkpt>
      <trkpt lat="45.89309" lon="1.25218">
        <ele>369.7</ele>
        <time>2024-10-15T13:24:34Z</time>
      </trkpt>
      <trkpt lat="45.8932" lon="1.25219">
        <ele>370.1</ele>
        <time>2024-10-15T13:24:37Z</time>
      </trkpt>
      <trkpt lat="45.89331" lon="1.25219">
        <ele>370.4</ele>
        <time>2024-10-15T13:24:40Z</time>
      </trkpt>
      <trkpt lat="45.89336" lon="1.25221">
        <ele>370.9</ele>
        <time>2024-10-15T13:24:43Z</time>
      </trkpt>
      <trkpt lat="45.89338" lon="1.25221">
        <ele>371</ele>
        <time>2024-10-15T13:24:46Z</time>
      </trkpt>
      <trkpt lat="45.89342" lon="1.25223">
        <ele>371.1</ele>
        <time>2024-10-15T13:24:49Z</time>
      </trkpt>
      <trkpt lat="45.89339" lon="1.25228">
        <ele>371.2</ele>
        <time>2024-10-15T13:24:52Z</time>
      </trkpt>
      <trkpt lat="45.89333" lon="1.25232">
        <ele>371.4</ele>
        <time>2024-10-15T13:24:55Z</time>
      </trkpt>
      <trkpt lat="45.8934" lon="1.25244">
        <ele>371.7</ele>
        <time>2024-10-15T13:24:58Z</time>
      </trkpt>
      <trkpt lat="45.8935" lon="1.25253">
        <ele>372.1</ele>
        <time>2024-10-15T13:25:01Z</time>
      </trkpt>
      <trkpt lat="45.89359" lon="1.25264">
        <ele>372.5</ele>
        <time>2024-10-15T13:25:04Z</time>
      </trkpt>
      <trkpt lat="45.89366" lon="1.25275">
        <ele>373.1</ele>
        <time>2024-10-15T13:25:07Z</time>
      </trkpt>
      <trkpt lat="45.89374" lon="1.25285">
        <ele>373.6</ele>
        <time>2024-10-15T13:25:10Z</time>
      </trkpt>
      <trkpt lat="45.89381" lon="1.25294">
        <ele>374.2</ele>
        <time>2024-10-15T13:25:13Z</time>
      </trkpt>
      <trkpt lat="45.89389" lon="1.25302">
        <ele>374.8</ele>
        <time>2024-10-15T13:25:16Z</time>
      </trkpt>
      <trkpt lat="45.89396" lon="1.25311">
        <ele>375.3</ele>
        <time>2024-10-15T13:25:19Z</time>
      </trkpt>
      <trkpt lat="45.89403" lon="1.25319">
        <ele>375.8</ele>
        <time>2024-10-15T13:25:22Z</time>
      </trkpt>
      <trkpt lat="45.89409" lon="1.25328">
        <ele>376.4</ele>
        <time>2024-10-15T13:25:25Z</time>
      </trkpt>
      <trkpt lat="45.89414" lon="1.25337">
        <ele>376.9</ele>
        <time>2024-10-15T13:25:28Z</time>
      </trkpt>
      <trkpt lat="45.8942" lon="1.25346">
        <ele>377.5</ele>
        <time>2024-10-15T13:25:31Z</time>
      </trkpt>
      <trkpt lat="45.89427" lon="1.25353">
        <ele>378.1</ele>
        <time>2024-10-15T13:25:34Z</time>
      </trkpt>
      <trkpt lat="45.89433" lon="1.25359">
        <ele>378.7</ele>
        <time>2024-10-15T13:25:37Z</time>
      </trkpt>
      <trkpt lat="45.89439" lon="1.25364">
        <ele>379.2</ele>
        <time>2024-10-15T13:25:40Z</time>
      </trkpt>
      <trkpt lat="45.89446" lon="1.25369">
        <ele>379.8</ele>
        <time>2024-10-15T13:25:43Z</time>
      </trkpt>
      <trkpt lat="45.89453" lon="1.25374">
        <ele>380.3</ele>
        <time>2024-10-15T13:25:46Z</time>
      </trkpt>
      <trkpt lat="45.89458" lon="1.25379">
        <ele>380.8</ele>
        <time>2024-10-15T13:25:49Z</time>
      </trkpt>
      <trkpt lat="45.89464" lon="1.25383">
        <ele>381.3</ele>
        <time>2024-10-15T13:25:52Z</time>
      </trkpt>
      <trkpt lat="45.89468" lon="1.25389">
        <ele>381.8</ele>
        <time>2024-10-15T13:25:55Z</time>
      </trkpt>
      <trkpt lat="45.89474" lon="1.25395">
        <ele>382.3</ele>
        <time>2024-10-15T13:25:57Z</time>
      </trkpt>
      <trkpt lat="45.8948" lon="1.254">
        <ele>382.9</ele>
        <time>2024-10-15T13:26:01Z</time>
      </trkpt>
      <trkpt lat="45.89486" lon="1.25406">
        <ele>383.5</ele>
        <time>2024-10-15T13:26:04Z</time>
      </trkpt>
      <trkpt lat="45.89493" lon="1.25412">
        <ele>384.1</ele>
        <time>2024-10-15T13:26:06Z</time>
      </trkpt>
      <trkpt lat="45.89499" lon="1.25419">
        <ele>384.7</ele>
        <time>2024-10-15T13:26:10Z</time>
      </trkpt>
      <trkpt lat="45.89505" lon="1.25423">
        <ele>385.2</ele>
        <time>2024-10-15T13:26:13Z</time>
      </trkpt>
      <trkpt lat="45.89513" lon="1.25429">
        <ele>385.8</ele>
        <time>2024-10-15T13:26:16Z</time>
      </trkpt>
      <trkpt lat="45.89521" lon="1.25433">
        <ele>386.2</ele>
        <time>2024-10-15T13:26:19Z</time>
      </trkpt>
      <trkpt lat="45.89528" lon="1.25439">
        <ele>386.6</ele>
        <time>2024-10-15T13:26:22Z</time>
      </trkpt>
      <trkpt lat="45.89535" lon="1.25445">
        <ele>386.9</ele>
        <time>2024-10-15T13:26:25Z</time>
      </trkpt>
      <trkpt lat="45.89541" lon="1.2545">
        <ele>387.2</ele>
        <time>2024-10-15T13:26:28Z</time>
      </trkpt>
      <trkpt lat="45.89547" lon="1.25454">
        <ele>387.3</ele>
        <time>2024-10-15T13:26:31Z</time>
      </trkpt>
      <trkpt lat="45.89553" lon="1.25459">
        <ele>387.5</ele>
        <time>2024-10-15T13:26:34Z</time>
      </trkpt>
      <trkpt lat="45.89561" lon="1.25466">
        <ele>387.6</ele>
        <time>2024-10-15T13:26:37Z</time>
      </trkpt>
      <trkpt lat="45.89569" lon="1.25473">
        <ele>387.6</ele>
        <time>2024-10-15T13:26:40Z</time>
      </trkpt>
      <trkpt lat="45.89578" lon="1.2548">
        <ele>387.7</ele>
        <time>2024-10-15T13:26:43Z</time>
      </trkpt>
      <trkpt lat="45.89586" lon="1.25488">
        <ele>387.7</ele>
        <time>2024-10-15T13:26:46Z</time>
      </trkpt>
      <trkpt lat="45.89594" lon="1.25493">
        <ele>387.7</ele>
        <time>2024-10-15T13:26:49Z</time>
      </trkpt>
      <trkpt lat="45.89601" lon="1.25498">
        <ele>387.7</ele>
        <time>2024-10-15T13:26:52Z</time>
      </trkpt>
      <trkpt lat="45.8961" lon="1.25505">
        <ele>387.6</ele>
        <time>2024-10-15T13:26:55Z</time>
      </trkpt>
      <trkpt lat="45.89619" lon="1.25513">
        <ele>387.4</ele>
        <time>2024-10-15T13:26:58Z</time>
      </trkpt>
      <trkpt lat="45.89629" lon="1.25521">
        <ele>387.2</ele>
        <time>2024-10-15T13:27:01Z</time>
      </trkpt>
      <trkpt lat="45.89638" lon="1.2553">
        <ele>387</ele>
        <time>2024-10-15T13:27:04Z</time>
      </trkpt>
      <trkpt lat="45.89647" lon="1.25538">
        <ele>386.9</ele>
        <time>2024-10-15T13:27:07Z</time>
      </trkpt>
      <trkpt lat="45.89655" lon="1.25545">
        <ele>386.7</ele>
        <time>2024-10-15T13:27:10Z</time>
      </trkpt>
      <trkpt lat="45.89664" lon="1.25552">
        <ele>386.5</ele>
        <time>2024-10-15T13:27:13Z</time>
      </trkpt>
      <trkpt lat="45.89673" lon="1.2556">
        <ele>386.4</ele>
        <time>2024-10-15T13:27:16Z</time>
      </trkpt>
      <trkpt lat="45.89683" lon="1.25567">
        <ele>386.3</ele>
        <time>2024-10-15T13:27:19Z</time>
      </trkpt>
      <trkpt lat="45.89692" lon="1.25574">
        <ele>386.2</ele>
        <time>2024-10-15T13:27:22Z</time>
      </trkpt>
      <trkpt lat="45.89702" lon="1.25579">
        <ele>386.1</ele>
        <time>2024-10-15T13:27:25Z</time>
      </trkpt>
      <trkpt lat="45.89712" lon="1.25579">
        <ele>385.9</ele>
        <time>2024-10-15T13:27:28Z</time>
      </trkpt>
      <trkpt lat="45.89722" lon="1.25577">
        <ele>385.6</ele>
        <time>2024-10-15T13:27:31Z</time>
      </trkpt>
      <trkpt lat="45.89732" lon="1.25571">
        <ele>385.2</ele>
        <time>2024-10-15T13:27:34Z</time>
      </trkpt>
      <trkpt lat="45.89742" lon="1.25565">
        <ele>384.8</ele>
        <time>2024-10-15T13:27:37Z</time>
      </trkpt>
      <trkpt lat="45.89748" lon="1.25559">
        <ele>384.5</ele>
        <time>2024-10-15T13:27:40Z</time>
      </trkpt>
      <trkpt lat="45.89754" lon="1.25555">
        <ele>384.3</ele>
        <time>2024-10-15T13:27:43Z</time>
      </trkpt>
      <trkpt lat="45.8976" lon="1.25551">
        <ele>384</ele>
        <time>2024-10-15T13:27:46Z</time>
      </trkpt>
      <trkpt lat="45.89769" lon="1.25546">
        <ele>383.7</ele>
        <time>2024-10-15T13:27:49Z</time>
      </trkpt>
      <trkpt lat="45.89781" lon="1.25538">
        <ele>383.3</ele>
        <time>2024-10-15T13:27:52Z</time>
      </trkpt>
      <trkpt lat="45.89792" lon="1.25531">
        <ele>382.9</ele>
        <time>2024-10-15T13:27:55Z</time>
      </trkpt>
      <trkpt lat="45.89804" lon="1.25524">
        <ele>382.7</ele>
        <time>2024-10-15T13:27:58Z</time>
      </trkpt>
      <trkpt lat="45.89815" lon="1.25518">
        <ele>382.4</ele>
        <time>2024-10-15T13:28:01Z</time>
      </trkpt>
      <trkpt lat="45.89827" lon="1.25511">
        <ele>382.2</ele>
        <time>2024-10-15T13:28:04Z</time>
      </trkpt>
      <trkpt lat="45.89837" lon="1.25503">
        <ele>382</ele>
        <time>2024-10-15T13:28:07Z</time>
      </trkpt>
      <trkpt lat="45.89848" lon="1.25495">
        <ele>382</ele>
        <time>2024-10-15T13:28:10Z</time>
      </trkpt>
      <trkpt lat="45.89858" lon="1.25487">
        <ele>381.9</ele>
        <time>2024-10-15T13:28:13Z</time>
      </trkpt>
      <trkpt lat="45.89869" lon="1.2548">
        <ele>381.9</ele>
        <time>2024-10-15T13:28:16Z</time>
      </trkpt>
      <trkpt lat="45.89879" lon="1.25472">
        <ele>381.8</ele>
        <time>2024-10-15T13:28:19Z</time>
      </trkpt>
      <trkpt lat="45.89889" lon="1.25464">
        <ele>381.7</ele>
        <time>2024-10-15T13:28:22Z</time>
      </trkpt>
      <trkpt lat="45.89898" lon="1.25456">
        <ele>381.6</ele>
        <time>2024-10-15T13:28:25Z</time>
      </trkpt>
      <trkpt lat="45.89908" lon="1.25447">
        <ele>381.6</ele>
        <time>2024-10-15T13:28:28Z</time>
      </trkpt>
      <trkpt lat="45.89919" lon="1.25438">
        <ele>381.7</ele>
        <time>2024-10-15T13:28:31Z</time>
      </trkpt>
      <trkpt lat="45.89928" lon="1.2543">
        <ele>381.9</ele>
        <time>2024-10-15T13:28:34Z</time>
      </trkpt>
      <trkpt lat="45.89938" lon="1.25421">
        <ele>382.1</ele>
        <time>2024-10-15T13:28:37Z</time>
      </trkpt>
      <trkpt lat="45.89946" lon="1.25413">
        <ele>382.6</ele>
        <time>2024-10-15T13:28:40Z</time>
      </trkpt>
      <trkpt lat="45.89954" lon="1.25408">
        <ele>382.9</ele>
        <time>2024-10-15T13:28:43Z</time>
      </trkpt>
      <trkpt lat="45.89961" lon="1.25404">
        <ele>383.4</ele>
        <time>2024-10-15T13:28:46Z</time>
      </trkpt>
      <trkpt lat="45.89964" lon="1.2541">
        <ele>383.4</ele>
        <time>2024-10-15T13:28:49Z</time>
      </trkpt>
      <trkpt lat="45.89955" lon="1.25425">
        <ele>382</ele>
        <time>2024-10-15T13:28:52Z</time>
      </trkpt>
      <trkpt lat="45.89948" lon="1.25447">
        <ele>381.2</ele>
        <time>2024-10-15T13:28:55Z</time>
      </trkpt>
      <trkpt lat="45.8994" lon="1.2547">
        <ele>380.4</ele>
        <time>2024-10-15T13:28:58Z</time>
      </trkpt>
      <trkpt lat="45.89932" lon="1.25495">
        <ele>379.7</ele>
        <time>2024-10-15T13:29:01Z</time>
      </trkpt>
      <trkpt lat="45.89926" lon="1.25518">
        <ele>379.1</ele>
        <time>2024-10-15T13:29:04Z</time>
      </trkpt>
      <trkpt lat="45.89918" lon="1.25542">
        <ele>378.7</ele>
        <time>2024-10-15T13:29:07Z</time>
      </trkpt>
      <trkpt lat="45.89911" lon="1.25565">
        <ele>378.4</ele>
        <time>2024-10-15T13:29:10Z</time>
      </trkpt>
      <trkpt lat="45.89904" lon="1.25589">
        <ele>378.2</ele>
        <time>2024-10-15T13:29:13Z</time>
      </trkpt>
      <trkpt lat="45.89898" lon="1.25612">
        <ele>378</ele>
        <time>2024-10-15T13:29:16Z</time>
      </trkpt>
      <trkpt lat="45.89892" lon="1.25633">
        <ele>378.2</ele>
        <time>2024-10-15T13:29:19Z</time>
      </trkpt>
      <trkpt lat="45.89891" lon="1.25654">
        <ele>378.6</ele>
        <time>2024-10-15T13:29:22Z</time>
      </trkpt>
      <trkpt lat="45.89893" lon="1.25672">
        <ele>378.7</ele>
        <time>2024-10-15T13:29:25Z</time>
      </trkpt>
      <trkpt lat="45.89901" lon="1.2569">
        <ele>378.2</ele>
        <time>2024-10-15T13:29:28Z</time>
      </trkpt>
      <trkpt lat="45.89908" lon="1.2571">
        <ele>377.2</ele>
        <time>2024-10-15T13:29:31Z</time>
      </trkpt>
      <trkpt lat="45.89916" lon="1.25739">
        <ele>376.9</ele>
        <time>2024-10-15T13:29:34Z</time>
      </trkpt>
      <trkpt lat="45.89914" lon="1.25768">
        <ele>376.9</ele>
        <time>2024-10-15T13:29:37Z</time>
      </trkpt>
      <trkpt lat="45.89906" lon="1.25791">
        <ele>377</ele>
        <time>2024-10-15T13:29:40Z</time>
      </trkpt>
      <trkpt lat="45.89893" lon="1.2581">
        <ele>377.1</ele>
        <time>2024-10-15T13:29:43Z</time>
      </trkpt>
      <trkpt lat="45.89877" lon="1.25823">
        <ele>377</ele>
        <time>2024-10-15T13:29:46Z</time>
      </trkpt>
      <trkpt lat="45.89863" lon="1.25833">
        <ele>377</ele>
        <time>2024-10-15T13:29:49Z</time>
      </trkpt>
      <trkpt lat="45.89847" lon="1.25844">
        <ele>377</ele>
        <time>2024-10-15T13:29:52Z</time>
      </trkpt>
      <trkpt lat="45.89833" lon="1.25855">
        <ele>377.1</ele>
        <time>2024-10-15T13:29:55Z</time>
      </trkpt>
      <trkpt lat="45.8982" lon="1.25865">
        <ele>377.2</ele>
        <time>2024-10-15T13:29:58Z</time>
      </trkpt>
      <trkpt lat="45.89807" lon="1.25875">
        <ele>377.4</ele>
        <time>2024-10-15T13:30:01Z</time>
      </trkpt>
      <trkpt lat="45.89798" lon="1.25884">
        <ele>377.5</ele>
        <time>2024-10-15T13:30:04Z</time>
      </trkpt>
      <trkpt lat="45.8979" lon="1.25894">
        <ele>377.5</ele>
        <time>2024-10-15T13:30:07Z</time>
      </trkpt>
      <trkpt lat="45.89784" lon="1.25905">
        <ele>377.4</ele>
        <time>2024-10-15T13:30:10Z</time>
      </trkpt>
      <trkpt lat="45.89777" lon="1.25917">
        <ele>377.3</ele>
        <time>2024-10-15T13:30:13Z</time>
      </trkpt>
      <trkpt lat="45.89767" lon="1.25922">
        <ele>377.5</ele>
        <time>2024-10-15T13:30:16Z</time>
      </trkpt>
      <trkpt lat="45.89753" lon="1.2592">
        <ele>377.8</ele>
        <time>2024-10-15T13:30:19Z</time>
      </trkpt>
      <trkpt lat="45.89739" lon="1.25919">
        <ele>378.3</ele>
        <time>2024-10-15T13:30:22Z</time>
      </trkpt>
      <trkpt lat="45.89725" lon="1.25915">
        <ele>379.1</ele>
        <time>2024-10-15T13:30:25Z</time>
      </trkpt>
      <trkpt lat="45.89714" lon="1.25914">
        <ele>379.8</ele>
        <time>2024-10-15T13:30:28Z</time>
      </trkpt>
      <trkpt lat="45.89702" lon="1.2591">
        <ele>380.4</ele>
        <time>2024-10-15T13:30:31Z</time>
      </trkpt>
      <trkpt lat="45.89693" lon="1.25906">
        <ele>380.8</ele>
        <time>2024-10-15T13:30:34Z</time>
      </trkpt>
      <trkpt lat="45.89683" lon="1.25901">
        <ele>381.2</ele>
        <time>2024-10-15T13:30:37Z</time>
      </trkpt>
      <trkpt lat="45.89672" lon="1.25901">
        <ele>381.4</ele>
        <time>2024-10-15T13:30:40Z</time>
      </trkpt>
      <trkpt lat="45.89662" lon="1.25901">
        <ele>381.5</ele>
        <time>2024-10-15T13:30:43Z</time>
      </trkpt>
      <trkpt lat="45.89648" lon="1.25904">
        <ele>381.4</ele>
        <time>2024-10-15T13:30:46Z</time>
      </trkpt>
      <trkpt lat="45.89635" lon="1.25909">
        <ele>381.3</ele>
        <time>2024-10-15T13:30:49Z</time>
      </trkpt>
      <trkpt lat="45.8962" lon="1.25912">
        <ele>381.2</ele>
        <time>2024-10-15T13:30:52Z</time>
      </trkpt>
      <trkpt lat="45.8961" lon="1.25915">
        <ele>381.1</ele>
        <time>2024-10-15T13:30:55Z</time>
      </trkpt>
      <trkpt lat="45.89601" lon="1.25918">
        <ele>381</ele>
        <time>2024-10-15T13:30:58Z</time>
      </trkpt>
      <trkpt lat="45.8959" lon="1.25921">
        <ele>380.9</ele>
        <time>2024-10-15T13:31:01Z</time>
      </trkpt>
      <trkpt lat="45.89579" lon="1.25926">
        <ele>380.8</ele>
        <time>2024-10-15T13:31:04Z</time>
      </trkpt>
      <trkpt lat="45.89569" lon="1.25931">
        <ele>380.6</ele>
        <time>2024-10-15T13:31:07Z</time>
      </trkpt>
      <trkpt lat="45.89557" lon="1.25937">
        <ele>380.4</ele>
        <time>2024-10-15T13:31:10Z</time>
      </trkpt>
      <trkpt lat="45.89544" lon="1.25946">
        <ele>379.9</ele>
        <time>2024-10-15T13:31:13Z</time>
      </trkpt>
      <trkpt lat="45.89534" lon="1.25956">
        <ele>379.4</ele>
        <time>2024-10-15T13:31:16Z</time>
      </trkpt>
      <trkpt lat="45.89528" lon="1.2597">
        <ele>378.7</ele>
        <time>2024-10-15T13:31:19Z</time>
      </trkpt>
      <trkpt lat="45.89524" lon="1.25987">
        <ele>377.7</ele>
        <time>2024-10-15T13:31:22Z</time>
      </trkpt>
      <trkpt lat="45.8952" lon="1.26003">
        <ele>376.8</ele>
        <time>2024-10-15T13:31:25Z</time>
      </trkpt>
      <trkpt lat="45.89516" lon="1.26022">
        <ele>375.8</ele>
        <time>2024-10-15T13:31:28Z</time>
      </trkpt>
      <trkpt lat="45.89512" lon="1.26041">
        <ele>375</ele>
        <time>2024-10-15T13:31:31Z</time>
      </trkpt>
      <trkpt lat="45.89509" lon="1.26061">
        <ele>374.2</ele>
        <time>2024-10-15T13:31:34Z</time>
      </trkpt>
      <trkpt lat="45.89503" lon="1.26085">
        <ele>373</ele>
        <time>2024-10-15T13:31:37Z</time>
      </trkpt>
      <trkpt lat="45.895" lon="1.2611">
        <ele>371.8</ele>
        <time>2024-10-15T13:31:40Z</time>
      </trkpt>
      <trkpt lat="45.89499" lon="1.26138">
        <ele>370.7</ele>
        <time>2024-10-15T13:31:43Z</time>
      </trkpt>
      <trkpt lat="45.895" lon="1.26164">
        <ele>369.9</ele>
        <time>2024-10-15T13:31:46Z</time>
      </trkpt>
      <trkpt lat="45.89501" lon="1.26187">
        <ele>369.2</ele>
        <time>2024-10-15T13:31:49Z</time>
      </trkpt>
      <trkpt lat="45.89501" lon="1.26208">
        <ele>368.7</ele>
        <time>2024-10-15T13:31:52Z</time>
      </trkpt>
      <trkpt lat="45.89502" lon="1.26228">
        <ele>368.5</ele>
        <time>2024-10-15T13:31:55Z</time>
      </trkpt>
      <trkpt lat="45.89506" lon="1.26243">
        <ele>368.3</ele>
        <time>2024-10-15T13:31:58Z</time>
      </trkpt>
      <trkpt lat="45.89507" lon="1.26253">
        <ele>368.2</ele>
        <time>2024-10-15T13:32:01Z</time>
      </trkpt>
      <trkpt lat="45.89506" lon="1.26261">
        <ele>368</ele>
        <time>2024-10-15T13:32:04Z</time>
      </trkpt>
      <trkpt lat="45.89505" lon="1.2627">
        <ele>367.9</ele>
        <time>2024-10-15T13:32:07Z</time>
      </trkpt>
      <trkpt lat="45.89513" lon="1.26276">
        <ele>367.6</ele>
        <time>2024-10-15T13:32:10Z</time>
      </trkpt>
      <trkpt lat="45.89522" lon="1.26284">
        <ele>367.4</ele>
        <time>2024-10-15T13:32:13Z</time>
      </trkpt>
      <trkpt lat="45.89533" lon="1.26293">
        <ele>367.2</ele>
        <time>2024-10-15T13:32:16Z</time>
      </trkpt>
      <trkpt lat="45.89544" lon="1.26302">
        <ele>367</ele>
        <time>2024-10-15T13:32:19Z</time>
      </trkpt>
      <trkpt lat="45.89554" lon="1.2631">
        <ele>366.7</ele>
        <time>2024-10-15T13:32:22Z</time>
      </trkpt>
      <trkpt lat="45.89565" lon="1.26316">
        <ele>366.4</ele>
        <time>2024-10-15T13:32:25Z</time>
      </trkpt>
      <trkpt lat="45.89577" lon="1.26322">
        <ele>366</ele>
        <time>2024-10-15T13:32:28Z</time>
      </trkpt>
      <trkpt lat="45.8959" lon="1.26328">
        <ele>365.3</ele>
        <time>2024-10-15T13:32:31Z</time>
      </trkpt>
      <trkpt lat="45.89602" lon="1.26335">
        <ele>364.5</ele>
        <time>2024-10-15T13:32:34Z</time>
      </trkpt>
      <trkpt lat="45.89617" lon="1.26343">
        <ele>363.4</ele>
        <time>2024-10-15T13:32:37Z</time>
      </trkpt>
      <trkpt lat="45.89632" lon="1.26348">
        <ele>362.5</ele>
        <time>2024-10-15T13:32:40Z</time>
      </trkpt>
      <trkpt lat="45.89641" lon="1.26354">
        <ele>361.9</ele>
        <time>2024-10-15T13:32:43Z</time>
      </trkpt>
      <trkpt lat="45.89648" lon="1.26356">
        <ele>361.6</ele>
        <time>2024-10-15T13:32:46Z</time>
      </trkpt>
      <trkpt lat="45.89657" lon="1.2636">
        <ele>361.1</ele>
        <time>2024-10-15T13:32:49Z</time>
      </trkpt>
      <trkpt lat="45.89669" lon="1.26365">
        <ele>360.7</ele>
        <time>2024-10-15T13:32:52Z</time>
      </trkpt>
      <trkpt lat="45.89681" lon="1.26369">
        <ele>360.3</ele>
        <time>2024-10-15T13:32:55Z</time>
      </trkpt>
      <trkpt lat="45.89693" lon="1.26377">
        <ele>360</ele>
        <time>2024-10-15T13:32:58Z</time>
      </trkpt>
      <trkpt lat="45.89707" lon="1.26383">
        <ele>359.8</ele>
        <time>2024-10-15T13:33:01Z</time>
      </trkpt>
      <trkpt lat="45.89719" lon="1.26388">
        <ele>359.7</ele>
        <time>2024-10-15T13:33:04Z</time>
      </trkpt>
      <trkpt lat="45.89728" lon="1.26381">
        <ele>359.4</ele>
        <time>2024-10-15T13:33:07Z</time>
      </trkpt>
      <trkpt lat="45.89732" lon="1.26361">
        <ele>358.9</ele>
        <time>2024-10-15T13:33:10Z</time>
      </trkpt>
      <trkpt lat="45.89737" lon="1.26338">
        <ele>358.8</ele>
        <time>2024-10-15T13:33:13Z</time>
      </trkpt>
      <trkpt lat="45.8974" lon="1.26315">
        <ele>359</ele>
        <time>2024-10-15T13:33:16Z</time>
      </trkpt>
      <trkpt lat="45.89744" lon="1.26293">
        <ele>359.5</ele>
        <time>2024-10-15T13:33:19Z</time>
      </trkpt>
      <trkpt lat="45.89748" lon="1.26272">
        <ele>360.1</ele>
        <time>2024-10-15T13:33:22Z</time>
      </trkpt>
      <trkpt lat="45.89752" lon="1.26254">
        <ele>360.7</ele>
        <time>2024-10-15T13:33:25Z</time>
      </trkpt>
      <trkpt lat="45.89755" lon="1.26237">
        <ele>361.2</ele>
        <time>2024-10-15T13:33:28Z</time>
      </trkpt>
      <trkpt lat="45.8976" lon="1.26223">
        <ele>361.6</ele>
        <time>2024-10-15T13:33:31Z</time>
      </trkpt>
      <trkpt lat="45.89766" lon="1.26211">
        <ele>362.1</ele>
        <time>2024-10-15T13:33:34Z</time>
      </trkpt>
      <trkpt lat="45.89773" lon="1.26201">
        <ele>362.7</ele>
        <time>2024-10-15T13:33:37Z</time>
      </trkpt>
      <trkpt lat="45.8978" lon="1.26192">
        <ele>363.5</ele>
        <time>2024-10-15T13:33:40Z</time>
      </trkpt>
      <trkpt lat="45.89787" lon="1.26184">
        <ele>364.3</ele>
        <time>2024-10-15T13:33:43Z</time>
      </trkpt>
      <trkpt lat="45.89794" lon="1.26176">
        <ele>365.2</ele>
        <time>2024-10-15T13:33:46Z</time>
      </trkpt>
      <trkpt lat="45.898" lon="1.26169">
        <ele>366</ele>
        <time>2024-10-15T13:33:49Z</time>
      </trkpt>
      <trkpt lat="45.89805" lon="1.26162">
        <ele>366.8</ele>
        <time>2024-10-15T13:33:52Z</time>
      </trkpt>
      <trkpt lat="45.8981" lon="1.26154">
        <ele>367.8</ele>
        <time>2024-10-15T13:33:55Z</time>
      </trkpt>
      <trkpt lat="45.89815" lon="1.26147">
        <ele>368.6</ele>
        <time>2024-10-15T13:33:58Z</time>
      </trkpt>
      <trkpt lat="45.89818" lon="1.26138">
        <ele>369.6</ele>
        <time>2024-10-15T13:34:01Z</time>
      </trkpt>
      <trkpt lat="45.89822" lon="1.26128">
        <ele>370.5</ele>
        <time>2024-10-15T13:34:04Z</time>
      </trkpt>
      <trkpt lat="45.89824" lon="1.26119">
        <ele>371.3</ele>
        <time>2024-10-15T13:34:07Z</time>
      </trkpt>
      <trkpt lat="45.89828" lon="1.2611">
        <ele>372</ele>
        <time>2024-10-15T13:34:10Z</time>
      </trkpt>
      <trkpt lat="45.89836" lon="1.26111">
        <ele>372.2</ele>
        <time>2024-10-15T13:34:13Z</time>
      </trkpt>
      <trkpt lat="45.89842" lon="1.26122">
        <ele>371.9</ele>
        <time>2024-10-15T13:34:16Z</time>
      </trkpt>
      <trkpt lat="45.89847" lon="1.26136">
        <ele>371.5</ele>
        <time>2024-10-15T13:34:19Z</time>
      </trkpt>
      <trkpt lat="45.89857" lon="1.26152">
        <ele>371</ele>
        <time>2024-10-15T13:34:22Z</time>
      </trkpt>
      <trkpt lat="45.89869" lon="1.26159">
        <ele>370.6</ele>
        <time>2024-10-15T13:34:25Z</time>
      </trkpt>
      <trkpt lat="45.89882" lon="1.26166">
        <ele>370.1</ele>
        <time>2024-10-15T13:34:28Z</time>
      </trkpt>
      <trkpt lat="45.89894" lon="1.26175">
        <ele>369.6</ele>
        <time>2024-10-15T13:34:31Z</time>
      </trkpt>
      <trkpt lat="45.89909" lon="1.26186">
        <ele>368.7</ele>
        <time>2024-10-15T13:34:34Z</time>
      </trkpt>
      <trkpt lat="45.89927" lon="1.26194">
        <ele>367.6</ele>
        <time>2024-10-15T13:34:37Z</time>
      </trkpt>
      <trkpt lat="45.89944" lon="1.26204">
        <ele>366.6</ele>
        <time>2024-10-15T13:34:40Z</time>
      </trkpt>
      <trkpt lat="45.89961" lon="1.26207">
        <ele>366.1</ele>
        <time>2024-10-15T13:34:43Z</time>
      </trkpt>
      <trkpt lat="45.89973" lon="1.26197">
        <ele>365.9</ele>
        <time>2024-10-15T13:34:46Z</time>
      </trkpt>
      <trkpt lat="45.89987" lon="1.26182">
        <ele>365.9</ele>
        <time>2024-10-15T13:34:49Z</time>
      </trkpt>
      <trkpt lat="45.89998" lon="1.26169">
        <ele>365.9</ele>
        <time>2024-10-15T13:34:52Z</time>
      </trkpt>
      <trkpt lat="45.90011" lon="1.26166">
        <ele>365.8</ele>
        <time>2024-10-15T13:34:55Z</time>
      </trkpt>
      <trkpt lat="45.90021" lon="1.26179">
        <ele>365.6</ele>
        <time>2024-10-15T13:34:58Z</time>
      </trkpt>
      <trkpt lat="45.90031" lon="1.26196">
        <ele>365.3</ele>
        <time>2024-10-15T13:35:01Z</time>
      </trkpt>
      <trkpt lat="45.9004" lon="1.26212">
        <ele>365.1</ele>
        <time>2024-10-15T13:35:04Z</time>
      </trkpt>
      <trkpt lat="45.90048" lon="1.26227">
        <ele>365.1</ele>
        <time>2024-10-15T13:35:07Z</time>
      </trkpt>
      <trkpt lat="45.90055" lon="1.26241">
        <ele>365</ele>
        <time>2024-10-15T13:35:10Z</time>
      </trkpt>
      <trkpt lat="45.90062" lon="1.26255">
        <ele>365</ele>
        <time>2024-10-15T13:35:13Z</time>
      </trkpt>
      <trkpt lat="45.90071" lon="1.2627">
        <ele>364.8</ele>
        <time>2024-10-15T13:35:16Z</time>
      </trkpt>
      <trkpt lat="45.90079" lon="1.26286">
        <ele>364.6</ele>
        <time>2024-10-15T13:35:19Z</time>
      </trkpt>
      <trkpt lat="45.90088" lon="1.26301">
        <ele>364.3</ele>
        <time>2024-10-15T13:35:22Z</time>
      </trkpt>
      <trkpt lat="45.90095" lon="1.26316">
        <ele>364</ele>
        <time>2024-10-15T13:35:25Z</time>
      </trkpt>
      <trkpt lat="45.90105" lon="1.26334">
        <ele>363.5</ele>
        <time>2024-10-15T13:35:28Z</time>
      </trkpt>
      <trkpt lat="45.90116" lon="1.26353">
        <ele>363</ele>
        <time>2024-10-15T13:35:31Z</time>
      </trkpt>
      <trkpt lat="45.90128" lon="1.26371">
        <ele>362.6</ele>
        <time>2024-10-15T13:35:34Z</time>
      </trkpt>
      <trkpt lat="45.90139" lon="1.2639">
        <ele>362.1</ele>
        <time>2024-10-15T13:35:37Z</time>
      </trkpt>
      <trkpt lat="45.9015" lon="1.26409">
        <ele>361.8</ele>
        <time>2024-10-15T13:35:40Z</time>
      </trkpt>
      <trkpt lat="45.9016" lon="1.26428">
        <ele>361.4</ele>
        <time>2024-10-15T13:35:43Z</time>
      </trkpt>
      <trkpt lat="45.9017" lon="1.26447">
        <ele>360.9</ele>
        <time>2024-10-15T13:35:46Z</time>
      </trkpt>
      <trkpt lat="45.90182" lon="1.26467">
        <ele>360.4</ele>
        <time>2024-10-15T13:35:49Z</time>
      </trkpt>
      <trkpt lat="45.90194" lon="1.26487">
        <ele>359.7</ele>
        <time>2024-10-15T13:35:52Z</time>
      </trkpt>
      <trkpt lat="45.90206" lon="1.26509">
        <ele>358.9</ele>
        <time>2024-10-15T13:35:55Z</time>
      </trkpt>
      <trkpt lat="45.90217" lon="1.2653">
        <ele>358.1</ele>
        <time>2024-10-15T13:35:58Z</time>
      </trkpt>
      <trkpt lat="45.90231" lon="1.26552">
        <ele>357.2</ele>
        <time>2024-10-15T13:36:01Z</time>
      </trkpt>
      <trkpt lat="45.90241" lon="1.26575">
        <ele>356.4</ele>
        <time>2024-10-15T13:36:04Z</time>
      </trkpt>
      <trkpt lat="45.90254" lon="1.26594">
        <ele>355.5</ele>
        <time>2024-10-15T13:36:07Z</time>
      </trkpt>
      <trkpt lat="45.90264" lon="1.26614">
        <ele>354.5</ele>
        <time>2024-10-15T13:36:10Z</time>
      </trkpt>
      <trkpt lat="45.90276" lon="1.26632">
        <ele>353.2</ele>
        <time>2024-10-15T13:36:13Z</time>
      </trkpt>
      <trkpt lat="45.90288" lon="1.26641">
        <ele>350.4</ele>
        <time>2024-10-15T13:36:16Z</time>
      </trkpt>
      <trkpt lat="45.90306" lon="1.26637">
        <ele>349</ele>
        <time>2024-10-15T13:36:19Z</time>
      </trkpt>
      <trkpt lat="45.90324" lon="1.26631">
        <ele>347.8</ele>
        <time>2024-10-15T13:36:22Z</time>
      </trkpt>
      <trkpt lat="45.90344" lon="1.26627">
        <ele>346.6</ele>
        <time>2024-10-15T13:36:25Z</time>
      </trkpt>
      <trkpt lat="45.90361" lon="1.26624">
        <ele>345.5</ele>
        <time>2024-10-15T13:36:28Z</time>
      </trkpt>
      <trkpt lat="45.90384" lon="1.26622">
        <ele>344.1</ele>
        <time>2024-10-15T13:36:31Z</time>
      </trkpt>
      <trkpt lat="45.90407" lon="1.26623">
        <ele>342.9</ele>
        <time>2024-10-15T13:36:34Z</time>
      </trkpt>
      <trkpt lat="45.90432" lon="1.26619">
        <ele>342.3</ele>
        <time>2024-10-15T13:36:37Z</time>
      </trkpt>
      <trkpt lat="45.90452" lon="1.2662">
        <ele>342.2</ele>
        <time>2024-10-15T13:36:40Z</time>
      </trkpt>
      <trkpt lat="45.90469" lon="1.26628">
        <ele>342.1</ele>
        <time>2024-10-15T13:36:43Z</time>
      </trkpt>
      <trkpt lat="45.90481" lon="1.26648">
        <ele>342</ele>
        <time>2024-10-15T13:36:46Z</time>
      </trkpt>
      <trkpt lat="45.90486" lon="1.26672">
        <ele>341.8</ele>
        <time>2024-10-15T13:36:49Z</time>
      </trkpt>
      <trkpt lat="45.9049" lon="1.26698">
        <ele>341.7</ele>
        <time>2024-10-15T13:36:52Z</time>
      </trkpt>
      <trkpt lat="45.90492" lon="1.26725">
        <ele>341.4</ele>
        <time>2024-10-15T13:36:55Z</time>
      </trkpt>
      <trkpt lat="45.90495" lon="1.26753">
        <ele>340.8</ele>
        <time>2024-10-15T13:36:58Z</time>
      </trkpt>
      <trkpt lat="45.90497" lon="1.26775">
        <ele>340.2</ele>
        <time>2024-10-15T13:37:01Z</time>
      </trkpt>
      <trkpt lat="45.90499" lon="1.2679">
        <ele>339.6</ele>
        <time>2024-10-15T13:37:04Z</time>
      </trkpt>
      <trkpt lat="45.90489" lon="1.26797">
        <ele>338.9</ele>
        <time>2024-10-15T13:37:07Z</time>
      </trkpt>
      <trkpt lat="45.90473" lon="1.26802">
        <ele>338.1</ele>
        <time>2024-10-15T13:37:10Z</time>
      </trkpt>
      <trkpt lat="45.90452" lon="1.26807">
        <ele>337.2</ele>
        <time>2024-10-15T13:37:13Z</time>
      </trkpt>
      <trkpt lat="45.90431" lon="1.26813">
        <ele>336.3</ele>
        <time>2024-10-15T13:37:16Z</time>
      </trkpt>
      <trkpt lat="45.9041" lon="1.2682">
        <ele>335.3</ele>
        <time>2024-10-15T13:37:19Z</time>
      </trkpt>
      <trkpt lat="45.90386" lon="1.26825">
        <ele>334.6</ele>
        <time>2024-10-15T13:37:22Z</time>
      </trkpt>
      <trkpt lat="45.90364" lon="1.26828">
        <ele>334.3</ele>
        <time>2024-10-15T13:37:25Z</time>
      </trkpt>
      <trkpt lat="45.90343" lon="1.2683">
        <ele>334.2</ele>
        <time>2024-10-15T13:37:28Z</time>
      </trkpt>
      <trkpt lat="45.90326" lon="1.26828">
        <ele>334.7</ele>
        <time>2024-10-15T13:37:31Z</time>
      </trkpt>
      <trkpt lat="45.90309" lon="1.26828">
        <ele>335.5</ele>
        <time>2024-10-15T13:37:34Z</time>
      </trkpt>
      <trkpt lat="45.90295" lon="1.26831">
        <ele>336.3</ele>
        <time>2024-10-15T13:37:37Z</time>
      </trkpt>
      <trkpt lat="45.90283" lon="1.26834">
        <ele>336.9</ele>
        <time>2024-10-15T13:37:40Z</time>
      </trkpt>
      <trkpt lat="45.90269" lon="1.26831">
        <ele>337.5</ele>
        <time>2024-10-15T13:37:43Z</time>
      </trkpt>
      <trkpt lat="45.90254" lon="1.2683">
        <ele>338.1</ele>
        <time>2024-10-15T13:37:46Z</time>
      </trkpt>
      <trkpt lat="45.90239" lon="1.2683">
        <ele>338.5</ele>
        <time>2024-10-15T13:37:49Z</time>
      </trkpt>
      <trkpt lat="45.90223" lon="1.26831">
        <ele>338.8</ele>
        <time>2024-10-15T13:37:52Z</time>
      </trkpt>
      <trkpt lat="45.9021" lon="1.2683">
        <ele>339</ele>
        <time>2024-10-15T13:37:55Z</time>
      </trkpt>
      <trkpt lat="45.90196" lon="1.2683">
        <ele>339</ele>
        <time>2024-10-15T13:37:58Z</time>
      </trkpt>
      <trkpt lat="45.90181" lon="1.26832">
        <ele>339.1</ele>
        <time>2024-10-15T13:38:01Z</time>
      </trkpt>
      <trkpt lat="45.90168" lon="1.26833">
        <ele>339.2</ele>
        <time>2024-10-15T13:38:04Z</time>
      </trkpt>
      <trkpt lat="45.90154" lon="1.26833">
        <ele>339.4</ele>
        <time>2024-10-15T13:38:07Z</time>
      </trkpt>
      <trkpt lat="45.90141" lon="1.26833">
        <ele>339.6</ele>
        <time>2024-10-15T13:38:10Z</time>
      </trkpt>
      <trkpt lat="45.90128" lon="1.26833">
        <ele>339.9</ele>
        <time>2024-10-15T13:38:13Z</time>
      </trkpt>
      <trkpt lat="45.90115" lon="1.26833">
        <ele>340.1</ele>
        <time>2024-10-15T13:38:16Z</time>
      </trkpt>
      <trkpt lat="45.90102" lon="1.26834">
        <ele>340.4</ele>
        <time>2024-10-15T13:38:19Z</time>
      </trkpt>
      <trkpt lat="45.90091" lon="1.26835">
        <ele>340.6</ele>
        <time>2024-10-15T13:38:22Z</time>
      </trkpt>
      <trkpt lat="45.90082" lon="1.26836">
        <ele>340.7</ele>
        <time>2024-10-15T13:38:25Z</time>
      </trkpt>
      <trkpt lat="45.90076" lon="1.26837">
        <ele>340.7</ele>
        <time>2024-10-15T13:38:28Z</time>
      </trkpt>
      <trkpt lat="45.90074" lon="1.26837">
        <ele>340.7</ele>
        <time>2024-10-15T13:38:31Z</time>
      </trkpt>
      <trkpt lat="45.90075" lon="1.26836">
        <ele>340.7</ele>
        <time>2024-10-15T13:38:34Z</time>
      </trkpt>
      <trkpt lat="45.90072" lon="1.26836">
        <ele>340.7</ele>
        <time>2024-10-15T13:38:37Z</time>
      </trkpt>
      <trkpt lat="45.90063" lon="1.26837">
        <ele>340.4</ele>
        <time>2024-10-15T13:38:40Z</time>
      </trkpt>
      <trkpt lat="45.9005" lon="1.26836">
        <ele>339.7</ele>
        <time>2024-10-15T13:38:43Z</time>
      </trkpt>
      <trkpt lat="45.90037" lon="1.26834">
        <ele>338.7</ele>
        <time>2024-10-15T13:38:46Z</time>
      </trkpt>
      <trkpt lat="45.90019" lon="1.26833">
        <ele>338</ele>
        <time>2024-10-15T13:38:49Z</time>
      </trkpt>
      <trkpt lat="45.90006" lon="1.26834">
        <ele>337.9</ele>
        <time>2024-10-15T13:38:52Z</time>
      </trkpt>
      <trkpt lat="45.89995" lon="1.26838">
        <ele>338.1</ele>
        <time>2024-10-15T13:38:55Z</time>
      </trkpt>
      <trkpt lat="45.89984" lon="1.26844">
        <ele>338.5</ele>
        <time>2024-10-15T13:38:58Z</time>
      </trkpt>
      <trkpt lat="45.89974" lon="1.26846">
        <ele>339.1</ele>
        <time>2024-10-15T13:39:01Z</time>
      </trkpt>
      <trkpt lat="45.89963" lon="1.26852">
        <ele>340.1</ele>
        <time>2024-10-15T13:39:04Z</time>
      </trkpt>
      <trkpt lat="45.89952" lon="1.26855">
        <ele>341.2</ele>
        <time>2024-10-15T13:39:07Z</time>
      </trkpt>
      <trkpt lat="45.89944" lon="1.2686">
        <ele>342</ele>
        <time>2024-10-15T13:39:10Z</time>
      </trkpt>
      <trkpt lat="45.89937" lon="1.26864">
        <ele>342.7</ele>
        <time>2024-10-15T13:39:13Z</time>
      </trkpt>
      <trkpt lat="45.8993" lon="1.26868">
        <ele>343.3</ele>
        <time>2024-10-15T13:39:16Z</time>
      </trkpt>
      <trkpt lat="45.8992" lon="1.26873">
        <ele>343.9</ele>
        <time>2024-10-15T13:39:19Z</time>
      </trkpt>
      <trkpt lat="45.8991" lon="1.26877">
        <ele>344.4</ele>
        <time>2024-10-15T13:39:22Z</time>
      </trkpt>
      <trkpt lat="45.899" lon="1.2688">
        <ele>345</ele>
        <time>2024-10-15T13:39:25Z</time>
      </trkpt>
      <trkpt lat="45.8989" lon="1.26882">
        <ele>345.7</ele>
        <time>2024-10-15T13:39:28Z</time>
      </trkpt>
      <trkpt lat="45.8988" lon="1.26882">
        <ele>346.5</ele>
        <time>2024-10-15T13:39:31Z</time>
      </trkpt>
      <trkpt lat="45.89873" lon="1.26881">
        <ele>347.2</ele>
        <time>2024-10-15T13:39:34Z</time>
      </trkpt>
      <trkpt lat="45.89865" lon="1.2688">
        <ele>347.9</ele>
        <time>2024-10-15T13:39:37Z</time>
      </trkpt>
      <trkpt lat="45.89858" lon="1.26881">
        <ele>348.9</ele>
        <time>2024-10-15T13:39:40Z</time>
      </trkpt>
      <trkpt lat="45.89854" lon="1.26885">
        <ele>348.9</ele>
        <time>2024-10-15T13:39:43Z</time>
      </trkpt>
      <trkpt lat="45.89853" lon="1.26893">
        <ele>348.9</ele>
        <time>2024-10-15T13:39:46Z</time>
      </trkpt>
      <trkpt lat="45.89855" lon="1.26896">
        <ele>348.9</ele>
        <time>2024-10-15T13:39:49Z</time>
      </trkpt>
      <trkpt lat="45.89858" lon="1.26899">
        <ele>348.9</ele>
        <time>2024-10-15T13:39:52Z</time>
      </trkpt>
      <trkpt lat="45.89862" lon="1.26903">
        <ele>348.9</ele>
        <time>2024-10-15T13:39:55Z</time>
      </trkpt>
      <trkpt lat="45.89868" lon="1.26908">
        <ele>348.9</ele>
        <time>2024-10-15T13:39:58Z</time>
      </trkpt>
      <trkpt lat="45.89874" lon="1.26914">
        <ele>348.9</ele>
        <time>2024-10-15T13:40:01Z</time>
      </trkpt>
      <trkpt lat="45.8988" lon="1.26919">
        <ele>348.9</ele>
        <time>2024-10-15T13:40:04Z</time>
      </trkpt>
      <trkpt lat="45.89885" lon="1.26923">
        <ele>348.9</ele>
        <time>2024-10-15T13:40:07Z</time>
      </trkpt>
      <trkpt lat="45.89889" lon="1.26928">
        <ele>348.9</ele>
        <time>2024-10-15T13:40:10Z</time>
      </trkpt>
      <trkpt lat="45.89895" lon="1.26934">
        <ele>348.8</ele>
        <time>2024-10-15T13:40:13Z</time>
      </trkpt>
      <trkpt lat="45.89902" lon="1.26939">
        <ele>348.6</ele>
        <time>2024-10-15T13:40:16Z</time>
      </trkpt>
      <trkpt lat="45.8991" lon="1.26946">
        <ele>348.3</ele>
        <time>2024-10-15T13:40:19Z</time>
      </trkpt>
      <trkpt lat="45.8992" lon="1.26956">
        <ele>347.7</ele>
        <time>2024-10-15T13:40:22Z</time>
      </trkpt>
      <trkpt lat="45.89931" lon="1.2697">
        <ele>347</ele>
        <time>2024-10-15T13:40:25Z</time>
      </trkpt>
      <trkpt lat="45.89941" lon="1.26981">
        <ele>346.3</ele>
        <time>2024-10-15T13:40:28Z</time>
      </trkpt>
      <trkpt lat="45.89952" lon="1.26991">
        <ele>345.5</ele>
        <time>2024-10-15T13:40:31Z</time>
      </trkpt>
      <trkpt lat="45.89962" lon="1.27008">
        <ele>344.4</ele>
        <time>2024-10-15T13:40:34Z</time>
      </trkpt>
      <trkpt lat="45.89969" lon="1.27027">
        <ele>343.4</ele>
        <time>2024-10-15T13:40:37Z</time>
      </trkpt>
      <trkpt lat="45.89975" lon="1.27043">
        <ele>342.4</ele>
        <time>2024-10-15T13:40:40Z</time>
      </trkpt>
      <trkpt lat="45.89982" lon="1.27061">
        <ele>341.4</ele>
        <time>2024-10-15T13:40:43Z</time>
      </trkpt>
      <trkpt lat="45.89986" lon="1.27081">
        <ele>340.4</ele>
        <time>2024-10-15T13:40:46Z</time>
      </trkpt>
      <trkpt lat="45.89992" lon="1.27099">
        <ele>339.3</ele>
        <time>2024-10-15T13:40:49Z</time>
      </trkpt>
      <trkpt lat="45.89998" lon="1.27115">
        <ele>338</ele>
        <time>2024-10-15T13:40:52Z</time>
      </trkpt>
      <trkpt lat="45.90002" lon="1.27135">
        <ele>336.3</ele>
        <time>2024-10-15T13:40:55Z</time>
      </trkpt>
      <trkpt lat="45.90008" lon="1.27157">
        <ele>334.3</ele>
        <time>2024-10-15T13:40:58Z</time>
      </trkpt>
      <trkpt lat="45.90017" lon="1.27175">
        <ele>332.7</ele>
        <time>2024-10-15T13:41:01Z</time>
      </trkpt>
      <trkpt lat="45.90027" lon="1.272">
        <ele>330.8</ele>
        <time>2024-10-15T13:41:04Z</time>
      </trkpt>
      <trkpt lat="45.90028" lon="1.27218">
        <ele>329.9</ele>
        <time>2024-10-15T13:41:07Z</time>
      </trkpt>
      <trkpt lat="45.90031" lon="1.27233">
        <ele>329.3</ele>
        <time>2024-10-15T13:41:10Z</time>
      </trkpt>
      <trkpt lat="45.90035" lon="1.27241">
        <ele>329</ele>
        <time>2024-10-15T13:41:13Z</time>
      </trkpt>
      <trkpt lat="45.90041" lon="1.27252">
        <ele>328.7</ele>
        <time>2024-10-15T13:41:16Z</time>
      </trkpt>
      <trkpt lat="45.90051" lon="1.27264">
        <ele>328.4</ele>
        <time>2024-10-15T13:41:19Z</time>
      </trkpt>
      <trkpt lat="45.90063" lon="1.27272">
        <ele>328.2</ele>
        <time>2024-10-15T13:41:22Z</time>
      </trkpt>
      <trkpt lat="45.90077" lon="1.27277">
        <ele>328</ele>
        <time>2024-10-15T13:41:25Z</time>
      </trkpt>
      <trkpt lat="45.9009" lon="1.27281">
        <ele>327.6</ele>
        <time>2024-10-15T13:41:28Z</time>
      </trkpt>
      <trkpt lat="45.90104" lon="1.27281">
        <ele>327.1</ele>
        <time>2024-10-15T13:41:31Z</time>
      </trkpt>
      <trkpt lat="45.9012" lon="1.2728">
        <ele>326.7</ele>
        <time>2024-10-15T13:41:34Z</time>
      </trkpt>
      <trkpt lat="45.90136" lon="1.27279">
        <ele>326.7</ele>
        <time>2024-10-15T13:41:37Z</time>
      </trkpt>
      <trkpt lat="45.9015" lon="1.27276">
        <ele>326.9</ele>
        <time>2024-10-15T13:41:40Z</time>
      </trkpt>
      <trkpt lat="45.90163" lon="1.27276">
        <ele>327.5</ele>
        <time>2024-10-15T13:41:43Z</time>
      </trkpt>
      <trkpt lat="45.90174" lon="1.27275">
        <ele>328.3</ele>
        <time>2024-10-15T13:41:46Z</time>
      </trkpt>
      <trkpt lat="45.90184" lon="1.27274">
        <ele>329.3</ele>
        <time>2024-10-15T13:41:49Z</time>
      </trkpt>
      <trkpt lat="45.90194" lon="1.27274">
        <ele>330.2</ele>
        <time>2024-10-15T13:41:52Z</time>
      </trkpt>
      <trkpt lat="45.90206" lon="1.27274">
        <ele>331.4</ele>
        <time>2024-10-15T13:41:55Z</time>
      </trkpt>
      <trkpt lat="45.90218" lon="1.27277">
        <ele>332.5</ele>
        <time>2024-10-15T13:41:58Z</time>
      </trkpt>
      <trkpt lat="45.9023" lon="1.27279">
        <ele>333.4</ele>
        <time>2024-10-15T13:42:01Z</time>
      </trkpt>
      <trkpt lat="45.90242" lon="1.27282">
        <ele>334.2</ele>
        <time>2024-10-15T13:42:04Z</time>
      </trkpt>
      <trkpt lat="45.90252" lon="1.27285">
        <ele>334.8</ele>
        <time>2024-10-15T13:42:07Z</time>
      </trkpt>
      <trkpt lat="45.90262" lon="1.2729">
        <ele>335.4</ele>
        <time>2024-10-15T13:42:10Z</time>
      </trkpt>
      <trkpt lat="45.90272" lon="1.27296">
        <ele>336.1</ele>
        <time>2024-10-15T13:42:13Z</time>
      </trkpt>
      <trkpt lat="45.90282" lon="1.27302">
        <ele>336.7</ele>
        <time>2024-10-15T13:42:16Z</time>
      </trkpt>
      <trkpt lat="45.90291" lon="1.27308">
        <ele>337.3</ele>
        <time>2024-10-15T13:42:19Z</time>
      </trkpt>
      <trkpt lat="45.90301" lon="1.27314">
        <ele>337.8</ele>
        <time>2024-10-15T13:42:22Z</time>
      </trkpt>
      <trkpt lat="45.90311" lon="1.27316">
        <ele>338.3</ele>
        <time>2024-10-15T13:42:25Z</time>
      </trkpt>
      <trkpt lat="45.90322" lon="1.27317">
        <ele>338.9</ele>
        <time>2024-10-15T13:42:28Z</time>
      </trkpt>
      <trkpt lat="45.90332" lon="1.27315">
        <ele>339.5</ele>
        <time>2024-10-15T13:42:31Z</time>
      </trkpt>
      <trkpt lat="45.90342" lon="1.27313">
        <ele>340.1</ele>
        <time>2024-10-15T13:42:34Z</time>
      </trkpt>
      <trkpt lat="45.90352" lon="1.2731">
        <ele>340.7</ele>
        <time>2024-10-15T13:42:37Z</time>
      </trkpt>
      <trkpt lat="45.90362" lon="1.27306">
        <ele>341.3</ele>
        <time>2024-10-15T13:42:40Z</time>
      </trkpt>
      <trkpt lat="45.90372" lon="1.27303">
        <ele>341.9</ele>
        <time>2024-10-15T13:42:43Z</time>
      </trkpt>
      <trkpt lat="45.90382" lon="1.273">
        <ele>342.4</ele>
        <time>2024-10-15T13:42:46Z</time>
      </trkpt>
      <trkpt lat="45.9039" lon="1.27298">
        <ele>342.8</ele>
        <time>2024-10-15T13:42:49Z</time>
      </trkpt>
      <trkpt lat="45.90398" lon="1.27294">
        <ele>343.2</ele>
        <time>2024-10-15T13:42:52Z</time>
      </trkpt>
      <trkpt lat="45.90406" lon="1.27291">
        <ele>343.6</ele>
        <time>2024-10-15T13:42:55Z</time>
      </trkpt>
      <trkpt lat="45.90414" lon="1.27289">
        <ele>343.9</ele>
        <time>2024-10-15T13:42:58Z</time>
      </trkpt>
      <trkpt lat="45.90421" lon="1.27287">
        <ele>344.2</ele>
        <time>2024-10-15T13:43:01Z</time>
      </trkpt>
      <trkpt lat="45.90427" lon="1.27287">
        <ele>344.4</ele>
        <time>2024-10-15T13:43:04Z</time>
      </trkpt>
      <trkpt lat="45.90429" lon="1.27288">
        <ele>344.5</ele>
        <time>2024-10-15T13:43:07Z</time>
      </trkpt>
      <trkpt lat="45.90429" lon="1.27288">
        <ele>344.5</ele>
        <time>2024-10-15T13:43:10Z</time>
      </trkpt>
      <trkpt lat="45.90428" lon="1.27286">
        <ele>344.6</ele>
        <time>2024-10-15T13:43:13Z</time>
      </trkpt>
      <trkpt lat="45.90431" lon="1.27289">
        <ele>344.7</ele>
        <time>2024-10-15T13:43:16Z</time>
      </trkpt>
      <trkpt lat="45.90439" lon="1.27291">
        <ele>345</ele>
        <time>2024-10-15T13:43:19Z</time>
      </trkpt>
      <trkpt lat="45.90447" lon="1.27294">
        <ele>345.2</ele>
        <time>2024-10-15T13:43:22Z</time>
      </trkpt>
      <trkpt lat="45.90457" lon="1.27294">
        <ele>345.5</ele>
        <time>2024-10-15T13:43:25Z</time>
      </trkpt>
      <trkpt lat="45.90467" lon="1.27296">
        <ele>345.7</ele>
        <time>2024-10-15T13:43:28Z</time>
      </trkpt>
      <trkpt lat="45.90476" lon="1.27298">
        <ele>345.9</ele>
        <time>2024-10-15T13:43:31Z</time>
      </trkpt>
      <trkpt lat="45.90486" lon="1.273">
        <ele>346.2</ele>
        <time>2024-10-15T13:43:34Z</time>
      </trkpt>
      <trkpt lat="45.90496" lon="1.27301">
        <ele>346.4</ele>
        <time>2024-10-15T13:43:37Z</time>
      </trkpt>
      <trkpt lat="45.90506" lon="1.27302">
        <ele>346.6</ele>
        <time>2024-10-15T13:43:40Z</time>
      </trkpt>
      <trkpt lat="45.90516" lon="1.27301">
        <ele>346.9</ele>
        <time>2024-10-15T13:43:43Z</time>
      </trkpt>
      <trkpt lat="45.90526" lon="1.27301">
        <ele>347.2</ele>
        <time>2024-10-15T13:43:46Z</time>
      </trkpt>
      <trkpt lat="45.90534" lon="1.273">
        <ele>347.4</ele>
        <time>2024-10-15T13:43:49Z</time>
      </trkpt>
      <trkpt lat="45.90544" lon="1.27299">
        <ele>347.7</ele>
        <time>2024-10-15T13:43:52Z</time>
      </trkpt>
      <trkpt lat="45.90553" lon="1.27296">
        <ele>348</ele>
        <time>2024-10-15T13:43:55Z</time>
      </trkpt>
      <trkpt lat="45.90563" lon="1.27292">
        <ele>348.2</ele>
        <time>2024-10-15T13:43:58Z</time>
      </trkpt>
      <trkpt lat="45.90573" lon="1.27288">
        <ele>348.4</ele>
        <time>2024-10-15T13:44:01Z</time>
      </trkpt>
      <trkpt lat="45.90583" lon="1.27285">
        <ele>348.6</ele>
        <time>2024-10-15T13:44:04Z</time>
      </trkpt>
      <trkpt lat="45.90593" lon="1.27281">
        <ele>348.7</ele>
        <time>2024-10-15T13:44:07Z</time>
      </trkpt>
      <trkpt lat="45.90604" lon="1.27277">
        <ele>348.7</ele>
        <time>2024-10-15T13:44:10Z</time>
      </trkpt>
      <trkpt lat="45.90616" lon="1.27274">
        <ele>348.7</ele>
        <time>2024-10-15T13:44:13Z</time>
      </trkpt>
      <trkpt lat="45.90628" lon="1.2727">
        <ele>348.6</ele>
        <time>2024-10-15T13:44:16Z</time>
      </trkpt>
      <trkpt lat="45.9064" lon="1.27267">
        <ele>348.6</ele>
        <time>2024-10-15T13:44:19Z</time>
      </trkpt>
      <trkpt lat="45.90652" lon="1.27264">
        <ele>348.6</ele>
        <time>2024-10-15T13:44:22Z</time>
      </trkpt>
      <trkpt lat="45.90664" lon="1.27262">
        <ele>348.6</ele>
        <time>2024-10-15T13:44:25Z</time>
      </trkpt>
      <trkpt lat="45.90677" lon="1.27259">
        <ele>348.5</ele>
        <time>2024-10-15T13:44:28Z</time>
      </trkpt>
      <trkpt lat="45.90689" lon="1.27256">
        <ele>348.5</ele>
        <time>2024-10-15T13:44:31Z</time>
      </trkpt>
      <trkpt lat="45.90702" lon="1.27254">
        <ele>348.4</ele>
        <time>2024-10-15T13:44:34Z</time>
      </trkpt>
      <trkpt lat="45.90714" lon="1.27251">
        <ele>348.3</ele>
        <time>2024-10-15T13:44:37Z</time>
      </trkpt>
      <trkpt lat="45.90726" lon="1.27248">
        <ele>348.3</ele>
        <time>2024-10-15T13:44:40Z</time>
      </trkpt>
      <trkpt lat="45.90737" lon="1.27245">
        <ele>348.4</ele>
        <time>2024-10-15T13:44:43Z</time>
      </trkpt>
      <trkpt lat="45.90745" lon="1.27239">
        <ele>348.5</ele>
        <time>2024-10-15T13:44:46Z</time>
      </trkpt>
      <trkpt lat="45.90754" lon="1.27233">
        <ele>348.9</ele>
        <time>2024-10-15T13:44:49Z</time>
      </trkpt>
      <trkpt lat="45.90764" lon="1.27227">
        <ele>349.4</ele>
        <time>2024-10-15T13:44:52Z</time>
      </trkpt>
      <trkpt lat="45.90772" lon="1.27223">
        <ele>350</ele>
        <time>2024-10-15T13:44:55Z</time>
      </trkpt>
      <trkpt lat="45.90781" lon="1.27218">
        <ele>350.5</ele>
        <time>2024-10-15T13:44:58Z</time>
      </trkpt>
      <trkpt lat="45.90791" lon="1.27213">
        <ele>350.9</ele>
        <time>2024-10-15T13:45:01Z</time>
      </trkpt>
      <trkpt lat="45.90802" lon="1.27207">
        <ele>351.2</ele>
        <time>2024-10-15T13:45:04Z</time>
      </trkpt>
      <trkpt lat="45.90814" lon="1.27204">
        <ele>351.5</ele>
        <time>2024-10-15T13:45:07Z</time>
      </trkpt>
      <trkpt lat="45.90823" lon="1.27196">
        <ele>351.8</ele>
        <time>2024-10-15T13:45:10Z</time>
      </trkpt>
      <trkpt lat="45.90835" lon="1.27189">
        <ele>352.2</ele>
        <time>2024-10-15T13:45:13Z</time>
      </trkpt>
      <trkpt lat="45.90846" lon="1.27183">
        <ele>352.6</ele>
        <time>2024-10-15T13:45:16Z</time>
      </trkpt>
      <trkpt lat="45.90856" lon="1.27178">
        <ele>353.1</ele>
        <time>2024-10-15T13:45:19Z</time>
      </trkpt>
      <trkpt lat="45.90865" lon="1.27172">
        <ele>353.5</ele>
        <time>2024-10-15T13:45:22Z</time>
      </trkpt>
      <trkpt lat="45.90873" lon="1.27163">
        <ele>354</ele>
        <time>2024-10-15T13:45:25Z</time>
      </trkpt>
      <trkpt lat="45.90883" lon="1.27156">
        <ele>354.5</ele>
        <time>2024-10-15T13:45:28Z</time>
      </trkpt>
      <trkpt lat="45.9089" lon="1.27151">
        <ele>354.9</ele>
        <time>2024-10-15T13:45:31Z</time>
      </trkpt>
      <trkpt lat="45.90898" lon="1.27143">
        <ele>355.5</ele>
        <time>2024-10-15T13:45:34Z</time>
      </trkpt>
      <trkpt lat="45.90905" lon="1.27132">
        <ele>356.1</ele>
        <time>2024-10-15T13:45:37Z</time>
      </trkpt>
      <trkpt lat="45.9091" lon="1.27125">
        <ele>356.5</ele>
        <time>2024-10-15T13:45:40Z</time>
      </trkpt>
      <trkpt lat="45.90917" lon="1.27117">
        <ele>357</ele>
        <time>2024-10-15T13:45:43Z</time>
      </trkpt>
      <trkpt lat="45.90926" lon="1.27109">
        <ele>357.6</ele>
        <time>2024-10-15T13:45:46Z</time>
      </trkpt>
      <trkpt lat="45.90932" lon="1.27102">
        <ele>358</ele>
        <time>2024-10-15T13:45:49Z</time>
      </trkpt>
      <trkpt lat="45.9094" lon="1.27095">
        <ele>358.4</ele>
        <time>2024-10-15T13:45:52Z</time>
      </trkpt>
      <trkpt lat="45.90948" lon="1.27089">
        <ele>358.8</ele>
        <time>2024-10-15T13:45:55Z</time>
      </trkpt>
      <trkpt lat="45.90957" lon="1.27084">
        <ele>359.1</ele>
        <time>2024-10-15T13:45:58Z</time>
      </trkpt>
      <trkpt lat="45.90966" lon="1.27078">
        <ele>359.3</ele>
        <time>2024-10-15T13:46:01Z</time>
      </trkpt>
      <trkpt lat="45.90973" lon="1.27072">
        <ele>359.3</ele>
        <time>2024-10-15T13:46:04Z</time>
      </trkpt>
      <trkpt lat="45.90982" lon="1.27062">
        <ele>359.3</ele>
        <time>2024-10-15T13:46:07Z</time>
      </trkpt>
      <trkpt lat="45.90989" lon="1.27051">
        <ele>359.2</ele>
        <time>2024-10-15T13:46:10Z</time>
      </trkpt>
      <trkpt lat="45.90995" lon="1.27043">
        <ele>359.2</ele>
        <time>2024-10-15T13:46:13Z</time>
      </trkpt>
      <trkpt lat="45.91005" lon="1.27035">
        <ele>359.2</ele>
        <time>2024-10-15T13:46:16Z</time>
      </trkpt>
      <trkpt lat="45.91013" lon="1.27025">
        <ele>359.3</ele>
        <time>2024-10-15T13:46:19Z</time>
      </trkpt>
      <trkpt lat="45.91019" lon="1.27019">
        <ele>359.4</ele>
        <time>2024-10-15T13:46:22Z</time>
      </trkpt>
      <trkpt lat="45.91027" lon="1.2701">
        <ele>359.6</ele>
        <time>2024-10-15T13:46:25Z</time>
      </trkpt>
      <trkpt lat="45.91034" lon="1.27001">
        <ele>359.7</ele>
        <time>2024-10-15T13:46:28Z</time>
      </trkpt>
      <trkpt lat="45.9104" lon="1.26993">
        <ele>359.8</ele>
        <time>2024-10-15T13:46:31Z</time>
      </trkpt>
      <trkpt lat="45.91047" lon="1.26985">
        <ele>359.9</ele>
        <time>2024-10-15T13:46:34Z</time>
      </trkpt>
      <trkpt lat="45.91057" lon="1.26977">
        <ele>359.9</ele>
        <time>2024-10-15T13:46:37Z</time>
      </trkpt>
      <trkpt lat="45.91066" lon="1.26969">
        <ele>359.9</ele>
        <time>2024-10-15T13:46:40Z</time>
      </trkpt>
      <trkpt lat="45.91073" lon="1.26962">
        <ele>359.7</ele>
        <time>2024-10-15T13:46:43Z</time>
      </trkpt>
      <trkpt lat="45.9108" lon="1.26956">
        <ele>359.6</ele>
        <time>2024-10-15T13:46:46Z</time>
      </trkpt>
      <trkpt lat="45.91088" lon="1.26947">
        <ele>359.4</ele>
        <time>2024-10-15T13:46:49Z</time>
      </trkpt>
      <trkpt lat="45.91095" lon="1.26938">
        <ele>359.2</ele>
        <time>2024-10-15T13:46:52Z</time>
      </trkpt>
      <trkpt lat="45.91103" lon="1.26929">
        <ele>359.1</ele>
        <time>2024-10-15T13:46:55Z</time>
      </trkpt>
      <trkpt lat="45.91111" lon="1.26922">
        <ele>359</ele>
        <time>2024-10-15T13:46:58Z</time>
      </trkpt>
      <trkpt lat="45.91116" lon="1.26917">
        <ele>358.9</ele>
        <time>2024-10-15T13:47:01Z</time>
      </trkpt>
      <trkpt lat="45.9112" lon="1.26912">
        <ele>358.9</ele>
        <time>2024-10-15T13:47:04Z</time>
      </trkpt>
      <trkpt lat="45.91123" lon="1.26908">
        <ele>358.9</ele>
        <time>2024-10-15T13:47:07Z</time>
      </trkpt>
      <trkpt lat="45.91125" lon="1.26907">
        <ele>358.9</ele>
        <time>2024-10-15T13:47:10Z</time>
      </trkpt>
      <trkpt lat="45.91131" lon="1.26903">
        <ele>359</ele>
        <time>2024-10-15T13:47:13Z</time>
      </trkpt>
      <trkpt lat="45.91136" lon="1.26898">
        <ele>359.1</ele>
        <time>2024-10-15T13:47:16Z</time>
      </trkpt>
      <trkpt lat="45.91142" lon="1.26891">
        <ele>359.2</ele>
        <time>2024-10-15T13:47:19Z</time>
      </trkpt>
      <trkpt lat="45.91149" lon="1.26884">
        <ele>359.4</ele>
        <time>2024-10-15T13:47:22Z</time>
      </trkpt>
      <trkpt lat="45.91158" lon="1.26873">
        <ele>359.7</ele>
        <time>2024-10-15T13:47:25Z</time>
      </trkpt>
      <trkpt lat="45.9117" lon="1.26861">
        <ele>360</ele>
        <time>2024-10-15T13:47:28Z</time>
      </trkpt>
      <trkpt lat="45.91183" lon="1.26852">
        <ele>360.2</ele>
        <time>2024-10-15T13:47:31Z</time>
      </trkpt>
      <trkpt lat="45.91197" lon="1.26843">
        <ele>360.2</ele>
        <time>2024-10-15T13:47:34Z</time>
      </trkpt>
      <trkpt lat="45.9121" lon="1.26835">
        <ele>360</ele>
        <time>2024-10-15T13:47:37Z</time>
      </trkpt>
      <trkpt lat="45.91223" lon="1.26826">
        <ele>359.6</ele>
        <time>2024-10-15T13:47:40Z</time>
      </trkpt>
      <trkpt lat="45.91236" lon="1.26816">
        <ele>359.2</ele>
        <time>2024-10-15T13:47:43Z</time>
      </trkpt>
      <trkpt lat="45.91249" lon="1.26811">
        <ele>358.9</ele>
        <time>2024-10-15T13:47:46Z</time>
      </trkpt>
      <trkpt lat="45.9126" lon="1.26804">
        <ele>358.7</ele>
        <time>2024-10-15T13:47:49Z</time>
      </trkpt>
      <trkpt lat="45.91271" lon="1.26798">
        <ele>358.6</ele>
        <time>2024-10-15T13:47:52Z</time>
      </trkpt>
      <trkpt lat="45.91284" lon="1.26791">
        <ele>358.6</ele>
        <time>2024-10-15T13:47:55Z</time>
      </trkpt>
      <trkpt lat="45.91299" lon="1.26781">
        <ele>358.8</ele>
        <time>2024-10-15T13:47:58Z</time>
      </trkpt>
      <trkpt lat="45.91314" lon="1.26772">
        <ele>359.1</ele>
        <time>2024-10-15T13:48:01Z</time>
      </trkpt>
      <trkpt lat="45.91328" lon="1.26762">
        <ele>359.5</ele>
        <time>2024-10-15T13:48:04Z</time>
      </trkpt>
      <trkpt lat="45.91341" lon="1.26754">
        <ele>360</ele>
        <time>2024-10-15T13:48:07Z</time>
      </trkpt>
      <trkpt lat="45.91353" lon="1.26747">
        <ele>360.3</ele>
        <time>2024-10-15T13:48:10Z</time>
      </trkpt>
      <trkpt lat="45.91364" lon="1.26741">
        <ele>360.7</ele>
        <time>2024-10-15T13:48:13Z</time>
      </trkpt>
      <trkpt lat="45.91376" lon="1.26735">
        <ele>361.1</ele>
        <time>2024-10-15T13:48:16Z</time>
      </trkpt>
      <trkpt lat="45.91387" lon="1.26728">
        <ele>361.5</ele>
        <time>2024-10-15T13:48:19Z</time>
      </trkpt>
      <trkpt lat="45.91398" lon="1.26721">
        <ele>361.9</ele>
        <time>2024-10-15T13:48:22Z</time>
      </trkpt>
      <trkpt lat="45.91409" lon="1.26715">
        <ele>362.3</ele>
        <time>2024-10-15T13:48:25Z</time>
      </trkpt>
      <trkpt lat="45.91418" lon="1.26711">
        <ele>362.7</ele>
        <time>2024-10-15T13:48:28Z</time>
      </trkpt>
      <trkpt lat="45.91428" lon="1.26707">
        <ele>363.1</ele>
        <time>2024-10-15T13:48:31Z</time>
      </trkpt>
      <trkpt lat="45.91436" lon="1.26702">
        <ele>363.5</ele>
        <time>2024-10-15T13:48:34Z</time>
      </trkpt>
      <trkpt lat="45.91447" lon="1.26698">
        <ele>364</ele>
        <time>2024-10-15T13:48:37Z</time>
      </trkpt>
      <trkpt lat="45.91454" lon="1.26696">
        <ele>364.3</ele>
        <time>2024-10-15T13:48:40Z</time>
      </trkpt>
      <trkpt lat="45.91463" lon="1.26695">
        <ele>364.7</ele>
        <time>2024-10-15T13:48:43Z</time>
      </trkpt>
      <trkpt lat="45.91471" lon="1.26693">
        <ele>365.1</ele>
        <time>2024-10-15T13:48:46Z</time>
      </trkpt>
      <trkpt lat="45.9148" lon="1.26691">
        <ele>365.6</ele>
        <time>2024-10-15T13:48:49Z</time>
      </trkpt>
      <trkpt lat="45.91485" lon="1.26695">
        <ele>365.9</ele>
        <time>2024-10-15T13:48:52Z</time>
      </trkpt>
      <trkpt lat="45.91486" lon="1.26704">
        <ele>365.5</ele>
        <time>2024-10-15T13:48:55Z</time>
      </trkpt>
      <trkpt lat="45.91485" lon="1.26717">
        <ele>365.1</ele>
        <time>2024-10-15T13:48:58Z</time>
      </trkpt>
      <trkpt lat="45.91486" lon="1.26731">
        <ele>364.7</ele>
        <time>2024-10-15T13:49:01Z</time>
      </trkpt>
      <trkpt lat="45.91485" lon="1.26746">
        <ele>364.3</ele>
        <time>2024-10-15T13:49:04Z</time>
      </trkpt>
      <trkpt lat="45.91486" lon="1.26762">
        <ele>363.9</ele>
        <time>2024-10-15T13:49:07Z</time>
      </trkpt>
      <trkpt lat="45.91485" lon="1.26778">
        <ele>363.5</ele>
        <time>2024-10-15T13:49:10Z</time>
      </trkpt>
      <trkpt lat="45.91484" lon="1.26794">
        <ele>363.1</ele>
        <time>2024-10-15T13:49:13Z</time>
      </trkpt>
      <trkpt lat="45.91476" lon="1.26808">
        <ele>362.7</ele>
        <time>2024-10-15T13:49:16Z</time>
      </trkpt>
      <trkpt lat="45.91467" lon="1.26821">
        <ele>362</ele>
        <time>2024-10-15T13:49:19Z</time>
      </trkpt>
      <trkpt lat="45.91459" lon="1.26836">
        <ele>361.4</ele>
        <time>2024-10-15T13:49:22Z</time>
      </trkpt>
      <trkpt lat="45.91451" lon="1.2685">
        <ele>360.6</ele>
        <time>2024-10-15T13:49:25Z</time>
      </trkpt>
      <trkpt lat="45.91443" lon="1.26863">
        <ele>359.9</ele>
        <time>2024-10-15T13:49:28Z</time>
      </trkpt>
      <trkpt lat="45.91435" lon="1.26877">
        <ele>359.3</ele>
        <time>2024-10-15T13:49:31Z</time>
      </trkpt>
      <trkpt lat="45.91426" lon="1.26893">
        <ele>358.5</ele>
        <time>2024-10-15T13:49:34Z</time>
      </trkpt>
      <trkpt lat="45.91417" lon="1.2691">
        <ele>357.7</ele>
        <time>2024-10-15T13:49:37Z</time>
      </trkpt>
      <trkpt lat="45.91408" lon="1.26927">
        <ele>356.9</ele>
        <time>2024-10-15T13:49:40Z</time>
      </trkpt>
      <trkpt lat="45.91398" lon="1.26945">
        <ele>356.1</ele>
        <time>2024-10-15T13:49:43Z</time>
      </trkpt>
      <trkpt lat="45.91388" lon="1.26968">
        <ele>355</ele>
        <time>2024-10-15T13:49:46Z</time>
      </trkpt>
      <trkpt lat="45.91378" lon="1.2699">
        <ele>353.9</ele>
        <time>2024-10-15T13:49:49Z</time>
      </trkpt>
      <trkpt lat="45.91368" lon="1.27009">
        <ele>352.9</ele>
        <time>2024-10-15T13:49:52Z</time>
      </trkpt>
      <trkpt lat="45.91359" lon="1.27029">
        <ele>352</ele>
        <time>2024-10-15T13:49:55Z</time>
      </trkpt>
      <trkpt lat="45.91349" lon="1.27049">
        <ele>351</ele>
        <time>2024-10-15T13:49:58Z</time>
      </trkpt>
      <trkpt lat="45.91339" lon="1.27074">
        <ele>350</ele>
        <time>2024-10-15T13:50:01Z</time>
      </trkpt>
      <trkpt lat="45.91328" lon="1.27092">
        <ele>349.1</ele>
        <time>2024-10-15T13:50:04Z</time>
      </trkpt>
      <trkpt lat="45.91321" lon="1.27112">
        <ele>348.4</ele>
        <time>2024-10-15T13:50:07Z</time>
      </trkpt>
      <trkpt lat="45.9131" lon="1.27132">
        <ele>347.8</ele>
        <time>2024-10-15T13:50:10Z</time>
      </trkpt>
      <trkpt lat="45.91299" lon="1.27152">
        <ele>347.3</ele>
        <time>2024-10-15T13:50:13Z</time>
      </trkpt>
      <trkpt lat="45.91292" lon="1.2717">
        <ele>346.9</ele>
        <time>2024-10-15T13:50:16Z</time>
      </trkpt>
      <trkpt lat="45.91287" lon="1.27195">
        <ele>346.2</ele>
        <time>2024-10-15T13:50:19Z</time>
      </trkpt>
      <trkpt lat="45.91282" lon="1.27219">
        <ele>345.5</ele>
        <time>2024-10-15T13:50:22Z</time>
      </trkpt>
      <trkpt lat="45.91275" lon="1.2724">
        <ele>344.8</ele>
        <time>2024-10-15T13:50:25Z</time>
      </trkpt>
      <trkpt lat="45.91266" lon="1.2726">
        <ele>344.2</ele>
        <time>2024-10-15T13:50:28Z</time>
      </trkpt>
      <trkpt lat="45.91261" lon="1.2728">
        <ele>343.9</ele>
        <time>2024-10-15T13:50:31Z</time>
      </trkpt>
      <trkpt lat="45.91256" lon="1.27299">
        <ele>343.6</ele>
        <time>2024-10-15T13:50:34Z</time>
      </trkpt>
      <trkpt lat="45.91249" lon="1.27318">
        <ele>343.3</ele>
        <time>2024-10-15T13:50:37Z</time>
      </trkpt>
      <trkpt lat="45.91245" lon="1.27336">
        <ele>343</ele>
        <time>2024-10-15T13:50:40Z</time>
      </trkpt>
      <trkpt lat="45.9124" lon="1.27356">
        <ele>342.6</ele>
        <time>2024-10-15T13:50:43Z</time>
      </trkpt>
      <trkpt lat="45.91234" lon="1.27376">
        <ele>342.1</ele>
        <time>2024-10-15T13:50:46Z</time>
      </trkpt>
      <trkpt lat="45.91225" lon="1.27391">
        <ele>341.7</ele>
        <time>2024-10-15T13:50:49Z</time>
      </trkpt>
      <trkpt lat="45.91221" lon="1.27409">
        <ele>341.3</ele>
        <time>2024-10-15T13:50:52Z</time>
      </trkpt>
      <trkpt lat="45.91218" lon="1.27423">
        <ele>341.1</ele>
        <time>2024-10-15T13:50:55Z</time>
      </trkpt>
      <trkpt lat="45.91216" lon="1.27439">
        <ele>340.9</ele>
        <time>2024-10-15T13:50:58Z</time>
      </trkpt>
      <trkpt lat="45.91208" lon="1.27457">
        <ele>340.6</ele>
        <time>2024-10-15T13:51:01Z</time>
      </trkpt>
      <trkpt lat="45.91201" lon="1.27471">
        <ele>340.4</ele>
        <time>2024-10-15T13:51:04Z</time>
      </trkpt>
      <trkpt lat="45.91195" lon="1.27494">
        <ele>340</ele>
        <time>2024-10-15T13:51:07Z</time>
      </trkpt>
      <trkpt lat="45.9119" lon="1.27506">
        <ele>339.8</ele>
        <time>2024-10-15T13:51:10Z</time>
      </trkpt>
      <trkpt lat="45.91184" lon="1.2752">
        <ele>339.6</ele>
        <time>2024-10-15T13:51:13Z</time>
      </trkpt>
      <trkpt lat="45.91177" lon="1.27536">
        <ele>339.4</ele>
        <time>2024-10-15T13:51:16Z</time>
      </trkpt>
      <trkpt lat="45.91172" lon="1.27552">
        <ele>339.1</ele>
        <time>2024-10-15T13:51:18Z</time>
      </trkpt>
      <trkpt lat="45.91171" lon="1.27575">
        <ele>338.7</ele>
        <time>2024-10-15T13:51:22Z</time>
      </trkpt>
      <trkpt lat="45.91171" lon="1.27594">
        <ele>338.5</ele>
        <time>2024-10-15T13:51:24Z</time>
      </trkpt>
      <trkpt lat="45.91167" lon="1.27611">
        <ele>338.4</ele>
        <time>2024-10-15T13:51:28Z</time>
      </trkpt>
      <trkpt lat="45.91163" lon="1.27631">
        <ele>338.3</ele>
        <time>2024-10-15T13:51:31Z</time>
      </trkpt>
      <trkpt lat="45.91159" lon="1.27648">
        <ele>338.2</ele>
        <time>2024-10-15T13:51:34Z</time>
      </trkpt>
      <trkpt lat="45.91162" lon="1.27663">
        <ele>338.1</ele>
        <time>2024-10-15T13:51:37Z</time>
      </trkpt>
      <trkpt lat="45.91171" lon="1.27682">
        <ele>337.9</ele>
        <time>2024-10-15T13:51:40Z</time>
      </trkpt>
      <trkpt lat="45.91183" lon="1.27704">
        <ele>337.3</ele>
        <time>2024-10-15T13:51:43Z</time>
      </trkpt>
      <trkpt lat="45.91187" lon="1.27722">
        <ele>337</ele>
        <time>2024-10-15T13:51:46Z</time>
      </trkpt>
      <trkpt lat="45.91199" lon="1.27736">
        <ele>336.6</ele>
        <time>2024-10-15T13:51:49Z</time>
      </trkpt>
      <trkpt lat="45.91212" lon="1.27755">
        <ele>336.5</ele>
        <time>2024-10-15T13:51:52Z</time>
      </trkpt>
      <trkpt lat="45.91223" lon="1.27773">
        <ele>336.9</ele>
        <time>2024-10-15T13:51:55Z</time>
      </trkpt>
      <trkpt lat="45.9123" lon="1.27793">
        <ele>337.5</ele>
        <time>2024-10-15T13:51:58Z</time>
      </trkpt>
      <trkpt lat="45.91238" lon="1.2781">
        <ele>338.5</ele>
        <time>2024-10-15T13:52:01Z</time>
      </trkpt>
      <trkpt lat="45.91245" lon="1.27819">
        <ele>339.1</ele>
        <time>2024-10-15T13:52:04Z</time>
      </trkpt>
      <trkpt lat="45.91254" lon="1.27828">
        <ele>339.8</ele>
        <time>2024-10-15T13:52:07Z</time>
      </trkpt>
      <trkpt lat="45.91263" lon="1.27836">
        <ele>340.5</ele>
        <time>2024-10-15T13:52:10Z</time>
      </trkpt>
      <trkpt lat="45.91273" lon="1.27846">
        <ele>341.4</ele>
        <time>2024-10-15T13:52:13Z</time>
      </trkpt>
      <trkpt lat="45.91284" lon="1.27855">
        <ele>342.2</ele>
        <time>2024-10-15T13:52:16Z</time>
      </trkpt>
      <trkpt lat="45.91292" lon="1.27863">
        <ele>342.9</ele>
        <time>2024-10-15T13:52:19Z</time>
      </trkpt>
      <trkpt lat="45.913" lon="1.27871">
        <ele>343.4</ele>
        <time>2024-10-15T13:52:22Z</time>
      </trkpt>
      <trkpt lat="45.91307" lon="1.2788">
        <ele>343.9</ele>
        <time>2024-10-15T13:52:25Z</time>
      </trkpt>
      <trkpt lat="45.91315" lon="1.27889">
        <ele>344.3</ele>
        <time>2024-10-15T13:52:28Z</time>
      </trkpt>
      <trkpt lat="45.91321" lon="1.27897">
        <ele>344.7</ele>
        <time>2024-10-15T13:52:30Z</time>
      </trkpt>
      <trkpt lat="45.91328" lon="1.27905">
        <ele>345</ele>
        <time>2024-10-15T13:52:33Z</time>
      </trkpt>
      <trkpt lat="45.91335" lon="1.27914">
        <ele>345.3</ele>
        <time>2024-10-15T13:52:36Z</time>
      </trkpt>
      <trkpt lat="45.91341" lon="1.27923">
        <ele>345.5</ele>
        <time>2024-10-15T13:52:40Z</time>
      </trkpt>
      <trkpt lat="45.91348" lon="1.27933">
        <ele>345.7</ele>
        <time>2024-10-15T13:52:42Z</time>
      </trkpt>
      <trkpt lat="45.91355" lon="1.27943">
        <ele>346</ele>
        <time>2024-10-15T13:52:46Z</time>
      </trkpt>
      <trkpt lat="45.91363" lon="1.27952">
        <ele>346.2</ele>
        <time>2024-10-15T13:52:48Z</time>
      </trkpt>
      <trkpt lat="45.9137" lon="1.2796">
        <ele>346.4</ele>
        <time>2024-10-15T13:52:52Z</time>
      </trkpt>
      <trkpt lat="45.91378" lon="1.27969">
        <ele>346.7</ele>
        <time>2024-10-15T13:52:55Z</time>
      </trkpt>
      <trkpt lat="45.91387" lon="1.27977">
        <ele>346.9</ele>
        <time>2024-10-15T13:52:58Z</time>
      </trkpt>
      <trkpt lat="45.91396" lon="1.27983">
        <ele>347.1</ele>
        <time>2024-10-15T13:53:01Z</time>
      </trkpt>
      <trkpt lat="45.91404" lon="1.27989">
        <ele>347.4</ele>
        <time>2024-10-15T13:53:04Z</time>
      </trkpt>
      <trkpt lat="45.91413" lon="1.27996">
        <ele>347.7</ele>
        <time>2024-10-15T13:53:07Z</time>
      </trkpt>
      <trkpt lat="45.91421" lon="1.28001">
        <ele>348</ele>
        <time>2024-10-15T13:53:10Z</time>
      </trkpt>
      <trkpt lat="45.91429" lon="1.28007">
        <ele>348.3</ele>
        <time>2024-10-15T13:53:13Z</time>
      </trkpt>
      <trkpt lat="45.91435" lon="1.28012">
        <ele>348.7</ele>
        <time>2024-10-15T13:53:16Z</time>
      </trkpt>
      <trkpt lat="45.91442" lon="1.28015">
        <ele>349.1</ele>
        <time>2024-10-15T13:53:19Z</time>
      </trkpt>
      <trkpt lat="45.9145" lon="1.2802">
        <ele>349.5</ele>
        <time>2024-10-15T13:53:22Z</time>
      </trkpt>
      <trkpt lat="45.91458" lon="1.28024">
        <ele>349.9</ele>
        <time>2024-10-15T13:53:25Z</time>
      </trkpt>
      <trkpt lat="45.91467" lon="1.28027">
        <ele>350.3</ele>
        <time>2024-10-15T13:53:28Z</time>
      </trkpt>
      <trkpt lat="45.91476" lon="1.28029">
        <ele>350.7</ele>
        <time>2024-10-15T13:53:31Z</time>
      </trkpt>
      <trkpt lat="45.91486" lon="1.28029">
        <ele>351.1</ele>
        <time>2024-10-15T13:53:34Z</time>
      </trkpt>
      <trkpt lat="45.91495" lon="1.2803">
        <ele>351.5</ele>
        <time>2024-10-15T13:53:37Z</time>
      </trkpt>
      <trkpt lat="45.91504" lon="1.28033">
        <ele>351.8</ele>
        <time>2024-10-15T13:53:40Z</time>
      </trkpt>
      <trkpt lat="45.91514" lon="1.28035">
        <ele>352.1</ele>
        <time>2024-10-15T13:53:43Z</time>
      </trkpt>
      <trkpt lat="45.91523" lon="1.28037">
        <ele>352.4</ele>
        <time>2024-10-15T13:53:46Z</time>
      </trkpt>
      <trkpt lat="45.91534" lon="1.28037">
        <ele>352.6</ele>
        <time>2024-10-15T13:53:48Z</time>
      </trkpt>
      <trkpt lat="45.91545" lon="1.28037">
        <ele>352.7</ele>
        <time>2024-10-15T13:53:52Z</time>
      </trkpt>
      <trkpt lat="45.91556" lon="1.28038">
        <ele>352.9</ele>
        <time>2024-10-15T13:53:55Z</time>
      </trkpt>
      <trkpt lat="45.91566" lon="1.2804">
        <ele>353</ele>
        <time>2024-10-15T13:53:58Z</time>
      </trkpt>
      <trkpt lat="45.91576" lon="1.28043">
        <ele>353.2</ele>
        <time>2024-10-15T13:54:01Z</time>
      </trkpt>
      <trkpt lat="45.91585" lon="1.2805">
        <ele>353.4</ele>
        <time>2024-10-15T13:54:04Z</time>
      </trkpt>
      <trkpt lat="45.91594" lon="1.28057">
        <ele>353.6</ele>
        <time>2024-10-15T13:54:07Z</time>
      </trkpt>
      <trkpt lat="45.91602" lon="1.28063">
        <ele>353.8</ele>
        <time>2024-10-15T13:54:10Z</time>
      </trkpt>
      <trkpt lat="45.91611" lon="1.28069">
        <ele>353.9</ele>
        <time>2024-10-15T13:54:13Z</time>
      </trkpt>
      <trkpt lat="45.9162" lon="1.28075">
        <ele>354.1</ele>
        <time>2024-10-15T13:54:16Z</time>
      </trkpt>
      <trkpt lat="45.91629" lon="1.28082">
        <ele>354.3</ele>
        <time>2024-10-15T13:54:19Z</time>
      </trkpt>
      <trkpt lat="45.91634" lon="1.28093">
        <ele>354.4</ele>
        <time>2024-10-15T13:54:22Z</time>
      </trkpt>
      <trkpt lat="45.91635" lon="1.28105">
        <ele>354.4</ele>
        <time>2024-10-15T13:54:25Z</time>
      </trkpt>
      <trkpt lat="45.91637" lon="1.28118">
        <ele>354.5</ele>
        <time>2024-10-15T13:54:28Z</time>
      </trkpt>
      <trkpt lat="45.91637" lon="1.2813">
        <ele>354.7</ele>
        <time>2024-10-15T13:54:31Z</time>
      </trkpt>
      <trkpt lat="45.91637" lon="1.28142">
        <ele>354.9</ele>
        <time>2024-10-15T13:54:34Z</time>
      </trkpt>
      <trkpt lat="45.91636" lon="1.28151">
        <ele>355.1</ele>
        <time>2024-10-15T13:54:37Z</time>
      </trkpt>
      <trkpt lat="45.91638" lon="1.28156">
        <ele>355.1</ele>
        <time>2024-10-15T13:54:40Z</time>
      </trkpt>
      <trkpt lat="45.91639" lon="1.28158">
        <ele>355.1</ele>
        <time>2024-10-15T13:54:43Z</time>
      </trkpt>
      <trkpt lat="45.9164" lon="1.28159">
        <ele>355.2</ele>
        <time>2024-10-15T13:54:46Z</time>
      </trkpt>
      <trkpt lat="45.9164" lon="1.28159">
        <ele>355.2</ele>
        <time>2024-10-15T13:54:49Z</time>
      </trkpt>
      <trkpt lat="45.9164" lon="1.28159">
        <ele>355.2</ele>
        <time>2024-10-15T13:54:52Z</time>
      </trkpt>
      <trkpt lat="45.9164" lon="1.28159">
        <ele>355.2</ele>
        <time>2024-10-15T13:54:55Z</time>
      </trkpt>
      <trkpt lat="45.9164" lon="1.28159">
        <ele>355.2</ele>
        <time>2024-10-15T13:54:58Z</time>
      </trkpt>
      <trkpt lat="45.9164" lon="1.2816">
        <ele>355.2</ele>
        <time>2024-10-15T13:55:01Z</time>
      </trkpt>
      <trkpt lat="45.9164" lon="1.28161">
        <ele>355.2</ele>
        <time>2024-10-15T13:55:04Z</time>
      </trkpt>
      <trkpt lat="45.9164" lon="1.28161">
        <ele>355.2</ele>
        <time>2024-10-15T13:55:07Z</time>
      </trkpt>
      <trkpt lat="45.9164" lon="1.28161">
        <ele>355.2</ele>
        <time>2024-10-15T13:55:10Z</time>
      </trkpt>
      <trkpt lat="45.9164" lon="1.28161">
        <ele>355.2</ele>
        <time>2024-10-15T13:55:13Z</time>
      </trkpt>
      <trkpt lat="45.9164" lon="1.28161">
        <ele>355.2</ele>
        <time>2024-10-15T13:55:16Z</time>
      </trkpt>
      <trkpt lat="45.9164" lon="1.28161">
        <ele>355.2</ele>
        <time>2024-10-15T13:55:18Z</time>
      </trkpt>
      <trkpt lat="45.9164" lon="1.28162">
        <ele>355.2</ele>
        <time>2024-10-15T13:55:22Z</time>
      </trkpt>
      <trkpt lat="45.91644" lon="1.28167">
        <ele>355.3</ele>
        <time>2024-10-15T13:55:25Z</time>
      </trkpt>
      <trkpt lat="45.91653" lon="1.28168">
        <ele>355.5</ele>
        <time>2024-10-15T13:55:27Z</time>
      </trkpt>
      <trkpt lat="45.91661" lon="1.28172">
        <ele>355.6</ele>
        <time>2024-10-15T13:55:31Z</time>
      </trkpt>
      <trkpt lat="45.91669" lon="1.28176">
        <ele>355.8</ele>
        <time>2024-10-15T13:55:34Z</time>
      </trkpt>
      <trkpt lat="45.91677" lon="1.28182">
        <ele>356</ele>
        <time>2024-10-15T13:55:36Z</time>
      </trkpt>
      <trkpt lat="45.91685" lon="1.28186">
        <ele>356.1</ele>
        <time>2024-10-15T13:55:40Z</time>
      </trkpt>
      <trkpt lat="45.91692" lon="1.28193">
        <ele>356.3</ele>
        <time>2024-10-15T13:55:43Z</time>
      </trkpt>
      <trkpt lat="45.91699" lon="1.28198">
        <ele>356.5</ele>
        <time>2024-10-15T13:55:46Z</time>
      </trkpt>
      <trkpt lat="45.91707" lon="1.28203">
        <ele>356.8</ele>
        <time>2024-10-15T13:55:49Z</time>
      </trkpt>
      <trkpt lat="45.91715" lon="1.28205">
        <ele>357</ele>
        <time>2024-10-15T13:55:52Z</time>
      </trkpt>
      <trkpt lat="45.91723" lon="1.28206">
        <ele>357.3</ele>
        <time>2024-10-15T13:55:55Z</time>
      </trkpt>
      <trkpt lat="45.91731" lon="1.28209">
        <ele>357.6</ele>
        <time>2024-10-15T13:55:58Z</time>
      </trkpt>
      <trkpt lat="45.91738" lon="1.2821">
        <ele>357.9</ele>
        <time>2024-10-15T13:56:01Z</time>
      </trkpt>
      <trkpt lat="45.91746" lon="1.28213">
        <ele>358.2</ele>
        <time>2024-10-15T13:56:04Z</time>
      </trkpt>
      <trkpt lat="45.91753" lon="1.28216">
        <ele>358.5</ele>
        <time>2024-10-15T13:56:07Z</time>
      </trkpt>
      <trkpt lat="45.91761" lon="1.28219">
        <ele>358.7</ele>
        <time>2024-10-15T13:56:10Z</time>
      </trkpt>
      <trkpt lat="45.91768" lon="1.28221">
        <ele>359</ele>
        <time>2024-10-15T13:56:13Z</time>
      </trkpt>
      <trkpt lat="45.91776" lon="1.28224">
        <ele>359.3</ele>
        <time>2024-10-15T13:56:16Z</time>
      </trkpt>
      <trkpt lat="45.91784" lon="1.28226">
        <ele>359.7</ele>
        <time>2024-10-15T13:56:19Z</time>
      </trkpt>
      <trkpt lat="45.91792" lon="1.28227">
        <ele>360</ele>
        <time>2024-10-15T13:56:22Z</time>
      </trkpt>
      <trkpt lat="45.91799" lon="1.28231">
        <ele>360.3</ele>
        <time>2024-10-15T13:56:25Z</time>
      </trkpt>
      <trkpt lat="45.91806" lon="1.28233">
        <ele>360.7</ele>
        <time>2024-10-15T13:56:28Z</time>
      </trkpt>
      <trkpt lat="45.91814" lon="1.28235">
        <ele>361.1</ele>
        <time>2024-10-15T13:56:31Z</time>
      </trkpt>
      <trkpt lat="45.91821" lon="1.28237">
        <ele>361.4</ele>
        <time>2024-10-15T13:56:34Z</time>
      </trkpt>
      <trkpt lat="45.91829" lon="1.28239">
        <ele>361.8</ele>
        <time>2024-10-15T13:56:37Z</time>
      </trkpt>
      <trkpt lat="45.91837" lon="1.2824">
        <ele>362.2</ele>
        <time>2024-10-15T13:56:40Z</time>
      </trkpt>
      <trkpt lat="45.91844" lon="1.28242">
        <ele>362.7</ele>
        <time>2024-10-15T13:56:43Z</time>
      </trkpt>
      <trkpt lat="45.91852" lon="1.28242">
        <ele>363.1</ele>
        <time>2024-10-15T13:56:46Z</time>
      </trkpt>
      <trkpt lat="45.9186" lon="1.28242">
        <ele>363.5</ele>
        <time>2024-10-15T13:56:48Z</time>
      </trkpt>
      <trkpt lat="45.91867" lon="1.28242">
        <ele>363.9</ele>
        <time>2024-10-15T13:56:51Z</time>
      </trkpt>
      <trkpt lat="45.91873" lon="1.28243">
        <ele>364.3</ele>
        <time>2024-10-15T13:56:54Z</time>
      </trkpt>
      <trkpt lat="45.9188" lon="1.28244">
        <ele>364.7</ele>
        <time>2024-10-15T13:56:58Z</time>
      </trkpt>
      <trkpt lat="45.91887" lon="1.28246">
        <ele>365.2</ele>
        <time>2024-10-15T13:57:01Z</time>
      </trkpt>
      <trkpt lat="45.91893" lon="1.28247">
        <ele>365.6</ele>
        <time>2024-10-15T13:57:04Z</time>
      </trkpt>
      <trkpt lat="45.919" lon="1.28248">
        <ele>366.1</ele>
        <time>2024-10-15T13:57:07Z</time>
      </trkpt>
      <trkpt lat="45.91906" lon="1.2825">
        <ele>366.6</ele>
        <time>2024-10-15T13:57:10Z</time>
      </trkpt>
      <trkpt lat="45.91912" lon="1.28252">
        <ele>367</ele>
        <time>2024-10-15T13:57:13Z</time>
      </trkpt>
      <trkpt lat="45.91918" lon="1.28253">
        <ele>367.5</ele>
        <time>2024-10-15T13:57:16Z</time>
      </trkpt>
      <trkpt lat="45.91924" lon="1.28255">
        <ele>368</ele>
        <time>2024-10-15T13:57:19Z</time>
      </trkpt>
      <trkpt lat="45.9193" lon="1.28257">
        <ele>368.5</ele>
        <time>2024-10-15T13:57:22Z</time>
      </trkpt>
      <trkpt lat="45.91936" lon="1.28261">
        <ele>369</ele>
        <time>2024-10-15T13:57:25Z</time>
      </trkpt>
      <trkpt lat="45.91942" lon="1.28266">
        <ele>369.6</ele>
        <time>2024-10-15T13:57:28Z</time>
      </trkpt>
      <trkpt lat="45.91948" lon="1.28269">
        <ele>370</ele>
        <time>2024-10-15T13:57:31Z</time>
      </trkpt>
      <trkpt lat="45.91953" lon="1.28272">
        <ele>370.4</ele>
        <time>2024-10-15T13:57:34Z</time>
      </trkpt>
      <trkpt lat="45.91959" lon="1.28275">
        <ele>370.8</ele>
        <time>2024-10-15T13:57:37Z</time>
      </trkpt>
      <trkpt lat="45.91965" lon="1.2828">
        <ele>371.2</ele>
        <time>2024-10-15T13:57:40Z</time>
      </trkpt>
      <trkpt lat="45.91971" lon="1.28284">
        <ele>371.7</ele>
        <time>2024-10-15T13:57:43Z</time>
      </trkpt>
      <trkpt lat="45.91977" lon="1.28288">
        <ele>372.1</ele>
        <time>2024-10-15T13:57:46Z</time>
      </trkpt>
      <trkpt lat="45.91984" lon="1.28292">
        <ele>372.6</ele>
        <time>2024-10-15T13:57:49Z</time>
      </trkpt>
      <trkpt lat="45.91991" lon="1.28298">
        <ele>373.1</ele>
        <time>2024-10-15T13:57:52Z</time>
      </trkpt>
      <trkpt lat="45.91997" lon="1.28303">
        <ele>373.5</ele>
        <time>2024-10-15T13:57:55Z</time>
      </trkpt>
      <trkpt lat="45.92002" lon="1.2831">
        <ele>374</ele>
        <time>2024-10-15T13:57:58Z</time>
      </trkpt>
      <trkpt lat="45.92008" lon="1.28314">
        <ele>374.4</ele>
        <time>2024-10-15T13:58:01Z</time>
      </trkpt>
      <trkpt lat="45.92014" lon="1.28316">
        <ele>374.8</ele>
        <time>2024-10-15T13:58:04Z</time>
      </trkpt>
      <trkpt lat="45.92018" lon="1.28322">
        <ele>375.3</ele>
        <time>2024-10-15T13:58:06Z</time>
      </trkpt>
      <trkpt lat="45.92022" lon="1.28329">
        <ele>375.7</ele>
        <time>2024-10-15T13:58:10Z</time>
      </trkpt>
      <trkpt lat="45.92026" lon="1.28335">
        <ele>376.1</ele>
        <time>2024-10-15T13:58:13Z</time>
      </trkpt>
      <trkpt lat="45.9203" lon="1.28338">
        <ele>376.5</ele>
        <time>2024-10-15T13:58:16Z</time>
      </trkpt>
      <trkpt lat="45.92035" lon="1.28341">
        <ele>376.6</ele>
        <time>2024-10-15T13:58:19Z</time>
      </trkpt>
      <trkpt lat="45.92039" lon="1.2834">
        <ele>376.7</ele>
        <time>2024-10-15T13:58:21Z</time>
      </trkpt>
      <trkpt lat="45.92041" lon="1.28338">
        <ele>376.8</ele>
        <time>2024-10-15T13:58:25Z</time>
      </trkpt>
      <trkpt lat="45.92045" lon="1.28335">
        <ele>376.9</ele>
        <time>2024-10-15T13:58:28Z</time>
      </trkpt>
      <trkpt lat="45.92052" lon="1.28332">
        <ele>377.1</ele>
        <time>2024-10-15T13:58:30Z</time>
      </trkpt>
      <trkpt lat="45.9206" lon="1.28324">
        <ele>377.1</ele>
        <time>2024-10-15T13:58:34Z</time>
      </trkpt>
      <trkpt lat="45.92068" lon="1.28317">
        <ele>377.1</ele>
        <time>2024-10-15T13:58:37Z</time>
      </trkpt>
      <trkpt lat="45.92076" lon="1.28311">
        <ele>376.9</ele>
        <time>2024-10-15T13:58:40Z</time>
      </trkpt>
      <trkpt lat="45.92085" lon="1.28304">
        <ele>376.8</ele>
        <time>2024-10-15T13:58:43Z</time>
      </trkpt>
      <trkpt lat="45.92095" lon="1.28296">
        <ele>376.7</ele>
        <time>2024-10-15T13:58:46Z</time>
      </trkpt>
      <trkpt lat="45.92106" lon="1.28289">
        <ele>376.5</ele>
        <time>2024-10-15T13:58:49Z</time>
      </trkpt>
      <trkpt lat="45.92116" lon="1.28282">
        <ele>376.4</ele>
        <time>2024-10-15T13:58:52Z</time>
      </trkpt>
      <trkpt lat="45.92127" lon="1.28275">
        <ele>376.2</ele>
        <time>2024-10-15T13:58:55Z</time>
      </trkpt>
      <trkpt lat="45.92137" lon="1.28267">
        <ele>376.1</ele>
        <time>2024-10-15T13:58:58Z</time>
      </trkpt>
      <trkpt lat="45.92149" lon="1.28259">
        <ele>375.9</ele>
        <time>2024-10-15T13:59:01Z</time>
      </trkpt>
      <trkpt lat="45.9216" lon="1.28251">
        <ele>375.7</ele>
        <time>2024-10-15T13:59:04Z</time>
      </trkpt>
      <trkpt lat="45.92172" lon="1.28243">
        <ele>375.5</ele>
        <time>2024-10-15T13:59:07Z</time>
      </trkpt>
      <trkpt lat="45.92184" lon="1.28233">
        <ele>375.4</ele>
        <time>2024-10-15T13:59:10Z</time>
      </trkpt>
      <trkpt lat="45.92196" lon="1.28225">
        <ele>375.2</ele>
        <time>2024-10-15T13:59:13Z</time>
      </trkpt>
      <trkpt lat="45.92208" lon="1.28216">
        <ele>375.1</ele>
        <time>2024-10-15T13:59:16Z</time>
      </trkpt>
      <trkpt lat="45.9222" lon="1.28206">
        <ele>374.9</ele>
        <time>2024-10-15T13:59:19Z</time>
      </trkpt>
      <trkpt lat="45.92234" lon="1.28197">
        <ele>374.6</ele>
        <time>2024-10-15T13:59:22Z</time>
      </trkpt>
      <trkpt lat="45.92247" lon="1.28186">
        <ele>374.3</ele>
        <time>2024-10-15T13:59:25Z</time>
      </trkpt>
      <trkpt lat="45.92261" lon="1.28178">
        <ele>374</ele>
        <time>2024-10-15T13:59:28Z</time>
      </trkpt>
      <trkpt lat="45.92275" lon="1.28168">
        <ele>373.9</ele>
        <time>2024-10-15T13:59:31Z</time>
      </trkpt>
      <trkpt lat="45.92288" lon="1.28159">
        <ele>373.8</ele>
        <time>2024-10-15T13:59:34Z</time>
      </trkpt>
      <trkpt lat="45.92301" lon="1.2815">
        <ele>373.8</ele>
        <time>2024-10-15T13:59:37Z</time>
      </trkpt>
      <trkpt lat="45.92313" lon="1.28138">
        <ele>373.8</ele>
        <time>2024-10-15T13:59:40Z</time>
      </trkpt>
      <trkpt lat="45.92323" lon="1.28124">
        <ele>373.7</ele>
        <time>2024-10-15T13:59:43Z</time>
      </trkpt>
      <trkpt lat="45.92333" lon="1.28107">
        <ele>373.9</ele>
        <time>2024-10-15T13:59:46Z</time>
      </trkpt>
      <trkpt lat="45.9234" lon="1.28091">
        <ele>374.4</ele>
        <time>2024-10-15T13:59:49Z</time>
      </trkpt>
      <trkpt lat="45.92347" lon="1.28077">
        <ele>375</ele>
        <time>2024-10-15T13:59:52Z</time>
      </trkpt>
      <trkpt lat="45.92352" lon="1.28065">
        <ele>375.7</ele>
        <time>2024-10-15T13:59:55Z</time>
      </trkpt>
      <trkpt lat="45.92357" lon="1.28053">
        <ele>376.4</ele>
        <time>2024-10-15T13:59:57Z</time>
      </trkpt>
      <trkpt lat="45.92363" lon="1.28041">
        <ele>377.1</ele>
        <time>2024-10-15T14:00:01Z</time>
      </trkpt>
      <trkpt lat="45.92368" lon="1.28029">
        <ele>377.8</ele>
        <time>2024-10-15T14:00:04Z</time>
      </trkpt>
      <trkpt lat="45.92373" lon="1.28018">
        <ele>378.5</ele>
        <time>2024-10-15T14:00:06Z</time>
      </trkpt>
      <trkpt lat="45.92378" lon="1.28006">
        <ele>379.1</ele>
        <time>2024-10-15T14:00:09Z</time>
      </trkpt>
      <trkpt lat="45.92383" lon="1.27994">
        <ele>379.8</ele>
        <time>2024-10-15T14:00:13Z</time>
      </trkpt>
      <trkpt lat="45.92389" lon="1.27983">
        <ele>380.4</ele>
        <time>2024-10-15T14:00:16Z</time>
      </trkpt>
      <trkpt lat="45.92394" lon="1.27973">
        <ele>380.9</ele>
        <time>2024-10-15T14:00:19Z</time>
      </trkpt>
      <trkpt lat="45.92398" lon="1.27962">
        <ele>381.4</ele>
        <time>2024-10-15T14:00:22Z</time>
      </trkpt>
      <trkpt lat="45.92402" lon="1.27951">
        <ele>381.7</ele>
        <time>2024-10-15T14:00:25Z</time>
      </trkpt>
      <trkpt lat="45.92407" lon="1.27942">
        <ele>382</ele>
        <time>2024-10-15T14:00:28Z</time>
      </trkpt>
      <trkpt lat="45.9241" lon="1.27929">
        <ele>382.3</ele>
        <time>2024-10-15T14:00:31Z</time>
      </trkpt>
      <trkpt lat="45.92414" lon="1.27915">
        <ele>382.5</ele>
        <time>2024-10-15T14:00:34Z</time>
      </trkpt>
      <trkpt lat="45.92416" lon="1.279">
        <ele>382.6</ele>
        <time>2024-10-15T14:00:37Z</time>
      </trkpt>
      <trkpt lat="45.92419" lon="1.27885">
        <ele>382.6</ele>
        <time>2024-10-15T14:00:40Z</time>
      </trkpt>
      <trkpt lat="45.92424" lon="1.27868">
        <ele>382.6</ele>
        <time>2024-10-15T14:00:43Z</time>
      </trkpt>
      <trkpt lat="45.9243" lon="1.2785">
        <ele>382.6</ele>
        <time>2024-10-15T14:00:46Z</time>
      </trkpt>
      <trkpt lat="45.92436" lon="1.27833">
        <ele>382.6</ele>
        <time>2024-10-15T14:00:49Z</time>
      </trkpt>
      <trkpt lat="45.92444" lon="1.27816">
        <ele>382.7</ele>
        <time>2024-10-15T14:00:52Z</time>
      </trkpt>
      <trkpt lat="45.92452" lon="1.27802">
        <ele>382.9</ele>
        <time>2024-10-15T14:00:55Z</time>
      </trkpt>
      <trkpt lat="45.92463" lon="1.27804">
        <ele>383.8</ele>
        <time>2024-10-15T14:00:58Z</time>
      </trkpt>
      <trkpt lat="45.92473" lon="1.27807">
        <ele>384.6</ele>
        <time>2024-10-15T14:01:01Z</time>
      </trkpt>
      <trkpt lat="45.92481" lon="1.27811">
        <ele>385.3</ele>
        <time>2024-10-15T14:01:04Z</time>
      </trkpt>
      <trkpt lat="45.92489" lon="1.27813">
        <ele>386.1</ele>
        <time>2024-10-15T14:01:07Z</time>
      </trkpt>
      <trkpt lat="45.92498" lon="1.27815">
        <ele>387.1</ele>
        <time>2024-10-15T14:01:10Z</time>
      </trkpt>
      <trkpt lat="45.92507" lon="1.27819">
        <ele>388</ele>
        <time>2024-10-15T14:01:13Z</time>
      </trkpt>
      <trkpt lat="45.92518" lon="1.27818">
        <ele>388.7</ele>
        <time>2024-10-15T14:01:16Z</time>
      </trkpt>
      <trkpt lat="45.92529" lon="1.27816">
        <ele>389.6</ele>
        <time>2024-10-15T14:01:19Z</time>
      </trkpt>
      <trkpt lat="45.92539" lon="1.27814">
        <ele>390.3</ele>
        <time>2024-10-15T14:01:21Z</time>
      </trkpt>
      <trkpt lat="45.92549" lon="1.27813">
        <ele>391.1</ele>
        <time>2024-10-15T14:01:24Z</time>
      </trkpt>
      <trkpt lat="45.92557" lon="1.27812">
        <ele>391.7</ele>
        <time>2024-10-15T14:01:27Z</time>
      </trkpt>
      <trkpt lat="45.92558" lon="1.27803">
        <ele>392.2</ele>
        <time>2024-10-15T14:01:31Z</time>
      </trkpt>
      <trkpt lat="45.92552" lon="1.27801">
        <ele>392.7</ele>
        <time>2024-10-15T14:01:33Z</time>
      </trkpt>
      <trkpt lat="45.92551" lon="1.2781">
        <ele>392.7</ele>
        <time>2024-10-15T14:01:37Z</time>
      </trkpt>
      <trkpt lat="45.92554" lon="1.27823">
        <ele>392.8</ele>
        <time>2024-10-15T14:01:39Z</time>
      </trkpt>
      <trkpt lat="45.92556" lon="1.27837">
        <ele>393</ele>
        <time>2024-10-15T14:01:43Z</time>
      </trkpt>
      <trkpt lat="45.92557" lon="1.27852">
        <ele>393.2</ele>
        <time>2024-10-15T14:01:46Z</time>
      </trkpt>
      <trkpt lat="45.92557" lon="1.27864">
        <ele>393.4</ele>
        <time>2024-10-15T14:01:49Z</time>
      </trkpt>
      <trkpt lat="45.92558" lon="1.27875">
        <ele>393.6</ele>
        <time>2024-10-15T14:01:52Z</time>
      </trkpt>
      <trkpt lat="45.9256" lon="1.27887">
        <ele>393.7</ele>
        <time>2024-10-15T14:01:55Z</time>
      </trkpt>
      <trkpt lat="45.92563" lon="1.27901">
        <ele>393.9</ele>
        <time>2024-10-15T14:01:58Z</time>
      </trkpt>
      <trkpt lat="45.92565" lon="1.27914">
        <ele>394</ele>
        <time>2024-10-15T14:02:01Z</time>
      </trkpt>
      <trkpt lat="45.92568" lon="1.27928">
        <ele>394.2</ele>
        <time>2024-10-15T14:02:04Z</time>
      </trkpt>
      <trkpt lat="45.92571" lon="1.27941">
        <ele>394.2</ele>
        <time>2024-10-15T14:02:07Z</time>
      </trkpt>
      <trkpt lat="45.92573" lon="1.27953">
        <ele>394.3</ele>
        <time>2024-10-15T14:02:10Z</time>
      </trkpt>
      <trkpt lat="45.92575" lon="1.27965">
        <ele>394.4</ele>
        <time>2024-10-15T14:02:13Z</time>
      </trkpt>
      <trkpt lat="45.92576" lon="1.27975">
        <ele>394.4</ele>
        <time>2024-10-15T14:02:16Z</time>
      </trkpt>
      <trkpt lat="45.92578" lon="1.27985">
        <ele>394.4</ele>
        <time>2024-10-15T14:02:19Z</time>
      </trkpt>
      <trkpt lat="45.9258" lon="1.27997">
        <ele>394.4</ele>
        <time>2024-10-15T14:02:22Z</time>
      </trkpt>
      <trkpt lat="45.92582" lon="1.28009">
        <ele>394.3</ele>
        <time>2024-10-15T14:02:25Z</time>
      </trkpt>
      <trkpt lat="45.92584" lon="1.28018">
        <ele>394.1</ele>
        <time>2024-10-15T14:02:28Z</time>
      </trkpt>
      <trkpt lat="45.92585" lon="1.2803">
        <ele>393.8</ele>
        <time>2024-10-15T14:02:31Z</time>
      </trkpt>
      <trkpt lat="45.92591" lon="1.2804">
        <ele>393.5</ele>
        <time>2024-10-15T14:02:34Z</time>
      </trkpt>
      <trkpt lat="45.92599" lon="1.28051">
        <ele>392.9</ele>
        <time>2024-10-15T14:02:37Z</time>
      </trkpt>
      <trkpt lat="45.92606" lon="1.28061">
        <ele>392.3</ele>
        <time>2024-10-15T14:02:40Z</time>
      </trkpt>
      <trkpt lat="45.92615" lon="1.28073">
        <ele>391.6</ele>
        <time>2024-10-15T14:02:43Z</time>
      </trkpt>
      <trkpt lat="45.92625" lon="1.28091">
        <ele>390.9</ele>
        <time>2024-10-15T14:02:45Z</time>
      </trkpt>
      <trkpt lat="45.92636" lon="1.28107">
        <ele>390.3</ele>
        <time>2024-10-15T14:02:49Z</time>
      </trkpt>
      <trkpt lat="45.92645" lon="1.28125">
        <ele>389.9</ele>
        <time>2024-10-15T14:02:52Z</time>
      </trkpt>
      <trkpt lat="45.92655" lon="1.28138">
        <ele>389.6</ele>
        <time>2024-10-15T14:02:55Z</time>
      </trkpt>
      <trkpt lat="45.92668" lon="1.28151">
        <ele>389.4</ele>
        <time>2024-10-15T14:02:58Z</time>
      </trkpt>
      <trkpt lat="45.92678" lon="1.28168">
        <ele>389.3</ele>
        <time>2024-10-15T14:03:01Z</time>
      </trkpt>
      <trkpt lat="45.92685" lon="1.28191">
        <ele>389.3</ele>
        <time>2024-10-15T14:03:04Z</time>
      </trkpt>
      <trkpt lat="45.92689" lon="1.28212">
        <ele>389.4</ele>
        <time>2024-10-15T14:03:07Z</time>
      </trkpt>
      <trkpt lat="45.92693" lon="1.2823">
        <ele>389.6</ele>
        <time>2024-10-15T14:03:10Z</time>
      </trkpt>
      <trkpt lat="45.92697" lon="1.28247">
        <ele>389.9</ele>
        <time>2024-10-15T14:03:13Z</time>
      </trkpt>
      <trkpt lat="45.927" lon="1.28263">
        <ele>390.3</ele>
        <time>2024-10-15T14:03:16Z</time>
      </trkpt>
      <trkpt lat="45.92704" lon="1.28278">
        <ele>390.6</ele>
        <time>2024-10-15T14:03:19Z</time>
      </trkpt>
      <trkpt lat="45.92707" lon="1.28291">
        <ele>390.9</ele>
        <time>2024-10-15T14:03:22Z</time>
      </trkpt>
      <trkpt lat="45.9271" lon="1.28306">
        <ele>391</ele>
        <time>2024-10-15T14:03:25Z</time>
      </trkpt>
      <trkpt lat="45.92714" lon="1.28323">
        <ele>391</ele>
        <time>2024-10-15T14:03:28Z</time>
      </trkpt>
      <trkpt lat="45.92717" lon="1.2834">
        <ele>390.9</ele>
        <time>2024-10-15T14:03:31Z</time>
      </trkpt>
      <trkpt lat="45.92719" lon="1.28358">
        <ele>390.7</ele>
        <time>2024-10-15T14:03:34Z</time>
      </trkpt>
      <trkpt lat="45.92721" lon="1.28376">
        <ele>390.7</ele>
        <time>2024-10-15T14:03:37Z</time>
      </trkpt>
      <trkpt lat="45.92723" lon="1.28394">
        <ele>390.6</ele>
        <time>2024-10-15T14:03:40Z</time>
      </trkpt>
      <trkpt lat="45.92725" lon="1.28412">
        <ele>390.6</ele>
        <time>2024-10-15T14:03:43Z</time>
      </trkpt>
      <trkpt lat="45.92725" lon="1.2843">
        <ele>390.7</ele>
        <time>2024-10-15T14:03:46Z</time>
      </trkpt>
      <trkpt lat="45.92725" lon="1.28448">
        <ele>390.7</ele>
        <time>2024-10-15T14:03:49Z</time>
      </trkpt>
      <trkpt lat="45.92723" lon="1.28465">
        <ele>390.9</ele>
        <time>2024-10-15T14:03:52Z</time>
      </trkpt>
      <trkpt lat="45.92721" lon="1.28481">
        <ele>391.1</ele>
        <time>2024-10-15T14:03:55Z</time>
      </trkpt>
      <trkpt lat="45.92719" lon="1.28497">
        <ele>391.3</ele>
        <time>2024-10-15T14:03:58Z</time>
      </trkpt>
      <trkpt lat="45.92719" lon="1.28511">
        <ele>391.6</ele>
        <time>2024-10-15T14:04:01Z</time>
      </trkpt>
      <trkpt lat="45.92719" lon="1.28527">
        <ele>391.8</ele>
        <time>2024-10-15T14:04:04Z</time>
      </trkpt>
      <trkpt lat="45.92718" lon="1.28543">
        <ele>392.1</ele>
        <time>2024-10-15T14:04:07Z</time>
      </trkpt>
      <trkpt lat="45.92716" lon="1.28558">
        <ele>392.4</ele>
        <time>2024-10-15T14:04:10Z</time>
      </trkpt>
      <trkpt lat="45.92713" lon="1.28576">
        <ele>392.5</ele>
        <time>2024-10-15T14:04:13Z</time>
      </trkpt>
      <trkpt lat="45.9271" lon="1.28594">
        <ele>392.4</ele>
        <time>2024-10-15T14:04:16Z</time>
      </trkpt>
      <trkpt lat="45.92706" lon="1.28613">
        <ele>392.2</ele>
        <time>2024-10-15T14:04:19Z</time>
      </trkpt>
      <trkpt lat="45.92704" lon="1.28631">
        <ele>392.1</ele>
        <time>2024-10-15T14:04:22Z</time>
      </trkpt>
      <trkpt lat="45.927" lon="1.2865">
        <ele>391.8</ele>
        <time>2024-10-15T14:04:25Z</time>
      </trkpt>
      <trkpt lat="45.92696" lon="1.28669">
        <ele>391.6</ele>
        <time>2024-10-15T14:04:28Z</time>
      </trkpt>
      <trkpt lat="45.92694" lon="1.28688">
        <ele>391.4</ele>
        <time>2024-10-15T14:04:31Z</time>
      </trkpt>
      <trkpt lat="45.92691" lon="1.28705">
        <ele>391.3</ele>
        <time>2024-10-15T14:04:34Z</time>
      </trkpt>
      <trkpt lat="45.92689" lon="1.2872">
        <ele>391.2</ele>
        <time>2024-10-15T14:04:36Z</time>
      </trkpt>
      <trkpt lat="45.92686" lon="1.28735">
        <ele>391.1</ele>
        <time>2024-10-15T14:04:39Z</time>
      </trkpt>
      <trkpt lat="45.92681" lon="1.28749">
        <ele>391</ele>
        <time>2024-10-15T14:04:42Z</time>
      </trkpt>
      <trkpt lat="45.92679" lon="1.28764">
        <ele>390.8</ele>
        <time>2024-10-15T14:04:46Z</time>
      </trkpt>
      <trkpt lat="45.92675" lon="1.28781">
        <ele>390.5</ele>
        <time>2024-10-15T14:04:49Z</time>
      </trkpt>
      <trkpt lat="45.92668" lon="1.28797">
        <ele>390.2</ele>
        <time>2024-10-15T14:04:51Z</time>
      </trkpt>
      <trkpt lat="45.92658" lon="1.28814">
        <ele>389.8</ele>
        <time>2024-10-15T14:04:54Z</time>
      </trkpt>
      <trkpt lat="45.9265" lon="1.28832">
        <ele>389.5</ele>
        <time>2024-10-15T14:04:58Z</time>
      </trkpt>
      <trkpt lat="45.92641" lon="1.28848">
        <ele>389.4</ele>
        <time>2024-10-15T14:05:01Z</time>
      </trkpt>
      <trkpt lat="45.92632" lon="1.28861">
        <ele>389.3</ele>
        <time>2024-10-15T14:05:04Z</time>
      </trkpt>
      <trkpt lat="45.92625" lon="1.28873">
        <ele>389.2</ele>
        <time>2024-10-15T14:05:07Z</time>
      </trkpt>
      <trkpt lat="45.92614" lon="1.28886">
        <ele>389</ele>
        <time>2024-10-15T14:05:10Z</time>
      </trkpt>
      <trkpt lat="45.92605" lon="1.28895">
        <ele>388.9</ele>
        <time>2024-10-15T14:05:13Z</time>
      </trkpt>
      <trkpt lat="45.92594" lon="1.28904">
        <ele>388.7</ele>
        <time>2024-10-15T14:05:16Z</time>
      </trkpt>
      <trkpt lat="45.92583" lon="1.28916">
        <ele>388.4</ele>
        <time>2024-10-15T14:05:19Z</time>
      </trkpt>
      <trkpt lat="45.92569" lon="1.28927">
        <ele>388.1</ele>
        <time>2024-10-15T14:05:22Z</time>
      </trkpt>
      <trkpt lat="45.92556" lon="1.28939">
        <ele>387.8</ele>
        <time>2024-10-15T14:05:25Z</time>
      </trkpt>
      <trkpt lat="45.92543" lon="1.28953">
        <ele>387.7</ele>
        <time>2024-10-15T14:05:28Z</time>
      </trkpt>
      <trkpt lat="45.92531" lon="1.28966">
        <ele>387.6</ele>
        <time>2024-10-15T14:05:31Z</time>
      </trkpt>
      <trkpt lat="45.92518" lon="1.28978">
        <ele>387.5</ele>
        <time>2024-10-15T14:05:34Z</time>
      </trkpt>
      <trkpt lat="45.92505" lon="1.28988">
        <ele>387.3</ele>
        <time>2024-10-15T14:05:37Z</time>
      </trkpt>
      <trkpt lat="45.92491" lon="1.28999">
        <ele>387</ele>
        <time>2024-10-15T14:05:40Z</time>
      </trkpt>
      <trkpt lat="45.92475" lon="1.29008">
        <ele>386.4</ele>
        <time>2024-10-15T14:05:43Z</time>
      </trkpt>
      <trkpt lat="45.9246" lon="1.29019">
        <ele>385.7</ele>
        <time>2024-10-15T14:05:46Z</time>
      </trkpt>
      <trkpt lat="45.92444" lon="1.29031">
        <ele>385.1</ele>
        <time>2024-10-15T14:05:49Z</time>
      </trkpt>
      <trkpt lat="45.92427" lon="1.29042">
        <ele>384.6</ele>
        <time>2024-10-15T14:05:52Z</time>
      </trkpt>
      <trkpt lat="45.92408" lon="1.29054">
        <ele>383.9</ele>
        <time>2024-10-15T14:05:55Z</time>
      </trkpt>
      <trkpt lat="45.92389" lon="1.29066">
        <ele>383.1</ele>
        <time>2024-10-15T14:05:58Z</time>
      </trkpt>
      <trkpt lat="45.9237" lon="1.2908">
        <ele>382.3</ele>
        <time>2024-10-15T14:06:01Z</time>
      </trkpt>
      <trkpt lat="45.92352" lon="1.29093">
        <ele>381.8</ele>
        <time>2024-10-15T14:06:04Z</time>
      </trkpt>
      <trkpt lat="45.92341" lon="1.29107">
        <ele>381.6</ele>
        <time>2024-10-15T14:06:07Z</time>
      </trkpt>
      <trkpt lat="45.9234" lon="1.29124">
        <ele>381.6</ele>
        <time>2024-10-15T14:06:10Z</time>
      </trkpt>
      <trkpt lat="45.92337" lon="1.29144">
        <ele>381.7</ele>
        <time>2024-10-15T14:06:13Z</time>
      </trkpt>
      <trkpt lat="45.92339" lon="1.2916">
        <ele>381.8</ele>
        <time>2024-10-15T14:06:15Z</time>
      </trkpt>
      <trkpt lat="45.92348" lon="1.29168">
        <ele>382.2</ele>
        <time>2024-10-15T14:06:19Z</time>
      </trkpt>
      <trkpt lat="45.92361" lon="1.29172">
        <ele>382.5</ele>
        <time>2024-10-15T14:06:22Z</time>
      </trkpt>
      <trkpt lat="45.92374" lon="1.29176">
        <ele>382.7</ele>
        <time>2024-10-15T14:06:25Z</time>
      </trkpt>
      <trkpt lat="45.92389" lon="1.29181">
        <ele>383</ele>
        <time>2024-10-15T14:06:28Z</time>
      </trkpt>
      <trkpt lat="45.92404" lon="1.29185">
        <ele>383</ele>
        <time>2024-10-15T14:06:31Z</time>
      </trkpt>
      <trkpt lat="45.9242" lon="1.29187">
        <ele>383</ele>
        <time>2024-10-15T14:06:33Z</time>
      </trkpt>
      <trkpt lat="45.92436" lon="1.29186">
        <ele>382.8</ele>
        <time>2024-10-15T14:06:37Z</time>
      </trkpt>
      <trkpt lat="45.92451" lon="1.29186">
        <ele>382.6</ele>
        <time>2024-10-15T14:06:40Z</time>
      </trkpt>
      <trkpt lat="45.92461" lon="1.29185">
        <ele>382.5</ele>
        <time>2024-10-15T14:06:43Z</time>
      </trkpt>
      <trkpt lat="45.9247" lon="1.29183">
        <ele>382.5</ele>
        <time>2024-10-15T14:06:46Z</time>
      </trkpt>
      <trkpt lat="45.92482" lon="1.2918">
        <ele>382.4</ele>
        <time>2024-10-15T14:06:49Z</time>
      </trkpt>
      <trkpt lat="45.92496" lon="1.29177">
        <ele>382.2</ele>
        <time>2024-10-15T14:06:52Z</time>
      </trkpt>
      <trkpt lat="45.92513" lon="1.29174">
        <ele>382</ele>
        <time>2024-10-15T14:06:55Z</time>
      </trkpt>
      <trkpt lat="45.9253" lon="1.29169">
        <ele>381.7</ele>
        <time>2024-10-15T14:06:58Z</time>
      </trkpt>
      <trkpt lat="45.92548" lon="1.29165">
        <ele>381.5</ele>
        <time>2024-10-15T14:07:01Z</time>
      </trkpt>
      <trkpt lat="45.92567" lon="1.29161">
        <ele>381.4</ele>
        <time>2024-10-15T14:07:04Z</time>
      </trkpt>
      <trkpt lat="45.92587" lon="1.2916">
        <ele>381.4</ele>
        <time>2024-10-15T14:07:07Z</time>
      </trkpt>
      <trkpt lat="45.92605" lon="1.29155">
        <ele>381.5</ele>
        <time>2024-10-15T14:07:10Z</time>
      </trkpt>
      <trkpt lat="45.92623" lon="1.29152">
        <ele>381.9</ele>
        <time>2024-10-15T14:07:13Z</time>
      </trkpt>
      <trkpt lat="45.9264" lon="1.29148">
        <ele>382.3</ele>
        <time>2024-10-15T14:07:16Z</time>
      </trkpt>
      <trkpt lat="45.92657" lon="1.29144">
        <ele>382.5</ele>
        <time>2024-10-15T14:07:19Z</time>
      </trkpt>
      <trkpt lat="45.92673" lon="1.29138">
        <ele>382.5</ele>
        <time>2024-10-15T14:07:22Z</time>
      </trkpt>
      <trkpt lat="45.92691" lon="1.29131">
        <ele>382.4</ele>
        <time>2024-10-15T14:07:25Z</time>
      </trkpt>
      <trkpt lat="45.92709" lon="1.29125">
        <ele>382.4</ele>
        <time>2024-10-15T14:07:28Z</time>
      </trkpt>
      <trkpt lat="45.92725" lon="1.29118">
        <ele>382.4</ele>
        <time>2024-10-15T14:07:31Z</time>
      </trkpt>
      <trkpt lat="45.92743" lon="1.29112">
        <ele>382.3</ele>
        <time>2024-10-15T14:07:34Z</time>
      </trkpt>
      <trkpt lat="45.9276" lon="1.29106">
        <ele>382</ele>
        <time>2024-10-15T14:07:37Z</time>
      </trkpt>
      <trkpt lat="45.92777" lon="1.29099">
        <ele>381.4</ele>
        <time>2024-10-15T14:07:40Z</time>
      </trkpt>
      <trkpt lat="45.92797" lon="1.29093">
        <ele>380.4</ele>
        <time>2024-10-15T14:07:43Z</time>
      </trkpt>
      <trkpt lat="45.92819" lon="1.29084">
        <ele>379.1</ele>
        <time>2024-10-15T14:07:46Z</time>
      </trkpt>
      <trkpt lat="45.92843" lon="1.29073">
        <ele>377.7</ele>
        <time>2024-10-15T14:07:49Z</time>
      </trkpt>
      <trkpt lat="45.92869" lon="1.29063">
        <ele>376.2</ele>
        <time>2024-10-15T14:07:52Z</time>
      </trkpt>
      <trkpt lat="45.92893" lon="1.29051">
        <ele>374.5</ele>
        <time>2024-10-15T14:07:55Z</time>
      </trkpt>
      <trkpt lat="45.92915" lon="1.29039">
        <ele>372.9</ele>
        <time>2024-10-15T14:07:58Z</time>
      </trkpt>
      <trkpt lat="45.92935" lon="1.2903">
        <ele>372.3</ele>
        <time>2024-10-15T14:08:01Z</time>
      </trkpt>
      <trkpt lat="45.92952" lon="1.29032">
        <ele>372.2</ele>
        <time>2024-10-15T14:08:04Z</time>
      </trkpt>
      <trkpt lat="45.92965" lon="1.29038">
        <ele>371.9</ele>
        <time>2024-10-15T14:08:07Z</time>
      </trkpt>
      <trkpt lat="45.92976" lon="1.29042">
        <ele>371.6</ele>
        <time>2024-10-15T14:08:09Z</time>
      </trkpt>
      <trkpt lat="45.92991" lon="1.29052">
        <ele>371.2</ele>
        <time>2024-10-15T14:08:13Z</time>
      </trkpt>
      <trkpt lat="45.93" lon="1.2907">
        <ele>371.2</ele>
        <time>2024-10-15T14:08:16Z</time>
      </trkpt>
      <trkpt lat="45.93002" lon="1.29093">
        <ele>371.5</ele>
        <time>2024-10-15T14:08:19Z</time>
      </trkpt>
      <trkpt lat="45.93003" lon="1.29112">
        <ele>371.7</ele>
        <time>2024-10-15T14:08:21Z</time>
      </trkpt>
      <trkpt lat="45.93008" lon="1.29132">
        <ele>371.5</ele>
        <time>2024-10-15T14:08:25Z</time>
      </trkpt>
      <trkpt lat="45.93015" lon="1.29157">
        <ele>369.8</ele>
        <time>2024-10-15T14:08:28Z</time>
      </trkpt>
      <trkpt lat="45.93026" lon="1.29186">
        <ele>368.2</ele>
        <time>2024-10-15T14:08:31Z</time>
      </trkpt>
      <trkpt lat="45.93039" lon="1.29215">
        <ele>367.6</ele>
        <time>2024-10-15T14:08:34Z</time>
      </trkpt>
      <trkpt lat="45.93052" lon="1.29242">
        <ele>367.8</ele>
        <time>2024-10-15T14:08:37Z</time>
      </trkpt>
      <trkpt lat="45.93066" lon="1.29261">
        <ele>368.9</ele>
        <time>2024-10-15T14:08:40Z</time>
      </trkpt>
      <trkpt lat="45.93081" lon="1.29268">
        <ele>370</ele>
        <time>2024-10-15T14:08:43Z</time>
      </trkpt>
      <trkpt lat="45.93093" lon="1.29271">
        <ele>370.7</ele>
        <time>2024-10-15T14:08:46Z</time>
      </trkpt>
      <trkpt lat="45.93103" lon="1.29274">
        <ele>370.9</ele>
        <time>2024-10-15T14:08:49Z</time>
      </trkpt>
      <trkpt lat="45.93116" lon="1.29281">
        <ele>370.2</ele>
        <time>2024-10-15T14:08:52Z</time>
      </trkpt>
      <trkpt lat="45.93129" lon="1.29291">
        <ele>368.9</ele>
        <time>2024-10-15T14:08:55Z</time>
      </trkpt>
      <trkpt lat="45.93137" lon="1.29304">
        <ele>367.3</ele>
        <time>2024-10-15T14:08:58Z</time>
      </trkpt>
      <trkpt lat="45.93147" lon="1.29306">
        <ele>366</ele>
        <time>2024-10-15T14:09:01Z</time>
      </trkpt>
      <trkpt lat="45.93158" lon="1.29301">
        <ele>364.1</ele>
        <time>2024-10-15T14:09:04Z</time>
      </trkpt>
      <trkpt lat="45.93171" lon="1.29288">
        <ele>361.5</ele>
        <time>2024-10-15T14:09:07Z</time>
      </trkpt>
      <trkpt lat="45.93187" lon="1.29282">
        <ele>359</ele>
        <time>2024-10-15T14:09:10Z</time>
      </trkpt>
      <trkpt lat="45.93204" lon="1.29284">
        <ele>356.6</ele>
        <time>2024-10-15T14:09:13Z</time>
      </trkpt>
      <trkpt lat="45.93224" lon="1.2929">
        <ele>354.2</ele>
        <time>2024-10-15T14:09:16Z</time>
      </trkpt>
      <trkpt lat="45.93239" lon="1.29303">
        <ele>353</ele>
        <time>2024-10-15T14:09:19Z</time>
      </trkpt>
      <trkpt lat="45.93238" lon="1.29318">
        <ele>352.7</ele>
        <time>2024-10-15T14:09:22Z</time>
      </trkpt>
      <trkpt lat="45.93231" lon="1.29324">
        <ele>352.7</ele>
        <time>2024-10-15T14:09:25Z</time>
      </trkpt>
      <trkpt lat="45.93223" lon="1.2933">
        <ele>352.7</ele>
        <time>2024-10-15T14:09:28Z</time>
      </trkpt>
      <trkpt lat="45.93217" lon="1.29339">
        <ele>352.7</ele>
        <time>2024-10-15T14:09:31Z</time>
      </trkpt>
      <trkpt lat="45.93213" lon="1.29351">
        <ele>352.8</ele>
        <time>2024-10-15T14:09:34Z</time>
      </trkpt>
      <trkpt lat="45.93212" lon="1.29364">
        <ele>353</ele>
        <time>2024-10-15T14:09:36Z</time>
      </trkpt>
      <trkpt lat="45.93209" lon="1.29375">
        <ele>353.2</ele>
        <time>2024-10-15T14:09:40Z</time>
      </trkpt>
      <trkpt lat="45.9321" lon="1.29387">
        <ele>353.4</ele>
        <time>2024-10-15T14:09:43Z</time>
      </trkpt>
      <trkpt lat="45.93212" lon="1.29398">
        <ele>353.7</ele>
        <time>2024-10-15T14:09:45Z</time>
      </trkpt>
      <trkpt lat="45.93211" lon="1.29407">
        <ele>354</ele>
        <time>2024-10-15T14:09:48Z</time>
      </trkpt>
      <trkpt lat="45.9321" lon="1.29421">
        <ele>354.6</ele>
        <time>2024-10-15T14:09:51Z</time>
      </trkpt>
      <trkpt lat="45.93209" lon="1.29433">
        <ele>355.3</ele>
        <time>2024-10-15T14:09:54Z</time>
      </trkpt>
      <trkpt lat="45.93208" lon="1.29443">
        <ele>355.9</ele>
        <time>2024-10-15T14:09:58Z</time>
      </trkpt>
      <trkpt lat="45.93206" lon="1.29455">
        <ele>356.7</ele>
        <time>2024-10-15T14:10:00Z</time>
      </trkpt>
      <trkpt lat="45.93206" lon="1.29467">
        <ele>357.6</ele>
        <time>2024-10-15T14:10:03Z</time>
      </trkpt>
      <trkpt lat="45.93205" lon="1.29481">
        <ele>358.6</ele>
        <time>2024-10-15T14:10:07Z</time>
      </trkpt>
      <trkpt lat="45.93202" lon="1.29492">
        <ele>359.2</ele>
        <time>2024-10-15T14:10:10Z</time>
      </trkpt>
      <trkpt lat="45.93201" lon="1.29499">
        <ele>359.2</ele>
        <time>2024-10-15T14:10:13Z</time>
      </trkpt>
      <trkpt lat="45.93202" lon="1.29508">
        <ele>359.8</ele>
        <time>2024-10-15T14:10:16Z</time>
      </trkpt>
      <trkpt lat="45.93202" lon="1.29514">
        <ele>360.2</ele>
        <time>2024-10-15T14:10:19Z</time>
      </trkpt>
      <trkpt lat="45.93203" lon="1.29522">
        <ele>361.2</ele>
        <time>2024-10-15T14:10:22Z</time>
      </trkpt>
      <trkpt lat="45.93205" lon="1.2953">
        <ele>361.8</ele>
        <time>2024-10-15T14:10:25Z</time>
      </trkpt>
      <trkpt lat="45.93206" lon="1.29535">
        <ele>362.5</ele>
        <time>2024-10-15T14:10:28Z</time>
      </trkpt>
      <trkpt lat="45.93208" lon="1.29542">
        <ele>363.2</ele>
        <time>2024-10-15T14:10:31Z</time>
      </trkpt>
      <trkpt lat="45.9321" lon="1.29547">
        <ele>363.9</ele>
        <time>2024-10-15T14:10:34Z</time>
      </trkpt>
      <trkpt lat="45.9321" lon="1.29553">
        <ele>364.6</ele>
        <time>2024-10-15T14:10:37Z</time>
      </trkpt>
      <trkpt lat="45.93212" lon="1.2956">
        <ele>365.4</ele>
        <time>2024-10-15T14:10:40Z</time>
      </trkpt>
      <trkpt lat="45.93214" lon="1.29565">
        <ele>365.8</ele>
        <time>2024-10-15T14:10:43Z</time>
      </trkpt>
      <trkpt lat="45.93215" lon="1.2957">
        <ele>366.5</ele>
        <time>2024-10-15T14:10:46Z</time>
      </trkpt>
      <trkpt lat="45.93216" lon="1.29573">
        <ele>366.8</ele>
        <time>2024-10-15T14:10:49Z</time>
      </trkpt>
      <trkpt lat="45.93219" lon="1.29577">
        <ele>367.5</ele>
        <time>2024-10-15T14:10:52Z</time>
      </trkpt>
      <trkpt lat="45.93221" lon="1.29584">
        <ele>368.5</ele>
        <time>2024-10-15T14:10:55Z</time>
      </trkpt>
      <trkpt lat="45.93223" lon="1.29588">
        <ele>368.7</ele>
        <time>2024-10-15T14:10:58Z</time>
      </trkpt>
      <trkpt lat="45.93225" lon="1.29592">
        <ele>369.4</ele>
        <time>2024-10-15T14:11:01Z</time>
      </trkpt>
      <trkpt lat="45.9323" lon="1.29596">
        <ele>370.5</ele>
        <time>2024-10-15T14:11:04Z</time>
      </trkpt>
      <trkpt lat="45.93234" lon="1.296">
        <ele>371.2</ele>
        <time>2024-10-15T14:11:07Z</time>
      </trkpt>
      <trkpt lat="45.93239" lon="1.29603">
        <ele>372.1</ele>
        <time>2024-10-15T14:11:10Z</time>
      </trkpt>
      <trkpt lat="45.93243" lon="1.29607">
        <ele>372.7</ele>
        <time>2024-10-15T14:11:13Z</time>
      </trkpt>
      <trkpt lat="45.93248" lon="1.29608">
        <ele>373.7</ele>
        <time>2024-10-15T14:11:15Z</time>
      </trkpt>
      <trkpt lat="45.93252" lon="1.29609">
        <ele>374.4</ele>
        <time>2024-10-15T14:11:18Z</time>
      </trkpt>
      <trkpt lat="45.93256" lon="1.2961">
        <ele>375</ele>
        <time>2024-10-15T14:11:22Z</time>
      </trkpt>
      <trkpt lat="45.93259" lon="1.29608">
        <ele>375.7</ele>
        <time>2024-10-15T14:11:25Z</time>
      </trkpt>
      <trkpt lat="45.93264" lon="1.29608">
        <ele>376.2</ele>
        <time>2024-10-15T14:11:27Z</time>
      </trkpt>
      <trkpt lat="45.93268" lon="1.2961">
        <ele>377</ele>
        <time>2024-10-15T14:11:30Z</time>
      </trkpt>
      <trkpt lat="45.93271" lon="1.29609">
        <ele>377.4</ele>
        <time>2024-10-15T14:11:33Z</time>
      </trkpt>
      <trkpt lat="45.93275" lon="1.29609">
        <ele>377.6</ele>
        <time>2024-10-15T14:11:36Z</time>
      </trkpt>
      <trkpt lat="45.93279" lon="1.2961">
        <ele>378.1</ele>
        <time>2024-10-15T14:11:39Z</time>
      </trkpt>
      <trkpt lat="45.93284" lon="1.29612">
        <ele>378.8</ele>
        <time>2024-10-15T14:11:43Z</time>
      </trkpt>
      <trkpt lat="45.93289" lon="1.29614">
        <ele>379.4</ele>
        <time>2024-10-15T14:11:46Z</time>
      </trkpt>
      <trkpt lat="45.93294" lon="1.29616">
        <ele>379.7</ele>
        <time>2024-10-15T14:11:49Z</time>
      </trkpt>
      <trkpt lat="45.93296" lon="1.29618">
        <ele>380</ele>
        <time>2024-10-15T14:11:52Z</time>
      </trkpt>
      <trkpt lat="45.93297" lon="1.29619">
        <ele>380.1</ele>
        <time>2024-10-15T14:11:55Z</time>
      </trkpt>
      <trkpt lat="45.93298" lon="1.29618">
        <ele>380.4</ele>
        <time>2024-10-15T14:11:58Z</time>
      </trkpt>
      <trkpt lat="45.93298" lon="1.29617">
        <ele>380.5</ele>
        <time>2024-10-15T14:12:01Z</time>
      </trkpt>
      <trkpt lat="45.93299" lon="1.29617">
        <ele>380.5</ele>
        <time>2024-10-15T14:12:04Z</time>
      </trkpt>
      <trkpt lat="45.93301" lon="1.29616">
        <ele>380.8</ele>
        <time>2024-10-15T14:12:07Z</time>
      </trkpt>
      <trkpt lat="45.93302" lon="1.29617">
        <ele>380.9</ele>
        <time>2024-10-15T14:12:10Z</time>
      </trkpt>
      <trkpt lat="45.93303" lon="1.29617">
        <ele>380.9</ele>
        <time>2024-10-15T14:12:13Z</time>
      </trkpt>
      <trkpt lat="45.93303" lon="1.29617">
        <ele>381</ele>
        <time>2024-10-15T14:12:16Z</time>
      </trkpt>
      <trkpt lat="45.93304" lon="1.29618">
        <ele>381.1</ele>
        <time>2024-10-15T14:12:19Z</time>
      </trkpt>
      <trkpt lat="45.93305" lon="1.29619">
        <ele>381.2</ele>
        <time>2024-10-15T14:12:22Z</time>
      </trkpt>
      <trkpt lat="45.93306" lon="1.29621">
        <ele>381.3</ele>
        <time>2024-10-15T14:12:25Z</time>
      </trkpt>
      <trkpt lat="45.93306" lon="1.29621">
        <ele>381.3</ele>
        <time>2024-10-15T14:12:28Z</time>
      </trkpt>
      <trkpt lat="45.93306" lon="1.29621">
        <ele>381.3</ele>
        <time>2024-10-15T14:12:31Z</time>
      </trkpt>
      <trkpt lat="45.93307" lon="1.29621">
        <ele>381.4</ele>
        <time>2024-10-15T14:12:34Z</time>
      </trkpt>
      <trkpt lat="45.93307" lon="1.29621">
        <ele>381.4</ele>
        <time>2024-10-15T14:12:37Z</time>
      </trkpt>
      <trkpt lat="45.93309" lon="1.29625">
        <ele>381.7</ele>
        <time>2024-10-15T14:12:40Z</time>
      </trkpt>
      <trkpt lat="45.93312" lon="1.29632">
        <ele>382.2</ele>
        <time>2024-10-15T14:12:43Z</time>
      </trkpt>
      <trkpt lat="45.93314" lon="1.29637">
        <ele>382.6</ele>
        <time>2024-10-15T14:12:46Z</time>
      </trkpt>
      <trkpt lat="45.93316" lon="1.29643">
        <ele>383</ele>
        <time>2024-10-15T14:12:49Z</time>
      </trkpt>
      <trkpt lat="45.93318" lon="1.29646">
        <ele>383.3</ele>
        <time>2024-10-15T14:12:52Z</time>
      </trkpt>
      <trkpt lat="45.9332" lon="1.29649">
        <ele>383.5</ele>
        <time>2024-10-15T14:12:55Z</time>
      </trkpt>
      <trkpt lat="45.93324" lon="1.29656">
        <ele>384.1</ele>
        <time>2024-10-15T14:12:58Z</time>
      </trkpt>
      <trkpt lat="45.93327" lon="1.29664">
        <ele>384.7</ele>
        <time>2024-10-15T14:13:00Z</time>
      </trkpt>
      <trkpt lat="45.93329" lon="1.29672">
        <ele>385.2</ele>
        <time>2024-10-15T14:13:03Z</time>
      </trkpt>
      <trkpt lat="45.93331" lon="1.29678">
        <ele>385.6</ele>
        <time>2024-10-15T14:13:06Z</time>
      </trkpt>
      <trkpt lat="45.93332" lon="1.29678">
        <ele>385.7</ele>
        <time>2024-10-15T14:13:09Z</time>
      </trkpt>
      <trkpt lat="45.93331" lon="1.29679">
        <ele>385.7</ele>
        <time>2024-10-15T14:13:12Z</time>
      </trkpt>
      <trkpt lat="45.93331" lon="1.2968">
        <ele>385.8</ele>
        <time>2024-10-15T14:13:15Z</time>
      </trkpt>
      <trkpt lat="45.93332" lon="1.29682">
        <ele>385.9</ele>
        <time>2024-10-15T14:13:18Z</time>
      </trkpt>
      <trkpt lat="45.93332" lon="1.29684">
        <ele>386</ele>
        <time>2024-10-15T14:13:21Z</time>
      </trkpt>
      <trkpt lat="45.93333" lon="1.29684">
        <ele>386.1</ele>
        <time>2024-10-15T14:13:25Z</time>
      </trkpt>
      <trkpt lat="45.93334" lon="1.29684">
        <ele>386.2</ele>
        <time>2024-10-15T14:13:28Z</time>
      </trkpt>
      <trkpt lat="45.93334" lon="1.29684">
        <ele>386.2</ele>
        <time>2024-10-15T14:13:31Z</time>
      </trkpt>
      <trkpt lat="45.93334" lon="1.29684">
        <ele>386.2</ele>
        <time>2024-10-15T14:13:34Z</time>
      </trkpt>
      <trkpt lat="45.93334" lon="1.29685">
        <ele>386.2</ele>
        <time>2024-10-15T14:13:37Z</time>
      </trkpt>
      <trkpt lat="45.93333" lon="1.29685">
        <ele>386.3</ele>
        <time>2024-10-15T14:13:40Z</time>
      </trkpt>
      <trkpt lat="45.93333" lon="1.29685">
        <ele>386.3</ele>
        <time>2024-10-15T14:13:43Z</time>
      </trkpt>
      <trkpt lat="45.93333" lon="1.29685">
        <ele>386.4</ele>
        <time>2024-10-15T14:13:46Z</time>
      </trkpt>
      <trkpt lat="45.93333" lon="1.29685">
        <ele>386.4</ele>
        <time>2024-10-15T14:13:49Z</time>
      </trkpt>
      <trkpt lat="45.93336" lon="1.29687">
        <ele>386.6</ele>
        <time>2024-10-15T14:13:52Z</time>
      </trkpt>
      <trkpt lat="45.93336" lon="1.29689">
        <ele>386.7</ele>
        <time>2024-10-15T14:13:55Z</time>
      </trkpt>
      <trkpt lat="45.93335" lon="1.29689">
        <ele>386.8</ele>
        <time>2024-10-15T14:13:58Z</time>
      </trkpt>
      <trkpt lat="45.93335" lon="1.29689">
        <ele>386.8</ele>
        <time>2024-10-15T14:14:01Z</time>
      </trkpt>
      <trkpt lat="45.93334" lon="1.29689">
        <ele>386.9</ele>
        <time>2024-10-15T14:14:04Z</time>
      </trkpt>
      <trkpt lat="45.93335" lon="1.29688">
        <ele>386.9</ele>
        <time>2024-10-15T14:14:07Z</time>
      </trkpt>
      <trkpt lat="45.93337" lon="1.29695">
        <ele>387.4</ele>
        <time>2024-10-15T14:14:10Z</time>
      </trkpt>
      <trkpt lat="45.9334" lon="1.29701">
        <ele>388</ele>
        <time>2024-10-15T14:14:13Z</time>
      </trkpt>
      <trkpt lat="45.93342" lon="1.29707">
        <ele>388.4</ele>
        <time>2024-10-15T14:14:16Z</time>
      </trkpt>
      <trkpt lat="45.93345" lon="1.29712">
        <ele>388.9</ele>
        <time>2024-10-15T14:14:19Z</time>
      </trkpt>
      <trkpt lat="45.93347" lon="1.29718">
        <ele>389.5</ele>
        <time>2024-10-15T14:14:22Z</time>
      </trkpt>
      <trkpt lat="45.93351" lon="1.29725">
        <ele>390.2</ele>
        <time>2024-10-15T14:14:25Z</time>
      </trkpt>
      <trkpt lat="45.93354" lon="1.29732">
        <ele>390.9</ele>
        <time>2024-10-15T14:14:28Z</time>
      </trkpt>
      <trkpt lat="45.93356" lon="1.29739">
        <ele>391.6</ele>
        <time>2024-10-15T14:14:31Z</time>
      </trkpt>
      <trkpt lat="45.93359" lon="1.29746">
        <ele>392.3</ele>
        <time>2024-10-15T14:14:33Z</time>
      </trkpt>
      <trkpt lat="45.93362" lon="1.29753">
        <ele>393</ele>
        <time>2024-10-15T14:14:36Z</time>
      </trkpt>
      <trkpt lat="45.93365" lon="1.2976">
        <ele>393.6</ele>
        <time>2024-10-15T14:14:40Z</time>
      </trkpt>
      <trkpt lat="45.93368" lon="1.29767">
        <ele>394.3</ele>
        <time>2024-10-15T14:14:42Z</time>
      </trkpt>
      <trkpt lat="45.93371" lon="1.29773">
        <ele>394.9</ele>
        <time>2024-10-15T14:14:46Z</time>
      </trkpt>
      <trkpt lat="45.93374" lon="1.29779">
        <ele>395.5</ele>
        <time>2024-10-15T14:14:49Z</time>
      </trkpt>
      <trkpt lat="45.93376" lon="1.29786">
        <ele>396</ele>
        <time>2024-10-15T14:14:51Z</time>
      </trkpt>
      <trkpt lat="45.93379" lon="1.29792">
        <ele>396.6</ele>
        <time>2024-10-15T14:14:54Z</time>
      </trkpt>
      <trkpt lat="45.93383" lon="1.29798">
        <ele>397.2</ele>
        <time>2024-10-15T14:14:57Z</time>
      </trkpt>
      <trkpt lat="45.93386" lon="1.29805">
        <ele>397.7</ele>
        <time>2024-10-15T14:15:01Z</time>
      </trkpt>
      <trkpt lat="45.93389" lon="1.2981">
        <ele>398.1</ele>
        <time>2024-10-15T14:15:04Z</time>
      </trkpt>
      <trkpt lat="45.93393" lon="1.29816">
        <ele>398.5</ele>
        <time>2024-10-15T14:15:07Z</time>
      </trkpt>
      <trkpt lat="45.93397" lon="1.29822">
        <ele>398.9</ele>
        <time>2024-10-15T14:15:10Z</time>
      </trkpt>
      <trkpt lat="45.934" lon="1.2983">
        <ele>399.3</ele>
        <time>2024-10-15T14:15:13Z</time>
      </trkpt>
      <trkpt lat="45.93404" lon="1.29835">
        <ele>399.6</ele>
        <time>2024-10-15T14:15:16Z</time>
      </trkpt>
      <trkpt lat="45.93409" lon="1.29841">
        <ele>399.9</ele>
        <time>2024-10-15T14:15:19Z</time>
      </trkpt>
      <trkpt lat="45.93414" lon="1.29846">
        <ele>400.1</ele>
        <time>2024-10-15T14:15:22Z</time>
      </trkpt>
      <trkpt lat="45.93419" lon="1.2985">
        <ele>400.4</ele>
        <time>2024-10-15T14:15:25Z</time>
      </trkpt>
      <trkpt lat="45.93425" lon="1.29854">
        <ele>400.6</ele>
        <time>2024-10-15T14:15:28Z</time>
      </trkpt>
      <trkpt lat="45.93429" lon="1.29856">
        <ele>400.7</ele>
        <time>2024-10-15T14:15:31Z</time>
      </trkpt>
      <trkpt lat="45.93431" lon="1.29859">
        <ele>400.8</ele>
        <time>2024-10-15T14:15:34Z</time>
      </trkpt>
      <trkpt lat="45.93431" lon="1.29858">
        <ele>400.8</ele>
        <time>2024-10-15T14:15:37Z</time>
      </trkpt>
      <trkpt lat="45.93432" lon="1.29858">
        <ele>400.8</ele>
        <time>2024-10-15T14:15:40Z</time>
      </trkpt>
      <trkpt lat="45.93432" lon="1.29858">
        <ele>400.8</ele>
        <time>2024-10-15T14:15:43Z</time>
      </trkpt>
      <trkpt lat="45.93432" lon="1.29857">
        <ele>400.8</ele>
        <time>2024-10-15T14:15:46Z</time>
      </trkpt>
      <trkpt lat="45.93432" lon="1.29857">
        <ele>400.8</ele>
        <time>2024-10-15T14:15:49Z</time>
      </trkpt>
      <trkpt lat="45.93432" lon="1.29857">
        <ele>400.8</ele>
        <time>2024-10-15T14:15:52Z</time>
      </trkpt>
      <trkpt lat="45.93432" lon="1.29857">
        <ele>400.8</ele>
        <time>2024-10-15T14:15:55Z</time>
      </trkpt>
      <trkpt lat="45.93432" lon="1.2986">
        <ele>400.7</ele>
        <time>2024-10-15T14:15:58Z</time>
      </trkpt>
      <trkpt lat="45.93428" lon="1.29865">
        <ele>400.1</ele>
        <time>2024-10-15T14:16:01Z</time>
      </trkpt>
      <trkpt lat="45.93421" lon="1.29876">
        <ele>398.9</ele>
        <time>2024-10-15T14:16:03Z</time>
      </trkpt>
      <trkpt lat="45.93412" lon="1.29888">
        <ele>397.4</ele>
        <time>2024-10-15T14:16:07Z</time>
      </trkpt>
      <trkpt lat="45.93399" lon="1.29908">
        <ele>395.1</ele>
        <time>2024-10-15T14:16:10Z</time>
      </trkpt>
      <trkpt lat="45.93389" lon="1.29921">
        <ele>393.5</ele>
        <time>2024-10-15T14:16:12Z</time>
      </trkpt>
      <trkpt lat="45.93379" lon="1.29936">
        <ele>392.3</ele>
        <time>2024-10-15T14:16:15Z</time>
      </trkpt>
      <trkpt lat="45.93368" lon="1.29954">
        <ele>391</ele>
        <time>2024-10-15T14:16:19Z</time>
      </trkpt>
      <trkpt lat="45.93353" lon="1.2997">
        <ele>389.5</ele>
        <time>2024-10-15T14:16:21Z</time>
      </trkpt>
      <trkpt lat="45.9334" lon="1.29984">
        <ele>387.7</ele>
        <time>2024-10-15T14:16:24Z</time>
      </trkpt>
      <trkpt lat="45.93332" lon="1.30007">
        <ele>385.5</ele>
        <time>2024-10-15T14:16:27Z</time>
      </trkpt>
      <trkpt lat="45.93321" lon="1.30032">
        <ele>382.8</ele>
        <time>2024-10-15T14:16:30Z</time>
      </trkpt>
      <trkpt lat="45.93318" lon="1.3006">
        <ele>380.2</ele>
        <time>2024-10-15T14:16:33Z</time>
      </trkpt>
      <trkpt lat="45.93309" lon="1.30079">
        <ele>378.3</ele>
        <time>2024-10-15T14:16:36Z</time>
      </trkpt>
      <trkpt lat="45.93287" lon="1.30086">
        <ele>376</ele>
        <time>2024-10-15T14:16:40Z</time>
      </trkpt>
      <trkpt lat="45.93265" lon="1.30089">
        <ele>374.1</ele>
        <time>2024-10-15T14:16:43Z</time>
      </trkpt>
      <trkpt lat="45.93243" lon="1.30095">
        <ele>371.9</ele>
        <time>2024-10-15T14:16:46Z</time>
      </trkpt>
      <trkpt lat="45.93222" lon="1.30101">
        <ele>369.7</ele>
        <time>2024-10-15T14:16:49Z</time>
      </trkpt>
      <trkpt lat="45.93198" lon="1.30105">
        <ele>367.7</ele>
        <time>2024-10-15T14:16:52Z</time>
      </trkpt>
      <trkpt lat="45.93176" lon="1.30107">
        <ele>365.9</ele>
        <time>2024-10-15T14:16:55Z</time>
      </trkpt>
      <trkpt lat="45.93153" lon="1.30116">
        <ele>363.9</ele>
        <time>2024-10-15T14:16:58Z</time>
      </trkpt>
      <trkpt lat="45.93134" lon="1.30116">
        <ele>362.5</ele>
        <time>2024-10-15T14:17:01Z</time>
      </trkpt>
      <trkpt lat="45.93116" lon="1.30111">
        <ele>361.5</ele>
        <time>2024-10-15T14:17:04Z</time>
      </trkpt>
      <trkpt lat="45.93099" lon="1.30111">
        <ele>360.7</ele>
        <time>2024-10-15T14:17:07Z</time>
      </trkpt>
      <trkpt lat="45.93083" lon="1.30113">
        <ele>360.3</ele>
        <time>2024-10-15T14:17:10Z</time>
      </trkpt>
      <trkpt lat="45.93068" lon="1.30113">
        <ele>359.9</ele>
        <time>2024-10-15T14:17:13Z</time>
      </trkpt>
      <trkpt lat="45.93057" lon="1.30106">
        <ele>359.9</ele>
        <time>2024-10-15T14:17:16Z</time>
      </trkpt>
      <trkpt lat="45.93051" lon="1.30091">
        <ele>360.2</ele>
        <time>2024-10-15T14:17:19Z</time>
      </trkpt>
      <trkpt lat="45.93044" lon="1.30076">
        <ele>360.5</ele>
        <time>2024-10-15T14:17:22Z</time>
      </trkpt>
      <trkpt lat="45.93036" lon="1.30058">
        <ele>361.2</ele>
        <time>2024-10-15T14:17:25Z</time>
      </trkpt>
      <trkpt lat="45.9303" lon="1.30045">
        <ele>361.9</ele>
        <time>2024-10-15T14:17:28Z</time>
      </trkpt>
      <trkpt lat="45.93022" lon="1.30032">
        <ele>362.7</ele>
        <time>2024-10-15T14:17:31Z</time>
      </trkpt>
      <trkpt lat="45.9301" lon="1.30026">
        <ele>363.7</ele>
        <time>2024-10-15T14:17:34Z</time>
      </trkpt>
      <trkpt lat="45.93" lon="1.30028">
        <ele>364.6</ele>
        <time>2024-10-15T14:17:37Z</time>
      </trkpt>
      <trkpt lat="45.92993" lon="1.30031">
        <ele>365.3</ele>
        <time>2024-10-15T14:17:40Z</time>
      </trkpt>
      <trkpt lat="45.92986" lon="1.30037">
        <ele>365.9</ele>
        <time>2024-10-15T14:17:42Z</time>
      </trkpt>
      <trkpt lat="45.92977" lon="1.30044">
        <ele>366.2</ele>
        <time>2024-10-15T14:17:46Z</time>
      </trkpt>
      <trkpt lat="45.92967" lon="1.30054">
        <ele>366.1</ele>
        <time>2024-10-15T14:17:49Z</time>
      </trkpt>
      <trkpt lat="45.9296" lon="1.30065">
        <ele>365.6</ele>
        <time>2024-10-15T14:17:51Z</time>
      </trkpt>
      <trkpt lat="45.92953" lon="1.30084">
        <ele>364.8</ele>
        <time>2024-10-15T14:17:55Z</time>
      </trkpt>
      <trkpt lat="45.92951" lon="1.30104">
        <ele>364.1</ele>
        <time>2024-10-15T14:17:57Z</time>
      </trkpt>
      <trkpt lat="45.9295" lon="1.30128">
        <ele>363.4</ele>
        <time>2024-10-15T14:18:00Z</time>
      </trkpt>
      <trkpt lat="45.92948" lon="1.30149">
        <ele>363.1</ele>
        <time>2024-10-15T14:18:04Z</time>
      </trkpt>
      <trkpt lat="45.92951" lon="1.30164">
        <ele>363.3</ele>
        <time>2024-10-15T14:18:07Z</time>
      </trkpt>
      <trkpt lat="45.92958" lon="1.3018">
        <ele>363.8</ele>
        <time>2024-10-15T14:18:09Z</time>
      </trkpt>
      <trkpt lat="45.92961" lon="1.30191">
        <ele>364.2</ele>
        <time>2024-10-15T14:18:12Z</time>
      </trkpt>
      <trkpt lat="45.92962" lon="1.30198">
        <ele>364.5</ele>
        <time>2024-10-15T14:18:16Z</time>
      </trkpt>
      <trkpt lat="45.92965" lon="1.30207">
        <ele>364.8</ele>
        <time>2024-10-15T14:18:19Z</time>
      </trkpt>
      <trkpt lat="45.92969" lon="1.30215">
        <ele>365.2</ele>
        <time>2024-10-15T14:18:22Z</time>
      </trkpt>
      <trkpt lat="45.92974" lon="1.30224">
        <ele>365.5</ele>
        <time>2024-10-15T14:18:25Z</time>
      </trkpt>
      <trkpt lat="45.92978" lon="1.30233">
        <ele>365.8</ele>
        <time>2024-10-15T14:18:28Z</time>
      </trkpt>
      <trkpt lat="45.92982" lon="1.30242">
        <ele>366</ele>
        <time>2024-10-15T14:18:31Z</time>
      </trkpt>
      <trkpt lat="45.92985" lon="1.30251">
        <ele>366.2</ele>
        <time>2024-10-15T14:18:34Z</time>
      </trkpt>
      <trkpt lat="45.92985" lon="1.30258">
        <ele>366.3</ele>
        <time>2024-10-15T14:18:37Z</time>
      </trkpt>
      <trkpt lat="45.92988" lon="1.30266">
        <ele>366.4</ele>
        <time>2024-10-15T14:18:40Z</time>
      </trkpt>
      <trkpt lat="45.92992" lon="1.30273">
        <ele>366.5</ele>
        <time>2024-10-15T14:18:43Z</time>
      </trkpt>
      <trkpt lat="45.92998" lon="1.30279">
        <ele>366.6</ele>
        <time>2024-10-15T14:18:46Z</time>
      </trkpt>
      <trkpt lat="45.93005" lon="1.30283">
        <ele>366.7</ele>
        <time>2024-10-15T14:18:49Z</time>
      </trkpt>
      <trkpt lat="45.9301" lon="1.30285">
        <ele>366.9</ele>
        <time>2024-10-15T14:18:52Z</time>
      </trkpt>
      <trkpt lat="45.93012" lon="1.30286">
        <ele>366.9</ele>
        <time>2024-10-15T14:18:55Z</time>
      </trkpt>
      <trkpt lat="45.93013" lon="1.30287">
        <ele>367</ele>
        <time>2024-10-15T14:18:58Z</time>
      </trkpt>
      <trkpt lat="45.93014" lon="1.30287">
        <ele>367</ele>
        <time>2024-10-15T14:19:01Z</time>
      </trkpt>
      <trkpt lat="45.93014" lon="1.30288">
        <ele>367</ele>
        <time>2024-10-15T14:19:04Z</time>
      </trkpt>
      <trkpt lat="45.93015" lon="1.30288">
        <ele>367</ele>
        <time>2024-10-15T14:19:07Z</time>
      </trkpt>
      <trkpt lat="45.93016" lon="1.30288">
        <ele>367</ele>
        <time>2024-10-15T14:19:10Z</time>
      </trkpt>
      <trkpt lat="45.93017" lon="1.30288">
        <ele>367.1</ele>
        <time>2024-10-15T14:19:13Z</time>
      </trkpt>
      <trkpt lat="45.93017" lon="1.30289">
        <ele>367.1</ele>
        <time>2024-10-15T14:19:16Z</time>
      </trkpt>
      <trkpt lat="45.93016" lon="1.3029">
        <ele>367.1</ele>
        <time>2024-10-15T14:19:19Z</time>
      </trkpt>
      <trkpt lat="45.93017" lon="1.3029">
        <ele>367.1</ele>
        <time>2024-10-15T14:19:22Z</time>
      </trkpt>
      <trkpt lat="45.93019" lon="1.3029">
        <ele>367.2</ele>
        <time>2024-10-15T14:19:25Z</time>
      </trkpt>
      <trkpt lat="45.93021" lon="1.30289">
        <ele>367.2</ele>
        <time>2024-10-15T14:19:28Z</time>
      </trkpt>
      <trkpt lat="45.93027" lon="1.30288">
        <ele>367.4</ele>
        <time>2024-10-15T14:19:31Z</time>
      </trkpt>
      <trkpt lat="45.93037" lon="1.30287">
        <ele>367.5</ele>
        <time>2024-10-15T14:19:33Z</time>
      </trkpt>
      <trkpt lat="45.93044" lon="1.30286">
        <ele>367.6</ele>
        <time>2024-10-15T14:19:36Z</time>
      </trkpt>
      <trkpt lat="45.93052" lon="1.30287">
        <ele>367.6</ele>
        <time>2024-10-15T14:19:39Z</time>
      </trkpt>
      <trkpt lat="45.93062" lon="1.30288">
        <ele>367.4</ele>
        <time>2024-10-15T14:19:42Z</time>
      </trkpt>
      <trkpt lat="45.9307" lon="1.30287">
        <ele>367.1</ele>
        <time>2024-10-15T14:19:45Z</time>
      </trkpt>
      <trkpt lat="45.9308" lon="1.30286">
        <ele>366.5</ele>
        <time>2024-10-15T14:19:49Z</time>
      </trkpt>
      <trkpt lat="45.9309" lon="1.30283">
        <ele>365.6</ele>
        <time>2024-10-15T14:19:52Z</time>
      </trkpt>
      <trkpt lat="45.93098" lon="1.30273">
        <ele>364.4</ele>
        <time>2024-10-15T14:19:55Z</time>
      </trkpt>
      <trkpt lat="45.93102" lon="1.30265">
        <ele>363.7</ele>
        <time>2024-10-15T14:19:57Z</time>
      </trkpt>
      <trkpt lat="45.93107" lon="1.3026">
        <ele>363</ele>
        <time>2024-10-15T14:20:01Z</time>
      </trkpt>
      <trkpt lat="45.93114" lon="1.30259">
        <ele>362.6</ele>
        <time>2024-10-15T14:20:04Z</time>
      </trkpt>
      <trkpt lat="45.9312" lon="1.30258">
        <ele>362.3</ele>
        <time>2024-10-15T14:20:07Z</time>
      </trkpt>
      <trkpt lat="45.93124" lon="1.30257">
        <ele>362.3</ele>
        <time>2024-10-15T14:20:10Z</time>
      </trkpt>
      <trkpt lat="45.93124" lon="1.30258">
        <ele>362.2</ele>
        <time>2024-10-15T14:20:13Z</time>
      </trkpt>
      <trkpt lat="45.93126" lon="1.30258">
        <ele>362.2</ele>
        <time>2024-10-15T14:20:16Z</time>
      </trkpt>
      <trkpt lat="45.93128" lon="1.30258">
        <ele>362.2</ele>
        <time>2024-10-15T14:20:19Z</time>
      </trkpt>
      <trkpt lat="45.93128" lon="1.3026">
        <ele>362.2</ele>
        <time>2024-10-15T14:20:22Z</time>
      </trkpt>
      <trkpt lat="45.93129" lon="1.3026">
        <ele>362.2</ele>
        <time>2024-10-15T14:20:25Z</time>
      </trkpt>
      <trkpt lat="45.93132" lon="1.30259">
        <ele>362.3</ele>
        <time>2024-10-15T14:20:28Z</time>
      </trkpt>
      <trkpt lat="45.93137" lon="1.30261">
        <ele>362.3</ele>
        <time>2024-10-15T14:20:31Z</time>
      </trkpt>
      <trkpt lat="45.93146" lon="1.30264">
        <ele>362.7</ele>
        <time>2024-10-15T14:20:34Z</time>
      </trkpt>
      <trkpt lat="45.93151" lon="1.30269">
        <ele>363</ele>
        <time>2024-10-15T14:20:37Z</time>
      </trkpt>
      <trkpt lat="45.93152" lon="1.30272">
        <ele>363.1</ele>
        <time>2024-10-15T14:20:40Z</time>
      </trkpt>
      <trkpt lat="45.93153" lon="1.30272">
        <ele>363.2</ele>
        <time>2024-10-15T14:20:43Z</time>
      </trkpt>
      <trkpt lat="45.93154" lon="1.30273">
        <ele>363.2</ele>
        <time>2024-10-15T14:20:46Z</time>
      </trkpt>
      <trkpt lat="45.93155" lon="1.30274">
        <ele>363.3</ele>
        <time>2024-10-15T14:20:49Z</time>
      </trkpt>
      <trkpt lat="45.93156" lon="1.30277">
        <ele>363.4</ele>
        <time>2024-10-15T14:20:52Z</time>
      </trkpt>
      <trkpt lat="45.93156" lon="1.30279">
        <ele>363.5</ele>
        <time>2024-10-15T14:20:55Z</time>
      </trkpt>
      <trkpt lat="45.93157" lon="1.30279">
        <ele>363.6</ele>
        <time>2024-10-15T14:20:58Z</time>
      </trkpt>
      <trkpt lat="45.93157" lon="1.3028">
        <ele>363.6</ele>
        <time>2024-10-15T14:21:01Z</time>
      </trkpt>
      <trkpt lat="45.93157" lon="1.3028">
        <ele>363.7</ele>
        <time>2024-10-15T14:21:04Z</time>
      </trkpt>
      <trkpt lat="45.93156" lon="1.30281">
        <ele>363.8</ele>
        <time>2024-10-15T14:21:07Z</time>
      </trkpt>
      <trkpt lat="45.93155" lon="1.30282">
        <ele>363.9</ele>
        <time>2024-10-15T14:21:10Z</time>
      </trkpt>
      <trkpt lat="45.93154" lon="1.30283">
        <ele>364</ele>
        <time>2024-10-15T14:21:12Z</time>
      </trkpt>
      <trkpt lat="45.93154" lon="1.30284">
        <ele>364.2</ele>
        <time>2024-10-15T14:21:15Z</time>
      </trkpt>
      <trkpt lat="45.93153" lon="1.30287">
        <ele>364.3</ele>
        <time>2024-10-15T14:21:18Z</time>
      </trkpt>
      <trkpt lat="45.93153" lon="1.30287">
        <ele>364.4</ele>
        <time>2024-10-15T14:21:22Z</time>
      </trkpt>
      <trkpt lat="45.93153" lon="1.30291">
        <ele>364.5</ele>
        <time>2024-10-15T14:21:24Z</time>
      </trkpt>
      <trkpt lat="45.93153" lon="1.30299">
        <ele>364.6</ele>
        <time>2024-10-15T14:21:27Z</time>
      </trkpt>
      <trkpt lat="45.93154" lon="1.30305">
        <ele>364.8</ele>
        <time>2024-10-15T14:21:31Z</time>
      </trkpt>
      <trkpt lat="45.93154" lon="1.30315">
        <ele>364.9</ele>
        <time>2024-10-15T14:21:33Z</time>
      </trkpt>
      <trkpt lat="45.9315" lon="1.30328">
        <ele>365</ele>
        <time>2024-10-15T14:21:36Z</time>
      </trkpt>
      <trkpt lat="45.93146" lon="1.30339">
        <ele>365.2</ele>
        <time>2024-10-15T14:21:39Z</time>
      </trkpt>
      <trkpt lat="45.9314" lon="1.30347">
        <ele>365.4</ele>
        <time>2024-10-15T14:21:43Z</time>
      </trkpt>
      <trkpt lat="45.93136" lon="1.30347">
        <ele>365.5</ele>
        <time>2024-10-15T14:21:46Z</time>
      </trkpt>
      <trkpt lat="45.9313" lon="1.30346">
        <ele>365.8</ele>
        <time>2024-10-15T14:21:49Z</time>
      </trkpt>
      <trkpt lat="45.93126" lon="1.30348">
        <ele>366</ele>
        <time>2024-10-15T14:21:52Z</time>
      </trkpt>
      <trkpt lat="45.9312" lon="1.30354">
        <ele>366.2</ele>
        <time>2024-10-15T14:21:55Z</time>
      </trkpt>
      <trkpt lat="45.93115" lon="1.30356">
        <ele>366.5</ele>
        <time>2024-10-15T14:21:58Z</time>
      </trkpt>
      <trkpt lat="45.93109" lon="1.30358">
        <ele>366.8</ele>
        <time>2024-10-15T14:22:01Z</time>
      </trkpt>
      <trkpt lat="45.93103" lon="1.3036">
        <ele>367.1</ele>
        <time>2024-10-15T14:22:04Z</time>
      </trkpt>
      <trkpt lat="45.93098" lon="1.3036">
        <ele>367.4</ele>
        <time>2024-10-15T14:22:07Z</time>
      </trkpt>
      <trkpt lat="45.93095" lon="1.30361">
        <ele>367.5</ele>
        <time>2024-10-15T14:22:10Z</time>
      </trkpt>
      <trkpt lat="45.93094" lon="1.30362">
        <ele>367.6</ele>
        <time>2024-10-15T14:22:13Z</time>
      </trkpt>
      <trkpt lat="45.93094" lon="1.30361">
        <ele>367.6</ele>
        <time>2024-10-15T14:22:16Z</time>
      </trkpt>
      <trkpt lat="45.93094" lon="1.30361">
        <ele>367.7</ele>
        <time>2024-10-15T14:22:19Z</time>
      </trkpt>
      <trkpt lat="45.93094" lon="1.30361">
        <ele>367.7</ele>
        <time>2024-10-15T14:22:22Z</time>
      </trkpt>
      <trkpt lat="45.93094" lon="1.30361">
        <ele>367.7</ele>
        <time>2024-10-15T14:22:25Z</time>
      </trkpt>
      <trkpt lat="45.93093" lon="1.30361">
        <ele>367.7</ele>
        <time>2024-10-15T14:22:28Z</time>
      </trkpt>
      <trkpt lat="45.93093" lon="1.30361">
        <ele>367.8</ele>
        <time>2024-10-15T14:22:31Z</time>
      </trkpt>
      <trkpt lat="45.93092" lon="1.30362">
        <ele>367.8</ele>
        <time>2024-10-15T14:22:34Z</time>
      </trkpt>
      <trkpt lat="45.93094" lon="1.30361">
        <ele>367.8</ele>
        <time>2024-10-15T14:22:37Z</time>
      </trkpt>
      <trkpt lat="45.93096" lon="1.3036">
        <ele>367.9</ele>
        <time>2024-10-15T14:22:40Z</time>
      </trkpt>
      <trkpt lat="45.93099" lon="1.30361">
        <ele>368</ele>
        <time>2024-10-15T14:22:43Z</time>
      </trkpt>
      <trkpt lat="45.93101" lon="1.30361">
        <ele>368.1</ele>
        <time>2024-10-15T14:22:46Z</time>
      </trkpt>
      <trkpt lat="45.931" lon="1.30363">
        <ele>368.2</ele>
        <time>2024-10-15T14:22:49Z</time>
      </trkpt>
      <trkpt lat="45.93099" lon="1.30366">
        <ele>368.2</ele>
        <time>2024-10-15T14:22:52Z</time>
      </trkpt>
      <trkpt lat="45.93099" lon="1.30367">
        <ele>368.2</ele>
        <time>2024-10-15T14:22:54Z</time>
      </trkpt>
      <trkpt lat="45.93098" lon="1.30367">
        <ele>368.2</ele>
        <time>2024-10-15T14:22:57Z</time>
      </trkpt>
      <trkpt lat="45.93098" lon="1.30368">
        <ele>368.2</ele>
        <time>2024-10-15T14:23:00Z</time>
      </trkpt>
      <trkpt lat="45.93097" lon="1.30367">
        <ele>368.2</ele>
        <time>2024-10-15T14:23:03Z</time>
      </trkpt>
      <trkpt lat="45.93097" lon="1.30368">
        <ele>368.3</ele>
        <time>2024-10-15T14:23:06Z</time>
      </trkpt>
      <trkpt lat="45.93097" lon="1.30368">
        <ele>368.3</ele>
        <time>2024-10-15T14:23:10Z</time>
      </trkpt>
      <trkpt lat="45.93094" lon="1.30371">
        <ele>368.3</ele>
        <time>2024-10-15T14:23:13Z</time>
      </trkpt>
      <trkpt lat="45.93089" lon="1.30376">
        <ele>368.3</ele>
        <time>2024-10-15T14:23:16Z</time>
      </trkpt>
      <trkpt lat="45.93083" lon="1.3038">
        <ele>368.3</ele>
        <time>2024-10-15T14:23:19Z</time>
      </trkpt>
      <trkpt lat="45.93078" lon="1.30384">
        <ele>368.2</ele>
        <time>2024-10-15T14:23:22Z</time>
      </trkpt>
      <trkpt lat="45.93072" lon="1.30387">
        <ele>368.1</ele>
        <time>2024-10-15T14:23:25Z</time>
      </trkpt>
      <trkpt lat="45.93068" lon="1.30391">
        <ele>368</ele>
        <time>2024-10-15T14:23:28Z</time>
      </trkpt>
      <trkpt lat="45.93063" lon="1.30395">
        <ele>367.9</ele>
        <time>2024-10-15T14:23:31Z</time>
      </trkpt>
      <trkpt lat="45.93059" lon="1.30397">
        <ele>367.8</ele>
        <time>2024-10-15T14:23:34Z</time>
      </trkpt>
      <trkpt lat="45.93061" lon="1.30402">
        <ele>367.7</ele>
        <time>2024-10-15T14:23:37Z</time>
      </trkpt>
      <trkpt lat="45.93065" lon="1.30405">
        <ele>367.8</ele>
        <time>2024-10-15T14:23:40Z</time>
      </trkpt>
      <trkpt lat="45.93069" lon="1.3041">
        <ele>367.9</ele>
        <time>2024-10-15T14:23:43Z</time>
      </trkpt>
      <trkpt lat="45.93073" lon="1.30416">
        <ele>368</ele>
        <time>2024-10-15T14:23:46Z</time>
      </trkpt>
      <trkpt lat="45.93077" lon="1.30423">
        <ele>368.1</ele>
        <time>2024-10-15T14:23:49Z</time>
      </trkpt>
      <trkpt lat="45.93082" lon="1.3043">
        <ele>368.2</ele>
        <time>2024-10-15T14:23:52Z</time>
      </trkpt>
      <trkpt lat="45.93087" lon="1.30438">
        <ele>368.3</ele>
        <time>2024-10-15T14:23:55Z</time>
      </trkpt>
      <trkpt lat="45.9309" lon="1.30444">
        <ele>368.4</ele>
        <time>2024-10-15T14:23:58Z</time>
      </trkpt>
      <trkpt lat="45.93092" lon="1.30448">
        <ele>368.5</ele>
        <time>2024-10-15T14:24:01Z</time>
      </trkpt>
      <trkpt lat="45.93095" lon="1.30453">
        <ele>368.6</ele>
        <time>2024-10-15T14:24:04Z</time>
      </trkpt>
      <trkpt lat="45.93099" lon="1.30458">
        <ele>368.7</ele>
        <time>2024-10-15T14:24:07Z</time>
      </trkpt>
      <trkpt lat="45.93102" lon="1.30465">
        <ele>368.9</ele>
        <time>2024-10-15T14:24:10Z</time>
      </trkpt>
      <trkpt lat="45.93105" lon="1.30471">
        <ele>369</ele>
        <time>2024-10-15T14:24:13Z</time>
      </trkpt>
      <trkpt lat="45.93109" lon="1.30476">
        <ele>369.2</ele>
        <time>2024-10-15T14:24:16Z</time>
      </trkpt>
      <trkpt lat="45.93112" lon="1.30481">
        <ele>369.4</ele>
        <time>2024-10-15T14:24:19Z</time>
      </trkpt>
      <trkpt lat="45.93114" lon="1.30486">
        <ele>369.5</ele>
        <time>2024-10-15T14:24:22Z</time>
      </trkpt>
      <trkpt lat="45.93117" lon="1.30491">
        <ele>369.7</ele>
        <time>2024-10-15T14:24:25Z</time>
      </trkpt>
      <trkpt lat="45.93121" lon="1.30499">
        <ele>370</ele>
        <time>2024-10-15T14:24:27Z</time>
      </trkpt>
      <trkpt lat="45.93126" lon="1.30508">
        <ele>370.3</ele>
        <time>2024-10-15T14:24:30Z</time>
      </trkpt>
      <trkpt lat="45.93131" lon="1.30517">
        <ele>370.7</ele>
        <time>2024-10-15T14:24:34Z</time>
      </trkpt>
      <trkpt lat="45.93137" lon="1.30525">
        <ele>371</ele>
        <time>2024-10-15T14:24:36Z</time>
      </trkpt>
      <trkpt lat="45.93142" lon="1.30534">
        <ele>371.3</ele>
        <time>2024-10-15T14:24:39Z</time>
      </trkpt>
      <trkpt lat="45.93147" lon="1.30542">
        <ele>371.7</ele>
        <time>2024-10-15T14:24:42Z</time>
      </trkpt>
      <trkpt lat="45.93152" lon="1.3055">
        <ele>372.1</ele>
        <time>2024-10-15T14:24:45Z</time>
      </trkpt>
      <trkpt lat="45.93157" lon="1.3056">
        <ele>372.5</ele>
        <time>2024-10-15T14:24:49Z</time>
      </trkpt>
      <trkpt lat="45.93161" lon="1.30569">
        <ele>372.7</ele>
        <time>2024-10-15T14:24:52Z</time>
      </trkpt>
      <trkpt lat="45.93163" lon="1.30578">
        <ele>372.9</ele>
        <time>2024-10-15T14:24:55Z</time>
      </trkpt>
      <trkpt lat="45.93166" lon="1.30588">
        <ele>373.1</ele>
        <time>2024-10-15T14:24:58Z</time>
      </trkpt>
      <trkpt lat="45.93163" lon="1.30598">
        <ele>373.2</ele>
        <time>2024-10-15T14:25:01Z</time>
      </trkpt>
      <trkpt lat="45.93153" lon="1.30596">
        <ele>373</ele>
        <time>2024-10-15T14:25:04Z</time>
      </trkpt>
      <trkpt lat="45.93142" lon="1.3059">
        <ele>372.7</ele>
        <time>2024-10-15T14:25:07Z</time>
      </trkpt>
      <trkpt lat="45.93131" lon="1.30585">
        <ele>372.5</ele>
        <time>2024-10-15T14:25:10Z</time>
      </trkpt>
      <trkpt lat="45.93121" lon="1.30581">
        <ele>372.2</ele>
        <time>2024-10-15T14:25:13Z</time>
      </trkpt>
      <trkpt lat="45.93111" lon="1.30575">
        <ele>372</ele>
        <time>2024-10-15T14:25:16Z</time>
      </trkpt>
      <trkpt lat="45.931" lon="1.30569">
        <ele>371.7</ele>
        <time>2024-10-15T14:25:19Z</time>
      </trkpt>
      <trkpt lat="45.93088" lon="1.30564">
        <ele>371.4</ele>
        <time>2024-10-15T14:25:22Z</time>
      </trkpt>
      <trkpt lat="45.93077" lon="1.30559">
        <ele>371.1</ele>
        <time>2024-10-15T14:25:25Z</time>
      </trkpt>
      <trkpt lat="45.93066" lon="1.30553">
        <ele>370.8</ele>
        <time>2024-10-15T14:25:28Z</time>
      </trkpt>
      <trkpt lat="45.93054" lon="1.30547">
        <ele>370.5</ele>
        <time>2024-10-15T14:25:31Z</time>
      </trkpt>
      <trkpt lat="45.93043" lon="1.30541">
        <ele>370.1</ele>
        <time>2024-10-15T14:25:34Z</time>
      </trkpt>
      <trkpt lat="45.93031" lon="1.30536">
        <ele>369.7</ele>
        <time>2024-10-15T14:25:37Z</time>
      </trkpt>
      <trkpt lat="45.93017" lon="1.30532">
        <ele>369.2</ele>
        <time>2024-10-15T14:25:40Z</time>
      </trkpt>
      <trkpt lat="45.93004" lon="1.30525">
        <ele>368.4</ele>
        <time>2024-10-15T14:25:43Z</time>
      </trkpt>
      <trkpt lat="45.92989" lon="1.30518">
        <ele>367.4</ele>
        <time>2024-10-15T14:25:46Z</time>
      </trkpt>
      <trkpt lat="45.9297" lon="1.3051">
        <ele>366.1</ele>
        <time>2024-10-15T14:25:48Z</time>
      </trkpt>
      <trkpt lat="45.9295" lon="1.30499">
        <ele>364.7</ele>
        <time>2024-10-15T14:25:52Z</time>
      </trkpt>
      <trkpt lat="45.9293" lon="1.30488">
        <ele>363.3</ele>
        <time>2024-10-15T14:25:54Z</time>
      </trkpt>
      <trkpt lat="45.92909" lon="1.30477">
        <ele>361.9</ele>
        <time>2024-10-15T14:25:57Z</time>
      </trkpt>
      <trkpt lat="45.92886" lon="1.30466">
        <ele>360.4</ele>
        <time>2024-10-15T14:26:00Z</time>
      </trkpt>
      <trkpt lat="45.92863" lon="1.30454">
        <ele>358.9</ele>
        <time>2024-10-15T14:26:03Z</time>
      </trkpt>
      <trkpt lat="45.92837" lon="1.30442">
        <ele>357.4</ele>
        <time>2024-10-15T14:26:07Z</time>
      </trkpt>
      <trkpt lat="45.9281" lon="1.30429">
        <ele>355.7</ele>
        <time>2024-10-15T14:26:09Z</time>
      </trkpt>
      <trkpt lat="45.92782" lon="1.30416">
        <ele>354.2</ele>
        <time>2024-10-15T14:26:12Z</time>
      </trkpt>
      <trkpt lat="45.92755" lon="1.30402">
        <ele>352.7</ele>
        <time>2024-10-15T14:26:16Z</time>
      </trkpt>
      <trkpt lat="45.92728" lon="1.30389">
        <ele>351.4</ele>
        <time>2024-10-15T14:26:19Z</time>
      </trkpt>
      <trkpt lat="45.92704" lon="1.30377">
        <ele>350.2</ele>
        <time>2024-10-15T14:26:22Z</time>
      </trkpt>
      <trkpt lat="45.92682" lon="1.30367">
        <ele>349.2</ele>
        <time>2024-10-15T14:26:25Z</time>
      </trkpt>
      <trkpt lat="45.92665" lon="1.30359">
        <ele>348.6</ele>
        <time>2024-10-15T14:26:28Z</time>
      </trkpt>
      <trkpt lat="45.92651" lon="1.30353">
        <ele>348.2</ele>
        <time>2024-10-15T14:26:31Z</time>
      </trkpt>
      <trkpt lat="45.92639" lon="1.30353">
        <ele>348</ele>
        <time>2024-10-15T14:26:34Z</time>
      </trkpt>
      <trkpt lat="45.92631" lon="1.30354">
        <ele>347.8</ele>
        <time>2024-10-15T14:26:37Z</time>
      </trkpt>
      <trkpt lat="45.9263" lon="1.30358">
        <ele>347.7</ele>
        <time>2024-10-15T14:26:40Z</time>
      </trkpt>
      <trkpt lat="45.9263" lon="1.30359">
        <ele>347.7</ele>
        <time>2024-10-15T14:26:43Z</time>
      </trkpt>
      <trkpt lat="45.92631" lon="1.3036">
        <ele>347.7</ele>
        <time>2024-10-15T14:26:46Z</time>
      </trkpt>
      <trkpt lat="45.92631" lon="1.30359">
        <ele>347.7</ele>
        <time>2024-10-15T14:26:49Z</time>
      </trkpt>
      <trkpt lat="45.92631" lon="1.30359">
        <ele>347.7</ele>
        <time>2024-10-15T14:26:52Z</time>
      </trkpt>
      <trkpt lat="45.92632" lon="1.3036">
        <ele>347.7</ele>
        <time>2024-10-15T14:26:55Z</time>
      </trkpt>
      <trkpt lat="45.92632" lon="1.30362">
        <ele>347.7</ele>
        <time>2024-10-15T14:26:58Z</time>
      </trkpt>
      <trkpt lat="45.92633" lon="1.30363">
        <ele>347.6</ele>
        <time>2024-10-15T14:27:01Z</time>
      </trkpt>
      <trkpt lat="45.9263" lon="1.30369">
        <ele>347.6</ele>
        <time>2024-10-15T14:27:04Z</time>
      </trkpt>
      <trkpt lat="45.92621" lon="1.30378">
        <ele>347.5</ele>
        <time>2024-10-15T14:27:07Z</time>
      </trkpt>
      <trkpt lat="45.92611" lon="1.30392">
        <ele>347.6</ele>
        <time>2024-10-15T14:27:10Z</time>
      </trkpt>
      <trkpt lat="45.92603" lon="1.30409">
        <ele>347.7</ele>
        <time>2024-10-15T14:27:13Z</time>
      </trkpt>
      <trkpt lat="45.92598" lon="1.30428">
        <ele>347.8</ele>
        <time>2024-10-15T14:27:16Z</time>
      </trkpt>
      <trkpt lat="45.92596" lon="1.30448">
        <ele>348</ele>
        <time>2024-10-15T14:27:18Z</time>
      </trkpt>
      <trkpt lat="45.92593" lon="1.30467">
        <ele>348.1</ele>
        <time>2024-10-15T14:27:21Z</time>
      </trkpt>
      <trkpt lat="45.92592" lon="1.30485">
        <ele>348.4</ele>
        <time>2024-10-15T14:27:25Z</time>
      </trkpt>
      <trkpt lat="45.9259" lon="1.30502">
        <ele>348.6</ele>
        <time>2024-10-15T14:27:27Z</time>
      </trkpt>
      <trkpt lat="45.92588" lon="1.30521">
        <ele>348.9</ele>
        <time>2024-10-15T14:27:30Z</time>
      </trkpt>
      <trkpt lat="45.92586" lon="1.30537">
        <ele>349.1</ele>
        <time>2024-10-15T14:27:33Z</time>
      </trkpt>
      <trkpt lat="45.9259" lon="1.30557">
        <ele>349.2</ele>
        <time>2024-10-15T14:27:36Z</time>
      </trkpt>
      <trkpt lat="45.92591" lon="1.30573">
        <ele>349.3</ele>
        <time>2024-10-15T14:27:39Z</time>
      </trkpt>
      <trkpt lat="45.9259" lon="1.30588">
        <ele>349.4</ele>
        <time>2024-10-15T14:27:42Z</time>
      </trkpt>
      <trkpt lat="45.92588" lon="1.30603">
        <ele>349.6</ele>
        <time>2024-10-15T14:27:45Z</time>
      </trkpt>
      <trkpt lat="45.92588" lon="1.30618">
        <ele>349.8</ele>
        <time>2024-10-15T14:27:49Z</time>
      </trkpt>
      <trkpt lat="45.92589" lon="1.30634">
        <ele>350.2</ele>
        <time>2024-10-15T14:27:52Z</time>
      </trkpt>
      <trkpt lat="45.92592" lon="1.30647">
        <ele>350.7</ele>
        <time>2024-10-15T14:27:55Z</time>
      </trkpt>
      <trkpt lat="45.92594" lon="1.30656">
        <ele>351.1</ele>
        <time>2024-10-15T14:27:58Z</time>
      </trkpt>
      <trkpt lat="45.92593" lon="1.30655">
        <ele>351.2</ele>
        <time>2024-10-15T14:28:01Z</time>
      </trkpt>
      <trkpt lat="45.92593" lon="1.30655">
        <ele>351.2</ele>
        <time>2024-10-15T14:28:04Z</time>
      </trkpt>
      <trkpt lat="45.92593" lon="1.30655">
        <ele>351.2</ele>
        <time>2024-10-15T14:28:07Z</time>
      </trkpt>
      <trkpt lat="45.92594" lon="1.30658">
        <ele>351.4</ele>
        <time>2024-10-15T14:28:10Z</time>
      </trkpt>
      <trkpt lat="45.92597" lon="1.30665">
        <ele>351.8</ele>
        <time>2024-10-15T14:28:13Z</time>
      </trkpt>
      <trkpt lat="45.92605" lon="1.30676">
        <ele>352.6</ele>
        <time>2024-10-15T14:28:16Z</time>
      </trkpt>
      <trkpt lat="45.92612" lon="1.30686">
        <ele>353.3</ele>
        <time>2024-10-15T14:28:19Z</time>
      </trkpt>
      <trkpt lat="45.92615" lon="1.30693">
        <ele>353.6</ele>
        <time>2024-10-15T14:28:22Z</time>
      </trkpt>
      <trkpt lat="45.92619" lon="1.30702">
        <ele>354.1</ele>
        <time>2024-10-15T14:28:25Z</time>
      </trkpt>
      <trkpt lat="45.9262" lon="1.30711">
        <ele>354.4</ele>
        <time>2024-10-15T14:28:28Z</time>
      </trkpt>
      <trkpt lat="45.92623" lon="1.30718">
        <ele>354.7</ele>
        <time>2024-10-15T14:28:31Z</time>
      </trkpt>
      <trkpt lat="45.92627" lon="1.30721">
        <ele>354.9</ele>
        <time>2024-10-15T14:28:34Z</time>
      </trkpt>
      <trkpt lat="45.9263" lon="1.30723">
        <ele>355.1</ele>
        <time>2024-10-15T14:28:37Z</time>
      </trkpt>
      <trkpt lat="45.92631" lon="1.30725">
        <ele>355.1</ele>
        <time>2024-10-15T14:28:40Z</time>
      </trkpt>
      <trkpt lat="45.92633" lon="1.30732">
        <ele>355.4</ele>
        <time>2024-10-15T14:28:43Z</time>
      </trkpt>
      <trkpt lat="45.92637" lon="1.30741">
        <ele>355.8</ele>
        <time>2024-10-15T14:28:46Z</time>
      </trkpt>
      <trkpt lat="45.92641" lon="1.30747">
        <ele>356.1</ele>
        <time>2024-10-15T14:28:49Z</time>
      </trkpt>
      <trkpt lat="45.92644" lon="1.30754">
        <ele>356.3</ele>
        <time>2024-10-15T14:28:52Z</time>
      </trkpt>
      <trkpt lat="45.92648" lon="1.30761">
        <ele>356.6</ele>
        <time>2024-10-15T14:28:55Z</time>
      </trkpt>
      <trkpt lat="45.92651" lon="1.30769">
        <ele>356.9</ele>
        <time>2024-10-15T14:28:58Z</time>
      </trkpt>
      <trkpt lat="45.92653" lon="1.30777">
        <ele>357.2</ele>
        <time>2024-10-15T14:29:00Z</time>
      </trkpt>
      <trkpt lat="45.92656" lon="1.30785">
        <ele>357.4</ele>
        <time>2024-10-15T14:29:03Z</time>
      </trkpt>
      <trkpt lat="45.92658" lon="1.30793">
        <ele>357.7</ele>
        <time>2024-10-15T14:29:06Z</time>
      </trkpt>
      <trkpt lat="45.92659" lon="1.30801">
        <ele>358</ele>
        <time>2024-10-15T14:29:10Z</time>
      </trkpt>
      <trkpt lat="45.92659" lon="1.30813">
        <ele>358.4</ele>
        <time>2024-10-15T14:29:12Z</time>
      </trkpt>
      <trkpt lat="45.92658" lon="1.30823">
        <ele>358.7</ele>
        <time>2024-10-15T14:29:15Z</time>
      </trkpt>
      <trkpt lat="45.92656" lon="1.30832">
        <ele>359.1</ele>
        <time>2024-10-15T14:29:18Z</time>
      </trkpt>
      <trkpt lat="45.92655" lon="1.3084">
        <ele>359.5</ele>
        <time>2024-10-15T14:29:22Z</time>
      </trkpt>
      <trkpt lat="45.92654" lon="1.30847">
        <ele>359.8</ele>
        <time>2024-10-15T14:29:24Z</time>
      </trkpt>
      <trkpt lat="45.92654" lon="1.30856">
        <ele>360.1</ele>
        <time>2024-10-15T14:29:28Z</time>
      </trkpt>
      <trkpt lat="45.92653" lon="1.30863">
        <ele>360.4</ele>
        <time>2024-10-15T14:29:31Z</time>
      </trkpt>
      <trkpt lat="45.92652" lon="1.3087">
        <ele>360.8</ele>
        <time>2024-10-15T14:29:34Z</time>
      </trkpt>
      <trkpt lat="45.92651" lon="1.30877">
        <ele>361.1</ele>
        <time>2024-10-15T14:29:37Z</time>
      </trkpt>
      <trkpt lat="45.92651" lon="1.30885">
        <ele>361.4</ele>
        <time>2024-10-15T14:29:40Z</time>
      </trkpt>
      <trkpt lat="45.9265" lon="1.30892">
        <ele>361.7</ele>
        <time>2024-10-15T14:29:43Z</time>
      </trkpt>
      <trkpt lat="45.92649" lon="1.309">
        <ele>362</ele>
        <time>2024-10-15T14:29:46Z</time>
      </trkpt>
      <trkpt lat="45.92648" lon="1.30906">
        <ele>362.3</ele>
        <time>2024-10-15T14:29:49Z</time>
      </trkpt>
      <trkpt lat="45.92646" lon="1.30914">
        <ele>362.6</ele>
        <time>2024-10-15T14:29:52Z</time>
      </trkpt>
      <trkpt lat="45.92644" lon="1.30924">
        <ele>362.8</ele>
        <time>2024-10-15T14:29:55Z</time>
      </trkpt>
      <trkpt lat="45.92643" lon="1.30932">
        <ele>363</ele>
        <time>2024-10-15T14:29:58Z</time>
      </trkpt>
      <trkpt lat="45.92641" lon="1.30941">
        <ele>363.1</ele>
        <time>2024-10-15T14:30:01Z</time>
      </trkpt>
      <trkpt lat="45.9264" lon="1.30951">
        <ele>363.1</ele>
        <time>2024-10-15T14:30:04Z</time>
      </trkpt>
      <trkpt lat="45.92639" lon="1.30957">
        <ele>363.1</ele>
        <time>2024-10-15T14:30:07Z</time>
      </trkpt>
      <trkpt lat="45.9264" lon="1.30957">
        <ele>363.1</ele>
        <time>2024-10-15T14:30:10Z</time>
      </trkpt>
      <trkpt lat="45.92639" lon="1.30958">
        <ele>363.1</ele>
        <time>2024-10-15T14:30:13Z</time>
      </trkpt>
      <trkpt lat="45.92639" lon="1.30959">
        <ele>363.1</ele>
        <time>2024-10-15T14:30:16Z</time>
      </trkpt>
      <trkpt lat="45.92637" lon="1.30969">
        <ele>363</ele>
        <time>2024-10-15T14:30:19Z</time>
      </trkpt>
      <trkpt lat="45.92634" lon="1.30986">
        <ele>362.7</ele>
        <time>2024-10-15T14:30:22Z</time>
      </trkpt>
      <trkpt lat="45.92632" lon="1.31007">
        <ele>362.1</ele>
        <time>2024-10-15T14:30:25Z</time>
      </trkpt>
      <trkpt lat="45.92628" lon="1.31032">
        <ele>361.2</ele>
        <time>2024-10-15T14:30:28Z</time>
      </trkpt>
      <trkpt lat="45.92624" lon="1.31056">
        <ele>360.3</ele>
        <time>2024-10-15T14:30:31Z</time>
      </trkpt>
      <trkpt lat="45.92621" lon="1.31082">
        <ele>359.3</ele>
        <time>2024-10-15T14:30:34Z</time>
      </trkpt>
      <trkpt lat="45.92617" lon="1.3111">
        <ele>358.5</ele>
        <time>2024-10-15T14:30:36Z</time>
      </trkpt>
      <trkpt lat="45.92612" lon="1.31138">
        <ele>358</ele>
        <time>2024-10-15T14:30:39Z</time>
      </trkpt>
      <trkpt lat="45.92606" lon="1.31161">
        <ele>357.7</ele>
        <time>2024-10-15T14:30:42Z</time>
      </trkpt>
      <trkpt lat="45.92592" lon="1.31176">
        <ele>357.4</ele>
        <time>2024-10-15T14:30:45Z</time>
      </trkpt>
      <trkpt lat="45.92579" lon="1.31195">
        <ele>357.2</ele>
        <time>2024-10-15T14:30:48Z</time>
      </trkpt>
      <trkpt lat="45.92565" lon="1.31214">
        <ele>356.9</ele>
        <time>2024-10-15T14:30:51Z</time>
      </trkpt>
      <trkpt lat="45.92549" lon="1.31231">
        <ele>356.9</ele>
        <time>2024-10-15T14:30:54Z</time>
      </trkpt>
      <trkpt lat="45.92537" lon="1.31249">
        <ele>357</ele>
        <time>2024-10-15T14:30:58Z</time>
      </trkpt>
      <trkpt lat="45.92525" lon="1.31265">
        <ele>357.2</ele>
        <time>2024-10-15T14:31:00Z</time>
      </trkpt>
      <trkpt lat="45.92511" lon="1.31283">
        <ele>357.5</ele>
        <time>2024-10-15T14:31:03Z</time>
      </trkpt>
      <trkpt lat="45.92501" lon="1.31298">
        <ele>358</ele>
        <time>2024-10-15T14:31:07Z</time>
      </trkpt>
      <trkpt lat="45.92492" lon="1.31313">
        <ele>358.8</ele>
        <time>2024-10-15T14:31:10Z</time>
      </trkpt>
      <trkpt lat="45.92481" lon="1.31323">
        <ele>359.6</ele>
        <time>2024-10-15T14:31:13Z</time>
      </trkpt>
      <trkpt lat="45.92472" lon="1.31337">
        <ele>360.5</ele>
        <time>2024-10-15T14:31:16Z</time>
      </trkpt>
      <trkpt lat="45.92465" lon="1.31351">
        <ele>361.4</ele>
        <time>2024-10-15T14:31:19Z</time>
      </trkpt>
      <trkpt lat="45.92455" lon="1.3136">
        <ele>362.3</ele>
        <time>2024-10-15T14:31:22Z</time>
      </trkpt>
      <trkpt lat="45.92451" lon="1.31367">
        <ele>362.6</ele>
        <time>2024-10-15T14:31:25Z</time>
      </trkpt>
      <trkpt lat="45.92447" lon="1.31368">
        <ele>362.7</ele>
        <time>2024-10-15T14:31:28Z</time>
      </trkpt>
      <trkpt lat="45.92448" lon="1.31367">
        <ele>362.7</ele>
        <time>2024-10-15T14:31:31Z</time>
      </trkpt>
      <trkpt lat="45.92448" lon="1.31367">
        <ele>362.7</ele>
        <time>2024-10-15T14:31:34Z</time>
      </trkpt>
      <trkpt lat="45.92447" lon="1.31367">
        <ele>362.7</ele>
        <time>2024-10-15T14:31:37Z</time>
      </trkpt>
      <trkpt lat="45.92445" lon="1.31365">
        <ele>362.8</ele>
        <time>2024-10-15T14:31:40Z</time>
      </trkpt>
      <trkpt lat="45.9244" lon="1.31368">
        <ele>362.8</ele>
        <time>2024-10-15T14:31:43Z</time>
      </trkpt>
      <trkpt lat="45.92434" lon="1.31373">
        <ele>362.7</ele>
        <time>2024-10-15T14:31:46Z</time>
      </trkpt>
      <trkpt lat="45.92424" lon="1.31378">
        <ele>362.4</ele>
        <time>2024-10-15T14:31:49Z</time>
      </trkpt>
      <trkpt lat="45.92415" lon="1.31386">
        <ele>362</ele>
        <time>2024-10-15T14:31:52Z</time>
      </trkpt>
      <trkpt lat="45.92404" lon="1.31392">
        <ele>361.6</ele>
        <time>2024-10-15T14:31:55Z</time>
      </trkpt>
      <trkpt lat="45.92392" lon="1.314">
        <ele>361.3</ele>
        <time>2024-10-15T14:31:58Z</time>
      </trkpt>
      <trkpt lat="45.92381" lon="1.31407">
        <ele>361.2</ele>
        <time>2024-10-15T14:32:01Z</time>
      </trkpt>
      <trkpt lat="45.9237" lon="1.31413">
        <ele>361.1</ele>
        <time>2024-10-15T14:32:04Z</time>
      </trkpt>
      <trkpt lat="45.92361" lon="1.3142">
        <ele>361.1</ele>
        <time>2024-10-15T14:32:07Z</time>
      </trkpt>
      <trkpt lat="45.9235" lon="1.3143">
        <ele>361</ele>
        <time>2024-10-15T14:32:10Z</time>
      </trkpt>
      <trkpt lat="45.92338" lon="1.31436">
        <ele>361</ele>
        <time>2024-10-15T14:32:13Z</time>
      </trkpt>
      <trkpt lat="45.92326" lon="1.3144">
        <ele>361.1</ele>
        <time>2024-10-15T14:32:15Z</time>
      </trkpt>
      <trkpt lat="45.92314" lon="1.31449">
        <ele>361.2</ele>
        <time>2024-10-15T14:32:18Z</time>
      </trkpt>
      <trkpt lat="45.92303" lon="1.31459">
        <ele>361.5</ele>
        <time>2024-10-15T14:32:21Z</time>
      </trkpt>
      <trkpt lat="45.92298" lon="1.31472">
        <ele>361.6</ele>
        <time>2024-10-15T14:32:24Z</time>
      </trkpt>
      <trkpt lat="45.92297" lon="1.31487">
        <ele>361.7</ele>
        <time>2024-10-15T14:32:27Z</time>
      </trkpt>
      <trkpt lat="45.92297" lon="1.31503">
        <ele>361.7</ele>
        <time>2024-10-15T14:32:30Z</time>
      </trkpt>
      <trkpt lat="45.92297" lon="1.31523">
        <ele>361.7</ele>
        <time>2024-10-15T14:32:33Z</time>
      </trkpt>
      <trkpt lat="45.92297" lon="1.31541">
        <ele>361.6</ele>
        <time>2024-10-15T14:32:36Z</time>
      </trkpt>
      <trkpt lat="45.92297" lon="1.31559">
        <ele>361.6</ele>
        <time>2024-10-15T14:32:40Z</time>
      </trkpt>
      <trkpt lat="45.92297" lon="1.31574">
        <ele>361.7</ele>
        <time>2024-10-15T14:32:42Z</time>
      </trkpt>
      <trkpt lat="45.92298" lon="1.31582">
        <ele>361.7</ele>
        <time>2024-10-15T14:32:45Z</time>
      </trkpt>
      <trkpt lat="45.92297" lon="1.31588">
        <ele>361.7</ele>
        <time>2024-10-15T14:32:49Z</time>
      </trkpt>
      <trkpt lat="45.92296" lon="1.3159">
        <ele>361.7</ele>
        <time>2024-10-15T14:32:52Z</time>
      </trkpt>
      <trkpt lat="45.92296" lon="1.3159">
        <ele>361.7</ele>
        <time>2024-10-15T14:32:55Z</time>
      </trkpt>
      <trkpt lat="45.92296" lon="1.31591">
        <ele>361.7</ele>
        <time>2024-10-15T14:32:58Z</time>
      </trkpt>
      <trkpt lat="45.92296" lon="1.31589">
        <ele>361.7</ele>
        <time>2024-10-15T14:33:01Z</time>
      </trkpt>
      <trkpt lat="45.92297" lon="1.31587">
        <ele>361.7</ele>
        <time>2024-10-15T14:33:04Z</time>
      </trkpt>
      <trkpt lat="45.92297" lon="1.31588">
        <ele>361.7</ele>
        <time>2024-10-15T14:33:07Z</time>
      </trkpt>
      <trkpt lat="45.92296" lon="1.3159">
        <ele>361.8</ele>
        <time>2024-10-15T14:33:10Z</time>
      </trkpt>
      <trkpt lat="45.92293" lon="1.31591">
        <ele>361.8</ele>
        <time>2024-10-15T14:33:13Z</time>
      </trkpt>
      <trkpt lat="45.92283" lon="1.31592">
        <ele>361.9</ele>
        <time>2024-10-15T14:33:16Z</time>
      </trkpt>
      <trkpt lat="45.92272" lon="1.31593">
        <ele>361.9</ele>
        <time>2024-10-15T14:33:19Z</time>
      </trkpt>
      <trkpt lat="45.92265" lon="1.31593">
        <ele>361.9</ele>
        <time>2024-10-15T14:33:22Z</time>
      </trkpt>
      <trkpt lat="45.92255" lon="1.31594">
        <ele>361.8</ele>
        <time>2024-10-15T14:33:25Z</time>
      </trkpt>
      <trkpt lat="45.92244" lon="1.31595">
        <ele>361.8</ele>
        <time>2024-10-15T14:33:28Z</time>
      </trkpt>
      <trkpt lat="45.92236" lon="1.31594">
        <ele>361.8</ele>
        <time>2024-10-15T14:33:31Z</time>
      </trkpt>
      <trkpt lat="45.92234" lon="1.31594">
        <ele>361.8</ele>
        <time>2024-10-15T14:33:34Z</time>
      </trkpt>
      <trkpt lat="45.92233" lon="1.31587">
        <ele>361.9</ele>
        <time>2024-10-15T14:33:37Z</time>
      </trkpt>
      <trkpt lat="45.92231" lon="1.31574">
        <ele>362</ele>
        <time>2024-10-15T14:33:40Z</time>
      </trkpt>
      <trkpt lat="45.92231" lon="1.31561">
        <ele>362.2</ele>
        <time>2024-10-15T14:33:43Z</time>
      </trkpt>
      <trkpt lat="45.92229" lon="1.31548">
        <ele>362.4</ele>
        <time>2024-10-15T14:33:46Z</time>
      </trkpt>
      <trkpt lat="45.92228" lon="1.31535">
        <ele>362.5</ele>
        <time>2024-10-15T14:33:48Z</time>
      </trkpt>
      <trkpt lat="45.92227" lon="1.31521">
        <ele>362.4</ele>
        <time>2024-10-15T14:33:52Z</time>
      </trkpt>
      <trkpt lat="45.92225" lon="1.31507">
        <ele>362.3</ele>
        <time>2024-10-15T14:33:55Z</time>
      </trkpt>
      <trkpt lat="45.92223" lon="1.31492">
        <ele>362.1</ele>
        <time>2024-10-15T14:33:57Z</time>
      </trkpt>
      <trkpt lat="45.92222" lon="1.31473">
        <ele>361.8</ele>
        <time>2024-10-15T14:34:00Z</time>
      </trkpt>
      <trkpt lat="45.9222" lon="1.31454">
        <ele>361.5</ele>
        <time>2024-10-15T14:34:03Z</time>
      </trkpt>
      <trkpt lat="45.92218" lon="1.31434">
        <ele>361.4</ele>
        <time>2024-10-15T14:34:06Z</time>
      </trkpt>
      <trkpt lat="45.92215" lon="1.31417">
        <ele>361.3</ele>
        <time>2024-10-15T14:34:10Z</time>
      </trkpt>
      <trkpt lat="45.9221" lon="1.31398">
        <ele>361.3</ele>
        <time>2024-10-15T14:34:12Z</time>
      </trkpt>
      <trkpt lat="45.92206" lon="1.3138">
        <ele>361.4</ele>
        <time>2024-10-15T14:34:16Z</time>
      </trkpt>
      <trkpt lat="45.92201" lon="1.31362">
        <ele>361.5</ele>
        <time>2024-10-15T14:34:19Z</time>
      </trkpt>
      <trkpt lat="45.92194" lon="1.31345">
        <ele>361.7</ele>
        <time>2024-10-15T14:34:22Z</time>
      </trkpt>
      <trkpt lat="45.92186" lon="1.3133">
        <ele>362</ele>
        <time>2024-10-15T14:34:25Z</time>
      </trkpt>
      <trkpt lat="45.92178" lon="1.31317">
        <ele>362.4</ele>
        <time>2024-10-15T14:34:28Z</time>
      </trkpt>
      <trkpt lat="45.92171" lon="1.31303">
        <ele>363</ele>
        <time>2024-10-15T14:34:31Z</time>
      </trkpt>
      <trkpt lat="45.92163" lon="1.31294">
        <ele>363.6</ele>
        <time>2024-10-15T14:34:34Z</time>
      </trkpt>
      <trkpt lat="45.92158" lon="1.31282">
        <ele>364.2</ele>
        <time>2024-10-15T14:34:37Z</time>
      </trkpt>
      <trkpt lat="45.92161" lon="1.31269">
        <ele>364.9</ele>
        <time>2024-10-15T14:34:40Z</time>
      </trkpt>
      <trkpt lat="45.92164" lon="1.31257">
        <ele>365.4</ele>
        <time>2024-10-15T14:34:43Z</time>
      </trkpt>
      <trkpt lat="45.92165" lon="1.31244">
        <ele>366</ele>
        <time>2024-10-15T14:34:46Z</time>
      </trkpt>
      <trkpt lat="45.92166" lon="1.31231">
        <ele>366.5</ele>
        <time>2024-10-15T14:34:49Z</time>
      </trkpt>
      <trkpt lat="45.92168" lon="1.31217">
        <ele>366.8</ele>
        <time>2024-10-15T14:34:52Z</time>
      </trkpt>
      <trkpt lat="45.92169" lon="1.31203">
        <ele>367.1</ele>
        <time>2024-10-15T14:34:55Z</time>
      </trkpt>
      <trkpt lat="45.92172" lon="1.31188">
        <ele>367.3</ele>
        <time>2024-10-15T14:34:58Z</time>
      </trkpt>
      <trkpt lat="45.92175" lon="1.31173">
        <ele>367.6</ele>
        <time>2024-10-15T14:35:01Z</time>
      </trkpt>
      <trkpt lat="45.92177" lon="1.31159">
        <ele>367.8</ele>
        <time>2024-10-15T14:35:04Z</time>
      </trkpt>
      <trkpt lat="45.9218" lon="1.31144">
        <ele>368.1</ele>
        <time>2024-10-15T14:35:07Z</time>
      </trkpt>
      <trkpt lat="45.92182" lon="1.3113">
        <ele>368.4</ele>
        <time>2024-10-15T14:35:10Z</time>
      </trkpt>
      <trkpt lat="45.92183" lon="1.31115">
        <ele>368.6</ele>
        <time>2024-10-15T14:35:13Z</time>
      </trkpt>
      <trkpt lat="45.92183" lon="1.311">
        <ele>369</ele>
        <time>2024-10-15T14:35:16Z</time>
      </trkpt>
      <trkpt lat="45.92181" lon="1.31084">
        <ele>369.4</ele>
        <time>2024-10-15T14:35:19Z</time>
      </trkpt>
      <trkpt lat="45.92177" lon="1.31071">
        <ele>369.8</ele>
        <time>2024-10-15T14:35:22Z</time>
      </trkpt>
      <trkpt lat="45.92174" lon="1.31059">
        <ele>370.4</ele>
        <time>2024-10-15T14:35:24Z</time>
      </trkpt>
      <trkpt lat="45.9217" lon="1.3105">
        <ele>370.9</ele>
        <time>2024-10-15T14:35:27Z</time>
      </trkpt>
      <trkpt lat="45.92168" lon="1.3104">
        <ele>371.6</ele>
        <time>2024-10-15T14:35:30Z</time>
      </trkpt>
      <trkpt lat="45.92164" lon="1.3103">
        <ele>372.2</ele>
        <time>2024-10-15T14:35:34Z</time>
      </trkpt>
      <trkpt lat="45.92162" lon="1.31019">
        <ele>373</ele>
        <time>2024-10-15T14:35:36Z</time>
      </trkpt>
      <trkpt lat="45.92159" lon="1.31009">
        <ele>373.7</ele>
        <time>2024-10-15T14:35:39Z</time>
      </trkpt>
      <trkpt lat="45.92155" lon="1.30999">
        <ele>374.5</ele>
        <time>2024-10-15T14:35:42Z</time>
      </trkpt>
      <trkpt lat="45.92152" lon="1.30989">
        <ele>375.2</ele>
        <time>2024-10-15T14:35:45Z</time>
      </trkpt>
      <trkpt lat="45.92148" lon="1.30979">
        <ele>376</ele>
        <time>2024-10-15T14:35:48Z</time>
      </trkpt>
      <trkpt lat="45.92145" lon="1.30968">
        <ele>376.6</ele>
        <time>2024-10-15T14:35:51Z</time>
      </trkpt>
      <trkpt lat="45.9214" lon="1.30957">
        <ele>377</ele>
        <time>2024-10-15T14:35:54Z</time>
      </trkpt>
      <trkpt lat="45.92136" lon="1.30944">
        <ele>377.1</ele>
        <time>2024-10-15T14:35:58Z</time>
      </trkpt>
      <trkpt lat="45.92132" lon="1.30934">
        <ele>377.1</ele>
        <time>2024-10-15T14:36:01Z</time>
      </trkpt>
      <trkpt lat="45.92129" lon="1.30927">
        <ele>377.1</ele>
        <time>2024-10-15T14:36:04Z</time>
      </trkpt>
      <trkpt lat="45.92127" lon="1.30923">
        <ele>377</ele>
        <time>2024-10-15T14:36:07Z</time>
      </trkpt>
      <trkpt lat="45.92127" lon="1.30924">
        <ele>377</ele>
        <time>2024-10-15T14:36:10Z</time>
      </trkpt>
      <trkpt lat="45.92127" lon="1.30924">
        <ele>377</ele>
        <time>2024-10-15T14:36:13Z</time>
      </trkpt>
      <trkpt lat="45.92127" lon="1.30924">
        <ele>377</ele>
        <time>2024-10-15T14:36:16Z</time>
      </trkpt>
      <trkpt lat="45.92127" lon="1.30925">
        <ele>377</ele>
        <time>2024-10-15T14:36:19Z</time>
      </trkpt>
      <trkpt lat="45.92127" lon="1.30925">
        <ele>377</ele>
        <time>2024-10-15T14:36:22Z</time>
      </trkpt>
      <trkpt lat="45.92127" lon="1.30925">
        <ele>377</ele>
        <time>2024-10-15T14:36:25Z</time>
      </trkpt>
      <trkpt lat="45.92126" lon="1.30926">
        <ele>377</ele>
        <time>2024-10-15T14:36:28Z</time>
      </trkpt>
      <trkpt lat="45.92126" lon="1.30926">
        <ele>377</ele>
        <time>2024-10-15T14:36:31Z</time>
      </trkpt>
      <trkpt lat="45.92126" lon="1.30926">
        <ele>377</ele>
        <time>2024-10-15T14:36:34Z</time>
      </trkpt>
      <trkpt lat="45.92126" lon="1.30926">
        <ele>377</ele>
        <time>2024-10-15T14:36:37Z</time>
      </trkpt>
      <trkpt lat="45.92126" lon="1.30925">
        <ele>377</ele>
        <time>2024-10-15T14:36:40Z</time>
      </trkpt>
      <trkpt lat="45.92126" lon="1.30925">
        <ele>376.9</ele>
        <time>2024-10-15T14:36:43Z</time>
      </trkpt>
      <trkpt lat="45.92123" lon="1.30918">
        <ele>376.8</ele>
        <time>2024-10-15T14:36:46Z</time>
      </trkpt>
      <trkpt lat="45.92118" lon="1.30906">
        <ele>376.3</ele>
        <time>2024-10-15T14:36:49Z</time>
      </trkpt>
      <trkpt lat="45.92111" lon="1.3089">
        <ele>375.6</ele>
        <time>2024-10-15T14:36:52Z</time>
      </trkpt>
      <trkpt lat="45.92104" lon="1.30873">
        <ele>374.5</ele>
        <time>2024-10-15T14:36:55Z</time>
      </trkpt>
      <trkpt lat="45.92097" lon="1.30857">
        <ele>373.3</ele>
        <time>2024-10-15T14:36:58Z</time>
      </trkpt>
      <trkpt lat="45.92091" lon="1.30843">
        <ele>372.3</ele>
        <time>2024-10-15T14:37:01Z</time>
      </trkpt>
      <trkpt lat="45.92089" lon="1.3083">
        <ele>371.5</ele>
        <time>2024-10-15T14:37:04Z</time>
      </trkpt>
      <trkpt lat="45.92094" lon="1.30818">
        <ele>370.6</ele>
        <time>2024-10-15T14:37:06Z</time>
      </trkpt>
      <trkpt lat="45.92104" lon="1.30812">
        <ele>369.9</ele>
        <time>2024-10-15T14:37:09Z</time>
      </trkpt>
      <trkpt lat="45.92115" lon="1.30807">
        <ele>369.1</ele>
        <time>2024-10-15T14:37:12Z</time>
      </trkpt>
      <trkpt lat="45.92127" lon="1.30802">
        <ele>368.5</ele>
        <time>2024-10-15T14:37:15Z</time>
      </trkpt>
      <trkpt lat="45.92137" lon="1.30798">
        <ele>368.1</ele>
        <time>2024-10-15T14:37:18Z</time>
      </trkpt>
      <trkpt lat="45.92145" lon="1.30792">
        <ele>367.9</ele>
        <time>2024-10-15T14:37:21Z</time>
      </trkpt>
      <trkpt lat="45.9215" lon="1.30783">
        <ele>367.7</ele>
        <time>2024-10-15T14:37:24Z</time>
      </trkpt>
      <trkpt lat="45.92149" lon="1.3077">
        <ele>367.4</ele>
        <time>2024-10-15T14:37:27Z</time>
      </trkpt>
      <trkpt lat="45.92145" lon="1.30756">
        <ele>366.9</ele>
        <time>2024-10-15T14:37:30Z</time>
      </trkpt>
      <trkpt lat="45.92139" lon="1.30742">
        <ele>366.2</ele>
        <time>2024-10-15T14:37:34Z</time>
      </trkpt>
      <trkpt lat="45.92133" lon="1.3073">
        <ele>365.5</ele>
        <time>2024-10-15T14:37:37Z</time>
      </trkpt>
      <trkpt lat="45.92128" lon="1.30717">
        <ele>364.7</ele>
        <time>2024-10-15T14:37:40Z</time>
      </trkpt>
      <trkpt lat="45.92123" lon="1.30705">
        <ele>363.8</ele>
        <time>2024-10-15T14:37:43Z</time>
      </trkpt>
      <trkpt lat="45.92116" lon="1.30698">
        <ele>362.9</ele>
        <time>2024-10-15T14:37:46Z</time>
      </trkpt>
      <trkpt lat="45.92106" lon="1.30698">
        <ele>361.9</ele>
        <time>2024-10-15T14:37:49Z</time>
      </trkpt>
      <trkpt lat="45.92097" lon="1.30701">
        <ele>360.9</ele>
        <time>2024-10-15T14:37:52Z</time>
      </trkpt>
      <trkpt lat="45.9209" lon="1.30705">
        <ele>360</ele>
        <time>2024-10-15T14:37:55Z</time>
      </trkpt>
      <trkpt lat="45.92079" lon="1.3071">
        <ele>358.8</ele>
        <time>2024-10-15T14:37:58Z</time>
      </trkpt>
      <trkpt lat="45.92066" lon="1.30719">
        <ele>357.9</ele>
        <time>2024-10-15T14:38:01Z</time>
      </trkpt>
      <trkpt lat="45.92053" lon="1.30729">
        <ele>357.7</ele>
        <time>2024-10-15T14:38:04Z</time>
      </trkpt>
      <trkpt lat="45.92039" lon="1.30738">
        <ele>357.9</ele>
        <time>2024-10-15T14:38:07Z</time>
      </trkpt>
      <trkpt lat="45.92024" lon="1.30744">
        <ele>358.1</ele>
        <time>2024-10-15T14:38:10Z</time>
      </trkpt>
      <trkpt lat="45.9201" lon="1.30751">
        <ele>358.3</ele>
        <time>2024-10-15T14:38:13Z</time>
      </trkpt>
      <trkpt lat="45.91999" lon="1.30757">
        <ele>358.6</ele>
        <time>2024-10-15T14:38:16Z</time>
      </trkpt>
      <trkpt lat="45.91989" lon="1.30768">
        <ele>359.1</ele>
        <time>2024-10-15T14:38:19Z</time>
      </trkpt>
      <trkpt lat="45.91986" lon="1.3078">
        <ele>359.8</ele>
        <time>2024-10-15T14:38:22Z</time>
      </trkpt>
      <trkpt lat="45.91985" lon="1.30793">
        <ele>360.4</ele>
        <time>2024-10-15T14:38:25Z</time>
      </trkpt>
      <trkpt lat="45.91981" lon="1.30806">
        <ele>360.8</ele>
        <time>2024-10-15T14:38:28Z</time>
      </trkpt>
      <trkpt lat="45.9197" lon="1.30814">
        <ele>360.6</ele>
        <time>2024-10-15T14:38:31Z</time>
      </trkpt>
      <trkpt lat="45.91956" lon="1.3082">
        <ele>359.8</ele>
        <time>2024-10-15T14:38:33Z</time>
      </trkpt>
      <trkpt lat="45.91942" lon="1.30828">
        <ele>359</ele>
        <time>2024-10-15T14:38:37Z</time>
      </trkpt>
      <trkpt lat="45.91929" lon="1.30835">
        <ele>358.4</ele>
        <time>2024-10-15T14:38:39Z</time>
      </trkpt>
      <trkpt lat="45.91917" lon="1.30843">
        <ele>357.9</ele>
        <time>2024-10-15T14:38:42Z</time>
      </trkpt>
      <trkpt lat="45.91904" lon="1.3085">
        <ele>357.7</ele>
        <time>2024-10-15T14:38:45Z</time>
      </trkpt>
      <trkpt lat="45.91893" lon="1.30856">
        <ele>357.8</ele>
        <time>2024-10-15T14:38:48Z</time>
      </trkpt>
      <trkpt lat="45.91883" lon="1.30863">
        <ele>358.2</ele>
        <time>2024-10-15T14:38:51Z</time>
      </trkpt>
      <trkpt lat="45.91874" lon="1.30868">
        <ele>358.8</ele>
        <time>2024-10-15T14:38:54Z</time>
      </trkpt>
      <trkpt lat="45.91866" lon="1.30872">
        <ele>359.7</ele>
        <time>2024-10-15T14:38:57Z</time>
      </trkpt>
      <trkpt lat="45.91856" lon="1.30878">
        <ele>360.7</ele>
        <time>2024-10-15T14:39:00Z</time>
      </trkpt>
      <trkpt lat="45.91848" lon="1.30882">
        <ele>361.4</ele>
        <time>2024-10-15T14:39:04Z</time>
      </trkpt>
      <trkpt lat="45.91841" lon="1.30882">
        <ele>361.9</ele>
        <time>2024-10-15T14:39:07Z</time>
      </trkpt>
      <trkpt lat="45.91835" lon="1.30882">
        <ele>362.3</ele>
        <time>2024-10-15T14:39:10Z</time>
      </trkpt>
      <trkpt lat="45.91829" lon="1.30886">
        <ele>362.7</ele>
        <time>2024-10-15T14:39:13Z</time>
      </trkpt>
      <trkpt lat="45.91827" lon="1.30894">
        <ele>362.9</ele>
        <time>2024-10-15T14:39:16Z</time>
      </trkpt>
      <trkpt lat="45.91824" lon="1.30899">
        <ele>363.1</ele>
        <time>2024-10-15T14:39:19Z</time>
      </trkpt>
      <trkpt lat="45.9182" lon="1.30903">
        <ele>363.2</ele>
        <time>2024-10-15T14:39:22Z</time>
      </trkpt>
      <trkpt lat="45.91816" lon="1.30907">
        <ele>363.3</ele>
        <time>2024-10-15T14:39:25Z</time>
      </trkpt>
      <trkpt lat="45.91812" lon="1.30912">
        <ele>363.2</ele>
        <time>2024-10-15T14:39:28Z</time>
      </trkpt>
      <trkpt lat="45.91808" lon="1.30916">
        <ele>363.1</ele>
        <time>2024-10-15T14:39:31Z</time>
      </trkpt>
      <trkpt lat="45.91805" lon="1.3092">
        <ele>363</ele>
        <time>2024-10-15T14:39:34Z</time>
      </trkpt>
      <trkpt lat="45.91806" lon="1.30921">
        <ele>362.9</ele>
        <time>2024-10-15T14:39:37Z</time>
      </trkpt>
      <trkpt lat="45.91805" lon="1.30921">
        <ele>362.9</ele>
        <time>2024-10-15T14:39:40Z</time>
      </trkpt>
      <trkpt lat="45.91802" lon="1.30925">
        <ele>362.7</ele>
        <time>2024-10-15T14:39:43Z</time>
      </trkpt>
      <trkpt lat="45.91798" lon="1.30934">
        <ele>362.2</ele>
        <time>2024-10-15T14:39:46Z</time>
      </trkpt>
      <trkpt lat="45.91796" lon="1.30946">
        <ele>361.8</ele>
        <time>2024-10-15T14:39:49Z</time>
      </trkpt>
      <trkpt lat="45.91799" lon="1.30961">
        <ele>361.4</ele>
        <time>2024-10-15T14:39:52Z</time>
      </trkpt>
      <trkpt lat="45.91803" lon="1.30975">
        <ele>361.2</ele>
        <time>2024-10-15T14:39:55Z</time>
      </trkpt>
      <trkpt lat="45.91806" lon="1.30988">
        <ele>361.2</ele>
        <time>2024-10-15T14:39:58Z</time>
      </trkpt>
      <trkpt lat="45.91808" lon="1.31002">
        <ele>361.2</ele>
        <time>2024-10-15T14:40:01Z</time>
      </trkpt>
      <trkpt lat="45.9181" lon="1.31014">
        <ele>361.4</ele>
        <time>2024-10-15T14:40:04Z</time>
      </trkpt>
      <trkpt lat="45.91812" lon="1.31027">
        <ele>361.6</ele>
        <time>2024-10-15T14:40:07Z</time>
      </trkpt>
      <trkpt lat="45.91815" lon="1.31041">
        <ele>362.1</ele>
        <time>2024-10-15T14:40:10Z</time>
      </trkpt>
      <trkpt lat="45.91818" lon="1.31054">
        <ele>362.6</ele>
        <time>2024-10-15T14:40:12Z</time>
      </trkpt>
      <trkpt lat="45.9182" lon="1.31066">
        <ele>363.2</ele>
        <time>2024-10-15T14:40:15Z</time>
      </trkpt>
      <trkpt lat="45.91821" lon="1.31079">
        <ele>363.7</ele>
        <time>2024-10-15T14:40:18Z</time>
      </trkpt>
      <trkpt lat="45.91822" lon="1.31092">
        <ele>364.2</ele>
        <time>2024-10-15T14:40:21Z</time>
      </trkpt>
      <trkpt lat="45.9182" lon="1.31105">
        <ele>364.6</ele>
        <time>2024-10-15T14:40:24Z</time>
      </trkpt>
      <trkpt lat="45.91819" lon="1.31117">
        <ele>364.9</ele>
        <time>2024-10-15T14:40:27Z</time>
      </trkpt>
      <trkpt lat="45.91818" lon="1.3113">
        <ele>365.3</ele>
        <time>2024-10-15T14:40:30Z</time>
      </trkpt>
      <trkpt lat="45.91818" lon="1.31141">
        <ele>365.6</ele>
        <time>2024-10-15T14:40:33Z</time>
      </trkpt>
      <trkpt lat="45.91819" lon="1.31148">
        <ele>365.8</ele>
        <time>2024-10-15T14:40:36Z</time>
      </trkpt>
      <trkpt lat="45.91821" lon="1.31158">
        <ele>366</ele>
        <time>2024-10-15T14:40:40Z</time>
      </trkpt>
      <trkpt lat="45.91824" lon="1.31169">
        <ele>366.3</ele>
        <time>2024-10-15T14:40:43Z</time>
      </trkpt>
      <trkpt lat="45.91827" lon="1.31181">
        <ele>366.5</ele>
        <time>2024-10-15T14:40:46Z</time>
      </trkpt>
      <trkpt lat="45.9183" lon="1.31193">
        <ele>366.7</ele>
        <time>2024-10-15T14:40:49Z</time>
      </trkpt>
      <trkpt lat="45.91834" lon="1.31206">
        <ele>366.7</ele>
        <time>2024-10-15T14:40:52Z</time>
      </trkpt>
      <trkpt lat="45.91838" lon="1.31218">
        <ele>366.7</ele>
        <time>2024-10-15T14:40:55Z</time>
      </trkpt>
      <trkpt lat="45.9184" lon="1.31228">
        <ele>366.7</ele>
        <time>2024-10-15T14:40:58Z</time>
      </trkpt>
      <trkpt lat="45.91843" lon="1.31236">
        <ele>366.6</ele>
        <time>2024-10-15T14:41:01Z</time>
      </trkpt>
      <trkpt lat="45.91844" lon="1.31244">
        <ele>366.5</ele>
        <time>2024-10-15T14:41:04Z</time>
      </trkpt>
      <trkpt lat="45.9184" lon="1.3125">
        <ele>366.1</ele>
        <time>2024-10-15T14:41:07Z</time>
      </trkpt>
      <trkpt lat="45.91836" lon="1.31252">
        <ele>365.9</ele>
        <time>2024-10-15T14:41:10Z</time>
      </trkpt>
      <trkpt lat="45.91832" lon="1.31256">
        <ele>365.6</ele>
        <time>2024-10-15T14:41:13Z</time>
      </trkpt>
      <trkpt lat="45.91827" lon="1.31261">
        <ele>365.2</ele>
        <time>2024-10-15T14:41:16Z</time>
      </trkpt>
      <trkpt lat="45.91823" lon="1.31262">
        <ele>365</ele>
        <time>2024-10-15T14:41:19Z</time>
      </trkpt>
      <trkpt lat="45.91823" lon="1.3126">
        <ele>364.9</ele>
        <time>2024-10-15T14:41:22Z</time>
      </trkpt>
      <trkpt lat="45.91823" lon="1.3126">
        <ele>364.9</ele>
        <time>2024-10-15T14:41:25Z</time>
      </trkpt>
      <trkpt lat="45.91822" lon="1.3126">
        <ele>364.8</ele>
        <time>2024-10-15T14:41:28Z</time>
      </trkpt>
      <trkpt lat="45.91822" lon="1.3126">
        <ele>364.8</ele>
        <time>2024-10-15T14:41:31Z</time>
      </trkpt>
      <trkpt lat="45.91821" lon="1.31262">
        <ele>364.7</ele>
        <time>2024-10-15T14:41:34Z</time>
      </trkpt>
      <trkpt lat="45.91821" lon="1.31262">
        <ele>364.7</ele>
        <time>2024-10-15T14:41:37Z</time>
      </trkpt>
      <trkpt lat="45.9182" lon="1.31263">
        <ele>364.6</ele>
        <time>2024-10-15T14:41:40Z</time>
      </trkpt>
      <trkpt lat="45.91815" lon="1.31264">
        <ele>364.2</ele>
        <time>2024-10-15T14:41:43Z</time>
      </trkpt>
      <trkpt lat="45.91808" lon="1.31267">
        <ele>363.8</ele>
        <time>2024-10-15T14:41:46Z</time>
      </trkpt>
      <trkpt lat="45.918" lon="1.31275">
        <ele>363.1</ele>
        <time>2024-10-15T14:41:49Z</time>
      </trkpt>
      <trkpt lat="45.91788" lon="1.31284">
        <ele>362.2</ele>
        <time>2024-10-15T14:41:51Z</time>
      </trkpt>
      <trkpt lat="45.91775" lon="1.31295">
        <ele>361.2</ele>
        <time>2024-10-15T14:41:55Z</time>
      </trkpt>
      <trkpt lat="45.91763" lon="1.31304">
        <ele>360.4</ele>
        <time>2024-10-15T14:41:57Z</time>
      </trkpt>
      <trkpt lat="45.91751" lon="1.31308">
        <ele>359.7</ele>
        <time>2024-10-15T14:42:00Z</time>
      </trkpt>
      <trkpt lat="45.9174" lon="1.31323">
        <ele>359</ele>
        <time>2024-10-15T14:42:03Z</time>
      </trkpt>
      <trkpt lat="45.91736" lon="1.31347">
        <ele>358.4</ele>
        <time>2024-10-15T14:42:06Z</time>
      </trkpt>
      <trkpt lat="45.91732" lon="1.31371">
        <ele>357.9</ele>
        <time>2024-10-15T14:42:09Z</time>
      </trkpt>
      <trkpt lat="45.91723" lon="1.31393">
        <ele>357.3</ele>
        <time>2024-10-15T14:42:13Z</time>
      </trkpt>
      <trkpt lat="45.91716" lon="1.31406">
        <ele>356.8</ele>
        <time>2024-10-15T14:42:16Z</time>
      </trkpt>
      <trkpt lat="45.91706" lon="1.31404">
        <ele>356.5</ele>
        <time>2024-10-15T14:42:19Z</time>
      </trkpt>
      <trkpt lat="45.91697" lon="1.31395">
        <ele>356</ele>
        <time>2024-10-15T14:42:22Z</time>
      </trkpt>
      <trkpt lat="45.91687" lon="1.31383">
        <ele>355.6</ele>
        <time>2024-10-15T14:42:25Z</time>
      </trkpt>
      <trkpt lat="45.91673" lon="1.31369">
        <ele>354.9</ele>
        <time>2024-10-15T14:42:28Z</time>
      </trkpt>
      <trkpt lat="45.91664" lon="1.31358">
        <ele>354.4</ele>
        <time>2024-10-15T14:42:31Z</time>
      </trkpt>
      <trkpt lat="45.91651" lon="1.31345">
        <ele>353.8</ele>
        <time>2024-10-15T14:42:34Z</time>
      </trkpt>
      <trkpt lat="45.91639" lon="1.31333">
        <ele>352.7</ele>
        <time>2024-10-15T14:42:37Z</time>
      </trkpt>
      <trkpt lat="45.91619" lon="1.31314">
        <ele>350.3</ele>
        <time>2024-10-15T14:42:40Z</time>
      </trkpt>
      <trkpt lat="45.91601" lon="1.31293">
        <ele>348.2</ele>
        <time>2024-10-15T14:42:43Z</time>
      </trkpt>
      <trkpt lat="45.91582" lon="1.31274">
        <ele>345.9</ele>
        <time>2024-10-15T14:42:46Z</time>
      </trkpt>
      <trkpt lat="45.9156" lon="1.31255">
        <ele>343.6</ele>
        <time>2024-10-15T14:42:49Z</time>
      </trkpt>
      <trkpt lat="45.91541" lon="1.31236">
        <ele>341.4</ele>
        <time>2024-10-15T14:42:52Z</time>
      </trkpt>
      <trkpt lat="45.91527" lon="1.31222">
        <ele>340</ele>
        <time>2024-10-15T14:42:55Z</time>
      </trkpt>
      <trkpt lat="45.91519" lon="1.31212">
        <ele>339.3</ele>
        <time>2024-10-15T14:42:58Z</time>
      </trkpt>
      <trkpt lat="45.91514" lon="1.31206">
        <ele>338.8</ele>
        <time>2024-10-15T14:43:01Z</time>
      </trkpt>
      <trkpt lat="45.91509" lon="1.31199">
        <ele>338.4</ele>
        <time>2024-10-15T14:43:04Z</time>
      </trkpt>
      <trkpt lat="45.915" lon="1.31188">
        <ele>337.9</ele>
        <time>2024-10-15T14:43:07Z</time>
      </trkpt>
      <trkpt lat="45.91491" lon="1.3117">
        <ele>337.6</ele>
        <time>2024-10-15T14:43:10Z</time>
      </trkpt>
      <trkpt lat="45.91481" lon="1.31154">
        <ele>337.2</ele>
        <time>2024-10-15T14:43:13Z</time>
      </trkpt>
      <trkpt lat="45.91469" lon="1.31135">
        <ele>336.1</ele>
        <time>2024-10-15T14:43:16Z</time>
      </trkpt>
      <trkpt lat="45.91455" lon="1.3111">
        <ele>334.7</ele>
        <time>2024-10-15T14:43:19Z</time>
      </trkpt>
      <trkpt lat="45.91444" lon="1.31083">
        <ele>333.7</ele>
        <time>2024-10-15T14:43:21Z</time>
      </trkpt>
      <trkpt lat="45.91434" lon="1.31054">
        <ele>332.7</ele>
        <time>2024-10-15T14:43:25Z</time>
      </trkpt>
      <trkpt lat="45.91423" lon="1.31028">
        <ele>332.2</ele>
        <time>2024-10-15T14:43:27Z</time>
      </trkpt>
      <trkpt lat="45.91409" lon="1.31009">
        <ele>331.7</ele>
        <time>2024-10-15T14:43:30Z</time>
      </trkpt>
      <trkpt lat="45.91396" lon="1.3099">
        <ele>331</ele>
        <time>2024-10-15T14:43:33Z</time>
      </trkpt>
      <trkpt lat="45.9138" lon="1.30974">
        <ele>330</ele>
        <time>2024-10-15T14:43:36Z</time>
      </trkpt>
      <trkpt lat="45.91368" lon="1.30963">
        <ele>329.2</ele>
        <time>2024-10-15T14:43:39Z</time>
      </trkpt>
      <trkpt lat="45.91352" lon="1.30952">
        <ele>328.3</ele>
        <time>2024-10-15T14:43:42Z</time>
      </trkpt>
      <trkpt lat="45.9134" lon="1.30944">
        <ele>327.8</ele>
        <time>2024-10-15T14:43:45Z</time>
      </trkpt>
      <trkpt lat="45.91329" lon="1.30941">
        <ele>328</ele>
        <time>2024-10-15T14:43:48Z</time>
      </trkpt>
      <trkpt lat="45.91326" lon="1.3094">
        <ele>328.1</ele>
        <time>2024-10-15T14:43:52Z</time>
      </trkpt>
      <trkpt lat="45.91326" lon="1.3094">
        <ele>328.1</ele>
        <time>2024-10-15T14:43:55Z</time>
      </trkpt>
      <trkpt lat="45.91325" lon="1.30941">
        <ele>328.1</ele>
        <time>2024-10-15T14:43:58Z</time>
      </trkpt>
      <trkpt lat="45.91323" lon="1.30942">
        <ele>328.2</ele>
        <time>2024-10-15T14:44:01Z</time>
      </trkpt>
      <trkpt lat="45.91322" lon="1.30943">
        <ele>328.3</ele>
        <time>2024-10-15T14:44:04Z</time>
      </trkpt>
      <trkpt lat="45.91321" lon="1.30945">
        <ele>328.4</ele>
        <time>2024-10-15T14:44:07Z</time>
      </trkpt>
      <trkpt lat="45.91321" lon="1.30946">
        <ele>328.4</ele>
        <time>2024-10-15T14:44:10Z</time>
      </trkpt>
      <trkpt lat="45.91315" lon="1.30947">
        <ele>328.7</ele>
        <time>2024-10-15T14:44:13Z</time>
      </trkpt>
      <trkpt lat="45.91306" lon="1.30947">
        <ele>328.8</ele>
        <time>2024-10-15T14:44:16Z</time>
      </trkpt>
      <trkpt lat="45.91302" lon="1.30949">
        <ele>328.7</ele>
        <time>2024-10-15T14:44:19Z</time>
      </trkpt>
      <trkpt lat="45.91295" lon="1.30949">
        <ele>328.6</ele>
        <time>2024-10-15T14:44:22Z</time>
      </trkpt>
      <trkpt lat="45.91289" lon="1.3095">
        <ele>328.4</ele>
        <time>2024-10-15T14:44:25Z</time>
      </trkpt>
      <trkpt lat="45.91283" lon="1.30948">
        <ele>328.2</ele>
        <time>2024-10-15T14:44:28Z</time>
      </trkpt>
      <trkpt lat="45.91275" lon="1.30945">
        <ele>327.6</ele>
        <time>2024-10-15T14:44:31Z</time>
      </trkpt>
      <trkpt lat="45.91269" lon="1.30943">
        <ele>327.2</ele>
        <time>2024-10-15T14:44:34Z</time>
      </trkpt>
      <trkpt lat="45.91261" lon="1.30945">
        <ele>326.5</ele>
        <time>2024-10-15T14:44:37Z</time>
      </trkpt>
      <trkpt lat="45.91258" lon="1.30945">
        <ele>326.2</ele>
        <time>2024-10-15T14:44:40Z</time>
      </trkpt>
      <trkpt lat="45.91254" lon="1.30946">
        <ele>325.8</ele>
        <time>2024-10-15T14:44:43Z</time>
      </trkpt>
      <trkpt lat="45.91249" lon="1.30944">
        <ele>325.5</ele>
        <time>2024-10-15T14:44:46Z</time>
      </trkpt>
      <trkpt lat="45.91243" lon="1.30942">
        <ele>325.2</ele>
        <time>2024-10-15T14:44:49Z</time>
      </trkpt>
      <trkpt lat="45.91236" lon="1.30939">
        <ele>325.2</ele>
        <time>2024-10-15T14:44:52Z</time>
      </trkpt>
      <trkpt lat="45.91229" lon="1.30935">
        <ele>325.4</ele>
        <time>2024-10-15T14:44:55Z</time>
      </trkpt>
      <trkpt lat="45.91226" lon="1.3093">
        <ele>325.5</ele>
        <time>2024-10-15T14:44:57Z</time>
      </trkpt>
      <trkpt lat="45.91223" lon="1.30924">
        <ele>325.8</ele>
        <time>2024-10-15T14:45:00Z</time>
      </trkpt>
      <trkpt lat="45.9122" lon="1.30919">
        <ele>326.2</ele>
        <time>2024-10-15T14:45:03Z</time>
      </trkpt>
      <trkpt lat="45.91218" lon="1.30915">
        <ele>326.6</ele>
        <time>2024-10-15T14:45:06Z</time>
      </trkpt>
      <trkpt lat="45.91214" lon="1.30911">
        <ele>327.1</ele>
        <time>2024-10-15T14:45:09Z</time>
      </trkpt>
      <trkpt lat="45.91209" lon="1.3091">
        <ele>327.4</ele>
        <time>2024-10-15T14:45:12Z</time>
      </trkpt>
      <trkpt lat="45.91206" lon="1.30905">
        <ele>327.9</ele>
        <time>2024-10-15T14:45:15Z</time>
      </trkpt>
      <trkpt lat="45.91199" lon="1.30903">
        <ele>328.5</ele>
        <time>2024-10-15T14:45:18Z</time>
      </trkpt>
      <trkpt lat="45.91192" lon="1.30903">
        <ele>329</ele>
        <time>2024-10-15T14:45:22Z</time>
      </trkpt>
      <trkpt lat="45.91188" lon="1.30902">
        <ele>329.2</ele>
        <time>2024-10-15T14:45:25Z</time>
      </trkpt>
      <trkpt lat="45.91183" lon="1.309">
        <ele>329.4</ele>
        <time>2024-10-15T14:45:28Z</time>
      </trkpt>
      <trkpt lat="45.91178" lon="1.30893">
        <ele>329.6</ele>
        <time>2024-10-15T14:45:31Z</time>
      </trkpt>
      <trkpt lat="45.91175" lon="1.30884">
        <ele>329.6</ele>
        <time>2024-10-15T14:45:34Z</time>
      </trkpt>
      <trkpt lat="45.9117" lon="1.30875">
        <ele>329.4</ele>
        <time>2024-10-15T14:45:37Z</time>
      </trkpt>
      <trkpt lat="45.91164" lon="1.30873">
        <ele>329</ele>
        <time>2024-10-15T14:45:40Z</time>
      </trkpt>
      <trkpt lat="45.91159" lon="1.30868">
        <ele>328.3</ele>
        <time>2024-10-15T14:45:43Z</time>
      </trkpt>
      <trkpt lat="45.91157" lon="1.30866">
        <ele>327.9</ele>
        <time>2024-10-15T14:45:46Z</time>
      </trkpt>
      <trkpt lat="45.91156" lon="1.30865">
        <ele>327.7</ele>
        <time>2024-10-15T14:45:49Z</time>
      </trkpt>
      <trkpt lat="45.91156" lon="1.30865">
        <ele>327.7</ele>
        <time>2024-10-15T14:45:52Z</time>
      </trkpt>
      <trkpt lat="45.91156" lon="1.30866">
        <ele>327.7</ele>
        <time>2024-10-15T14:45:55Z</time>
      </trkpt>
      <trkpt lat="45.91156" lon="1.30864">
        <ele>327.5</ele>
        <time>2024-10-15T14:45:58Z</time>
      </trkpt>
      <trkpt lat="45.91154" lon="1.30862">
        <ele>326.9</ele>
        <time>2024-10-15T14:46:01Z</time>
      </trkpt>
      <trkpt lat="45.91154" lon="1.30862">
        <ele>326.9</ele>
        <time>2024-10-15T14:46:04Z</time>
      </trkpt>
      <trkpt lat="45.91154" lon="1.30862">
        <ele>326.9</ele>
        <time>2024-10-15T14:46:07Z</time>
      </trkpt>
      <trkpt lat="45.91153" lon="1.30861">
        <ele>326.7</ele>
        <time>2024-10-15T14:46:10Z</time>
      </trkpt>
      <trkpt lat="45.91152" lon="1.30854">
        <ele>325.7</ele>
        <time>2024-10-15T14:46:13Z</time>
      </trkpt>
      <trkpt lat="45.91153" lon="1.30845">
        <ele>324.5</ele>
        <time>2024-10-15T14:46:16Z</time>
      </trkpt>
      <trkpt lat="45.91158" lon="1.30836">
        <ele>323.7</ele>
        <time>2024-10-15T14:46:19Z</time>
      </trkpt>
      <trkpt lat="45.91157" lon="1.30826">
        <ele>323.5</ele>
        <time>2024-10-15T14:46:22Z</time>
      </trkpt>
      <trkpt lat="45.91156" lon="1.30818">
        <ele>323.5</ele>
        <time>2024-10-15T14:46:25Z</time>
      </trkpt>
      <trkpt lat="45.91155" lon="1.3081">
        <ele>323.2</ele>
        <time>2024-10-15T14:46:27Z</time>
      </trkpt>
      <trkpt lat="45.91153" lon="1.30804">
        <ele>322.7</ele>
        <time>2024-10-15T14:46:30Z</time>
      </trkpt>
      <trkpt lat="45.91154" lon="1.30794">
        <ele>321.5</ele>
        <time>2024-10-15T14:46:33Z</time>
      </trkpt>
      <trkpt lat="45.91149" lon="1.30782">
        <ele>319.4</ele>
        <time>2024-10-15T14:46:36Z</time>
      </trkpt>
      <trkpt lat="45.91136" lon="1.30775">
        <ele>317</ele>
        <time>2024-10-15T14:46:39Z</time>
      </trkpt>
      <trkpt lat="45.9113" lon="1.30771">
        <ele>316.2</ele>
        <time>2024-10-15T14:46:42Z</time>
      </trkpt>
      <trkpt lat="45.91131" lon="1.3076">
        <ele>316.2</ele>
        <time>2024-10-15T14:46:45Z</time>
      </trkpt>
      <trkpt lat="45.91131" lon="1.30747">
        <ele>316.3</ele>
        <time>2024-10-15T14:46:49Z</time>
      </trkpt>
      <trkpt lat="45.91128" lon="1.30729">
        <ele>316.3</ele>
        <time>2024-10-15T14:46:52Z</time>
      </trkpt>
      <trkpt lat="45.91122" lon="1.30709">
        <ele>316.7</ele>
        <time>2024-10-15T14:46:55Z</time>
      </trkpt>
      <trkpt lat="45.91117" lon="1.30691">
        <ele>316.7</ele>
        <time>2024-10-15T14:46:58Z</time>
      </trkpt>
      <trkpt lat="45.91111" lon="1.30673">
        <ele>316.8</ele>
        <time>2024-10-15T14:47:01Z</time>
      </trkpt>
      <trkpt lat="45.91108" lon="1.30655">
        <ele>317</ele>
        <time>2024-10-15T14:47:04Z</time>
      </trkpt>
      <trkpt lat="45.91103" lon="1.30639">
        <ele>317</ele>
        <time>2024-10-15T14:47:07Z</time>
      </trkpt>
      <trkpt lat="45.91098" lon="1.30625">
        <ele>317.4</ele>
        <time>2024-10-15T14:47:10Z</time>
      </trkpt>
      <trkpt lat="45.91095" lon="1.30612">
        <ele>318</ele>
        <time>2024-10-15T14:47:13Z</time>
      </trkpt>
      <trkpt lat="45.9109" lon="1.30599">
        <ele>318.8</ele>
        <time>2024-10-15T14:47:16Z</time>
      </trkpt>
      <trkpt lat="45.91087" lon="1.30587">
        <ele>319.6</ele>
        <time>2024-10-15T14:47:19Z</time>
      </trkpt>
      <trkpt lat="45.91084" lon="1.30576">
        <ele>320.4</ele>
        <time>2024-10-15T14:47:22Z</time>
      </trkpt>
      <trkpt lat="45.9108" lon="1.30565">
        <ele>321.3</ele>
        <time>2024-10-15T14:47:25Z</time>
      </trkpt>
      <trkpt lat="45.91078" lon="1.30554">
        <ele>322.2</ele>
        <time>2024-10-15T14:47:28Z</time>
      </trkpt>
      <trkpt lat="45.91075" lon="1.30543">
        <ele>323</ele>
        <time>2024-10-15T14:47:31Z</time>
      </trkpt>
      <trkpt lat="45.91072" lon="1.30533">
        <ele>323.8</ele>
        <time>2024-10-15T14:47:34Z</time>
      </trkpt>
      <trkpt lat="45.91069" lon="1.30524">
        <ele>324.5</ele>
        <time>2024-10-15T14:47:37Z</time>
      </trkpt>
      <trkpt lat="45.91066" lon="1.30515">
        <ele>325.2</ele>
        <time>2024-10-15T14:47:40Z</time>
      </trkpt>
      <trkpt lat="45.91063" lon="1.30505">
        <ele>325.9</ele>
        <time>2024-10-15T14:47:43Z</time>
      </trkpt>
      <trkpt lat="45.91061" lon="1.30496">
        <ele>326.7</ele>
        <time>2024-10-15T14:47:46Z</time>
      </trkpt>
      <trkpt lat="45.91059" lon="1.30489">
        <ele>327.5</ele>
        <time>2024-10-15T14:47:49Z</time>
      </trkpt>
      <trkpt lat="45.91058" lon="1.30479">
        <ele>328.3</ele>
        <time>2024-10-15T14:47:51Z</time>
      </trkpt>
      <trkpt lat="45.91057" lon="1.30472">
        <ele>329</ele>
        <time>2024-10-15T14:47:55Z</time>
      </trkpt>
      <trkpt lat="45.91058" lon="1.30463">
        <ele>329.8</ele>
        <time>2024-10-15T14:47:57Z</time>
      </trkpt>
      <trkpt lat="45.91059" lon="1.30454">
        <ele>330.5</ele>
        <time>2024-10-15T14:48:00Z</time>
      </trkpt>
      <trkpt lat="45.91061" lon="1.30446">
        <ele>331.1</ele>
        <time>2024-10-15T14:48:03Z</time>
      </trkpt>
      <trkpt lat="45.91062" lon="1.30437">
        <ele>331.8</ele>
        <time>2024-10-15T14:48:06Z</time>
      </trkpt>
      <trkpt lat="45.91063" lon="1.30429">
        <ele>332.5</ele>
        <time>2024-10-15T14:48:09Z</time>
      </trkpt>
      <trkpt lat="45.91065" lon="1.30419">
        <ele>333.3</ele>
        <time>2024-10-15T14:48:12Z</time>
      </trkpt>
      <trkpt lat="45.91066" lon="1.3041">
        <ele>334</ele>
        <time>2024-10-15T14:48:15Z</time>
      </trkpt>
      <trkpt lat="45.91066" lon="1.304">
        <ele>334.8</ele>
        <time>2024-10-15T14:48:18Z</time>
      </trkpt>
      <trkpt lat="45.91068" lon="1.30393">
        <ele>335.4</ele>
        <time>2024-10-15T14:48:22Z</time>
      </trkpt>
      <trkpt lat="45.9107" lon="1.30384">
        <ele>335.9</ele>
        <time>2024-10-15T14:48:25Z</time>
      </trkpt>
      <trkpt lat="45.91072" lon="1.30377">
        <ele>336.4</ele>
        <time>2024-10-15T14:48:28Z</time>
      </trkpt>
      <trkpt lat="45.91075" lon="1.30368">
        <ele>336.9</ele>
        <time>2024-10-15T14:48:31Z</time>
      </trkpt>
      <trkpt lat="45.91075" lon="1.30365">
        <ele>337.1</ele>
        <time>2024-10-15T14:48:34Z</time>
      </trkpt>
      <trkpt lat="45.91076" lon="1.30364">
        <ele>337.1</ele>
        <time>2024-10-15T14:48:37Z</time>
      </trkpt>
      <trkpt lat="45.91076" lon="1.30365">
        <ele>337.2</ele>
        <time>2024-10-15T14:48:40Z</time>
      </trkpt>
      <trkpt lat="45.91076" lon="1.30365">
        <ele>337.2</ele>
        <time>2024-10-15T14:48:43Z</time>
      </trkpt>
      <trkpt lat="45.91076" lon="1.30365">
        <ele>337.2</ele>
        <time>2024-10-15T14:48:46Z</time>
      </trkpt>
      <trkpt lat="45.91076" lon="1.30365">
        <ele>337.2</ele>
        <time>2024-10-15T14:48:49Z</time>
      </trkpt>
      <trkpt lat="45.91076" lon="1.30365">
        <ele>337.2</ele>
        <time>2024-10-15T14:48:52Z</time>
      </trkpt>
      <trkpt lat="45.91076" lon="1.30364">
        <ele>337.2</ele>
        <time>2024-10-15T14:48:55Z</time>
      </trkpt>
      <trkpt lat="45.91076" lon="1.30364">
        <ele>337.2</ele>
        <time>2024-10-15T14:48:58Z</time>
      </trkpt>
      <trkpt lat="45.91075" lon="1.30364">
        <ele>337.2</ele>
        <time>2024-10-15T14:49:01Z</time>
      </trkpt>
      <trkpt lat="45.91075" lon="1.30364">
        <ele>337.2</ele>
        <time>2024-10-15T14:49:04Z</time>
      </trkpt>
      <trkpt lat="45.91076" lon="1.30355">
        <ele>337.6</ele>
        <time>2024-10-15T14:49:07Z</time>
      </trkpt>
      <trkpt lat="45.91079" lon="1.30343">
        <ele>338</ele>
        <time>2024-10-15T14:49:10Z</time>
      </trkpt>
      <trkpt lat="45.91084" lon="1.30332">
        <ele>338.5</ele>
        <time>2024-10-15T14:49:13Z</time>
      </trkpt>
      <trkpt lat="45.91087" lon="1.30323">
        <ele>338.9</ele>
        <time>2024-10-15T14:49:16Z</time>
      </trkpt>
      <trkpt lat="45.91092" lon="1.30315">
        <ele>339.3</ele>
        <time>2024-10-15T14:49:19Z</time>
      </trkpt>
      <trkpt lat="45.91098" lon="1.30311">
        <ele>339.7</ele>
        <time>2024-10-15T14:49:21Z</time>
      </trkpt>
      <trkpt lat="45.91103" lon="1.30305">
        <ele>340</ele>
        <time>2024-10-15T14:49:24Z</time>
      </trkpt>
      <trkpt lat="45.91109" lon="1.30301">
        <ele>340.4</ele>
        <time>2024-10-15T14:49:27Z</time>
      </trkpt>
      <trkpt lat="45.91116" lon="1.30299">
        <ele>340.8</ele>
        <time>2024-10-15T14:49:30Z</time>
      </trkpt>
      <trkpt lat="45.91123" lon="1.30301">
        <ele>341.2</ele>
        <time>2024-10-15T14:49:33Z</time>
      </trkpt>
      <trkpt lat="45.91129" lon="1.30301">
        <ele>341.6</ele>
        <time>2024-10-15T14:49:36Z</time>
      </trkpt>
      <trkpt lat="45.91135" lon="1.30301">
        <ele>341.9</ele>
        <time>2024-10-15T14:49:39Z</time>
      </trkpt>
      <trkpt lat="45.91142" lon="1.30302">
        <ele>342.2</ele>
        <time>2024-10-15T14:49:42Z</time>
      </trkpt>
      <trkpt lat="45.91149" lon="1.30301">
        <ele>342.3</ele>
        <time>2024-10-15T14:49:45Z</time>
      </trkpt>
      <trkpt lat="45.91155" lon="1.30301">
        <ele>342.6</ele>
        <time>2024-10-15T14:49:48Z</time>
      </trkpt>
      <trkpt lat="45.91163" lon="1.30301">
        <ele>343</ele>
        <time>2024-10-15T14:49:51Z</time>
      </trkpt>
      <trkpt lat="45.91169" lon="1.30302">
        <ele>343.3</ele>
        <time>2024-10-15T14:49:55Z</time>
      </trkpt>
      <trkpt lat="45.91176" lon="1.30302">
        <ele>343.7</ele>
        <time>2024-10-15T14:49:58Z</time>
      </trkpt>
      <trkpt lat="45.91185" lon="1.303">
        <ele>344.1</ele>
        <time>2024-10-15T14:50:01Z</time>
      </trkpt>
      <trkpt lat="45.91193" lon="1.30298">
        <ele>344.4</ele>
        <time>2024-10-15T14:50:04Z</time>
      </trkpt>
      <trkpt lat="45.91201" lon="1.30295">
        <ele>344.8</ele>
        <time>2024-10-15T14:50:07Z</time>
      </trkpt>
      <trkpt lat="45.91209" lon="1.30292">
        <ele>345.1</ele>
        <time>2024-10-15T14:50:10Z</time>
      </trkpt>
      <trkpt lat="45.91217" lon="1.30288">
        <ele>345.4</ele>
        <time>2024-10-15T14:50:13Z</time>
      </trkpt>
      <trkpt lat="45.91225" lon="1.30283">
        <ele>345.6</ele>
        <time>2024-10-15T14:50:16Z</time>
      </trkpt>
      <trkpt lat="45.91232" lon="1.30277">
        <ele>345.9</ele>
        <time>2024-10-15T14:50:19Z</time>
      </trkpt>
      <trkpt lat="45.91239" lon="1.3027">
        <ele>346.1</ele>
        <time>2024-10-15T14:50:22Z</time>
      </trkpt>
      <trkpt lat="45.91247" lon="1.30262">
        <ele>346.3</ele>
        <time>2024-10-15T14:50:25Z</time>
      </trkpt>
      <trkpt lat="45.91252" lon="1.30253">
        <ele>346.5</ele>
        <time>2024-10-15T14:50:28Z</time>
      </trkpt>
      <trkpt lat="45.91257" lon="1.30247">
        <ele>346.7</ele>
        <time>2024-10-15T14:50:31Z</time>
      </trkpt>
      <trkpt lat="45.91262" lon="1.30247">
        <ele>346.9</ele>
        <time>2024-10-15T14:50:34Z</time>
      </trkpt>
      <trkpt lat="45.91269" lon="1.3025">
        <ele>347.1</ele>
        <time>2024-10-15T14:50:37Z</time>
      </trkpt>
      <trkpt lat="45.91277" lon="1.30254">
        <ele>347.2</ele>
        <time>2024-10-15T14:50:40Z</time>
      </trkpt>
      <trkpt lat="45.91286" lon="1.30258">
        <ele>347.3</ele>
        <time>2024-10-15T14:50:43Z</time>
      </trkpt>
      <trkpt lat="45.91297" lon="1.30261">
        <ele>347.5</ele>
        <time>2024-10-15T14:50:46Z</time>
      </trkpt>
      <trkpt lat="45.9131" lon="1.30271">
        <ele>347.7</ele>
        <time>2024-10-15T14:50:49Z</time>
      </trkpt>
      <trkpt lat="45.91321" lon="1.30282">
        <ele>347.7</ele>
        <time>2024-10-15T14:50:51Z</time>
      </trkpt>
      <trkpt lat="45.91334" lon="1.30287">
        <ele>347.8</ele>
        <time>2024-10-15T14:50:55Z</time>
      </trkpt>
      <trkpt lat="45.91345" lon="1.3029">
        <ele>347.9</ele>
        <time>2024-10-15T14:50:57Z</time>
      </trkpt>
      <trkpt lat="45.91356" lon="1.30291">
        <ele>348.1</ele>
        <time>2024-10-15T14:51:00Z</time>
      </trkpt>
      <trkpt lat="45.91365" lon="1.30293">
        <ele>348.2</ele>
        <time>2024-10-15T14:51:03Z</time>
      </trkpt>
      <trkpt lat="45.91372" lon="1.30293">
        <ele>348.3</ele>
        <time>2024-10-15T14:51:06Z</time>
      </trkpt>
      <trkpt lat="45.91378" lon="1.30294">
        <ele>348.4</ele>
        <time>2024-10-15T14:51:09Z</time>
      </trkpt>
      <trkpt lat="45.91378" lon="1.30297">
        <ele>348.4</ele>
        <time>2024-10-15T14:51:12Z</time>
      </trkpt>
      <trkpt lat="45.91378" lon="1.30298">
        <ele>348.5</ele>
        <time>2024-10-15T14:51:15Z</time>
      </trkpt>
      <trkpt lat="45.91376" lon="1.30305">
        <ele>348.6</ele>
        <time>2024-10-15T14:51:18Z</time>
      </trkpt>
      <trkpt lat="45.91376" lon="1.30315">
        <ele>348.7</ele>
        <time>2024-10-15T14:51:21Z</time>
      </trkpt>
      <trkpt lat="45.91379" lon="1.30327">
        <ele>348.7</ele>
        <time>2024-10-15T14:51:24Z</time>
      </trkpt>
      <trkpt lat="45.9138" lon="1.30339">
        <ele>348.7</ele>
        <time>2024-10-15T14:51:27Z</time>
      </trkpt>
      <trkpt lat="45.91383" lon="1.30354">
        <ele>348.7</ele>
        <time>2024-10-15T14:51:31Z</time>
      </trkpt>
      <trkpt lat="45.91387" lon="1.3037">
        <ele>348.5</ele>
        <time>2024-10-15T14:51:34Z</time>
      </trkpt>
      <trkpt lat="45.91386" lon="1.30385">
        <ele>348.2</ele>
        <time>2024-10-15T14:51:37Z</time>
      </trkpt>
      <trkpt lat="45.91384" lon="1.30402">
        <ele>347.4</ele>
        <time>2024-10-15T14:51:40Z</time>
      </trkpt>
      <trkpt lat="45.91383" lon="1.30421">
        <ele>346.3</ele>
        <time>2024-10-15T14:51:43Z</time>
      </trkpt>
      <trkpt lat="45.91379" lon="1.30437">
        <ele>345.1</ele>
        <time>2024-10-15T14:51:46Z</time>
      </trkpt>
      <trkpt lat="45.91367" lon="1.30451">
        <ele>343.8</ele>
        <time>2024-10-15T14:51:49Z</time>
      </trkpt>
      <trkpt lat="45.9136" lon="1.30469">
        <ele>343.2</ele>
        <time>2024-10-15T14:51:52Z</time>
      </trkpt>
      <trkpt lat="45.91358" lon="1.30487">
        <ele>343</ele>
        <time>2024-10-15T14:51:55Z</time>
      </trkpt>
      <trkpt lat="45.91348" lon="1.30499">
        <ele>342.1</ele>
        <time>2024-10-15T14:51:58Z</time>
      </trkpt>
      <trkpt lat="45.91338" lon="1.30509">
        <ele>341.2</ele>
        <time>2024-10-15T14:52:01Z</time>
      </trkpt>
      <trkpt lat="45.9133" lon="1.30527">
        <ele>340.5</ele>
        <time>2024-10-15T14:52:04Z</time>
      </trkpt>
      <trkpt lat="45.9133" lon="1.3054">
        <ele>340.6</ele>
        <time>2024-10-15T14:52:07Z</time>
      </trkpt>
      <trkpt lat="45.91332" lon="1.30553">
        <ele>341.1</ele>
        <time>2024-10-15T14:52:10Z</time>
      </trkpt>
      <trkpt lat="45.91329" lon="1.30563">
        <ele>341.6</ele>
        <time>2024-10-15T14:52:13Z</time>
      </trkpt>
      <trkpt lat="45.91324" lon="1.30578">
        <ele>342</ele>
        <time>2024-10-15T14:52:16Z</time>
      </trkpt>
      <trkpt lat="45.91323" lon="1.30596">
        <ele>342.2</ele>
        <time>2024-10-15T14:52:19Z</time>
      </trkpt>
      <trkpt lat="45.91329" lon="1.30613">
        <ele>342.1</ele>
        <time>2024-10-15T14:52:22Z</time>
      </trkpt>
      <trkpt lat="45.91335" lon="1.3063">
        <ele>341.9</ele>
        <time>2024-10-15T14:52:25Z</time>
      </trkpt>
      <trkpt lat="45.91344" lon="1.30638">
        <ele>341.8</ele>
        <time>2024-10-15T14:52:28Z</time>
      </trkpt>
      <trkpt lat="45.91355" lon="1.30644">
        <ele>341.7</ele>
        <time>2024-10-15T14:52:30Z</time>
      </trkpt>
      <trkpt lat="45.91368" lon="1.30647">
        <ele>341.8</ele>
        <time>2024-10-15T14:52:33Z</time>
      </trkpt>
      <trkpt lat="45.91378" lon="1.30652">
        <ele>341.8</ele>
        <time>2024-10-15T14:52:36Z</time>
      </trkpt>
      <trkpt lat="45.91391" lon="1.30651">
        <ele>341.7</ele>
        <time>2024-10-15T14:52:39Z</time>
      </trkpt>
      <trkpt lat="45.91408" lon="1.3065">
        <ele>341.6</ele>
        <time>2024-10-15T14:52:42Z</time>
      </trkpt>
      <trkpt lat="45.91422" lon="1.30649">
        <ele>341.4</ele>
        <time>2024-10-15T14:52:45Z</time>
      </trkpt>
      <trkpt lat="45.91431" lon="1.30643">
        <ele>341.1</ele>
        <time>2024-10-15T14:52:48Z</time>
      </trkpt>
      <trkpt lat="45.91453" lon="1.30636">
        <ele>339.9</ele>
        <time>2024-10-15T14:52:51Z</time>
      </trkpt>
      <trkpt lat="45.91472" lon="1.30626">
        <ele>339.3</ele>
        <time>2024-10-15T14:52:54Z</time>
      </trkpt>
      <trkpt lat="45.91492" lon="1.30619">
        <ele>340</ele>
        <time>2024-10-15T14:52:57Z</time>
      </trkpt>
      <trkpt lat="45.91507" lon="1.30611">
        <ele>340.7</ele>
        <time>2024-10-15T14:53:01Z</time>
      </trkpt>
      <trkpt lat="45.91522" lon="1.30601">
        <ele>341.4</ele>
        <time>2024-10-15T14:53:04Z</time>
      </trkpt>
      <trkpt lat="45.91535" lon="1.30594">
        <ele>342</ele>
        <time>2024-10-15T14:53:07Z</time>
      </trkpt>
      <trkpt lat="45.91552" lon="1.30587">
        <ele>342.8</ele>
        <time>2024-10-15T14:53:10Z</time>
      </trkpt>
      <trkpt lat="45.91569" lon="1.30586">
        <ele>343.4</ele>
        <time>2024-10-15T14:53:13Z</time>
      </trkpt>
      <trkpt lat="45.91584" lon="1.30584">
        <ele>343.6</ele>
        <time>2024-10-15T14:53:16Z</time>
      </trkpt>
      <trkpt lat="45.91596" lon="1.3058">
        <ele>343.7</ele>
        <time>2024-10-15T14:53:19Z</time>
      </trkpt>
      <trkpt lat="45.91611" lon="1.30574">
        <ele>343.6</ele>
        <time>2024-10-15T14:53:22Z</time>
      </trkpt>
      <trkpt lat="45.91628" lon="1.30572">
        <ele>342.9</ele>
        <time>2024-10-15T14:53:25Z</time>
      </trkpt>
      <trkpt lat="45.91651" lon="1.30567">
        <ele>341.1</ele>
        <time>2024-10-15T14:53:28Z</time>
      </trkpt>
      <trkpt lat="45.91675" lon="1.30565">
        <ele>340.3</ele>
        <time>2024-10-15T14:53:31Z</time>
      </trkpt>
      <trkpt lat="45.91695" lon="1.30569">
        <ele>339.5</ele>
        <time>2024-10-15T14:53:34Z</time>
      </trkpt>
      <trkpt lat="45.91711" lon="1.30561">
        <ele>338.8</ele>
        <time>2024-10-15T14:53:37Z</time>
      </trkpt>
      <trkpt lat="45.91722" lon="1.30544">
        <ele>338.6</ele>
        <time>2024-10-15T14:53:40Z</time>
      </trkpt>
      <trkpt lat="45.91735" lon="1.30524">
        <ele>338.7</ele>
        <time>2024-10-15T14:53:43Z</time>
      </trkpt>
      <trkpt lat="45.91748" lon="1.30508">
        <ele>338.8</ele>
        <time>2024-10-15T14:53:46Z</time>
      </trkpt>
      <trkpt lat="45.91766" lon="1.30506">
        <ele>339.4</ele>
        <time>2024-10-15T14:53:49Z</time>
      </trkpt>
      <trkpt lat="45.91784" lon="1.30502">
        <ele>341.1</ele>
        <time>2024-10-15T14:53:52Z</time>
      </trkpt>
      <trkpt lat="45.91798" lon="1.30499">
        <ele>342.8</ele>
        <time>2024-10-15T14:53:55Z</time>
      </trkpt>
      <trkpt lat="45.91808" lon="1.30496">
        <ele>344.1</ele>
        <time>2024-10-15T14:53:58Z</time>
      </trkpt>
      <trkpt lat="45.91819" lon="1.30493">
        <ele>345.2</ele>
        <time>2024-10-15T14:54:00Z</time>
      </trkpt>
      <trkpt lat="45.9183" lon="1.3049">
        <ele>346.1</ele>
        <time>2024-10-15T14:54:04Z</time>
      </trkpt>
      <trkpt lat="45.91839" lon="1.30486">
        <ele>346.6</ele>
        <time>2024-10-15T14:54:07Z</time>
      </trkpt>
      <trkpt lat="45.91849" lon="1.30484">
        <ele>347</ele>
        <time>2024-10-15T14:54:10Z</time>
      </trkpt>
      <trkpt lat="45.9186" lon="1.30484">
        <ele>347.4</ele>
        <time>2024-10-15T14:54:12Z</time>
      </trkpt>
      <trkpt lat="45.91871" lon="1.30485">
        <ele>347.9</ele>
        <time>2024-10-15T14:54:15Z</time>
      </trkpt>
      <trkpt lat="45.91882" lon="1.30483">
        <ele>348.4</ele>
        <time>2024-10-15T14:54:18Z</time>
      </trkpt>
      <trkpt lat="45.9189" lon="1.30475">
        <ele>348.9</ele>
        <time>2024-10-15T14:54:21Z</time>
      </trkpt>
      <trkpt lat="45.91897" lon="1.30467">
        <ele>349.4</ele>
        <time>2024-10-15T14:54:24Z</time>
      </trkpt>
      <trkpt lat="45.91903" lon="1.30459">
        <ele>349.6</ele>
        <time>2024-10-15T14:54:27Z</time>
      </trkpt>
      <trkpt lat="45.91909" lon="1.30449">
        <ele>349.7</ele>
        <time>2024-10-15T14:54:30Z</time>
      </trkpt>
      <trkpt lat="45.91912" lon="1.30442">
        <ele>349.8</ele>
        <time>2024-10-15T14:54:33Z</time>
      </trkpt>
      <trkpt lat="45.91919" lon="1.30434">
        <ele>349.7</ele>
        <time>2024-10-15T14:54:36Z</time>
      </trkpt>
      <trkpt lat="45.91926" lon="1.30428">
        <ele>349.6</ele>
        <time>2024-10-15T14:54:40Z</time>
      </trkpt>
      <trkpt lat="45.91932" lon="1.30423">
        <ele>349.5</ele>
        <time>2024-10-15T14:54:43Z</time>
      </trkpt>
      <trkpt lat="45.91937" lon="1.30417">
        <ele>349.5</ele>
        <time>2024-10-15T14:54:46Z</time>
      </trkpt>
      <trkpt lat="45.91946" lon="1.30413">
        <ele>349.5</ele>
        <time>2024-10-15T14:54:49Z</time>
      </trkpt>
      <trkpt lat="45.91955" lon="1.30409">
        <ele>349.7</ele>
        <time>2024-10-15T14:54:52Z</time>
      </trkpt>
      <trkpt lat="45.91965" lon="1.30405">
        <ele>349.8</ele>
        <time>2024-10-15T14:54:55Z</time>
      </trkpt>
      <trkpt lat="45.91974" lon="1.30399">
        <ele>349.9</ele>
        <time>2024-10-15T14:54:58Z</time>
      </trkpt>
      <trkpt lat="45.91985" lon="1.30394">
        <ele>350</ele>
        <time>2024-10-15T14:55:01Z</time>
      </trkpt>
      <trkpt lat="45.91996" lon="1.30387">
        <ele>350</ele>
        <time>2024-10-15T14:55:04Z</time>
      </trkpt>
      <trkpt lat="45.92003" lon="1.30378">
        <ele>349.9</ele>
        <time>2024-10-15T14:55:07Z</time>
      </trkpt>
      <trkpt lat="45.9201" lon="1.30369">
        <ele>349.8</ele>
        <time>2024-10-15T14:55:10Z</time>
      </trkpt>
      <trkpt lat="45.92014" lon="1.30363">
        <ele>349.7</ele>
        <time>2024-10-15T14:55:13Z</time>
      </trkpt>
      <trkpt lat="45.92018" lon="1.30357">
        <ele>349.6</ele>
        <time>2024-10-15T14:55:16Z</time>
      </trkpt>
      <trkpt lat="45.92023" lon="1.30348">
        <ele>349.4</ele>
        <time>2024-10-15T14:55:19Z</time>
      </trkpt>
      <trkpt lat="45.92028" lon="1.30341">
        <ele>349.4</ele>
        <time>2024-10-15T14:55:22Z</time>
      </trkpt>
      <trkpt lat="45.92031" lon="1.30334">
        <ele>349.4</ele>
        <time>2024-10-15T14:55:25Z</time>
      </trkpt>
      <trkpt lat="45.92036" lon="1.30326">
        <ele>349.4</ele>
        <time>2024-10-15T14:55:28Z</time>
      </trkpt>
      <trkpt lat="45.92042" lon="1.30317">
        <ele>349.4</ele>
        <time>2024-10-15T14:55:31Z</time>
      </trkpt>
      <trkpt lat="45.92047" lon="1.30308">
        <ele>349.5</ele>
        <time>2024-10-15T14:55:34Z</time>
      </trkpt>
      <trkpt lat="45.92051" lon="1.303">
        <ele>349.5</ele>
        <time>2024-10-15T14:55:37Z</time>
      </trkpt>
      <trkpt lat="45.92057" lon="1.30292">
        <ele>349.6</ele>
        <time>2024-10-15T14:55:40Z</time>
      </trkpt>
      <trkpt lat="45.92062" lon="1.30284">
        <ele>349.6</ele>
        <time>2024-10-15T14:55:42Z</time>
      </trkpt>
      <trkpt lat="45.92066" lon="1.30275">
        <ele>349.7</ele>
        <time>2024-10-15T14:55:45Z</time>
      </trkpt>
      <trkpt lat="45.92071" lon="1.30268">
        <ele>349.6</ele>
        <time>2024-10-15T14:55:48Z</time>
      </trkpt>
      <trkpt lat="45.92075" lon="1.30259">
        <ele>349.5</ele>
        <time>2024-10-15T14:55:51Z</time>
      </trkpt>
      <trkpt lat="45.92078" lon="1.30252">
        <ele>349.4</ele>
        <time>2024-10-15T14:55:54Z</time>
      </trkpt>
      <trkpt lat="45.9208" lon="1.30241">
        <ele>349.3</ele>
        <time>2024-10-15T14:55:57Z</time>
      </trkpt>
      <trkpt lat="45.92086" lon="1.30227">
        <ele>349.1</ele>
        <time>2024-10-15T14:56:00Z</time>
      </trkpt>
      <trkpt lat="45.92093" lon="1.30218">
        <ele>348.9</ele>
        <time>2024-10-15T14:56:03Z</time>
      </trkpt>
      <trkpt lat="45.92098" lon="1.30216">
        <ele>348.9</ele>
        <time>2024-10-15T14:56:06Z</time>
      </trkpt>
      <trkpt lat="45.92098" lon="1.30215">
        <ele>348.9</ele>
        <time>2024-10-15T14:56:10Z</time>
      </trkpt>
      <trkpt lat="45.92095" lon="1.30217">
        <ele>348.9</ele>
        <time>2024-10-15T14:56:13Z</time>
      </trkpt>
      <trkpt lat="45.92086" lon="1.30223">
        <ele>349</ele>
        <time>2024-10-15T14:56:16Z</time>
      </trkpt>
      <trkpt lat="45.92077" lon="1.30237">
        <ele>349.2</ele>
        <time>2024-10-15T14:56:19Z</time>
      </trkpt>
      <trkpt lat="45.92073" lon="1.30251">
        <ele>349.4</ele>
        <time>2024-10-15T14:56:22Z</time>
      </trkpt>
      <trkpt lat="45.92069" lon="1.30265">
        <ele>349.6</ele>
        <time>2024-10-15T14:56:25Z</time>
      </trkpt>
      <trkpt lat="45.92067" lon="1.3027">
        <ele>349.6</ele>
        <time>2024-10-15T14:56:28Z</time>
      </trkpt>
      <trkpt lat="45.9207" lon="1.3027">
        <ele>349.6</ele>
        <time>2024-10-15T14:56:31Z</time>
      </trkpt>
      <trkpt lat="45.92074" lon="1.30267">
        <ele>349.6</ele>
        <time>2024-10-15T14:56:34Z</time>
      </trkpt>
      <trkpt lat="45.92081" lon="1.30242">
        <ele>349.3</ele>
        <time>2024-10-15T14:56:37Z</time>
      </trkpt>
      <trkpt lat="45.9209" lon="1.30224">
        <ele>349</ele>
        <time>2024-10-15T14:56:40Z</time>
      </trkpt>
      <trkpt lat="45.92101" lon="1.30213">
        <ele>348.9</ele>
        <time>2024-10-15T14:56:43Z</time>
      </trkpt>
      <trkpt lat="45.92116" lon="1.30205">
        <ele>348.9</ele>
        <time>2024-10-15T14:56:46Z</time>
      </trkpt>
      <trkpt lat="45.92128" lon="1.30203">
        <ele>348.8</ele>
        <time>2024-10-15T14:56:49Z</time>
      </trkpt>
      <trkpt lat="45.92139" lon="1.30196">
        <ele>348.7</ele>
        <time>2024-10-15T14:56:52Z</time>
      </trkpt>
      <trkpt lat="45.92145" lon="1.30183">
        <ele>348.6</ele>
        <time>2024-10-15T14:56:55Z</time>
      </trkpt>
      <trkpt lat="45.92151" lon="1.30169">
        <ele>348.6</ele>
        <time>2024-10-15T14:56:58Z</time>
      </trkpt>
      <trkpt lat="45.92153" lon="1.30155">
        <ele>348.7</ele>
        <time>2024-10-15T14:57:01Z</time>
      </trkpt>
      <trkpt lat="45.92157" lon="1.30146">
        <ele>348.7</ele>
        <time>2024-10-15T14:57:04Z</time>
      </trkpt>
      <trkpt lat="45.92161" lon="1.30141">
        <ele>348.8</ele>
        <time>2024-10-15T14:57:07Z</time>
      </trkpt>
      <trkpt lat="45.92161" lon="1.30134">
        <ele>348.9</ele>
        <time>2024-10-15T14:57:10Z</time>
      </trkpt>
      <trkpt lat="45.92158" lon="1.30129">
        <ele>348.9</ele>
        <time>2024-10-15T14:57:13Z</time>
      </trkpt>
      <trkpt lat="45.92166" lon="1.30125">
        <ele>348.8</ele>
        <time>2024-10-15T14:57:16Z</time>
      </trkpt>
      <trkpt lat="45.92176" lon="1.30122">
        <ele>348.6</ele>
        <time>2024-10-15T14:57:19Z</time>
      </trkpt>
      <trkpt lat="45.92188" lon="1.30122">
        <ele>348.3</ele>
        <time>2024-10-15T14:57:21Z</time>
      </trkpt>
      <trkpt lat="45.92202" lon="1.3013">
        <ele>347.9</ele>
        <time>2024-10-15T14:57:24Z</time>
      </trkpt>
      <trkpt lat="45.92216" lon="1.30137">
        <ele>347.6</ele>
        <time>2024-10-15T14:57:27Z</time>
      </trkpt>
      <trkpt lat="45.92231" lon="1.30145">
        <ele>347.6</ele>
        <time>2024-10-15T14:57:30Z</time>
      </trkpt>
      <trkpt lat="45.92246" lon="1.30153">
        <ele>347.8</ele>
        <time>2024-10-15T14:57:33Z</time>
      </trkpt>
      <trkpt lat="45.92262" lon="1.3016">
        <ele>348.3</ele>
        <time>2024-10-15T14:57:36Z</time>
      </trkpt>
      <trkpt lat="45.92275" lon="1.3016">
        <ele>348.2</ele>
        <time>2024-10-15T14:57:39Z</time>
      </trkpt>
      <trkpt lat="45.92281" lon="1.30139">
        <ele>347.7</ele>
        <time>2024-10-15T14:57:43Z</time>
      </trkpt>
      <trkpt lat="45.92289" lon="1.30114">
        <ele>347.4</ele>
        <time>2024-10-15T14:57:45Z</time>
      </trkpt>
      <trkpt lat="45.92296" lon="1.3009">
        <ele>347.3</ele>
        <time>2024-10-15T14:57:49Z</time>
      </trkpt>
      <trkpt lat="45.92302" lon="1.30078">
        <ele>347.3</ele>
        <time>2024-10-15T14:57:51Z</time>
      </trkpt>
      <trkpt lat="45.92313" lon="1.30064">
        <ele>347.5</ele>
        <time>2024-10-15T14:57:55Z</time>
      </trkpt>
      <trkpt lat="45.92308" lon="1.30034">
        <ele>347.7</ele>
        <time>2024-10-15T14:57:58Z</time>
      </trkpt>
      <trkpt lat="45.92296" lon="1.30022">
        <ele>348.1</ele>
        <time>2024-10-15T14:58:01Z</time>
      </trkpt>
      <trkpt lat="45.92282" lon="1.30014">
        <ele>349</ele>
        <time>2024-10-15T14:58:04Z</time>
      </trkpt>
      <trkpt lat="45.92269" lon="1.30009">
        <ele>350.1</ele>
        <time>2024-10-15T14:58:07Z</time>
      </trkpt>
      <trkpt lat="45.92258" lon="1.30003">
        <ele>351.4</ele>
        <time>2024-10-15T14:58:10Z</time>
      </trkpt>
      <trkpt lat="45.92249" lon="1.29998">
        <ele>352.6</ele>
        <time>2024-10-15T14:58:13Z</time>
      </trkpt>
      <trkpt lat="45.92239" lon="1.29989">
        <ele>353.7</ele>
        <time>2024-10-15T14:58:16Z</time>
      </trkpt>
      <trkpt lat="45.92229" lon="1.29978">
        <ele>354.8</ele>
        <time>2024-10-15T14:58:19Z</time>
      </trkpt>
      <trkpt lat="45.92218" lon="1.29967">
        <ele>355.6</ele>
        <time>2024-10-15T14:58:22Z</time>
      </trkpt>
      <trkpt lat="45.92208" lon="1.29954">
        <ele>356.2</ele>
        <time>2024-10-15T14:58:25Z</time>
      </trkpt>
      <trkpt lat="45.922" lon="1.29941">
        <ele>356.6</ele>
        <time>2024-10-15T14:58:28Z</time>
      </trkpt>
      <trkpt lat="45.9219" lon="1.29929">
        <ele>356.8</ele>
        <time>2024-10-15T14:58:31Z</time>
      </trkpt>
      <trkpt lat="45.92181" lon="1.29917">
        <ele>356.8</ele>
        <time>2024-10-15T14:58:34Z</time>
      </trkpt>
      <trkpt lat="45.92172" lon="1.29907">
        <ele>356.8</ele>
        <time>2024-10-15T14:58:37Z</time>
      </trkpt>
      <trkpt lat="45.92164" lon="1.29898">
        <ele>356.8</ele>
        <time>2024-10-15T14:58:40Z</time>
      </trkpt>
      <trkpt lat="45.92157" lon="1.29889">
        <ele>356.8</ele>
        <time>2024-10-15T14:58:43Z</time>
      </trkpt>
      <trkpt lat="45.92153" lon="1.29877">
        <ele>356.8</ele>
        <time>2024-10-15T14:58:46Z</time>
      </trkpt>
      <trkpt lat="45.92153" lon="1.29865">
        <ele>356.9</ele>
        <time>2024-10-15T14:58:49Z</time>
      </trkpt>
      <trkpt lat="45.92157" lon="1.29852">
        <ele>357</ele>
        <time>2024-10-15T14:58:52Z</time>
      </trkpt>
      <trkpt lat="45.92162" lon="1.29838">
        <ele>357.1</ele>
        <time>2024-10-15T14:58:55Z</time>
      </trkpt>
      <trkpt lat="45.92168" lon="1.29825">
        <ele>357.3</ele>
        <time>2024-10-15T14:58:58Z</time>
      </trkpt>
      <trkpt lat="45.92175" lon="1.29815">
        <ele>357.7</ele>
        <time>2024-10-15T14:59:01Z</time>
      </trkpt>
      <trkpt lat="45.92182" lon="1.29806">
        <ele>358.1</ele>
        <time>2024-10-15T14:59:04Z</time>
      </trkpt>
      <trkpt lat="45.92187" lon="1.298">
        <ele>358.4</ele>
        <time>2024-10-15T14:59:07Z</time>
      </trkpt>
      <trkpt lat="45.92194" lon="1.29792">
        <ele>358.8</ele>
        <time>2024-10-15T14:59:09Z</time>
      </trkpt>
      <trkpt lat="45.92201" lon="1.29784">
        <ele>359.3</ele>
        <time>2024-10-15T14:59:12Z</time>
      </trkpt>
      <trkpt lat="45.92207" lon="1.29777">
        <ele>359.7</ele>
        <time>2024-10-15T14:59:15Z</time>
      </trkpt>
      <trkpt lat="45.92214" lon="1.29768">
        <ele>360.2</ele>
        <time>2024-10-15T14:59:18Z</time>
      </trkpt>
      <trkpt lat="45.92222" lon="1.29762">
        <ele>360.6</ele>
        <time>2024-10-15T14:59:21Z</time>
      </trkpt>
      <trkpt lat="45.92229" lon="1.29756">
        <ele>360.9</ele>
        <time>2024-10-15T14:59:24Z</time>
      </trkpt>
      <trkpt lat="45.92238" lon="1.29748">
        <ele>361.3</ele>
        <time>2024-10-15T14:59:27Z</time>
      </trkpt>
      <trkpt lat="45.92246" lon="1.29739">
        <ele>361.7</ele>
        <time>2024-10-15T14:59:31Z</time>
      </trkpt>
      <trkpt lat="45.92253" lon="1.29732">
        <ele>362</ele>
        <time>2024-10-15T14:59:34Z</time>
      </trkpt>
      <trkpt lat="45.9226" lon="1.29725">
        <ele>362.3</ele>
        <time>2024-10-15T14:59:37Z</time>
      </trkpt>
      <trkpt lat="45.92268" lon="1.29716">
        <ele>362.7</ele>
        <time>2024-10-15T14:59:39Z</time>
      </trkpt>
      <trkpt lat="45.92275" lon="1.29708">
        <ele>363.1</ele>
        <time>2024-10-15T14:59:43Z</time>
      </trkpt>
      <trkpt lat="45.92281" lon="1.29703">
        <ele>363.3</ele>
        <time>2024-10-15T14:59:46Z</time>
      </trkpt>
      <trkpt lat="45.92287" lon="1.29695">
        <ele>363.5</ele>
        <time>2024-10-15T14:59:49Z</time>
      </trkpt>
      <trkpt lat="45.92293" lon="1.29687">
        <ele>363.7</ele>
        <time>2024-10-15T14:59:52Z</time>
      </trkpt>
      <trkpt lat="45.92299" lon="1.29677">
        <ele>363.9</ele>
        <time>2024-10-15T14:59:55Z</time>
      </trkpt>
      <trkpt lat="45.92305" lon="1.29669">
        <ele>364</ele>
        <time>2024-10-15T14:59:58Z</time>
      </trkpt>
      <trkpt lat="45.92313" lon="1.29659">
        <ele>364</ele>
        <time>2024-10-15T15:00:01Z</time>
      </trkpt>
      <trkpt lat="45.92318" lon="1.29651">
        <ele>364.1</ele>
        <time>2024-10-15T15:00:04Z</time>
      </trkpt>
      <trkpt lat="45.92324" lon="1.29645">
        <ele>364.2</ele>
        <time>2024-10-15T15:00:07Z</time>
      </trkpt>
      <trkpt lat="45.92329" lon="1.29639">
        <ele>364.2</ele>
        <time>2024-10-15T15:00:10Z</time>
      </trkpt>
      <trkpt lat="45.92335" lon="1.2963">
        <ele>364.4</ele>
        <time>2024-10-15T15:00:13Z</time>
      </trkpt>
      <trkpt lat="45.9234" lon="1.29621">
        <ele>364.5</ele>
        <time>2024-10-15T15:00:16Z</time>
      </trkpt>
      <trkpt lat="45.9235" lon="1.29612">
        <ele>364.7</ele>
        <time>2024-10-15T15:00:19Z</time>
      </trkpt>
      <trkpt lat="45.92358" lon="1.29604">
        <ele>365</ele>
        <time>2024-10-15T15:00:22Z</time>
      </trkpt>
      <trkpt lat="45.92364" lon="1.29599">
        <ele>365.2</ele>
        <time>2024-10-15T15:00:25Z</time>
      </trkpt>
      <trkpt lat="45.92372" lon="1.29598">
        <ele>365.5</ele>
        <time>2024-10-15T15:00:28Z</time>
      </trkpt>
      <trkpt lat="45.9238" lon="1.29599">
        <ele>365.7</ele>
        <time>2024-10-15T15:00:31Z</time>
      </trkpt>
      <trkpt lat="45.92382" lon="1.29599">
        <ele>365.8</ele>
        <time>2024-10-15T15:00:34Z</time>
      </trkpt>
      <trkpt lat="45.92381" lon="1.29598">
        <ele>365.8</ele>
        <time>2024-10-15T15:00:37Z</time>
      </trkpt>
      <trkpt lat="45.92382" lon="1.29597">
        <ele>365.8</ele>
        <time>2024-10-15T15:00:40Z</time>
      </trkpt>
      <trkpt lat="45.92381" lon="1.29597">
        <ele>365.8</ele>
        <time>2024-10-15T15:00:43Z</time>
      </trkpt>
      <trkpt lat="45.9238" lon="1.29598">
        <ele>365.9</ele>
        <time>2024-10-15T15:00:46Z</time>
      </trkpt>
      <trkpt lat="45.9238" lon="1.29598">
        <ele>365.9</ele>
        <time>2024-10-15T15:00:48Z</time>
      </trkpt>
      <trkpt lat="45.92381" lon="1.29599">
        <ele>365.9</ele>
        <time>2024-10-15T15:00:51Z</time>
      </trkpt>
      <trkpt lat="45.92382" lon="1.296">
        <ele>366</ele>
        <time>2024-10-15T15:00:54Z</time>
      </trkpt>
      <trkpt lat="45.92383" lon="1.296">
        <ele>366</ele>
        <time>2024-10-15T15:00:57Z</time>
      </trkpt>
      <trkpt lat="45.92384" lon="1.296">
        <ele>366</ele>
        <time>2024-10-15T15:01:00Z</time>
      </trkpt>
      <trkpt lat="45.92384" lon="1.29601">
        <ele>366.1</ele>
        <time>2024-10-15T15:01:03Z</time>
      </trkpt>
      <trkpt lat="45.92386" lon="1.296">
        <ele>366.1</ele>
        <time>2024-10-15T15:01:06Z</time>
      </trkpt>
      <trkpt lat="45.92391" lon="1.296">
        <ele>366.3</ele>
        <time>2024-10-15T15:01:09Z</time>
      </trkpt>
      <trkpt lat="45.92399" lon="1.296">
        <ele>366.6</ele>
        <time>2024-10-15T15:01:12Z</time>
      </trkpt>
      <trkpt lat="45.92405" lon="1.29597">
        <ele>366.8</ele>
        <time>2024-10-15T15:01:16Z</time>
      </trkpt>
      <trkpt lat="45.92413" lon="1.29591">
        <ele>367</ele>
        <time>2024-10-15T15:01:19Z</time>
      </trkpt>
      <trkpt lat="45.92418" lon="1.29581">
        <ele>367.6</ele>
        <time>2024-10-15T15:01:22Z</time>
      </trkpt>
      <trkpt lat="45.92421" lon="1.29571">
        <ele>367.9</ele>
        <time>2024-10-15T15:01:25Z</time>
      </trkpt>
      <trkpt lat="45.92423" lon="1.2956">
        <ele>368.2</ele>
        <time>2024-10-15T15:01:28Z</time>
      </trkpt>
      <trkpt lat="45.92423" lon="1.2955">
        <ele>368.6</ele>
        <time>2024-10-15T15:01:31Z</time>
      </trkpt>
      <trkpt lat="45.92424" lon="1.29539">
        <ele>368.9</ele>
        <time>2024-10-15T15:01:34Z</time>
      </trkpt>
      <trkpt lat="45.92424" lon="1.29529">
        <ele>369.3</ele>
        <time>2024-10-15T15:01:37Z</time>
      </trkpt>
      <trkpt lat="45.92424" lon="1.29518">
        <ele>369.7</ele>
        <time>2024-10-15T15:01:40Z</time>
      </trkpt>
      <trkpt lat="45.92424" lon="1.29507">
        <ele>370</ele>
        <time>2024-10-15T15:01:43Z</time>
      </trkpt>
      <trkpt lat="45.92425" lon="1.29496">
        <ele>370.4</ele>
        <time>2024-10-15T15:01:46Z</time>
      </trkpt>
      <trkpt lat="45.92427" lon="1.29487">
        <ele>370.6</ele>
        <time>2024-10-15T15:01:49Z</time>
      </trkpt>
      <trkpt lat="45.92429" lon="1.29476">
        <ele>370.9</ele>
        <time>2024-10-15T15:01:52Z</time>
      </trkpt>
      <trkpt lat="45.92431" lon="1.29465">
        <ele>371.2</ele>
        <time>2024-10-15T15:01:55Z</time>
      </trkpt>
      <trkpt lat="45.92433" lon="1.29454">
        <ele>371.6</ele>
        <time>2024-10-15T15:01:58Z</time>
      </trkpt>
      <trkpt lat="45.92435" lon="1.29442">
        <ele>371.9</ele>
        <time>2024-10-15T15:02:01Z</time>
      </trkpt>
      <trkpt lat="45.92437" lon="1.29431">
        <ele>372.3</ele>
        <time>2024-10-15T15:02:04Z</time>
      </trkpt>
      <trkpt lat="45.92439" lon="1.29421">
        <ele>372.7</ele>
        <time>2024-10-15T15:02:07Z</time>
      </trkpt>
      <trkpt lat="45.9244" lon="1.29412">
        <ele>373.1</ele>
        <time>2024-10-15T15:02:10Z</time>
      </trkpt>
      <trkpt lat="45.92443" lon="1.29404">
        <ele>373.5</ele>
        <time>2024-10-15T15:02:13Z</time>
      </trkpt>
      <trkpt lat="45.92445" lon="1.29395">
        <ele>373.9</ele>
        <time>2024-10-15T15:02:15Z</time>
      </trkpt>
      <trkpt lat="45.92448" lon="1.29387">
        <ele>374.3</ele>
        <time>2024-10-15T15:02:19Z</time>
      </trkpt>
      <trkpt lat="45.92452" lon="1.29378">
        <ele>374.8</ele>
        <time>2024-10-15T15:02:22Z</time>
      </trkpt>
      <trkpt lat="45.92456" lon="1.2937">
        <ele>375.2</ele>
        <time>2024-10-15T15:02:25Z</time>
      </trkpt>
      <trkpt lat="45.92461" lon="1.29361">
        <ele>375.7</ele>
        <time>2024-10-15T15:02:27Z</time>
      </trkpt>
      <trkpt lat="45.92465" lon="1.29352">
        <ele>376.1</ele>
        <time>2024-10-15T15:02:30Z</time>
      </trkpt>
      <trkpt lat="45.92469" lon="1.29342">
        <ele>376.5</ele>
        <time>2024-10-15T15:02:33Z</time>
      </trkpt>
      <trkpt lat="45.92473" lon="1.29333">
        <ele>376.9</ele>
        <time>2024-10-15T15:02:36Z</time>
      </trkpt>
      <trkpt lat="45.92476" lon="1.29323">
        <ele>377.3</ele>
        <time>2024-10-15T15:02:39Z</time>
      </trkpt>
      <trkpt lat="45.92477" lon="1.29313">
        <ele>377.6</ele>
        <time>2024-10-15T15:02:42Z</time>
      </trkpt>
      <trkpt lat="45.92478" lon="1.29302">
        <ele>378.1</ele>
        <time>2024-10-15T15:02:45Z</time>
      </trkpt>
      <trkpt lat="45.92479" lon="1.29292">
        <ele>378.5</ele>
        <time>2024-10-15T15:02:49Z</time>
      </trkpt>
      <trkpt lat="45.92478" lon="1.29282">
        <ele>378.8</ele>
        <time>2024-10-15T15:02:51Z</time>
      </trkpt>
      <trkpt lat="45.92477" lon="1.29272">
        <ele>379.2</ele>
        <time>2024-10-15T15:02:54Z</time>
      </trkpt>
      <trkpt lat="45.92477" lon="1.29262">
        <ele>379.6</ele>
        <time>2024-10-15T15:02:58Z</time>
      </trkpt>
      <trkpt lat="45.92476" lon="1.29252">
        <ele>379.9</ele>
        <time>2024-10-15T15:03:01Z</time>
      </trkpt>
      <trkpt lat="45.92475" lon="1.29242">
        <ele>380.2</ele>
        <time>2024-10-15T15:03:04Z</time>
      </trkpt>
      <trkpt lat="45.92474" lon="1.29232">
        <ele>380.5</ele>
        <time>2024-10-15T15:03:07Z</time>
      </trkpt>
      <trkpt lat="45.92473" lon="1.29221">
        <ele>380.9</ele>
        <time>2024-10-15T15:03:10Z</time>
      </trkpt>
      <trkpt lat="45.92469" lon="1.29211">
        <ele>381.2</ele>
        <time>2024-10-15T15:03:13Z</time>
      </trkpt>
      <trkpt lat="45.92466" lon="1.29201">
        <ele>381.6</ele>
        <time>2024-10-15T15:03:16Z</time>
      </trkpt>
      <trkpt lat="45.92466" lon="1.29193">
        <ele>381.9</ele>
        <time>2024-10-15T15:03:19Z</time>
      </trkpt>
      <trkpt lat="45.92465" lon="1.29186">
        <ele>382.1</ele>
        <time>2024-10-15T15:03:22Z</time>
      </trkpt>
      <trkpt lat="45.92463" lon="1.29181">
        <ele>382.4</ele>
        <time>2024-10-15T15:03:25Z</time>
      </trkpt>
      <trkpt lat="45.92457" lon="1.29182">
        <ele>382.5</ele>
        <time>2024-10-15T15:03:28Z</time>
      </trkpt>
      <trkpt lat="45.92455" lon="1.29188">
        <ele>382.5</ele>
        <time>2024-10-15T15:03:31Z</time>
      </trkpt>
      <trkpt lat="45.92462" lon="1.29196">
        <ele>382.4</ele>
        <time>2024-10-15T15:03:34Z</time>
      </trkpt>
      <trkpt lat="45.92469" lon="1.29193">
        <ele>382.4</ele>
        <time>2024-10-15T15:03:37Z</time>
      </trkpt>
      <trkpt lat="45.92465" lon="1.29187">
        <ele>382.3</ele>
        <time>2024-10-15T15:03:40Z</time>
      </trkpt>
      <trkpt lat="45.92465" lon="1.29181">
        <ele>382.3</ele>
        <time>2024-10-15T15:03:43Z</time>
      </trkpt>
      <trkpt lat="45.92474" lon="1.29181">
        <ele>382.2</ele>
        <time>2024-10-15T15:03:46Z</time>
      </trkpt>
      <trkpt lat="45.92484" lon="1.2918">
        <ele>382.1</ele>
        <time>2024-10-15T15:03:49Z</time>
      </trkpt>
      <trkpt lat="45.92496" lon="1.29177">
        <ele>381.9</ele>
        <time>2024-10-15T15:03:52Z</time>
      </trkpt>
      <trkpt lat="45.92506" lon="1.29174">
        <ele>381.8</ele>
        <time>2024-10-15T15:03:55Z</time>
      </trkpt>
      <trkpt lat="45.92516" lon="1.29171">
        <ele>381.7</ele>
        <time>2024-10-15T15:03:58Z</time>
      </trkpt>
      <trkpt lat="45.92527" lon="1.29169">
        <ele>381.6</ele>
        <time>2024-10-15T15:04:01Z</time>
      </trkpt>
      <trkpt lat="45.92539" lon="1.29166">
        <ele>381.5</ele>
        <time>2024-10-15T15:04:04Z</time>
      </trkpt>
      <trkpt lat="45.92551" lon="1.29164">
        <ele>381.4</ele>
        <time>2024-10-15T15:04:06Z</time>
      </trkpt>
      <trkpt lat="45.92562" lon="1.29161">
        <ele>381.4</ele>
        <time>2024-10-15T15:04:09Z</time>
      </trkpt>
      <trkpt lat="45.92573" lon="1.29158">
        <ele>381.4</ele>
        <time>2024-10-15T15:04:12Z</time>
      </trkpt>
      <trkpt lat="45.92583" lon="1.29157">
        <ele>381.4</ele>
        <time>2024-10-15T15:04:15Z</time>
      </trkpt>
      <trkpt lat="45.92595" lon="1.29154">
        <ele>381.6</ele>
        <time>2024-10-15T15:04:18Z</time>
      </trkpt>
      <trkpt lat="45.92606" lon="1.29152">
        <ele>381.7</ele>
        <time>2024-10-15T15:04:21Z</time>
      </trkpt>
      <trkpt lat="45.92617" lon="1.2915">
        <ele>382</ele>
        <time>2024-10-15T15:04:24Z</time>
      </trkpt>
      <trkpt lat="45.92628" lon="1.29148">
        <ele>382.2</ele>
        <time>2024-10-15T15:04:28Z</time>
      </trkpt>
      <trkpt lat="45.92638" lon="1.29145">
        <ele>382.4</ele>
        <time>2024-10-15T15:04:30Z</time>
      </trkpt>
      <trkpt lat="45.92649" lon="1.29143">
        <ele>382.5</ele>
        <time>2024-10-15T15:04:33Z</time>
      </trkpt>
      <trkpt lat="45.92659" lon="1.2914">
        <ele>382.5</ele>
        <time>2024-10-15T15:04:37Z</time>
      </trkpt>
      <trkpt lat="45.92669" lon="1.29137">
        <ele>382.5</ele>
        <time>2024-10-15T15:04:40Z</time>
      </trkpt>
      <trkpt lat="45.92679" lon="1.29134">
        <ele>382.4</ele>
        <time>2024-10-15T15:04:43Z</time>
      </trkpt>
      <trkpt lat="45.92688" lon="1.2913">
        <ele>382.4</ele>
        <time>2024-10-15T15:04:46Z</time>
      </trkpt>
      <trkpt lat="45.92698" lon="1.29125">
        <ele>382.4</ele>
        <time>2024-10-15T15:04:49Z</time>
      </trkpt>
      <trkpt lat="45.92711" lon="1.29121">
        <ele>382.4</ele>
        <time>2024-10-15T15:04:52Z</time>
      </trkpt>
      <trkpt lat="45.92724" lon="1.29117">
        <ele>382.4</ele>
        <time>2024-10-15T15:04:55Z</time>
      </trkpt>
      <trkpt lat="45.92736" lon="1.29114">
        <ele>382.3</ele>
        <time>2024-10-15T15:04:58Z</time>
      </trkpt>
      <trkpt lat="45.92748" lon="1.29109">
        <ele>382.2</ele>
        <time>2024-10-15T15:05:01Z</time>
      </trkpt>
      <trkpt lat="45.92758" lon="1.29105">
        <ele>382</ele>
        <time>2024-10-15T15:05:04Z</time>
      </trkpt>
      <trkpt lat="45.92771" lon="1.29101">
        <ele>381.6</ele>
        <time>2024-10-15T15:05:07Z</time>
      </trkpt>
      <trkpt lat="45.92785" lon="1.29098">
        <ele>381</ele>
        <time>2024-10-15T15:05:10Z</time>
      </trkpt>
      <trkpt lat="45.92801" lon="1.29093">
        <ele>380.1</ele>
        <time>2024-10-15T15:05:13Z</time>
      </trkpt>
      <trkpt lat="45.92819" lon="1.29085">
        <ele>379.1</ele>
        <time>2024-10-15T15:05:16Z</time>
      </trkpt>
      <trkpt lat="45.92838" lon="1.29079">
        <ele>378</ele>
        <time>2024-10-15T15:05:19Z</time>
      </trkpt>
      <trkpt lat="45.9286" lon="1.29069">
        <ele>376.7</ele>
        <time>2024-10-15T15:05:22Z</time>
      </trkpt>
      <trkpt lat="45.92882" lon="1.29056">
        <ele>375.3</ele>
        <time>2024-10-15T15:05:25Z</time>
      </trkpt>
      <trkpt lat="45.9291" lon="1.29043">
        <ele>373.2</ele>
        <time>2024-10-15T15:05:28Z</time>
      </trkpt>
      <trkpt lat="45.92937" lon="1.29031">
        <ele>372.3</ele>
        <time>2024-10-15T15:05:31Z</time>
      </trkpt>
      <trkpt lat="45.92962" lon="1.29021">
        <ele>372.4</ele>
        <time>2024-10-15T15:05:34Z</time>
      </trkpt>
      <trkpt lat="45.92982" lon="1.29012">
        <ele>372.6</ele>
        <time>2024-10-15T15:05:36Z</time>
      </trkpt>
      <trkpt lat="45.92997" lon="1.29005">
        <ele>372.7</ele>
        <time>2024-10-15T15:05:39Z</time>
      </trkpt>
      <trkpt lat="45.93016" lon="1.28995">
        <ele>372.8</ele>
        <time>2024-10-15T15:05:42Z</time>
      </trkpt>
      <trkpt lat="45.93032" lon="1.28987">
        <ele>373</ele>
        <time>2024-10-15T15:05:45Z</time>
      </trkpt>
      <trkpt lat="45.93047" lon="1.2898">
        <ele>373.6</ele>
        <time>2024-10-15T15:05:48Z</time>
      </trkpt>
      <trkpt lat="45.9306" lon="1.28974">
        <ele>374.4</ele>
        <time>2024-10-15T15:05:51Z</time>
      </trkpt>
      <trkpt lat="45.93073" lon="1.28968">
        <ele>375.4</ele>
        <time>2024-10-15T15:05:54Z</time>
      </trkpt>
      <trkpt lat="45.93083" lon="1.28963">
        <ele>376.3</ele>
        <time>2024-10-15T15:05:57Z</time>
      </trkpt>
      <trkpt lat="45.93093" lon="1.28959">
        <ele>377.1</ele>
        <time>2024-10-15T15:06:01Z</time>
      </trkpt>
      <trkpt lat="45.93103" lon="1.28955">
        <ele>378</ele>
        <time>2024-10-15T15:06:04Z</time>
      </trkpt>
      <trkpt lat="45.93112" lon="1.2895">
        <ele>378.7</ele>
        <time>2024-10-15T15:06:07Z</time>
      </trkpt>
      <trkpt lat="45.9312" lon="1.28946">
        <ele>379.5</ele>
        <time>2024-10-15T15:06:10Z</time>
      </trkpt>
      <trkpt lat="45.93129" lon="1.28943">
        <ele>380.1</ele>
        <time>2024-10-15T15:06:13Z</time>
      </trkpt>
      <trkpt lat="45.93137" lon="1.28939">
        <ele>380.7</ele>
        <time>2024-10-15T15:06:16Z</time>
      </trkpt>
      <trkpt lat="45.93145" lon="1.28935">
        <ele>381.3</ele>
        <time>2024-10-15T15:06:19Z</time>
      </trkpt>
      <trkpt lat="45.93154" lon="1.28931">
        <ele>381.8</ele>
        <time>2024-10-15T15:06:22Z</time>
      </trkpt>
      <trkpt lat="45.93162" lon="1.28928">
        <ele>382.4</ele>
        <time>2024-10-15T15:06:25Z</time>
      </trkpt>
      <trkpt lat="45.93171" lon="1.28925">
        <ele>382.9</ele>
        <time>2024-10-15T15:06:28Z</time>
      </trkpt>
      <trkpt lat="45.93179" lon="1.2892">
        <ele>383.5</ele>
        <time>2024-10-15T15:06:31Z</time>
      </trkpt>
      <trkpt lat="45.93188" lon="1.28917">
        <ele>384</ele>
        <time>2024-10-15T15:06:34Z</time>
      </trkpt>
      <trkpt lat="45.93196" lon="1.28914">
        <ele>384.6</ele>
        <time>2024-10-15T15:06:37Z</time>
      </trkpt>
      <trkpt lat="45.93204" lon="1.28911">
        <ele>385.2</ele>
        <time>2024-10-15T15:06:40Z</time>
      </trkpt>
      <trkpt lat="45.93213" lon="1.28907">
        <ele>385.9</ele>
        <time>2024-10-15T15:06:43Z</time>
      </trkpt>
      <trkpt lat="45.93222" lon="1.28903">
        <ele>386.6</ele>
        <time>2024-10-15T15:06:46Z</time>
      </trkpt>
      <trkpt lat="45.93231" lon="1.28899">
        <ele>387.3</ele>
        <time>2024-10-15T15:06:49Z</time>
      </trkpt>
      <trkpt lat="45.93238" lon="1.28894">
        <ele>387.9</ele>
        <time>2024-10-15T15:06:52Z</time>
      </trkpt>
      <trkpt lat="45.93247" lon="1.2889">
        <ele>388.5</ele>
        <time>2024-10-15T15:06:55Z</time>
      </trkpt>
      <trkpt lat="45.93255" lon="1.28886">
        <ele>389.1</ele>
        <time>2024-10-15T15:06:58Z</time>
      </trkpt>
      <trkpt lat="45.93265" lon="1.28883">
        <ele>389.5</ele>
        <time>2024-10-15T15:07:01Z</time>
      </trkpt>
      <trkpt lat="45.93275" lon="1.28881">
        <ele>389.8</ele>
        <time>2024-10-15T15:07:04Z</time>
      </trkpt>
      <trkpt lat="45.93285" lon="1.28876">
        <ele>390</ele>
        <time>2024-10-15T15:07:07Z</time>
      </trkpt>
      <trkpt lat="45.93296" lon="1.28872">
        <ele>389.9</ele>
        <time>2024-10-15T15:07:10Z</time>
      </trkpt>
      <trkpt lat="45.93306" lon="1.28867">
        <ele>389.7</ele>
        <time>2024-10-15T15:07:12Z</time>
      </trkpt>
      <trkpt lat="45.93317" lon="1.28863">
        <ele>389.3</ele>
        <time>2024-10-15T15:07:15Z</time>
      </trkpt>
      <trkpt lat="45.93327" lon="1.28859">
        <ele>388.8</ele>
        <time>2024-10-15T15:07:18Z</time>
      </trkpt>
      <trkpt lat="45.93339" lon="1.28856">
        <ele>388.2</ele>
        <time>2024-10-15T15:07:21Z</time>
      </trkpt>
      <trkpt lat="45.9335" lon="1.28852">
        <ele>387.4</ele>
        <time>2024-10-15T15:07:24Z</time>
      </trkpt>
      <trkpt lat="45.93361" lon="1.28846">
        <ele>385.2</ele>
        <time>2024-10-15T15:07:27Z</time>
      </trkpt>
      <trkpt lat="45.9337" lon="1.2884">
        <ele>383.3</ele>
        <time>2024-10-15T15:07:30Z</time>
      </trkpt>
      <trkpt lat="45.9338" lon="1.28833">
        <ele>381.8</ele>
        <time>2024-10-15T15:07:33Z</time>
      </trkpt>
      <trkpt lat="45.93389" lon="1.28826">
        <ele>380.9</ele>
        <time>2024-10-15T15:07:36Z</time>
      </trkpt>
      <trkpt lat="45.934" lon="1.28818">
        <ele>379.9</ele>
        <time>2024-10-15T15:07:39Z</time>
      </trkpt>
      <trkpt lat="45.93416" lon="1.28802">
        <ele>378.7</ele>
        <time>2024-10-15T15:07:43Z</time>
      </trkpt>
      <trkpt lat="45.93431" lon="1.28788">
        <ele>378.1</ele>
        <time>2024-10-15T15:07:46Z</time>
      </trkpt>
      <trkpt lat="45.93445" lon="1.28772">
        <ele>378.3</ele>
        <time>2024-10-15T15:07:49Z</time>
      </trkpt>
      <trkpt lat="45.93455" lon="1.28758">
        <ele>378.9</ele>
        <time>2024-10-15T15:07:52Z</time>
      </trkpt>
      <trkpt lat="45.93461" lon="1.28747">
        <ele>379.5</ele>
        <time>2024-10-15T15:07:55Z</time>
      </trkpt>
      <trkpt lat="45.93466" lon="1.28738">
        <ele>380.1</ele>
        <time>2024-10-15T15:07:58Z</time>
      </trkpt>
      <trkpt lat="45.93469" lon="1.28728">
        <ele>380.7</ele>
        <time>2024-10-15T15:08:01Z</time>
      </trkpt>
      <trkpt lat="45.93472" lon="1.28718">
        <ele>381.3</ele>
        <time>2024-10-15T15:08:04Z</time>
      </trkpt>
      <trkpt lat="45.93479" lon="1.28707">
        <ele>382.3</ele>
        <time>2024-10-15T15:08:07Z</time>
      </trkpt>
      <trkpt lat="45.93483" lon="1.28693">
        <ele>383.5</ele>
        <time>2024-10-15T15:08:10Z</time>
      </trkpt>
      <trkpt lat="45.93488" lon="1.28681">
        <ele>384.6</ele>
        <time>2024-10-15T15:08:13Z</time>
      </trkpt>
      <trkpt lat="45.93493" lon="1.28669">
        <ele>385.6</ele>
        <time>2024-10-15T15:08:16Z</time>
      </trkpt>
      <trkpt lat="45.93498" lon="1.28657">
        <ele>386.5</ele>
        <time>2024-10-15T15:08:19Z</time>
      </trkpt>
      <trkpt lat="45.93503" lon="1.28645">
        <ele>387.2</ele>
        <time>2024-10-15T15:08:22Z</time>
      </trkpt>
      <trkpt lat="45.9351" lon="1.28633">
        <ele>387.8</ele>
        <time>2024-10-15T15:08:25Z</time>
      </trkpt>
      <trkpt lat="45.93518" lon="1.28622">
        <ele>388.4</ele>
        <time>2024-10-15T15:08:28Z</time>
      </trkpt>
      <trkpt lat="45.93525" lon="1.28613">
        <ele>388.9</ele>
        <time>2024-10-15T15:08:31Z</time>
      </trkpt>
      <trkpt lat="45.93529" lon="1.28606">
        <ele>389.3</ele>
        <time>2024-10-15T15:08:34Z</time>
      </trkpt>
      <trkpt lat="45.93537" lon="1.28598">
        <ele>389.9</ele>
        <time>2024-10-15T15:08:37Z</time>
      </trkpt>
      <trkpt lat="45.93546" lon="1.28591">
        <ele>390.5</ele>
        <time>2024-10-15T15:08:40Z</time>
      </trkpt>
      <trkpt lat="45.93558" lon="1.28586">
        <ele>391.2</ele>
        <time>2024-10-15T15:08:43Z</time>
      </trkpt>
      <trkpt lat="45.93567" lon="1.28577">
        <ele>391.7</ele>
        <time>2024-10-15T15:08:46Z</time>
      </trkpt>
      <trkpt lat="45.93574" lon="1.2857">
        <ele>392.1</ele>
        <time>2024-10-15T15:08:49Z</time>
      </trkpt>
      <trkpt lat="45.93584" lon="1.28559">
        <ele>392.5</ele>
        <time>2024-10-15T15:08:51Z</time>
      </trkpt>
      <trkpt lat="45.93593" lon="1.28549">
        <ele>392.9</ele>
        <time>2024-10-15T15:08:55Z</time>
      </trkpt>
      <trkpt lat="45.93602" lon="1.28538">
        <ele>393.4</ele>
        <time>2024-10-15T15:08:57Z</time>
      </trkpt>
      <trkpt lat="45.9361" lon="1.28529">
        <ele>394.1</ele>
        <time>2024-10-15T15:09:00Z</time>
      </trkpt>
      <trkpt lat="45.93617" lon="1.28521">
        <ele>394.8</ele>
        <time>2024-10-15T15:09:03Z</time>
      </trkpt>
      <trkpt lat="45.93624" lon="1.28512">
        <ele>395.7</ele>
        <time>2024-10-15T15:09:06Z</time>
      </trkpt>
      <trkpt lat="45.9363" lon="1.28503">
        <ele>396.5</ele>
        <time>2024-10-15T15:09:09Z</time>
      </trkpt>
      <trkpt lat="45.93638" lon="1.28493">
        <ele>397.6</ele>
        <time>2024-10-15T15:09:12Z</time>
      </trkpt>
      <trkpt lat="45.93647" lon="1.28483">
        <ele>398.6</ele>
        <time>2024-10-15T15:09:15Z</time>
      </trkpt>
      <trkpt lat="45.93657" lon="1.28473">
        <ele>399</ele>
        <time>2024-10-15T15:09:19Z</time>
      </trkpt>
      <trkpt lat="45.93668" lon="1.28464">
        <ele>399.6</ele>
        <time>2024-10-15T15:09:22Z</time>
      </trkpt>
      <trkpt lat="45.93679" lon="1.28457">
        <ele>400.1</ele>
        <time>2024-10-15T15:09:24Z</time>
      </trkpt>
      <trkpt lat="45.93689" lon="1.28454">
        <ele>400.5</ele>
        <time>2024-10-15T15:09:28Z</time>
      </trkpt>
      <trkpt lat="45.93699" lon="1.28454">
        <ele>401</ele>
        <time>2024-10-15T15:09:31Z</time>
      </trkpt>
      <trkpt lat="45.93708" lon="1.28454">
        <ele>401.6</ele>
        <time>2024-10-15T15:09:34Z</time>
      </trkpt>
      <trkpt lat="45.93719" lon="1.28457">
        <ele>402.4</ele>
        <time>2024-10-15T15:09:37Z</time>
      </trkpt>
      <trkpt lat="45.93728" lon="1.28459">
        <ele>403.1</ele>
        <time>2024-10-15T15:09:40Z</time>
      </trkpt>
      <trkpt lat="45.93735" lon="1.28461">
        <ele>403.8</ele>
        <time>2024-10-15T15:09:43Z</time>
      </trkpt>
      <trkpt lat="45.93743" lon="1.28463">
        <ele>404.5</ele>
        <time>2024-10-15T15:09:46Z</time>
      </trkpt>
      <trkpt lat="45.93751" lon="1.28465">
        <ele>405.4</ele>
        <time>2024-10-15T15:09:49Z</time>
      </trkpt>
      <trkpt lat="45.93757" lon="1.28466">
        <ele>406.1</ele>
        <time>2024-10-15T15:09:52Z</time>
      </trkpt>
      <trkpt lat="45.93765" lon="1.28469">
        <ele>406.9</ele>
        <time>2024-10-15T15:09:55Z</time>
      </trkpt>
      <trkpt lat="45.93773" lon="1.2847">
        <ele>407.7</ele>
        <time>2024-10-15T15:09:58Z</time>
      </trkpt>
      <trkpt lat="45.93779" lon="1.28471">
        <ele>408.4</ele>
        <time>2024-10-15T15:10:01Z</time>
      </trkpt>
      <trkpt lat="45.93787" lon="1.28473">
        <ele>409.3</ele>
        <time>2024-10-15T15:10:04Z</time>
      </trkpt>
      <trkpt lat="45.93796" lon="1.28475">
        <ele>410.3</ele>
        <time>2024-10-15T15:10:07Z</time>
      </trkpt>
      <trkpt lat="45.93805" lon="1.28478">
        <ele>411.3</ele>
        <time>2024-10-15T15:10:10Z</time>
      </trkpt>
      <trkpt lat="45.93813" lon="1.2848">
        <ele>412.1</ele>
        <time>2024-10-15T15:10:13Z</time>
      </trkpt>
      <trkpt lat="45.9382" lon="1.28481">
        <ele>412.8</ele>
        <time>2024-10-15T15:10:16Z</time>
      </trkpt>
      <trkpt lat="45.93828" lon="1.28484">
        <ele>413.5</ele>
        <time>2024-10-15T15:10:19Z</time>
      </trkpt>
      <trkpt lat="45.93836" lon="1.28486">
        <ele>414.1</ele>
        <time>2024-10-15T15:10:22Z</time>
      </trkpt>
      <trkpt lat="45.93843" lon="1.28487">
        <ele>414.7</ele>
        <time>2024-10-15T15:10:25Z</time>
      </trkpt>
      <trkpt lat="45.9385" lon="1.28488">
        <ele>415.1</ele>
        <time>2024-10-15T15:10:28Z</time>
      </trkpt>
      <trkpt lat="45.93856" lon="1.28489">
        <ele>415.5</ele>
        <time>2024-10-15T15:10:31Z</time>
      </trkpt>
      <trkpt lat="45.93863" lon="1.28489">
        <ele>415.7</ele>
        <time>2024-10-15T15:10:33Z</time>
      </trkpt>
      <trkpt lat="45.93869" lon="1.28489">
        <ele>415.9</ele>
        <time>2024-10-15T15:10:36Z</time>
      </trkpt>
      <trkpt lat="45.93875" lon="1.28489">
        <ele>416.1</ele>
        <time>2024-10-15T15:10:39Z</time>
      </trkpt>
      <trkpt lat="45.93881" lon="1.28489">
        <ele>416.3</ele>
        <time>2024-10-15T15:10:42Z</time>
      </trkpt>
      <trkpt lat="45.93887" lon="1.28489">
        <ele>416.4</ele>
        <time>2024-10-15T15:10:45Z</time>
      </trkpt>
      <trkpt lat="45.93893" lon="1.28488">
        <ele>416.6</ele>
        <time>2024-10-15T15:10:48Z</time>
      </trkpt>
      <trkpt lat="45.93898" lon="1.28487">
        <ele>416.8</ele>
        <time>2024-10-15T15:10:51Z</time>
      </trkpt>
      <trkpt lat="45.93903" lon="1.28487">
        <ele>417</ele>
        <time>2024-10-15T15:10:54Z</time>
      </trkpt>
      <trkpt lat="45.93909" lon="1.28485">
        <ele>417.2</ele>
        <time>2024-10-15T15:10:57Z</time>
      </trkpt>
      <trkpt lat="45.93915" lon="1.28485">
        <ele>417.4</ele>
        <time>2024-10-15T15:11:01Z</time>
      </trkpt>
      <trkpt lat="45.93922" lon="1.28484">
        <ele>417.6</ele>
        <time>2024-10-15T15:11:04Z</time>
      </trkpt>
      <trkpt lat="45.93929" lon="1.28481">
        <ele>417.8</ele>
        <time>2024-10-15T15:11:07Z</time>
      </trkpt>
      <trkpt lat="45.93935" lon="1.28479">
        <ele>418</ele>
        <time>2024-10-15T15:11:10Z</time>
      </trkpt>
      <trkpt lat="45.93941" lon="1.28477">
        <ele>418.3</ele>
        <time>2024-10-15T15:11:13Z</time>
      </trkpt>
      <trkpt lat="45.93947" lon="1.28474">
        <ele>418.5</ele>
        <time>2024-10-15T15:11:16Z</time>
      </trkpt>
      <trkpt lat="45.93954" lon="1.28472">
        <ele>418.7</ele>
        <time>2024-10-15T15:11:19Z</time>
      </trkpt>
      <trkpt lat="45.93961" lon="1.28469">
        <ele>418.9</ele>
        <time>2024-10-15T15:11:22Z</time>
      </trkpt>
      <trkpt lat="45.93967" lon="1.28466">
        <ele>419.1</ele>
        <time>2024-10-15T15:11:25Z</time>
      </trkpt>
      <trkpt lat="45.93973" lon="1.28463">
        <ele>419.3</ele>
        <time>2024-10-15T15:11:28Z</time>
      </trkpt>
      <trkpt lat="45.9398" lon="1.2846">
        <ele>419.5</ele>
        <time>2024-10-15T15:11:31Z</time>
      </trkpt>
      <trkpt lat="45.93988" lon="1.28455">
        <ele>419.8</ele>
        <time>2024-10-15T15:11:34Z</time>
      </trkpt>
      <trkpt lat="45.93995" lon="1.28452">
        <ele>420.1</ele>
        <time>2024-10-15T15:11:37Z</time>
      </trkpt>
      <trkpt lat="45.94003" lon="1.28449">
        <ele>420.3</ele>
        <time>2024-10-15T15:11:40Z</time>
      </trkpt>
      <trkpt lat="45.94009" lon="1.28447">
        <ele>420.5</ele>
        <time>2024-10-15T15:11:43Z</time>
      </trkpt>
      <trkpt lat="45.94017" lon="1.28447">
        <ele>420.8</ele>
        <time>2024-10-15T15:11:46Z</time>
      </trkpt>
      <trkpt lat="45.94025" lon="1.28447">
        <ele>421</ele>
        <time>2024-10-15T15:11:49Z</time>
      </trkpt>
      <trkpt lat="45.94033" lon="1.28447">
        <ele>421.1</ele>
        <time>2024-10-15T15:11:52Z</time>
      </trkpt>
      <trkpt lat="45.9404" lon="1.28448">
        <ele>421.1</ele>
        <time>2024-10-15T15:11:55Z</time>
      </trkpt>
      <trkpt lat="45.94045" lon="1.2845">
        <ele>421.1</ele>
        <time>2024-10-15T15:11:58Z</time>
      </trkpt>
      <trkpt lat="45.94048" lon="1.28452">
        <ele>421</ele>
        <time>2024-10-15T15:12:01Z</time>
      </trkpt>
      <trkpt lat="45.94048" lon="1.28452">
        <ele>421</ele>
        <time>2024-10-15T15:12:04Z</time>
      </trkpt>
      <trkpt lat="45.94048" lon="1.28452">
        <ele>421</ele>
        <time>2024-10-15T15:12:07Z</time>
      </trkpt>
      <trkpt lat="45.94048" lon="1.28452">
        <ele>421</ele>
        <time>2024-10-15T15:12:10Z</time>
      </trkpt>
      <trkpt lat="45.94048" lon="1.28452">
        <ele>421</ele>
        <time>2024-10-15T15:12:12Z</time>
      </trkpt>
      <trkpt lat="45.94048" lon="1.28452">
        <ele>421</ele>
        <time>2024-10-15T15:12:15Z</time>
      </trkpt>
      <trkpt lat="45.94048" lon="1.28453">
        <ele>421</ele>
        <time>2024-10-15T15:12:18Z</time>
      </trkpt>
      <trkpt lat="45.94048" lon="1.28453">
        <ele>421</ele>
        <time>2024-10-15T15:12:21Z</time>
      </trkpt>
      <trkpt lat="45.94048" lon="1.28453">
        <ele>421</ele>
        <time>2024-10-15T15:12:25Z</time>
      </trkpt>
      <trkpt lat="45.94048" lon="1.28453">
        <ele>421</ele>
        <time>2024-10-15T15:12:27Z</time>
      </trkpt>
      <trkpt lat="45.94048" lon="1.28454">
        <ele>421</ele>
        <time>2024-10-15T15:12:30Z</time>
      </trkpt>
      <trkpt lat="45.94048" lon="1.28454">
        <ele>421</ele>
        <time>2024-10-15T15:12:33Z</time>
      </trkpt>
      <trkpt lat="45.94048" lon="1.28454">
        <ele>421</ele>
        <time>2024-10-15T15:12:37Z</time>
      </trkpt>
      <trkpt lat="45.94048" lon="1.28454">
        <ele>421</ele>
        <time>2024-10-15T15:12:39Z</time>
      </trkpt>
      <trkpt lat="45.94048" lon="1.28454">
        <ele>420.9</ele>
        <time>2024-10-15T15:12:43Z</time>
      </trkpt>
      <trkpt lat="45.94048" lon="1.28454">
        <ele>420.9</ele>
        <time>2024-10-15T15:12:46Z</time>
      </trkpt>
      <trkpt lat="45.94049" lon="1.28455">
        <ele>420.9</ele>
        <time>2024-10-15T15:12:49Z</time>
      </trkpt>
      <trkpt lat="45.94049" lon="1.28455">
        <ele>420.9</ele>
        <time>2024-10-15T15:12:52Z</time>
      </trkpt>
      <trkpt lat="45.94049" lon="1.28455">
        <ele>420.9</ele>
        <time>2024-10-15T15:12:55Z</time>
      </trkpt>
      <trkpt lat="45.94049" lon="1.28455">
        <ele>420.9</ele>
        <time>2024-10-15T15:12:58Z</time>
      </trkpt>
      <trkpt lat="45.94048" lon="1.28455">
        <ele>420.9</ele>
        <time>2024-10-15T15:13:01Z</time>
      </trkpt>
      <trkpt lat="45.94048" lon="1.28454">
        <ele>420.9</ele>
        <time>2024-10-15T15:13:04Z</time>
      </trkpt>
      <trkpt lat="45.94049" lon="1.28454">
        <ele>420.9</ele>
        <time>2024-10-15T15:13:07Z</time>
      </trkpt>
      <trkpt lat="45.94049" lon="1.28453">
        <ele>420.9</ele>
        <time>2024-10-15T15:13:10Z</time>
      </trkpt>
      <trkpt lat="45.94049" lon="1.28453">
        <ele>420.9</ele>
        <time>2024-10-15T15:13:13Z</time>
      </trkpt>
      <trkpt lat="45.94049" lon="1.28453">
        <ele>420.9</ele>
        <time>2024-10-15T15:13:16Z</time>
      </trkpt>
      <trkpt lat="45.94049" lon="1.28453">
        <ele>420.8</ele>
        <time>2024-10-15T15:13:19Z</time>
      </trkpt>
      <trkpt lat="45.94049" lon="1.28454">
        <ele>420.8</ele>
        <time>2024-10-15T15:13:22Z</time>
      </trkpt>
      <trkpt lat="45.94049" lon="1.28454">
        <ele>420.8</ele>
        <time>2024-10-15T15:13:25Z</time>
      </trkpt>
      <trkpt lat="45.94049" lon="1.28455">
        <ele>420.8</ele>
        <time>2024-10-15T15:13:28Z</time>
      </trkpt>
      <trkpt lat="45.94049" lon="1.28455">
        <ele>420.8</ele>
        <time>2024-10-15T15:13:31Z</time>
      </trkpt>
      <trkpt lat="45.94049" lon="1.28455">
        <ele>420.8</ele>
        <time>2024-10-15T15:13:34Z</time>
      </trkpt>
      <trkpt lat="45.94048" lon="1.28456">
        <ele>420.8</ele>
        <time>2024-10-15T15:13:37Z</time>
      </trkpt>
      <trkpt lat="45.94048" lon="1.28455">
        <ele>420.8</ele>
        <time>2024-10-15T15:13:40Z</time>
      </trkpt>
      <trkpt lat="45.94049" lon="1.28455">
        <ele>420.8</ele>
        <time>2024-10-15T15:13:42Z</time>
      </trkpt>
      <trkpt lat="45.94049" lon="1.28454">
        <ele>420.7</ele>
        <time>2024-10-15T15:13:45Z</time>
      </trkpt>
      <trkpt lat="45.94049" lon="1.28454">
        <ele>420.7</ele>
        <time>2024-10-15T15:13:48Z</time>
      </trkpt>
      <trkpt lat="45.94049" lon="1.28454">
        <ele>420.7</ele>
        <time>2024-10-15T15:13:51Z</time>
      </trkpt>
      <trkpt lat="45.94052" lon="1.28457">
        <ele>420.6</ele>
        <time>2024-10-15T15:13:54Z</time>
      </trkpt>
      <trkpt lat="45.94058" lon="1.28461">
        <ele>420.3</ele>
        <time>2024-10-15T15:13:57Z</time>
      </trkpt>
      <trkpt lat="45.94065" lon="1.28467">
        <ele>419.8</ele>
        <time>2024-10-15T15:14:00Z</time>
      </trkpt>
      <trkpt lat="45.94079" lon="1.28474">
        <ele>418.9</ele>
        <time>2024-10-15T15:14:03Z</time>
      </trkpt>
      <trkpt lat="45.94097" lon="1.28483">
        <ele>417.6</ele>
        <time>2024-10-15T15:14:06Z</time>
      </trkpt>
      <trkpt lat="45.94119" lon="1.28494">
        <ele>416.2</ele>
        <time>2024-10-15T15:14:09Z</time>
      </trkpt>
      <trkpt lat="45.94141" lon="1.28506">
        <ele>415.9</ele>
        <time>2024-10-15T15:14:13Z</time>
      </trkpt>
      <trkpt lat="45.94152" lon="1.28499">
        <ele>415.8</ele>
        <time>2024-10-15T15:14:16Z</time>
      </trkpt>
      <trkpt lat="45.9416" lon="1.28483">
        <ele>415.9</ele>
        <time>2024-10-15T15:14:19Z</time>
      </trkpt>
      <trkpt lat="45.94166" lon="1.28466">
        <ele>416</ele>
        <time>2024-10-15T15:14:22Z</time>
      </trkpt>
      <trkpt lat="45.94172" lon="1.28447">
        <ele>416.2</ele>
        <time>2024-10-15T15:14:25Z</time>
      </trkpt>
      <trkpt lat="45.94178" lon="1.2843">
        <ele>416.6</ele>
        <time>2024-10-15T15:14:28Z</time>
      </trkpt>
      <trkpt lat="45.94183" lon="1.28415">
        <ele>417</ele>
        <time>2024-10-15T15:14:31Z</time>
      </trkpt>
      <trkpt lat="45.94189" lon="1.284">
        <ele>417.5</ele>
        <time>2024-10-15T15:14:34Z</time>
      </trkpt>
      <trkpt lat="45.94193" lon="1.28387">
        <ele>418.1</ele>
        <time>2024-10-15T15:14:37Z</time>
      </trkpt>
      <trkpt lat="45.94197" lon="1.28374">
        <ele>418.8</ele>
        <time>2024-10-15T15:14:40Z</time>
      </trkpt>
      <trkpt lat="45.94201" lon="1.2836">
        <ele>419.6</ele>
        <time>2024-10-15T15:14:43Z</time>
      </trkpt>
      <trkpt lat="45.94205" lon="1.28348">
        <ele>420.4</ele>
        <time>2024-10-15T15:14:46Z</time>
      </trkpt>
      <trkpt lat="45.94209" lon="1.28337">
        <ele>421.1</ele>
        <time>2024-10-15T15:14:49Z</time>
      </trkpt>
      <trkpt lat="45.94212" lon="1.28326">
        <ele>421.7</ele>
        <time>2024-10-15T15:14:52Z</time>
      </trkpt>
      <trkpt lat="45.94215" lon="1.28314">
        <ele>422.4</ele>
        <time>2024-10-15T15:14:55Z</time>
      </trkpt>
      <trkpt lat="45.94219" lon="1.28304">
        <ele>422.9</ele>
        <time>2024-10-15T15:14:58Z</time>
      </trkpt>
      <trkpt lat="45.94222" lon="1.28294">
        <ele>423.4</ele>
        <time>2024-10-15T15:15:01Z</time>
      </trkpt>
      <trkpt lat="45.94226" lon="1.28283">
        <ele>424</ele>
        <time>2024-10-15T15:15:04Z</time>
      </trkpt>
      <trkpt lat="45.9423" lon="1.28272">
        <ele>424.4</ele>
        <time>2024-10-15T15:15:07Z</time>
      </trkpt>
      <trkpt lat="45.94235" lon="1.2826">
        <ele>424.5</ele>
        <time>2024-10-15T15:15:10Z</time>
      </trkpt>
      <trkpt lat="45.9424" lon="1.2825">
        <ele>424.5</ele>
        <time>2024-10-15T15:15:13Z</time>
      </trkpt>
      <trkpt lat="45.94245" lon="1.28239">
        <ele>424.5</ele>
        <time>2024-10-15T15:15:16Z</time>
      </trkpt>
      <trkpt lat="45.94251" lon="1.28228">
        <ele>424.3</ele>
        <time>2024-10-15T15:15:19Z</time>
      </trkpt>
      <trkpt lat="45.94257" lon="1.28215">
        <ele>424.1</ele>
        <time>2024-10-15T15:15:22Z</time>
      </trkpt>
      <trkpt lat="45.94263" lon="1.28201">
        <ele>423.7</ele>
        <time>2024-10-15T15:15:25Z</time>
      </trkpt>
      <trkpt lat="45.9427" lon="1.28185">
        <ele>423.2</ele>
        <time>2024-10-15T15:15:27Z</time>
      </trkpt>
      <trkpt lat="45.94278" lon="1.2817">
        <ele>422.6</ele>
        <time>2024-10-15T15:15:30Z</time>
      </trkpt>
      <trkpt lat="45.94285" lon="1.2815">
        <ele>422.1</ele>
        <time>2024-10-15T15:15:33Z</time>
      </trkpt>
      <trkpt lat="45.94291" lon="1.28126">
        <ele>421.6</ele>
        <time>2024-10-15T15:15:36Z</time>
      </trkpt>
      <trkpt lat="45.94297" lon="1.28101">
        <ele>421.2</ele>
        <time>2024-10-15T15:15:39Z</time>
      </trkpt>
      <trkpt lat="45.94302" lon="1.28074">
        <ele>420.8</ele>
        <time>2024-10-15T15:15:42Z</time>
      </trkpt>
      <trkpt lat="45.94307" lon="1.28047">
        <ele>420.6</ele>
        <time>2024-10-15T15:15:45Z</time>
      </trkpt>
      <trkpt lat="45.94309" lon="1.28022">
        <ele>420.6</ele>
        <time>2024-10-15T15:15:48Z</time>
      </trkpt>
      <trkpt lat="45.9431" lon="1.27996">
        <ele>420.6</ele>
        <time>2024-10-15T15:15:51Z</time>
      </trkpt>
      <trkpt lat="45.94308" lon="1.27976">
        <ele>420.7</ele>
        <time>2024-10-15T15:15:54Z</time>
      </trkpt>
      <trkpt lat="45.94308" lon="1.27957">
        <ele>420.9</ele>
        <time>2024-10-15T15:15:58Z</time>
      </trkpt>
      <trkpt lat="45.94305" lon="1.27941">
        <ele>421.1</ele>
        <time>2024-10-15T15:16:01Z</time>
      </trkpt>
      <trkpt lat="45.94305" lon="1.2793">
        <ele>421.3</ele>
        <time>2024-10-15T15:16:04Z</time>
      </trkpt>
      <trkpt lat="45.94306" lon="1.27921">
        <ele>421.4</ele>
        <time>2024-10-15T15:16:07Z</time>
      </trkpt>
      <trkpt lat="45.94304" lon="1.2791">
        <ele>421.5</ele>
        <time>2024-10-15T15:16:10Z</time>
      </trkpt>
      <trkpt lat="45.94301" lon="1.27897">
        <ele>421.6</ele>
        <time>2024-10-15T15:16:13Z</time>
      </trkpt>
      <trkpt lat="45.94296" lon="1.27883">
        <ele>422</ele>
        <time>2024-10-15T15:16:16Z</time>
      </trkpt>
      <trkpt lat="45.9429" lon="1.27872">
        <ele>422.3</ele>
        <time>2024-10-15T15:16:19Z</time>
      </trkpt>
      <trkpt lat="45.94284" lon="1.27862">
        <ele>422.6</ele>
        <time>2024-10-15T15:16:22Z</time>
      </trkpt>
      <trkpt lat="45.94281" lon="1.2785">
        <ele>423</ele>
        <time>2024-10-15T15:16:25Z</time>
      </trkpt>
      <trkpt lat="45.94279" lon="1.27837">
        <ele>423.4</ele>
        <time>2024-10-15T15:16:28Z</time>
      </trkpt>
      <trkpt lat="45.94276" lon="1.27826">
        <ele>423.9</ele>
        <time>2024-10-15T15:16:31Z</time>
      </trkpt>
      <trkpt lat="45.94274" lon="1.27814">
        <ele>424.3</ele>
        <time>2024-10-15T15:16:34Z</time>
      </trkpt>
      <trkpt lat="45.94272" lon="1.27802">
        <ele>424.7</ele>
        <time>2024-10-15T15:16:37Z</time>
      </trkpt>
      <trkpt lat="45.9427" lon="1.27789">
        <ele>425.2</ele>
        <time>2024-10-15T15:16:40Z</time>
      </trkpt>
      <trkpt lat="45.94271" lon="1.27775">
        <ele>425.5</ele>
        <time>2024-10-15T15:16:43Z</time>
      </trkpt>
      <trkpt lat="45.94271" lon="1.27762">
        <ele>425.7</ele>
        <time>2024-10-15T15:16:46Z</time>
      </trkpt>
      <trkpt lat="45.94273" lon="1.27748">
        <ele>425.8</ele>
        <time>2024-10-15T15:16:49Z</time>
      </trkpt>
      <trkpt lat="45.94275" lon="1.27734">
        <ele>425.8</ele>
        <time>2024-10-15T15:16:52Z</time>
      </trkpt>
      <trkpt lat="45.94274" lon="1.27721">
        <ele>425.8</ele>
        <time>2024-10-15T15:16:55Z</time>
      </trkpt>
      <trkpt lat="45.94272" lon="1.27709">
        <ele>425.8</ele>
        <time>2024-10-15T15:16:58Z</time>
      </trkpt>
      <trkpt lat="45.94269" lon="1.27699">
        <ele>425.8</ele>
        <time>2024-10-15T15:17:01Z</time>
      </trkpt>
      <trkpt lat="45.94267" lon="1.27691">
        <ele>425.8</ele>
        <time>2024-10-15T15:17:04Z</time>
      </trkpt>
      <trkpt lat="45.94265" lon="1.27685">
        <ele>425.9</ele>
        <time>2024-10-15T15:17:06Z</time>
      </trkpt>
      <trkpt lat="45.94262" lon="1.27675">
        <ele>425.9</ele>
        <time>2024-10-15T15:17:10Z</time>
      </trkpt>
      <trkpt lat="45.94257" lon="1.27666">
        <ele>425.9</ele>
        <time>2024-10-15T15:17:12Z</time>
      </trkpt>
      <trkpt lat="45.94252" lon="1.27658">
        <ele>425.9</ele>
        <time>2024-10-15T15:17:15Z</time>
      </trkpt>
      <trkpt lat="45.94247" lon="1.27651">
        <ele>425.9</ele>
        <time>2024-10-15T15:17:18Z</time>
      </trkpt>
      <trkpt lat="45.94243" lon="1.27645">
        <ele>425.9</ele>
        <time>2024-10-15T15:17:21Z</time>
      </trkpt>
      <trkpt lat="45.94241" lon="1.27639">
        <ele>425.9</ele>
        <time>2024-10-15T15:17:24Z</time>
      </trkpt>
      <trkpt lat="45.9424" lon="1.27639">
        <ele>425.8</ele>
        <time>2024-10-15T15:17:27Z</time>
      </trkpt>
      <trkpt lat="45.94237" lon="1.27637">
        <ele>425.8</ele>
        <time>2024-10-15T15:17:31Z</time>
      </trkpt>
      <trkpt lat="45.94234" lon="1.27631">
        <ele>425.7</ele>
        <time>2024-10-15T15:17:33Z</time>
      </trkpt>
      <trkpt lat="45.94229" lon="1.27625">
        <ele>425.5</ele>
        <time>2024-10-15T15:17:36Z</time>
      </trkpt>
      <trkpt lat="45.94222" lon="1.27618">
        <ele>425.2</ele>
        <time>2024-10-15T15:17:39Z</time>
      </trkpt>
      <trkpt lat="45.94217" lon="1.27609">
        <ele>424.8</ele>
        <time>2024-10-15T15:17:43Z</time>
      </trkpt>
      <trkpt lat="45.9421" lon="1.27597">
        <ele>424.3</ele>
        <time>2024-10-15T15:17:46Z</time>
      </trkpt>
      <trkpt lat="45.94202" lon="1.27581">
        <ele>423.5</ele>
        <time>2024-10-15T15:17:49Z</time>
      </trkpt>
      <trkpt lat="45.94199" lon="1.2756">
        <ele>422.6</ele>
        <time>2024-10-15T15:17:52Z</time>
      </trkpt>
      <trkpt lat="45.94192" lon="1.2754">
        <ele>422.2</ele>
        <time>2024-10-15T15:17:55Z</time>
      </trkpt>
      <trkpt lat="45.94182" lon="1.27523">
        <ele>421.3</ele>
        <time>2024-10-15T15:17:58Z</time>
      </trkpt>
      <trkpt lat="45.94169" lon="1.27509">
        <ele>420.2</ele>
        <time>2024-10-15T15:18:01Z</time>
      </trkpt>
      <trkpt lat="45.94154" lon="1.27496">
        <ele>419.3</ele>
        <time>2024-10-15T15:18:04Z</time>
      </trkpt>
      <trkpt lat="45.94137" lon="1.27488">
        <ele>418.4</ele>
        <time>2024-10-15T15:18:07Z</time>
      </trkpt>
      <trkpt lat="45.94118" lon="1.27483">
        <ele>417.5</ele>
        <time>2024-10-15T15:18:10Z</time>
      </trkpt>
      <trkpt lat="45.94098" lon="1.27478">
        <ele>417</ele>
        <time>2024-10-15T15:18:13Z</time>
      </trkpt>
      <trkpt lat="45.94081" lon="1.27475">
        <ele>416.9</ele>
        <time>2024-10-15T15:18:16Z</time>
      </trkpt>
      <trkpt lat="45.94067" lon="1.27471">
        <ele>416.9</ele>
        <time>2024-10-15T15:18:19Z</time>
      </trkpt>
      <trkpt lat="45.94054" lon="1.27467">
        <ele>417.1</ele>
        <time>2024-10-15T15:18:22Z</time>
      </trkpt>
      <trkpt lat="45.94043" lon="1.27461">
        <ele>417.3</ele>
        <time>2024-10-15T15:18:25Z</time>
      </trkpt>
      <trkpt lat="45.94033" lon="1.27453">
        <ele>417.7</ele>
        <time>2024-10-15T15:18:28Z</time>
      </trkpt>
      <trkpt lat="45.94024" lon="1.27445">
        <ele>418</ele>
        <time>2024-10-15T15:18:31Z</time>
      </trkpt>
      <trkpt lat="45.94015" lon="1.27436">
        <ele>418.4</ele>
        <time>2024-10-15T15:18:34Z</time>
      </trkpt>
      <trkpt lat="45.94007" lon="1.27428">
        <ele>418.8</ele>
        <time>2024-10-15T15:18:37Z</time>
      </trkpt>
      <trkpt lat="45.94" lon="1.2742">
        <ele>419.1</ele>
        <time>2024-10-15T15:18:40Z</time>
      </trkpt>
      <trkpt lat="45.93995" lon="1.2741">
        <ele>419.4</ele>
        <time>2024-10-15T15:18:43Z</time>
      </trkpt>
      <trkpt lat="45.93991" lon="1.27402">
        <ele>419.7</ele>
        <time>2024-10-15T15:18:45Z</time>
      </trkpt>
      <trkpt lat="45.93986" lon="1.27399">
        <ele>419.9</ele>
        <time>2024-10-15T15:18:48Z</time>
      </trkpt>
      <trkpt lat="45.93981" lon="1.274">
        <ele>420</ele>
        <time>2024-10-15T15:18:51Z</time>
      </trkpt>
      <trkpt lat="45.93976" lon="1.27402">
        <ele>420.1</ele>
        <time>2024-10-15T15:18:54Z</time>
      </trkpt>
      <trkpt lat="45.9397" lon="1.274">
        <ele>420.2</ele>
        <time>2024-10-15T15:18:57Z</time>
      </trkpt>
      <trkpt lat="45.9396" lon="1.27396">
        <ele>420.4</ele>
        <time>2024-10-15T15:19:00Z</time>
      </trkpt>
      <trkpt lat="45.93948" lon="1.27392">
        <ele>420.6</ele>
        <time>2024-10-15T15:19:03Z</time>
      </trkpt>
      <trkpt lat="45.93937" lon="1.27387">
        <ele>420.8</ele>
        <time>2024-10-15T15:19:06Z</time>
      </trkpt>
      <trkpt lat="45.93927" lon="1.27384">
        <ele>421</ele>
        <time>2024-10-15T15:19:09Z</time>
      </trkpt>
      <trkpt lat="45.93917" lon="1.27381">
        <ele>421.2</ele>
        <time>2024-10-15T15:19:12Z</time>
      </trkpt>
      <trkpt lat="45.93906" lon="1.27379">
        <ele>421.3</ele>
        <time>2024-10-15T15:19:15Z</time>
      </trkpt>
      <trkpt lat="45.93896" lon="1.27378">
        <ele>421.3</ele>
        <time>2024-10-15T15:19:19Z</time>
      </trkpt>
      <trkpt lat="45.93885" lon="1.27379">
        <ele>421.2</ele>
        <time>2024-10-15T15:19:21Z</time>
      </trkpt>
      <trkpt lat="45.93872" lon="1.2738">
        <ele>421</ele>
        <time>2024-10-15T15:19:24Z</time>
      </trkpt>
      <trkpt lat="45.93859" lon="1.27383">
        <ele>420.7</ele>
        <time>2024-10-15T15:19:28Z</time>
      </trkpt>
      <trkpt lat="45.93846" lon="1.27385">
        <ele>420.3</ele>
        <time>2024-10-15T15:19:31Z</time>
      </trkpt>
      <trkpt lat="45.93832" lon="1.27387">
        <ele>420.1</ele>
        <time>2024-10-15T15:19:34Z</time>
      </trkpt>
      <trkpt lat="45.93818" lon="1.2739">
        <ele>420</ele>
        <time>2024-10-15T15:19:37Z</time>
      </trkpt>
      <trkpt lat="45.93803" lon="1.27392">
        <ele>420</ele>
        <time>2024-10-15T15:19:40Z</time>
      </trkpt>
      <trkpt lat="45.93789" lon="1.27395">
        <ele>420.1</ele>
        <time>2024-10-15T15:19:43Z</time>
      </trkpt>
      <trkpt lat="45.93776" lon="1.27398">
        <ele>420.2</ele>
        <time>2024-10-15T15:19:46Z</time>
      </trkpt>
      <trkpt lat="45.93762" lon="1.27401">
        <ele>420.3</ele>
        <time>2024-10-15T15:19:49Z</time>
      </trkpt>
      <trkpt lat="45.93747" lon="1.27403">
        <ele>420.4</ele>
        <time>2024-10-15T15:19:52Z</time>
      </trkpt>
      <trkpt lat="45.93734" lon="1.27403">
        <ele>420.4</ele>
        <time>2024-10-15T15:19:55Z</time>
      </trkpt>
      <trkpt lat="45.9372" lon="1.27401">
        <ele>420.5</ele>
        <time>2024-10-15T15:19:58Z</time>
      </trkpt>
      <trkpt lat="45.93707" lon="1.27396">
        <ele>420.4</ele>
        <time>2024-10-15T15:20:01Z</time>
      </trkpt>
      <trkpt lat="45.93693" lon="1.27388">
        <ele>420.2</ele>
        <time>2024-10-15T15:20:04Z</time>
      </trkpt>
      <trkpt lat="45.93678" lon="1.2738">
        <ele>419.7</ele>
        <time>2024-10-15T15:20:07Z</time>
      </trkpt>
      <trkpt lat="45.93663" lon="1.27371">
        <ele>419.3</ele>
        <time>2024-10-15T15:20:10Z</time>
      </trkpt>
      <trkpt lat="45.93648" lon="1.27361">
        <ele>418.9</ele>
        <time>2024-10-15T15:20:13Z</time>
      </trkpt>
      <trkpt lat="45.93633" lon="1.27354">
        <ele>418.6</ele>
        <time>2024-10-15T15:20:16Z</time>
      </trkpt>
      <trkpt lat="45.93619" lon="1.27346">
        <ele>418.4</ele>
        <time>2024-10-15T15:20:19Z</time>
      </trkpt>
      <trkpt lat="45.93605" lon="1.27337">
        <ele>418.1</ele>
        <time>2024-10-15T15:20:22Z</time>
      </trkpt>
      <trkpt lat="45.93589" lon="1.27328">
        <ele>418.1</ele>
        <time>2024-10-15T15:20:25Z</time>
      </trkpt>
      <trkpt lat="45.93574" lon="1.2732">
        <ele>418.2</ele>
        <time>2024-10-15T15:20:28Z</time>
      </trkpt>
      <trkpt lat="45.93559" lon="1.27312">
        <ele>418.5</ele>
        <time>2024-10-15T15:20:31Z</time>
      </trkpt>
      <trkpt lat="45.93547" lon="1.27304">
        <ele>418.9</ele>
        <time>2024-10-15T15:20:34Z</time>
      </trkpt>
      <trkpt lat="45.93535" lon="1.27297">
        <ele>419.1</ele>
        <time>2024-10-15T15:20:36Z</time>
      </trkpt>
      <trkpt lat="45.93524" lon="1.27289">
        <ele>419.2</ele>
        <time>2024-10-15T15:20:39Z</time>
      </trkpt>
      <trkpt lat="45.93512" lon="1.27283">
        <ele>419.4</ele>
        <time>2024-10-15T15:20:42Z</time>
      </trkpt>
      <trkpt lat="45.935" lon="1.27278">
        <ele>419.4</ele>
        <time>2024-10-15T15:20:45Z</time>
      </trkpt>
      <trkpt lat="45.93487" lon="1.27275">
        <ele>419.4</ele>
        <time>2024-10-15T15:20:48Z</time>
      </trkpt>
      <trkpt lat="45.93473" lon="1.27275">
        <ele>419</ele>
        <time>2024-10-15T15:20:51Z</time>
      </trkpt>
      <trkpt lat="45.93457" lon="1.27272">
        <ele>418.2</ele>
        <time>2024-10-15T15:20:54Z</time>
      </trkpt>
      <trkpt lat="45.93438" lon="1.27273">
        <ele>417</ele>
        <time>2024-10-15T15:20:58Z</time>
      </trkpt>
      <trkpt lat="45.93415" lon="1.27279">
        <ele>415.5</ele>
        <time>2024-10-15T15:21:00Z</time>
      </trkpt>
      <trkpt lat="45.93391" lon="1.27289">
        <ele>413.7</ele>
        <time>2024-10-15T15:21:04Z</time>
      </trkpt>
      <trkpt lat="45.93368" lon="1.27298">
        <ele>411.9</ele>
        <time>2024-10-15T15:21:07Z</time>
      </trkpt>
      <trkpt lat="45.93339" lon="1.27308">
        <ele>409.4</ele>
        <time>2024-10-15T15:21:10Z</time>
      </trkpt>
      <trkpt lat="45.93308" lon="1.2732">
        <ele>407.6</ele>
        <time>2024-10-15T15:21:13Z</time>
      </trkpt>
      <trkpt lat="45.93278" lon="1.2732">
        <ele>406.2</ele>
        <time>2024-10-15T15:21:16Z</time>
      </trkpt>
      <trkpt lat="45.93253" lon="1.27307">
        <ele>405</ele>
        <time>2024-10-15T15:21:19Z</time>
      </trkpt>
      <trkpt lat="45.93229" lon="1.27289">
        <ele>404.2</ele>
        <time>2024-10-15T15:21:22Z</time>
      </trkpt>
      <trkpt lat="45.93207" lon="1.27263">
        <ele>401.9</ele>
        <time>2024-10-15T15:21:25Z</time>
      </trkpt>
      <trkpt lat="45.93185" lon="1.27231">
        <ele>399.4</ele>
        <time>2024-10-15T15:21:28Z</time>
      </trkpt>
      <trkpt lat="45.9317" lon="1.27191">
        <ele>397.8</ele>
        <time>2024-10-15T15:21:31Z</time>
      </trkpt>
      <trkpt lat="45.9316" lon="1.2715">
        <ele>396.5</ele>
        <time>2024-10-15T15:21:34Z</time>
      </trkpt>
      <trkpt lat="45.93157" lon="1.27108">
        <ele>395.4</ele>
        <time>2024-10-15T15:21:37Z</time>
      </trkpt>
      <trkpt lat="45.93155" lon="1.27071">
        <ele>394.7</ele>
        <time>2024-10-15T15:21:40Z</time>
      </trkpt>
      <trkpt lat="45.93148" lon="1.27038">
        <ele>394.3</ele>
        <time>2024-10-15T15:21:43Z</time>
      </trkpt>
      <trkpt lat="45.93139" lon="1.27006">
        <ele>394.4</ele>
        <time>2024-10-15T15:21:46Z</time>
      </trkpt>
      <trkpt lat="45.93132" lon="1.26981">
        <ele>394.7</ele>
        <time>2024-10-15T15:21:49Z</time>
      </trkpt>
      <trkpt lat="45.93124" lon="1.26957">
        <ele>394.9</ele>
        <time>2024-10-15T15:21:52Z</time>
      </trkpt>
      <trkpt lat="45.93116" lon="1.26934">
        <ele>394.9</ele>
        <time>2024-10-15T15:21:55Z</time>
      </trkpt>
      <trkpt lat="45.93108" lon="1.26908">
        <ele>395</ele>
        <time>2024-10-15T15:21:58Z</time>
      </trkpt>
      <trkpt lat="45.93099" lon="1.26883">
        <ele>395.1</ele>
        <time>2024-10-15T15:22:01Z</time>
      </trkpt>
      <trkpt lat="45.93086" lon="1.26862">
        <ele>395.4</ele>
        <time>2024-10-15T15:22:04Z</time>
      </trkpt>
      <trkpt lat="45.93072" lon="1.26844">
        <ele>395.6</ele>
        <time>2024-10-15T15:22:07Z</time>
      </trkpt>
      <trkpt lat="45.93055" lon="1.2683">
        <ele>395.5</ele>
        <time>2024-10-15T15:22:10Z</time>
      </trkpt>
      <trkpt lat="45.93038" lon="1.26815">
        <ele>395.1</ele>
        <time>2024-10-15T15:22:13Z</time>
      </trkpt>
      <trkpt lat="45.93022" lon="1.26797">
        <ele>394.9</ele>
        <time>2024-10-15T15:22:15Z</time>
      </trkpt>
      <trkpt lat="45.93009" lon="1.26774">
        <ele>394.6</ele>
        <time>2024-10-15T15:22:18Z</time>
      </trkpt>
      <trkpt lat="45.92996" lon="1.26754">
        <ele>394</ele>
        <time>2024-10-15T15:22:21Z</time>
      </trkpt>
      <trkpt lat="45.92988" lon="1.2674">
        <ele>393.3</ele>
        <time>2024-10-15T15:22:24Z</time>
      </trkpt>
      <trkpt lat="45.92988" lon="1.26736">
        <ele>393.3</ele>
        <time>2024-10-15T15:22:27Z</time>
      </trkpt>
      <trkpt lat="45.92994" lon="1.26736">
        <ele>393.3</ele>
        <time>2024-10-15T15:22:30Z</time>
      </trkpt>
      <trkpt lat="45.93005" lon="1.26749">
        <ele>392.8</ele>
        <time>2024-10-15T15:22:33Z</time>
      </trkpt>
      <trkpt lat="45.93019" lon="1.26766">
        <ele>391.4</ele>
        <time>2024-10-15T15:22:37Z</time>
      </trkpt>
      <trkpt lat="45.93036" lon="1.26782">
        <ele>389.8</ele>
        <time>2024-10-15T15:22:39Z</time>
      </trkpt>
      <trkpt lat="45.93056" lon="1.26796">
        <ele>388.2</ele>
        <time>2024-10-15T15:22:43Z</time>
      </trkpt>
      <trkpt lat="45.93075" lon="1.26807">
        <ele>387.1</ele>
        <time>2024-10-15T15:22:46Z</time>
      </trkpt>
      <trkpt lat="45.9309" lon="1.26808">
        <ele>386.5</ele>
        <time>2024-10-15T15:22:49Z</time>
      </trkpt>
      <trkpt lat="45.931" lon="1.26799">
        <ele>386.3</ele>
        <time>2024-10-15T15:22:52Z</time>
      </trkpt>
      <trkpt lat="45.93111" lon="1.26783">
        <ele>386.3</ele>
        <time>2024-10-15T15:22:55Z</time>
      </trkpt>
      <trkpt lat="45.9312" lon="1.26761">
        <ele>387.2</ele>
        <time>2024-10-15T15:22:58Z</time>
      </trkpt>
      <trkpt lat="45.93126" lon="1.26744">
        <ele>388.3</ele>
        <time>2024-10-15T15:23:01Z</time>
      </trkpt>
      <trkpt lat="45.93129" lon="1.26728">
        <ele>389.6</ele>
        <time>2024-10-15T15:23:04Z</time>
      </trkpt>
      <trkpt lat="45.93133" lon="1.26713">
        <ele>390.8</ele>
        <time>2024-10-15T15:23:07Z</time>
      </trkpt>
      <trkpt lat="45.93135" lon="1.26702">
        <ele>390.9</ele>
        <time>2024-10-15T15:23:10Z</time>
      </trkpt>
      <trkpt lat="45.93137" lon="1.26686">
        <ele>390.7</ele>
        <time>2024-10-15T15:23:13Z</time>
      </trkpt>
      <trkpt lat="45.93141" lon="1.26671">
        <ele>390.5</ele>
        <time>2024-10-15T15:23:16Z</time>
      </trkpt>
      <trkpt lat="45.93147" lon="1.26655">
        <ele>390.4</ele>
        <time>2024-10-15T15:23:19Z</time>
      </trkpt>
      <trkpt lat="45.93153" lon="1.26639">
        <ele>390.5</ele>
        <time>2024-10-15T15:23:22Z</time>
      </trkpt>
      <trkpt lat="45.93159" lon="1.26623">
        <ele>390.7</ele>
        <time>2024-10-15T15:23:25Z</time>
      </trkpt>
      <trkpt lat="45.93165" lon="1.2661">
        <ele>390.8</ele>
        <time>2024-10-15T15:23:28Z</time>
      </trkpt>
      <trkpt lat="45.93171" lon="1.26599">
        <ele>391</ele>
        <time>2024-10-15T15:23:31Z</time>
      </trkpt>
      <trkpt lat="45.93168" lon="1.26585">
        <ele>390.7</ele>
        <time>2024-10-15T15:23:34Z</time>
      </trkpt>
      <trkpt lat="45.93155" lon="1.26568">
        <ele>389.4</ele>
        <time>2024-10-15T15:23:37Z</time>
      </trkpt>
      <trkpt lat="45.93138" lon="1.26543">
        <ele>386.5</ele>
        <time>2024-10-15T15:23:40Z</time>
      </trkpt>
      <trkpt lat="45.93118" lon="1.2651">
        <ele>382.6</ele>
        <time>2024-10-15T15:23:43Z</time>
      </trkpt>
      <trkpt lat="45.93095" lon="1.26474">
        <ele>378.4</ele>
        <time>2024-10-15T15:23:46Z</time>
      </trkpt>
      <trkpt lat="45.93069" lon="1.26436">
        <ele>374.6</ele>
        <time>2024-10-15T15:23:49Z</time>
      </trkpt>
      <trkpt lat="45.93044" lon="1.26397">
        <ele>372</ele>
        <time>2024-10-15T15:23:52Z</time>
      </trkpt>
      <trkpt lat="45.9302" lon="1.2636">
        <ele>370.7</ele>
        <time>2024-10-15T15:23:55Z</time>
      </trkpt>
      <trkpt lat="45.93001" lon="1.26332">
        <ele>370.6</ele>
        <time>2024-10-15T15:23:58Z</time>
      </trkpt>
      <trkpt lat="45.9299" lon="1.26313">
        <ele>371.1</ele>
        <time>2024-10-15T15:24:01Z</time>
      </trkpt>
      <trkpt lat="45.92986" lon="1.26305">
        <ele>371.5</ele>
        <time>2024-10-15T15:24:03Z</time>
      </trkpt>
      <trkpt lat="45.92987" lon="1.26307">
        <ele>371.6</ele>
        <time>2024-10-15T15:24:06Z</time>
      </trkpt>
      <trkpt lat="45.92987" lon="1.26307">
        <ele>371.6</ele>
        <time>2024-10-15T15:24:09Z</time>
      </trkpt>
      <trkpt lat="45.92988" lon="1.26307">
        <ele>371.7</ele>
        <time>2024-10-15T15:24:12Z</time>
      </trkpt>
      <trkpt lat="45.92987" lon="1.26306">
        <ele>371.8</ele>
        <time>2024-10-15T15:24:15Z</time>
      </trkpt>
      <trkpt lat="45.92986" lon="1.26305">
        <ele>371.9</ele>
        <time>2024-10-15T15:24:18Z</time>
      </trkpt>
      <trkpt lat="45.92986" lon="1.26304">
        <ele>371.9</ele>
        <time>2024-10-15T15:24:21Z</time>
      </trkpt>
      <trkpt lat="45.92986" lon="1.26304">
        <ele>372</ele>
        <time>2024-10-15T15:24:24Z</time>
      </trkpt>
      <trkpt lat="45.92985" lon="1.26302">
        <ele>372.1</ele>
        <time>2024-10-15T15:24:27Z</time>
      </trkpt>
      <trkpt lat="45.92984" lon="1.263">
        <ele>372.3</ele>
        <time>2024-10-15T15:24:31Z</time>
      </trkpt>
      <trkpt lat="45.92983" lon="1.26298">
        <ele>372.4</ele>
        <time>2024-10-15T15:24:34Z</time>
      </trkpt>
      <trkpt lat="45.92982" lon="1.26298">
        <ele>372.5</ele>
        <time>2024-10-15T15:24:37Z</time>
      </trkpt>
      <trkpt lat="45.92983" lon="1.26297">
        <ele>372.6</ele>
        <time>2024-10-15T15:24:40Z</time>
      </trkpt>
      <trkpt lat="45.92983" lon="1.26297">
        <ele>372.6</ele>
        <time>2024-10-15T15:24:43Z</time>
      </trkpt>
      <trkpt lat="45.92983" lon="1.26296">
        <ele>372.6</ele>
        <time>2024-10-15T15:24:46Z</time>
      </trkpt>
      <trkpt lat="45.92983" lon="1.26297">
        <ele>372.7</ele>
        <time>2024-10-15T15:24:49Z</time>
      </trkpt>
      <trkpt lat="45.92982" lon="1.26297">
        <ele>372.8</ele>
        <time>2024-10-15T15:24:52Z</time>
      </trkpt>
      <trkpt lat="45.92982" lon="1.26297">
        <ele>372.8</ele>
        <time>2024-10-15T15:24:55Z</time>
      </trkpt>
      <trkpt lat="45.92982" lon="1.26296">
        <ele>372.9</ele>
        <time>2024-10-15T15:24:58Z</time>
      </trkpt>
      <trkpt lat="45.92983" lon="1.26292">
        <ele>373.5</ele>
        <time>2024-10-15T15:25:01Z</time>
      </trkpt>
      <trkpt lat="45.92985" lon="1.26289">
        <ele>373.6</ele>
        <time>2024-10-15T15:25:04Z</time>
      </trkpt>
      <trkpt lat="45.92989" lon="1.26282">
        <ele>373.7</ele>
        <time>2024-10-15T15:25:07Z</time>
      </trkpt>
      <trkpt lat="45.92994" lon="1.26273">
        <ele>374</ele>
        <time>2024-10-15T15:25:10Z</time>
      </trkpt>
      <trkpt lat="45.93" lon="1.26265">
        <ele>374.3</ele>
        <time>2024-10-15T15:25:13Z</time>
      </trkpt>
      <trkpt lat="45.93004" lon="1.26257">
        <ele>374.9</ele>
        <time>2024-10-15T15:25:16Z</time>
      </trkpt>
      <trkpt lat="45.93009" lon="1.26251">
        <ele>375.4</ele>
        <time>2024-10-15T15:25:19Z</time>
      </trkpt>
      <trkpt lat="45.93014" lon="1.26245">
        <ele>376</ele>
        <time>2024-10-15T15:25:22Z</time>
      </trkpt>
      <trkpt lat="45.9302" lon="1.26239">
        <ele>376.5</ele>
        <time>2024-10-15T15:25:25Z</time>
      </trkpt>
      <trkpt lat="45.93025" lon="1.26234">
        <ele>376.9</ele>
        <time>2024-10-15T15:25:28Z</time>
      </trkpt>
      <trkpt lat="45.93031" lon="1.2623">
        <ele>377.3</ele>
        <time>2024-10-15T15:25:31Z</time>
      </trkpt>
      <trkpt lat="45.93039" lon="1.26222">
        <ele>377.8</ele>
        <time>2024-10-15T15:25:33Z</time>
      </trkpt>
      <trkpt lat="45.93045" lon="1.26215">
        <ele>378.2</ele>
        <time>2024-10-15T15:25:36Z</time>
      </trkpt>
      <trkpt lat="45.93051" lon="1.2621">
        <ele>378.4</ele>
        <time>2024-10-15T15:25:39Z</time>
      </trkpt>
      <trkpt lat="45.93059" lon="1.26203">
        <ele>378.8</ele>
        <time>2024-10-15T15:25:42Z</time>
      </trkpt>
      <trkpt lat="45.93066" lon="1.26195">
        <ele>379.1</ele>
        <time>2024-10-15T15:25:45Z</time>
      </trkpt>
      <trkpt lat="45.93073" lon="1.26187">
        <ele>379.4</ele>
        <time>2024-10-15T15:25:48Z</time>
      </trkpt>
      <trkpt lat="45.93079" lon="1.2618">
        <ele>379.7</ele>
        <time>2024-10-15T15:25:51Z</time>
      </trkpt>
      <trkpt lat="45.93085" lon="1.26173">
        <ele>379.9</ele>
        <time>2024-10-15T15:25:55Z</time>
      </trkpt>
      <trkpt lat="45.93092" lon="1.26167">
        <ele>380.2</ele>
        <time>2024-10-15T15:25:57Z</time>
      </trkpt>
      <trkpt lat="45.93099" lon="1.26161">
        <ele>380.6</ele>
        <time>2024-10-15T15:26:01Z</time>
      </trkpt>
      <trkpt lat="45.93106" lon="1.26154">
        <ele>381</ele>
        <time>2024-10-15T15:26:04Z</time>
      </trkpt>
      <trkpt lat="45.93113" lon="1.2615">
        <ele>381.4</ele>
        <time>2024-10-15T15:26:07Z</time>
      </trkpt>
      <trkpt lat="45.93119" lon="1.26147">
        <ele>381.9</ele>
        <time>2024-10-15T15:26:10Z</time>
      </trkpt>
      <trkpt lat="45.93126" lon="1.26144">
        <ele>382.4</ele>
        <time>2024-10-15T15:26:13Z</time>
      </trkpt>
      <trkpt lat="45.93131" lon="1.2614">
        <ele>382.9</ele>
        <time>2024-10-15T15:26:16Z</time>
      </trkpt>
      <trkpt lat="45.93137" lon="1.26137">
        <ele>383.4</ele>
        <time>2024-10-15T15:26:19Z</time>
      </trkpt>
      <trkpt lat="45.93144" lon="1.26135">
        <ele>384.1</ele>
        <time>2024-10-15T15:26:22Z</time>
      </trkpt>
      <trkpt lat="45.9315" lon="1.26132">
        <ele>384.8</ele>
        <time>2024-10-15T15:26:25Z</time>
      </trkpt>
      <trkpt lat="45.93157" lon="1.26129">
        <ele>385.4</ele>
        <time>2024-10-15T15:26:28Z</time>
      </trkpt>
      <trkpt lat="45.93163" lon="1.26125">
        <ele>386.1</ele>
        <time>2024-10-15T15:26:31Z</time>
      </trkpt>
      <trkpt lat="45.9317" lon="1.26123">
        <ele>386.9</ele>
        <time>2024-10-15T15:26:34Z</time>
      </trkpt>
      <trkpt lat="45.93177" lon="1.26119">
        <ele>387.5</ele>
        <time>2024-10-15T15:26:37Z</time>
      </trkpt>
      <trkpt lat="45.93183" lon="1.26116">
        <ele>388.1</ele>
        <time>2024-10-15T15:26:40Z</time>
      </trkpt>
      <trkpt lat="45.9319" lon="1.2611">
        <ele>388.8</ele>
        <time>2024-10-15T15:26:43Z</time>
      </trkpt>
      <trkpt lat="45.93197" lon="1.26107">
        <ele>389.2</ele>
        <time>2024-10-15T15:26:46Z</time>
      </trkpt>
      <trkpt lat="45.93204" lon="1.26104">
        <ele>389.6</ele>
        <time>2024-10-15T15:26:49Z</time>
      </trkpt>
      <trkpt lat="45.93212" lon="1.26101">
        <ele>389.9</ele>
        <time>2024-10-15T15:26:52Z</time>
      </trkpt>
      <trkpt lat="45.93219" lon="1.26097">
        <ele>390.1</ele>
        <time>2024-10-15T15:26:55Z</time>
      </trkpt>
      <trkpt lat="45.93226" lon="1.26093">
        <ele>390.2</ele>
        <time>2024-10-15T15:26:58Z</time>
      </trkpt>
      <trkpt lat="45.93232" lon="1.2609">
        <ele>390.3</ele>
        <time>2024-10-15T15:27:01Z</time>
      </trkpt>
      <trkpt lat="45.93239" lon="1.26088">
        <ele>390.4</ele>
        <time>2024-10-15T15:27:04Z</time>
      </trkpt>
      <trkpt lat="45.93247" lon="1.26085">
        <ele>390.5</ele>
        <time>2024-10-15T15:27:07Z</time>
      </trkpt>
      <trkpt lat="45.93254" lon="1.26082">
        <ele>390.5</ele>
        <time>2024-10-15T15:27:10Z</time>
      </trkpt>
      <trkpt lat="45.93261" lon="1.2608">
        <ele>390.6</ele>
        <time>2024-10-15T15:27:12Z</time>
      </trkpt>
      <trkpt lat="45.93269" lon="1.26077">
        <ele>390.6</ele>
        <time>2024-10-15T15:27:15Z</time>
      </trkpt>
      <trkpt lat="45.93276" lon="1.26073">
        <ele>390.6</ele>
        <time>2024-10-15T15:27:18Z</time>
      </trkpt>
      <trkpt lat="45.93282" lon="1.26071">
        <ele>390.6</ele>
        <time>2024-10-15T15:27:21Z</time>
      </trkpt>
      <trkpt lat="45.93287" lon="1.26068">
        <ele>390.6</ele>
        <time>2024-10-15T15:27:24Z</time>
      </trkpt>
      <trkpt lat="45.93292" lon="1.26069">
        <ele>390.6</ele>
        <time>2024-10-15T15:27:27Z</time>
      </trkpt>
      <trkpt lat="45.93297" lon="1.26067">
        <ele>390.6</ele>
        <time>2024-10-15T15:27:30Z</time>
      </trkpt>
      <trkpt lat="45.93301" lon="1.26065">
        <ele>390.6</ele>
        <time>2024-10-15T15:27:34Z</time>
      </trkpt>
      <trkpt lat="45.93305" lon="1.26064">
        <ele>390.6</ele>
        <time>2024-10-15T15:27:36Z</time>
      </trkpt>
      <trkpt lat="45.93309" lon="1.26063">
        <ele>390.6</ele>
        <time>2024-10-15T15:27:39Z</time>
      </trkpt>
      <trkpt lat="45.93312" lon="1.26062">
        <ele>390.5</ele>
        <time>2024-10-15T15:27:43Z</time>
      </trkpt>
      <trkpt lat="45.93316" lon="1.2606">
        <ele>390.5</ele>
        <time>2024-10-15T15:27:46Z</time>
      </trkpt>
      <trkpt lat="45.93319" lon="1.26058">
        <ele>390.5</ele>
        <time>2024-10-15T15:27:49Z</time>
      </trkpt>
      <trkpt lat="45.93321" lon="1.26056">
        <ele>390.5</ele>
        <time>2024-10-15T15:27:52Z</time>
      </trkpt>
      <trkpt lat="45.93323" lon="1.26054">
        <ele>390.5</ele>
        <time>2024-10-15T15:27:55Z</time>
      </trkpt>
      <trkpt lat="45.93324" lon="1.26053">
        <ele>390.5</ele>
        <time>2024-10-15T15:27:58Z</time>
      </trkpt>
      <trkpt lat="45.93326" lon="1.26051">
        <ele>390.6</ele>
        <time>2024-10-15T15:28:01Z</time>
      </trkpt>
      <trkpt lat="45.93328" lon="1.26048">
        <ele>390.6</ele>
        <time>2024-10-15T15:28:04Z</time>
      </trkpt>
      <trkpt lat="45.9333" lon="1.26043">
        <ele>390.6</ele>
        <time>2024-10-15T15:28:07Z</time>
      </trkpt>
      <trkpt lat="45.93333" lon="1.26039">
        <ele>390.7</ele>
        <time>2024-10-15T15:28:10Z</time>
      </trkpt>
      <trkpt lat="45.93336" lon="1.26034">
        <ele>390.8</ele>
        <time>2024-10-15T15:28:13Z</time>
      </trkpt>
      <trkpt lat="45.93341" lon="1.26029">
        <ele>390.9</ele>
        <time>2024-10-15T15:28:16Z</time>
      </trkpt>
      <trkpt lat="45.93346" lon="1.26022">
        <ele>391</ele>
        <time>2024-10-15T15:28:19Z</time>
      </trkpt>
      <trkpt lat="45.93352" lon="1.26017">
        <ele>391.2</ele>
        <time>2024-10-15T15:28:22Z</time>
      </trkpt>
      <trkpt lat="45.93358" lon="1.2601">
        <ele>391.4</ele>
        <time>2024-10-15T15:28:25Z</time>
      </trkpt>
      <trkpt lat="45.93363" lon="1.26003">
        <ele>391.6</ele>
        <time>2024-10-15T15:28:28Z</time>
      </trkpt>
      <trkpt lat="45.93368" lon="1.25995">
        <ele>391.8</ele>
        <time>2024-10-15T15:28:31Z</time>
      </trkpt>
      <trkpt lat="45.93374" lon="1.25986">
        <ele>392</ele>
        <time>2024-10-15T15:28:34Z</time>
      </trkpt>
      <trkpt lat="45.93378" lon="1.25977">
        <ele>392.3</ele>
        <time>2024-10-15T15:28:37Z</time>
      </trkpt>
      <trkpt lat="45.93383" lon="1.25967">
        <ele>392.6</ele>
        <time>2024-10-15T15:28:40Z</time>
      </trkpt>
      <trkpt lat="45.93387" lon="1.25957">
        <ele>392.9</ele>
        <time>2024-10-15T15:28:43Z</time>
      </trkpt>
      <trkpt lat="45.9339" lon="1.25947">
        <ele>393.1</ele>
        <time>2024-10-15T15:28:46Z</time>
      </trkpt>
      <trkpt lat="45.93394" lon="1.25937">
        <ele>393.4</ele>
        <time>2024-10-15T15:28:49Z</time>
      </trkpt>
      <trkpt lat="45.93397" lon="1.25928">
        <ele>393.6</ele>
        <time>2024-10-15T15:28:51Z</time>
      </trkpt>
      <trkpt lat="45.934" lon="1.25919">
        <ele>393.8</ele>
        <time>2024-10-15T15:28:55Z</time>
      </trkpt>
      <trkpt lat="45.93404" lon="1.25908">
        <ele>393.9</ele>
        <time>2024-10-15T15:28:57Z</time>
      </trkpt>
      <trkpt lat="45.93407" lon="1.25899">
        <ele>394</ele>
        <time>2024-10-15T15:29:00Z</time>
      </trkpt>
      <trkpt lat="45.93411" lon="1.25889">
        <ele>394.1</ele>
        <time>2024-10-15T15:29:03Z</time>
      </trkpt>
      <trkpt lat="45.93416" lon="1.25878">
        <ele>394.2</ele>
        <time>2024-10-15T15:29:06Z</time>
      </trkpt>
      <trkpt lat="45.9342" lon="1.25869">
        <ele>394.3</ele>
        <time>2024-10-15T15:29:09Z</time>
      </trkpt>
      <trkpt lat="45.93424" lon="1.25858">
        <ele>394.4</ele>
        <time>2024-10-15T15:29:12Z</time>
      </trkpt>
      <trkpt lat="45.93427" lon="1.25851">
        <ele>394.6</ele>
        <time>2024-10-15T15:29:15Z</time>
      </trkpt>
      <trkpt lat="45.9343" lon="1.25844">
        <ele>394.7</ele>
        <time>2024-10-15T15:29:18Z</time>
      </trkpt>
      <trkpt lat="45.93433" lon="1.25837">
        <ele>394.9</ele>
        <time>2024-10-15T15:29:22Z</time>
      </trkpt>
      <trkpt lat="45.93436" lon="1.25829">
        <ele>395.1</ele>
        <time>2024-10-15T15:29:25Z</time>
      </trkpt>
      <trkpt lat="45.93438" lon="1.25822">
        <ele>395.2</ele>
        <time>2024-10-15T15:29:28Z</time>
      </trkpt>
      <trkpt lat="45.93441" lon="1.25814">
        <ele>395.4</ele>
        <time>2024-10-15T15:29:31Z</time>
      </trkpt>
      <trkpt lat="45.93444" lon="1.25807">
        <ele>395.7</ele>
        <time>2024-10-15T15:29:34Z</time>
      </trkpt>
      <trkpt lat="45.93446" lon="1.25798">
        <ele>395.9</ele>
        <time>2024-10-15T15:29:37Z</time>
      </trkpt>
      <trkpt lat="45.93449" lon="1.2579">
        <ele>396.3</ele>
        <time>2024-10-15T15:29:40Z</time>
      </trkpt>
      <trkpt lat="45.93451" lon="1.25782">
        <ele>396.6</ele>
        <time>2024-10-15T15:29:43Z</time>
      </trkpt>
      <trkpt lat="45.93454" lon="1.25774">
        <ele>397</ele>
        <time>2024-10-15T15:29:46Z</time>
      </trkpt>
      <trkpt lat="45.93457" lon="1.25766">
        <ele>397.4</ele>
        <time>2024-10-15T15:29:49Z</time>
      </trkpt>
      <trkpt lat="45.93459" lon="1.25758">
        <ele>397.7</ele>
        <time>2024-10-15T15:29:52Z</time>
      </trkpt>
      <trkpt lat="45.93462" lon="1.25751">
        <ele>398</ele>
        <time>2024-10-15T15:29:55Z</time>
      </trkpt>
      <trkpt lat="45.93466" lon="1.25744">
        <ele>398.4</ele>
        <time>2024-10-15T15:29:58Z</time>
      </trkpt>
      <trkpt lat="45.93469" lon="1.25736">
        <ele>398.8</ele>
        <time>2024-10-15T15:30:01Z</time>
      </trkpt>
      <trkpt lat="45.93474" lon="1.2573">
        <ele>399.2</ele>
        <time>2024-10-15T15:30:04Z</time>
      </trkpt>
      <trkpt lat="45.93481" lon="1.25724">
        <ele>399.7</ele>
        <time>2024-10-15T15:30:07Z</time>
      </trkpt>
      <trkpt lat="45.93487" lon="1.25717">
        <ele>400.3</ele>
        <time>2024-10-15T15:30:10Z</time>
      </trkpt>
      <trkpt lat="45.93492" lon="1.2571">
        <ele>400.9</ele>
        <time>2024-10-15T15:30:13Z</time>
      </trkpt>
      <trkpt lat="45.93496" lon="1.25701">
        <ele>401.5</ele>
        <time>2024-10-15T15:30:16Z</time>
      </trkpt>
      <trkpt lat="45.93497" lon="1.25695">
        <ele>401.9</ele>
        <time>2024-10-15T15:30:19Z</time>
      </trkpt>
      <trkpt lat="45.93499" lon="1.25688">
        <ele>402.4</ele>
        <time>2024-10-15T15:30:22Z</time>
      </trkpt>
      <trkpt lat="45.93502" lon="1.25682">
        <ele>402.9</ele>
        <time>2024-10-15T15:30:25Z</time>
      </trkpt>
      <trkpt lat="45.93504" lon="1.25675">
        <ele>403.4</ele>
        <time>2024-10-15T15:30:28Z</time>
      </trkpt>
      <trkpt lat="45.93507" lon="1.25666">
        <ele>404</ele>
        <time>2024-10-15T15:30:30Z</time>
      </trkpt>
      <trkpt lat="45.93509" lon="1.25656">
        <ele>404.6</ele>
        <time>2024-10-15T15:30:33Z</time>
      </trkpt>
      <trkpt lat="45.93511" lon="1.25646">
        <ele>405.2</ele>
        <time>2024-10-15T15:30:36Z</time>
      </trkpt>
      <trkpt lat="45.93513" lon="1.25638">
        <ele>405.7</ele>
        <time>2024-10-15T15:30:39Z</time>
      </trkpt>
      <trkpt lat="45.93514" lon="1.25629">
        <ele>406.2</ele>
        <time>2024-10-15T15:30:42Z</time>
      </trkpt>
      <trkpt lat="45.93514" lon="1.25622">
        <ele>406.7</ele>
        <time>2024-10-15T15:30:45Z</time>
      </trkpt>
      <trkpt lat="45.93512" lon="1.25616">
        <ele>407.1</ele>
        <time>2024-10-15T15:30:48Z</time>
      </trkpt>
      <trkpt lat="45.93509" lon="1.2561">
        <ele>407.7</ele>
        <time>2024-10-15T15:30:51Z</time>
      </trkpt>
      <trkpt lat="45.93508" lon="1.25603">
        <ele>408.3</ele>
        <time>2024-10-15T15:30:54Z</time>
      </trkpt>
      <trkpt lat="45.93509" lon="1.25595">
        <ele>408.8</ele>
        <time>2024-10-15T15:30:58Z</time>
      </trkpt>
      <trkpt lat="45.93513" lon="1.25586">
        <ele>409.3</ele>
        <time>2024-10-15T15:31:01Z</time>
      </trkpt>
      <trkpt lat="45.93519" lon="1.25573">
        <ele>409.8</ele>
        <time>2024-10-15T15:31:04Z</time>
      </trkpt>
      <trkpt lat="45.93525" lon="1.25561">
        <ele>410.1</ele>
        <time>2024-10-15T15:31:07Z</time>
      </trkpt>
      <trkpt lat="45.93529" lon="1.25554">
        <ele>410.4</ele>
        <time>2024-10-15T15:31:10Z</time>
      </trkpt>
      <trkpt lat="45.93534" lon="1.25545">
        <ele>410.6</ele>
        <time>2024-10-15T15:31:13Z</time>
      </trkpt>
      <trkpt lat="45.93539" lon="1.25537">
        <ele>410.9</ele>
        <time>2024-10-15T15:31:16Z</time>
      </trkpt>
      <trkpt lat="45.93542" lon="1.25528">
        <ele>411.1</ele>
        <time>2024-10-15T15:31:19Z</time>
      </trkpt>
      <trkpt lat="45.93542" lon="1.25517">
        <ele>411.3</ele>
        <time>2024-10-15T15:31:22Z</time>
      </trkpt>
      <trkpt lat="45.93536" lon="1.25511">
        <ele>411.5</ele>
        <time>2024-10-15T15:31:25Z</time>
      </trkpt>
      <trkpt lat="45.93529" lon="1.25509">
        <ele>411.3</ele>
        <time>2024-10-15T15:31:28Z</time>
      </trkpt>
      <trkpt lat="45.93523" lon="1.25505">
        <ele>411.2</ele>
        <time>2024-10-15T15:31:31Z</time>
      </trkpt>
      <trkpt lat="45.93517" lon="1.25499">
        <ele>411</ele>
        <time>2024-10-15T15:31:34Z</time>
      </trkpt>
      <trkpt lat="45.93512" lon="1.25493">
        <ele>410.8</ele>
        <time>2024-10-15T15:31:37Z</time>
      </trkpt>
      <trkpt lat="45.93504" lon="1.25486">
        <ele>410.5</ele>
        <time>2024-10-15T15:31:40Z</time>
      </trkpt>
      <trkpt lat="45.93497" lon="1.25479">
        <ele>410.2</ele>
        <time>2024-10-15T15:31:43Z</time>
      </trkpt>
      <trkpt lat="45.93491" lon="1.25473">
        <ele>409.9</ele>
        <time>2024-10-15T15:31:46Z</time>
      </trkpt>
      <trkpt lat="45.93484" lon="1.25465">
        <ele>409.7</ele>
        <time>2024-10-15T15:31:49Z</time>
      </trkpt>
      <trkpt lat="45.93476" lon="1.25458">
        <ele>409.4</ele>
        <time>2024-10-15T15:31:52Z</time>
      </trkpt>
      <trkpt lat="45.93469" lon="1.25451">
        <ele>409.1</ele>
        <time>2024-10-15T15:31:55Z</time>
      </trkpt>
      <trkpt lat="45.93461" lon="1.25444">
        <ele>408.8</ele>
        <time>2024-10-15T15:31:58Z</time>
      </trkpt>
      <trkpt lat="45.93452" lon="1.25435">
        <ele>408.4</ele>
        <time>2024-10-15T15:32:00Z</time>
      </trkpt>
      <trkpt lat="45.93444" lon="1.25421">
        <ele>407.8</ele>
        <time>2024-10-15T15:32:03Z</time>
      </trkpt>
      <trkpt lat="45.93438" lon="1.25406">
        <ele>407.4</ele>
        <time>2024-10-15T15:32:06Z</time>
      </trkpt>
      <trkpt lat="45.93434" lon="1.25395">
        <ele>407.3</ele>
        <time>2024-10-15T15:32:09Z</time>
      </trkpt>
      <trkpt lat="45.9343" lon="1.25384">
        <ele>407.2</ele>
        <time>2024-10-15T15:32:12Z</time>
      </trkpt>
      <trkpt lat="45.93426" lon="1.25373">
        <ele>407.2</ele>
        <time>2024-10-15T15:32:15Z</time>
      </trkpt>
      <trkpt lat="45.93419" lon="1.25364">
        <ele>407.3</ele>
        <time>2024-10-15T15:32:18Z</time>
      </trkpt>
      <trkpt lat="45.93413" lon="1.25359">
        <ele>407.3</ele>
        <time>2024-10-15T15:32:21Z</time>
      </trkpt>
      <trkpt lat="45.93411" lon="1.25359">
        <ele>407.4</ele>
        <time>2024-10-15T15:32:24Z</time>
      </trkpt>
      <trkpt lat="45.93411" lon="1.25359">
        <ele>407.4</ele>
        <time>2024-10-15T15:32:27Z</time>
      </trkpt>
      <trkpt lat="45.93411" lon="1.25359">
        <ele>407.4</ele>
        <time>2024-10-15T15:32:31Z</time>
      </trkpt>
      <trkpt lat="45.93411" lon="1.25359">
        <ele>407.4</ele>
        <time>2024-10-15T15:32:34Z</time>
      </trkpt>
      <trkpt lat="45.93411" lon="1.25359">
        <ele>407.4</ele>
        <time>2024-10-15T15:32:37Z</time>
      </trkpt>
      <trkpt lat="45.93411" lon="1.25359">
        <ele>407.4</ele>
        <time>2024-10-15T15:32:40Z</time>
      </trkpt>
      <trkpt lat="45.93411" lon="1.25359">
        <ele>407.4</ele>
        <time>2024-10-15T15:32:43Z</time>
      </trkpt>
      <trkpt lat="45.93411" lon="1.25359">
        <ele>407.4</ele>
        <time>2024-10-15T15:32:46Z</time>
      </trkpt>
      <trkpt lat="45.93411" lon="1.25358">
        <ele>407.4</ele>
        <time>2024-10-15T15:32:49Z</time>
      </trkpt>
      <trkpt lat="45.9341" lon="1.25355">
        <ele>407.4</ele>
        <time>2024-10-15T15:32:52Z</time>
      </trkpt>
      <trkpt lat="45.93405" lon="1.25351">
        <ele>407.5</ele>
        <time>2024-10-15T15:32:55Z</time>
      </trkpt>
      <trkpt lat="45.93401" lon="1.25344">
        <ele>407.6</ele>
        <time>2024-10-15T15:32:58Z</time>
      </trkpt>
      <trkpt lat="45.93394" lon="1.25337">
        <ele>407.8</ele>
        <time>2024-10-15T15:33:01Z</time>
      </trkpt>
      <trkpt lat="45.93388" lon="1.2533">
        <ele>407.9</ele>
        <time>2024-10-15T15:33:04Z</time>
      </trkpt>
      <trkpt lat="45.93382" lon="1.25321">
        <ele>407.9</ele>
        <time>2024-10-15T15:33:07Z</time>
      </trkpt>
      <trkpt lat="45.93374" lon="1.25312">
        <ele>407.7</ele>
        <time>2024-10-15T15:33:10Z</time>
      </trkpt>
      <trkpt lat="45.93367" lon="1.25302">
        <ele>407.2</ele>
        <time>2024-10-15T15:33:13Z</time>
      </trkpt>
      <trkpt lat="45.93357" lon="1.25287">
        <ele>406.4</ele>
        <time>2024-10-15T15:33:16Z</time>
      </trkpt>
      <trkpt lat="45.93343" lon="1.25271">
        <ele>405.1</ele>
        <time>2024-10-15T15:33:19Z</time>
      </trkpt>
      <trkpt lat="45.93327" lon="1.25255">
        <ele>404</ele>
        <time>2024-10-15T15:33:22Z</time>
      </trkpt>
      <trkpt lat="45.93313" lon="1.25242">
        <ele>403</ele>
        <time>2024-10-15T15:33:25Z</time>
      </trkpt>
      <trkpt lat="45.933" lon="1.25225">
        <ele>402</ele>
        <time>2024-10-15T15:33:28Z</time>
      </trkpt>
      <trkpt lat="45.93285" lon="1.25207">
        <ele>400.7</ele>
        <time>2024-10-15T15:33:31Z</time>
      </trkpt>
      <trkpt lat="45.93269" lon="1.2519">
        <ele>399.4</ele>
        <time>2024-10-15T15:33:34Z</time>
      </trkpt>
      <trkpt lat="45.93254" lon="1.25165">
        <ele>398.2</ele>
        <time>2024-10-15T15:33:36Z</time>
      </trkpt>
      <trkpt lat="45.93241" lon="1.25139">
        <ele>397.7</ele>
        <time>2024-10-15T15:33:40Z</time>
      </trkpt>
      <trkpt lat="45.93224" lon="1.2513">
        <ele>397.9</ele>
        <time>2024-10-15T15:33:42Z</time>
      </trkpt>
      <trkpt lat="45.93212" lon="1.25137">
        <ele>398.1</ele>
        <time>2024-10-15T15:33:45Z</time>
      </trkpt>
      <trkpt lat="45.93199" lon="1.25149">
        <ele>398.4</ele>
        <time>2024-10-15T15:33:48Z</time>
      </trkpt>
      <trkpt lat="45.93181" lon="1.25152">
        <ele>398.8</ele>
        <time>2024-10-15T15:33:51Z</time>
      </trkpt>
      <trkpt lat="45.93162" lon="1.25155">
        <ele>399.6</ele>
        <time>2024-10-15T15:33:54Z</time>
      </trkpt>
      <trkpt lat="45.93145" lon="1.25159">
        <ele>400.5</ele>
        <time>2024-10-15T15:33:58Z</time>
      </trkpt>
      <trkpt lat="45.9313" lon="1.25155">
        <ele>401.1</ele>
        <time>2024-10-15T15:34:00Z</time>
      </trkpt>
      <trkpt lat="45.93117" lon="1.25149">
        <ele>401.3</ele>
        <time>2024-10-15T15:34:03Z</time>
      </trkpt>
      <trkpt lat="45.93106" lon="1.25141">
        <ele>401.3</ele>
        <time>2024-10-15T15:34:07Z</time>
      </trkpt>
      <trkpt lat="45.93096" lon="1.25127">
        <ele>401.1</ele>
        <time>2024-10-15T15:34:09Z</time>
      </trkpt>
      <trkpt lat="45.93086" lon="1.25114">
        <ele>401</ele>
        <time>2024-10-15T15:34:13Z</time>
      </trkpt>
      <trkpt lat="45.93077" lon="1.25104">
        <ele>401.2</ele>
        <time>2024-10-15T15:34:16Z</time>
      </trkpt>
      <trkpt lat="45.93068" lon="1.25094">
        <ele>401.4</ele>
        <time>2024-10-15T15:34:19Z</time>
      </trkpt>
      <trkpt lat="45.93061" lon="1.25085">
        <ele>401.8</ele>
        <time>2024-10-15T15:34:22Z</time>
      </trkpt>
      <trkpt lat="45.93056" lon="1.25075">
        <ele>402.2</ele>
        <time>2024-10-15T15:34:25Z</time>
      </trkpt>
      <trkpt lat="45.93053" lon="1.25066">
        <ele>402.5</ele>
        <time>2024-10-15T15:34:28Z</time>
      </trkpt>
      <trkpt lat="45.93052" lon="1.25056">
        <ele>402.9</ele>
        <time>2024-10-15T15:34:31Z</time>
      </trkpt>
      <trkpt lat="45.93051" lon="1.25046">
        <ele>403.2</ele>
        <time>2024-10-15T15:34:34Z</time>
      </trkpt>
      <trkpt lat="45.93049" lon="1.25033">
        <ele>403.6</ele>
        <time>2024-10-15T15:34:37Z</time>
      </trkpt>
      <trkpt lat="45.93047" lon="1.25021">
        <ele>404</ele>
        <time>2024-10-15T15:34:40Z</time>
      </trkpt>
      <trkpt lat="45.93045" lon="1.2501">
        <ele>404.4</ele>
        <time>2024-10-15T15:34:43Z</time>
      </trkpt>
      <trkpt lat="45.93044" lon="1.24999">
        <ele>404.8</ele>
        <time>2024-10-15T15:34:46Z</time>
      </trkpt>
      <trkpt lat="45.93043" lon="1.24988">
        <ele>405.3</ele>
        <time>2024-10-15T15:34:49Z</time>
      </trkpt>
      <trkpt lat="45.93042" lon="1.24978">
        <ele>405.9</ele>
        <time>2024-10-15T15:34:52Z</time>
      </trkpt>
      <trkpt lat="45.9304" lon="1.24969">
        <ele>406.6</ele>
        <time>2024-10-15T15:34:55Z</time>
      </trkpt>
      <trkpt lat="45.93038" lon="1.24961">
        <ele>407.2</ele>
        <time>2024-10-15T15:34:58Z</time>
      </trkpt>
      <trkpt lat="45.93037" lon="1.24954">
        <ele>407.7</ele>
        <time>2024-10-15T15:35:01Z</time>
      </trkpt>
      <trkpt lat="45.93036" lon="1.24946">
        <ele>408.3</ele>
        <time>2024-10-15T15:35:04Z</time>
      </trkpt>
      <trkpt lat="45.93036" lon="1.24938">
        <ele>409</ele>
        <time>2024-10-15T15:35:07Z</time>
      </trkpt>
      <trkpt lat="45.93037" lon="1.2493">
        <ele>409.6</ele>
        <time>2024-10-15T15:35:10Z</time>
      </trkpt>
      <trkpt lat="45.93036" lon="1.2492">
        <ele>410.4</ele>
        <time>2024-10-15T15:35:13Z</time>
      </trkpt>
      <trkpt lat="45.93035" lon="1.24913">
        <ele>411</ele>
        <time>2024-10-15T15:35:16Z</time>
      </trkpt>
      <trkpt lat="45.93033" lon="1.24906">
        <ele>411.4</ele>
        <time>2024-10-15T15:35:18Z</time>
      </trkpt>
      <trkpt lat="45.93029" lon="1.24902">
        <ele>411.9</ele>
        <time>2024-10-15T15:35:22Z</time>
      </trkpt>
      <trkpt lat="45.93026" lon="1.24898">
        <ele>412.4</ele>
        <time>2024-10-15T15:35:25Z</time>
      </trkpt>
      <trkpt lat="45.93022" lon="1.24894">
        <ele>412.9</ele>
        <time>2024-10-15T15:35:27Z</time>
      </trkpt>
      <trkpt lat="45.9302" lon="1.2489">
        <ele>413.2</ele>
        <time>2024-10-15T15:35:30Z</time>
      </trkpt>
      <trkpt lat="45.93019" lon="1.24886">
        <ele>413.4</ele>
        <time>2024-10-15T15:35:33Z</time>
      </trkpt>
      <trkpt lat="45.93021" lon="1.24882">
        <ele>413.7</ele>
        <time>2024-10-15T15:35:36Z</time>
      </trkpt>
      <trkpt lat="45.93023" lon="1.24877">
        <ele>413.9</ele>
        <time>2024-10-15T15:35:39Z</time>
      </trkpt>
      <trkpt lat="45.93026" lon="1.24873">
        <ele>414.1</ele>
        <time>2024-10-15T15:35:42Z</time>
      </trkpt>
      <trkpt lat="45.93027" lon="1.24868">
        <ele>414.3</ele>
        <time>2024-10-15T15:35:45Z</time>
      </trkpt>
      <trkpt lat="45.93027" lon="1.24863">
        <ele>414.5</ele>
        <time>2024-10-15T15:35:48Z</time>
      </trkpt>
      <trkpt lat="45.93027" lon="1.24858">
        <ele>414.7</ele>
        <time>2024-10-15T15:35:51Z</time>
      </trkpt>
      <trkpt lat="45.93029" lon="1.24853">
        <ele>414.9</ele>
        <time>2024-10-15T15:35:54Z</time>
      </trkpt>
      <trkpt lat="45.93029" lon="1.24849">
        <ele>415</ele>
        <time>2024-10-15T15:35:58Z</time>
      </trkpt>
      <trkpt lat="45.93029" lon="1.24845">
        <ele>415.2</ele>
        <time>2024-10-15T15:36:01Z</time>
      </trkpt>
      <trkpt lat="45.93031" lon="1.24838">
        <ele>415.4</ele>
        <time>2024-10-15T15:36:04Z</time>
      </trkpt>
      <trkpt lat="45.93031" lon="1.2483">
        <ele>415.6</ele>
        <time>2024-10-15T15:36:07Z</time>
      </trkpt>
      <trkpt lat="45.93032" lon="1.24822">
        <ele>415.9</ele>
        <time>2024-10-15T15:36:10Z</time>
      </trkpt>
      <trkpt lat="45.93034" lon="1.24815">
        <ele>416.1</ele>
        <time>2024-10-15T15:36:13Z</time>
      </trkpt>
      <trkpt lat="45.93035" lon="1.24808">
        <ele>416.2</ele>
        <time>2024-10-15T15:36:16Z</time>
      </trkpt>
      <trkpt lat="45.93036" lon="1.24801">
        <ele>416.4</ele>
        <time>2024-10-15T15:36:19Z</time>
      </trkpt>
      <trkpt lat="45.93037" lon="1.24794">
        <ele>416.5</ele>
        <time>2024-10-15T15:36:22Z</time>
      </trkpt>
      <trkpt lat="45.93037" lon="1.24789">
        <ele>416.6</ele>
        <time>2024-10-15T15:36:25Z</time>
      </trkpt>
      <trkpt lat="45.93033" lon="1.24789">
        <ele>416.7</ele>
        <time>2024-10-15T15:36:28Z</time>
      </trkpt>
      <trkpt lat="45.93033" lon="1.24793">
        <ele>416.8</ele>
        <time>2024-10-15T15:36:31Z</time>
      </trkpt>
      <trkpt lat="45.93034" lon="1.24796">
        <ele>416.8</ele>
        <time>2024-10-15T15:36:34Z</time>
      </trkpt>
      <trkpt lat="45.93037" lon="1.24795">
        <ele>416.9</ele>
        <time>2024-10-15T15:36:37Z</time>
      </trkpt>
      <trkpt lat="45.93038" lon="1.24787">
        <ele>417</ele>
        <time>2024-10-15T15:36:40Z</time>
      </trkpt>
      <trkpt lat="45.93036" lon="1.24775">
        <ele>417.1</ele>
        <time>2024-10-15T15:36:43Z</time>
      </trkpt>
      <trkpt lat="45.93035" lon="1.24764">
        <ele>417.3</ele>
        <time>2024-10-15T15:36:46Z</time>
      </trkpt>
      <trkpt lat="45.93035" lon="1.24751">
        <ele>417.5</ele>
        <time>2024-10-15T15:36:49Z</time>
      </trkpt>
      <trkpt lat="45.93036" lon="1.24742">
        <ele>417.6</ele>
        <time>2024-10-15T15:36:52Z</time>
      </trkpt>
      <trkpt lat="45.93037" lon="1.24732">
        <ele>417.8</ele>
        <time>2024-10-15T15:36:55Z</time>
      </trkpt>
      <trkpt lat="45.93037" lon="1.24723">
        <ele>418</ele>
        <time>2024-10-15T15:36:58Z</time>
      </trkpt>
      <trkpt lat="45.93039" lon="1.24713">
        <ele>418.2</ele>
        <time>2024-10-15T15:37:01Z</time>
      </trkpt>
      <trkpt lat="45.9304" lon="1.24704">
        <ele>418.5</ele>
        <time>2024-10-15T15:37:04Z</time>
      </trkpt>
      <trkpt lat="45.93042" lon="1.24695">
        <ele>418.7</ele>
        <time>2024-10-15T15:37:06Z</time>
      </trkpt>
      <trkpt lat="45.93043" lon="1.24686">
        <ele>419</ele>
        <time>2024-10-15T15:37:09Z</time>
      </trkpt>
      <trkpt lat="45.93043" lon="1.24675">
        <ele>419.4</ele>
        <time>2024-10-15T15:37:12Z</time>
      </trkpt>
      <trkpt lat="45.93043" lon="1.24664">
        <ele>419.8</ele>
        <time>2024-10-15T15:37:15Z</time>
      </trkpt>
      <trkpt lat="45.93044" lon="1.24657">
        <ele>420.1</ele>
        <time>2024-10-15T15:37:18Z</time>
      </trkpt>
      <trkpt lat="45.93046" lon="1.24651">
        <ele>420.3</ele>
        <time>2024-10-15T15:37:21Z</time>
      </trkpt>
      <trkpt lat="45.93047" lon="1.24643">
        <ele>420.6</ele>
        <time>2024-10-15T15:37:24Z</time>
      </trkpt>
      <trkpt lat="45.93047" lon="1.24635">
        <ele>421</ele>
        <time>2024-10-15T15:37:27Z</time>
      </trkpt>
      <trkpt lat="45.93047" lon="1.24627">
        <ele>421.4</ele>
        <time>2024-10-15T15:37:30Z</time>
      </trkpt>
      <trkpt lat="45.93046" lon="1.2462">
        <ele>421.7</ele>
        <time>2024-10-15T15:37:34Z</time>
      </trkpt>
      <trkpt lat="45.93043" lon="1.24613">
        <ele>422.5</ele>
        <time>2024-10-15T15:37:36Z</time>
      </trkpt>
      <trkpt lat="45.93038" lon="1.24609">
        <ele>423.1</ele>
        <time>2024-10-15T15:37:39Z</time>
      </trkpt>
      <trkpt lat="45.93033" lon="1.24611">
        <ele>423.8</ele>
        <time>2024-10-15T15:37:43Z</time>
      </trkpt>
      <trkpt lat="45.93029" lon="1.24613">
        <ele>424.3</ele>
        <time>2024-10-15T15:37:46Z</time>
      </trkpt>
      <trkpt lat="45.93026" lon="1.24614">
        <ele>424.7</ele>
        <time>2024-10-15T15:37:49Z</time>
      </trkpt>
      <trkpt lat="45.9302" lon="1.24615">
        <ele>425.5</ele>
        <time>2024-10-15T15:37:52Z</time>
      </trkpt>
      <trkpt lat="45.93014" lon="1.24615">
        <ele>426.3</ele>
        <time>2024-10-15T15:37:55Z</time>
      </trkpt>
      <trkpt lat="45.9301" lon="1.24618">
        <ele>426.8</ele>
        <time>2024-10-15T15:37:58Z</time>
      </trkpt>
      <trkpt lat="45.93004" lon="1.24615">
        <ele>427.3</ele>
        <time>2024-10-15T15:38:01Z</time>
      </trkpt>
      <trkpt lat="45.93002" lon="1.24611">
        <ele>427.5</ele>
        <time>2024-10-15T15:38:04Z</time>
      </trkpt>
      <trkpt lat="45.92998" lon="1.24602">
        <ele>427.6</ele>
        <time>2024-10-15T15:38:07Z</time>
      </trkpt>
      <trkpt lat="45.92996" lon="1.24591">
        <ele>427.5</ele>
        <time>2024-10-15T15:38:10Z</time>
      </trkpt>
      <trkpt lat="45.92991" lon="1.24579">
        <ele>427.1</ele>
        <time>2024-10-15T15:38:13Z</time>
      </trkpt>
      <trkpt lat="45.92988" lon="1.24565">
        <ele>426.5</ele>
        <time>2024-10-15T15:38:16Z</time>
      </trkpt>
      <trkpt lat="45.92984" lon="1.24551">
        <ele>425.9</ele>
        <time>2024-10-15T15:38:19Z</time>
      </trkpt>
      <trkpt lat="45.92977" lon="1.24536">
        <ele>425.1</ele>
        <time>2024-10-15T15:38:22Z</time>
      </trkpt>
      <trkpt lat="45.92959" lon="1.24521">
        <ele>423.9</ele>
        <time>2024-10-15T15:38:25Z</time>
      </trkpt>
      <trkpt lat="45.92943" lon="1.24512">
        <ele>422.9</ele>
        <time>2024-10-15T15:38:28Z</time>
      </trkpt>
      <trkpt lat="45.9293" lon="1.2451">
        <ele>421.8</ele>
        <time>2024-10-15T15:38:31Z</time>
      </trkpt>
      <trkpt lat="45.92918" lon="1.2451">
        <ele>420.6</ele>
        <time>2024-10-15T15:38:34Z</time>
      </trkpt>
      <trkpt lat="45.92909" lon="1.24512">
        <ele>419.5</ele>
        <time>2024-10-15T15:38:36Z</time>
      </trkpt>
      <trkpt lat="45.929" lon="1.24513">
        <ele>418.3</ele>
        <time>2024-10-15T15:38:39Z</time>
      </trkpt>
      <trkpt lat="45.92891" lon="1.24516">
        <ele>417</ele>
        <time>2024-10-15T15:38:42Z</time>
      </trkpt>
      <trkpt lat="45.92884" lon="1.24518">
        <ele>415.9</ele>
        <time>2024-10-15T15:38:45Z</time>
      </trkpt>
      <trkpt lat="45.92869" lon="1.24523">
        <ele>413.5</ele>
        <time>2024-10-15T15:38:48Z</time>
      </trkpt>
      <trkpt lat="45.92848" lon="1.24529">
        <ele>410.5</ele>
        <time>2024-10-15T15:38:51Z</time>
      </trkpt>
      <trkpt lat="45.92824" lon="1.24537">
        <ele>407.6</ele>
        <time>2024-10-15T15:38:54Z</time>
      </trkpt>
      <trkpt lat="45.92801" lon="1.24544">
        <ele>405.8</ele>
        <time>2024-10-15T15:38:57Z</time>
      </trkpt>
      <trkpt lat="45.92778" lon="1.24555">
        <ele>404.6</ele>
        <time>2024-10-15T15:39:00Z</time>
      </trkpt>
      <trkpt lat="45.92758" lon="1.24565">
        <ele>403.5</ele>
        <time>2024-10-15T15:39:04Z</time>
      </trkpt>
      <trkpt lat="45.92741" lon="1.24576">
        <ele>402.8</ele>
        <time>2024-10-15T15:39:07Z</time>
      </trkpt>
      <trkpt lat="45.92727" lon="1.24593">
        <ele>402.2</ele>
        <time>2024-10-15T15:39:10Z</time>
      </trkpt>
      <trkpt lat="45.92716" lon="1.24616">
        <ele>401.4</ele>
        <time>2024-10-15T15:39:13Z</time>
      </trkpt>
      <trkpt lat="45.92711" lon="1.24645">
        <ele>399.9</ele>
        <time>2024-10-15T15:39:16Z</time>
      </trkpt>
      <trkpt lat="45.927" lon="1.24675">
        <ele>398.1</ele>
        <time>2024-10-15T15:39:19Z</time>
      </trkpt>
      <trkpt lat="45.92698" lon="1.24697">
        <ele>397.2</ele>
        <time>2024-10-15T15:39:22Z</time>
      </trkpt>
      <trkpt lat="45.92698" lon="1.24707">
        <ele>396.9</ele>
        <time>2024-10-15T15:39:25Z</time>
      </trkpt>
      <trkpt lat="45.92698" lon="1.24713">
        <ele>396.7</ele>
        <time>2024-10-15T15:39:28Z</time>
      </trkpt>
      <trkpt lat="45.92695" lon="1.24719">
        <ele>396.5</ele>
        <time>2024-10-15T15:39:31Z</time>
      </trkpt>
      <trkpt lat="45.92691" lon="1.24728">
        <ele>396.3</ele>
        <time>2024-10-15T15:39:34Z</time>
      </trkpt>
      <trkpt lat="45.9269" lon="1.24739">
        <ele>395.9</ele>
        <time>2024-10-15T15:39:37Z</time>
      </trkpt>
      <trkpt lat="45.92686" lon="1.24754">
        <ele>395.1</ele>
        <time>2024-10-15T15:39:40Z</time>
      </trkpt>
      <trkpt lat="45.92676" lon="1.2475">
        <ele>394.8</ele>
        <time>2024-10-15T15:39:43Z</time>
      </trkpt>
      <trkpt lat="45.92664" lon="1.24742">
        <ele>394.5</ele>
        <time>2024-10-15T15:39:46Z</time>
      </trkpt>
      <trkpt lat="45.9265" lon="1.24736">
        <ele>394.4</ele>
        <time>2024-10-15T15:39:49Z</time>
      </trkpt>
      <trkpt lat="45.92636" lon="1.24731">
        <ele>394.3</ele>
        <time>2024-10-15T15:39:52Z</time>
      </trkpt>
      <trkpt lat="45.9263" lon="1.24718">
        <ele>394.4</ele>
        <time>2024-10-15T15:39:55Z</time>
      </trkpt>
      <trkpt lat="45.92628" lon="1.24704">
        <ele>394.4</ele>
        <time>2024-10-15T15:39:58Z</time>
      </trkpt>
      <trkpt lat="45.92626" lon="1.24694">
        <ele>394.5</ele>
        <time>2024-10-15T15:40:01Z</time>
      </trkpt>
      <trkpt lat="45.92623" lon="1.24681">
        <ele>394.7</ele>
        <time>2024-10-15T15:40:04Z</time>
      </trkpt>
      <trkpt lat="45.92618" lon="1.24666">
        <ele>395.2</ele>
        <time>2024-10-15T15:40:07Z</time>
      </trkpt>
      <trkpt lat="45.92615" lon="1.24655">
        <ele>395.6</ele>
        <time>2024-10-15T15:40:10Z</time>
      </trkpt>
      <trkpt lat="45.92613" lon="1.24643">
        <ele>396.1</ele>
        <time>2024-10-15T15:40:13Z</time>
      </trkpt>
      <trkpt lat="45.9261" lon="1.24633">
        <ele>396.5</ele>
        <time>2024-10-15T15:40:15Z</time>
      </trkpt>
      <trkpt lat="45.92606" lon="1.2462">
        <ele>397</ele>
        <time>2024-10-15T15:40:18Z</time>
      </trkpt>
      <trkpt lat="45.92601" lon="1.24609">
        <ele>397.4</ele>
        <time>2024-10-15T15:40:21Z</time>
      </trkpt>
      <trkpt lat="45.92597" lon="1.24597">
        <ele>397.8</ele>
        <time>2024-10-15T15:40:24Z</time>
      </trkpt>
      <trkpt lat="45.92591" lon="1.24585">
        <ele>398.2</ele>
        <time>2024-10-15T15:40:27Z</time>
      </trkpt>
      <trkpt lat="45.92586" lon="1.24574">
        <ele>398.6</ele>
        <time>2024-10-15T15:40:30Z</time>
      </trkpt>
      <trkpt lat="45.92583" lon="1.24565">
        <ele>398.8</ele>
        <time>2024-10-15T15:40:33Z</time>
      </trkpt>
      <trkpt lat="45.9258" lon="1.24553">
        <ele>399.2</ele>
        <time>2024-10-15T15:40:36Z</time>
      </trkpt>
      <trkpt lat="45.92576" lon="1.24541">
        <ele>399.6</ele>
        <time>2024-10-15T15:40:39Z</time>
      </trkpt>
      <trkpt lat="45.92573" lon="1.24529">
        <ele>400.1</ele>
        <time>2024-10-15T15:40:42Z</time>
      </trkpt>
      <trkpt lat="45.92569" lon="1.24518">
        <ele>400.6</ele>
        <time>2024-10-15T15:40:46Z</time>
      </trkpt>
      <trkpt lat="45.92567" lon="1.24507">
        <ele>401.1</ele>
        <time>2024-10-15T15:40:49Z</time>
      </trkpt>
      <trkpt lat="45.92564" lon="1.24496">
        <ele>401.7</ele>
        <time>2024-10-15T15:40:52Z</time>
      </trkpt>
      <trkpt lat="45.9256" lon="1.24485">
        <ele>402.4</ele>
        <time>2024-10-15T15:40:55Z</time>
      </trkpt>
      <trkpt lat="45.92557" lon="1.24476">
        <ele>402.9</ele>
        <time>2024-10-15T15:40:58Z</time>
      </trkpt>
      <trkpt lat="45.92555" lon="1.24467">
        <ele>403.4</ele>
        <time>2024-10-15T15:41:01Z</time>
      </trkpt>
      <trkpt lat="45.92553" lon="1.2446">
        <ele>403.8</ele>
        <time>2024-10-15T15:41:04Z</time>
      </trkpt>
      <trkpt lat="45.92551" lon="1.24452">
        <ele>404.3</ele>
        <time>2024-10-15T15:41:07Z</time>
      </trkpt>
      <trkpt lat="45.92549" lon="1.24443">
        <ele>404.7</ele>
        <time>2024-10-15T15:41:10Z</time>
      </trkpt>
      <trkpt lat="45.92546" lon="1.24433">
        <ele>405.2</ele>
        <time>2024-10-15T15:41:13Z</time>
      </trkpt>
      <trkpt lat="45.92543" lon="1.24421">
        <ele>405.7</ele>
        <time>2024-10-15T15:41:16Z</time>
      </trkpt>
      <trkpt lat="45.9254" lon="1.24413">
        <ele>405.9</ele>
        <time>2024-10-15T15:41:19Z</time>
      </trkpt>
      <trkpt lat="45.92538" lon="1.24405">
        <ele>406.2</ele>
        <time>2024-10-15T15:41:22Z</time>
      </trkpt>
      <trkpt lat="45.92534" lon="1.24397">
        <ele>406.4</ele>
        <time>2024-10-15T15:41:25Z</time>
      </trkpt>
      <trkpt lat="45.9253" lon="1.24391">
        <ele>406.6</ele>
        <time>2024-10-15T15:41:28Z</time>
      </trkpt>
      <trkpt lat="45.92526" lon="1.24389">
        <ele>406.5</ele>
        <time>2024-10-15T15:41:31Z</time>
      </trkpt>
      <trkpt lat="45.92518" lon="1.2439">
        <ele>406.5</ele>
        <time>2024-10-15T15:41:34Z</time>
      </trkpt>
      <trkpt lat="45.9251" lon="1.24392">
        <ele>406.4</ele>
        <time>2024-10-15T15:41:37Z</time>
      </trkpt>
      <trkpt lat="45.92502" lon="1.24395">
        <ele>406.3</ele>
        <time>2024-10-15T15:41:40Z</time>
      </trkpt>
      <trkpt lat="45.92496" lon="1.24396">
        <ele>406.2</ele>
        <time>2024-10-15T15:41:43Z</time>
      </trkpt>
      <trkpt lat="45.92491" lon="1.24401">
        <ele>406.2</ele>
        <time>2024-10-15T15:41:45Z</time>
      </trkpt>
      <trkpt lat="45.92485" lon="1.24403">
        <ele>406.2</ele>
        <time>2024-10-15T15:41:48Z</time>
      </trkpt>
      <trkpt lat="45.92478" lon="1.24404">
        <ele>406.1</ele>
        <time>2024-10-15T15:41:51Z</time>
      </trkpt>
      <trkpt lat="45.92467" lon="1.24409">
        <ele>406.1</ele>
        <time>2024-10-15T15:41:54Z</time>
      </trkpt>
      <trkpt lat="45.92459" lon="1.24415">
        <ele>406.2</ele>
        <time>2024-10-15T15:41:57Z</time>
      </trkpt>
      <trkpt lat="45.92456" lon="1.24421">
        <ele>406.2</ele>
        <time>2024-10-15T15:42:00Z</time>
      </trkpt>
      <trkpt lat="45.92445" lon="1.2443">
        <ele>406.4</ele>
        <time>2024-10-15T15:42:03Z</time>
      </trkpt>
      <trkpt lat="45.92437" lon="1.24435">
        <ele>406.6</ele>
        <time>2024-10-15T15:42:06Z</time>
      </trkpt>
      <trkpt lat="45.92431" lon="1.24435">
        <ele>406.8</ele>
        <time>2024-10-15T15:42:09Z</time>
      </trkpt>
      <trkpt lat="45.92421" lon="1.24439">
        <ele>407</ele>
        <time>2024-10-15T15:42:12Z</time>
      </trkpt>
      <trkpt lat="45.92414" lon="1.2444">
        <ele>407.2</ele>
        <time>2024-10-15T15:42:16Z</time>
      </trkpt>
      <trkpt lat="45.92407" lon="1.24445">
        <ele>407.3</ele>
        <time>2024-10-15T15:42:19Z</time>
      </trkpt>
      <trkpt lat="45.92399" lon="1.2445">
        <ele>407.5</ele>
        <time>2024-10-15T15:42:22Z</time>
      </trkpt>
      <trkpt lat="45.92391" lon="1.24455">
        <ele>407.5</ele>
        <time>2024-10-15T15:42:25Z</time>
      </trkpt>
      <trkpt lat="45.92385" lon="1.24458">
        <ele>407.6</ele>
        <time>2024-10-15T15:42:28Z</time>
      </trkpt>
      <trkpt lat="45.9238" lon="1.24462">
        <ele>407.5</ele>
        <time>2024-10-15T15:42:31Z</time>
      </trkpt>
      <trkpt lat="45.92378" lon="1.24464">
        <ele>407.5</ele>
        <time>2024-10-15T15:42:34Z</time>
      </trkpt>
      <trkpt lat="45.92375" lon="1.24466">
        <ele>407.5</ele>
        <time>2024-10-15T15:42:37Z</time>
      </trkpt>
      <trkpt lat="45.9237" lon="1.24468">
        <ele>407.4</ele>
        <time>2024-10-15T15:42:40Z</time>
      </trkpt>
      <trkpt lat="45.92364" lon="1.24472">
        <ele>407.3</ele>
        <time>2024-10-15T15:42:43Z</time>
      </trkpt>
      <trkpt lat="45.92357" lon="1.24473">
        <ele>407</ele>
        <time>2024-10-15T15:42:46Z</time>
      </trkpt>
      <trkpt lat="45.92351" lon="1.24476">
        <ele>406.6</ele>
        <time>2024-10-15T15:42:49Z</time>
      </trkpt>
      <trkpt lat="45.9234" lon="1.24484">
        <ele>405.8</ele>
        <time>2024-10-15T15:42:52Z</time>
      </trkpt>
      <trkpt lat="45.92327" lon="1.24486">
        <ele>405</ele>
        <time>2024-10-15T15:42:55Z</time>
      </trkpt>
      <trkpt lat="45.92307" lon="1.24494">
        <ele>403.8</ele>
        <time>2024-10-15T15:42:58Z</time>
      </trkpt>
      <trkpt lat="45.92293" lon="1.24503">
        <ele>402.8</ele>
        <time>2024-10-15T15:43:01Z</time>
      </trkpt>
      <trkpt lat="45.9228" lon="1.24509">
        <ele>401.9</ele>
        <time>2024-10-15T15:43:04Z</time>
      </trkpt>
      <trkpt lat="45.92271" lon="1.24516">
        <ele>401.2</ele>
        <time>2024-10-15T15:43:07Z</time>
      </trkpt>
      <trkpt lat="45.9226" lon="1.24522">
        <ele>400.4</ele>
        <time>2024-10-15T15:43:09Z</time>
      </trkpt>
      <trkpt lat="45.92249" lon="1.24526">
        <ele>399.7</ele>
        <time>2024-10-15T15:43:13Z</time>
      </trkpt>
      <trkpt lat="45.92237" lon="1.24529">
        <ele>398.9</ele>
        <time>2024-10-15T15:43:15Z</time>
      </trkpt>
      <trkpt lat="45.92223" lon="1.24534">
        <ele>398</ele>
        <time>2024-10-15T15:43:18Z</time>
      </trkpt>
      <trkpt lat="45.92207" lon="1.24539">
        <ele>397.2</ele>
        <time>2024-10-15T15:43:21Z</time>
      </trkpt>
      <trkpt lat="45.92191" lon="1.24544">
        <ele>396.6</ele>
        <time>2024-10-15T15:43:24Z</time>
      </trkpt>
      <trkpt lat="45.92177" lon="1.24549">
        <ele>396.1</ele>
        <time>2024-10-15T15:43:27Z</time>
      </trkpt>
      <trkpt lat="45.92162" lon="1.24555">
        <ele>395.6</ele>
        <time>2024-10-15T15:43:30Z</time>
      </trkpt>
      <trkpt lat="45.92148" lon="1.2456">
        <ele>395.2</ele>
        <time>2024-10-15T15:43:33Z</time>
      </trkpt>
      <trkpt lat="45.92135" lon="1.24565">
        <ele>394.9</ele>
        <time>2024-10-15T15:43:36Z</time>
      </trkpt>
      <trkpt lat="45.92121" lon="1.24572">
        <ele>394.5</ele>
        <time>2024-10-15T15:43:39Z</time>
      </trkpt>
      <trkpt lat="45.92107" lon="1.24577">
        <ele>394.2</ele>
        <time>2024-10-15T15:43:42Z</time>
      </trkpt>
      <trkpt lat="45.92094" lon="1.24582">
        <ele>393.9</ele>
        <time>2024-10-15T15:43:46Z</time>
      </trkpt>
      <trkpt lat="45.92081" lon="1.24587">
        <ele>393.4</ele>
        <time>2024-10-15T15:43:49Z</time>
      </trkpt>
      <trkpt lat="45.92067" lon="1.24594">
        <ele>392.7</ele>
        <time>2024-10-15T15:43:52Z</time>
      </trkpt>
      <trkpt lat="45.92053" lon="1.24601">
        <ele>391.9</ele>
        <time>2024-10-15T15:43:55Z</time>
      </trkpt>
      <trkpt lat="45.92038" lon="1.2461">
        <ele>391</ele>
        <time>2024-10-15T15:43:58Z</time>
      </trkpt>
      <trkpt lat="45.92022" lon="1.24618">
        <ele>390.1</ele>
        <time>2024-10-15T15:44:01Z</time>
      </trkpt>
      <trkpt lat="45.92006" lon="1.24626">
        <ele>389.2</ele>
        <time>2024-10-15T15:44:04Z</time>
      </trkpt>
      <trkpt lat="45.91991" lon="1.24635">
        <ele>388.6</ele>
        <time>2024-10-15T15:44:07Z</time>
      </trkpt>
      <trkpt lat="45.91976" lon="1.24636">
        <ele>388</ele>
        <time>2024-10-15T15:44:10Z</time>
      </trkpt>
      <trkpt lat="45.91963" lon="1.24637">
        <ele>387.4</ele>
        <time>2024-10-15T15:44:13Z</time>
      </trkpt>
      <trkpt lat="45.91949" lon="1.24638">
        <ele>386.6</ele>
        <time>2024-10-15T15:44:16Z</time>
      </trkpt>
      <trkpt lat="45.91936" lon="1.2464">
        <ele>385.7</ele>
        <time>2024-10-15T15:44:19Z</time>
      </trkpt>
      <trkpt lat="45.91921" lon="1.24641">
        <ele>384.7</ele>
        <time>2024-10-15T15:44:22Z</time>
      </trkpt>
      <trkpt lat="45.91908" lon="1.24642">
        <ele>383.6</ele>
        <time>2024-10-15T15:44:25Z</time>
      </trkpt>
      <trkpt lat="45.91896" lon="1.24642">
        <ele>382.6</ele>
        <time>2024-10-15T15:44:28Z</time>
      </trkpt>
      <trkpt lat="45.91885" lon="1.24642">
        <ele>381.7</ele>
        <time>2024-10-15T15:44:31Z</time>
      </trkpt>
      <trkpt lat="45.91874" lon="1.24642">
        <ele>380.9</ele>
        <time>2024-10-15T15:44:34Z</time>
      </trkpt>
      <trkpt lat="45.91864" lon="1.24641">
        <ele>379.9</ele>
        <time>2024-10-15T15:44:37Z</time>
      </trkpt>
      <trkpt lat="45.91853" lon="1.24641">
        <ele>378.7</ele>
        <time>2024-10-15T15:44:40Z</time>
      </trkpt>
      <trkpt lat="45.91843" lon="1.2464">
        <ele>377.4</ele>
        <time>2024-10-15T15:44:43Z</time>
      </trkpt>
      <trkpt lat="45.91833" lon="1.24639">
        <ele>375.9</ele>
        <time>2024-10-15T15:44:45Z</time>
      </trkpt>
      <trkpt lat="45.91821" lon="1.24638">
        <ele>374.1</ele>
        <time>2024-10-15T15:44:48Z</time>
      </trkpt>
      <trkpt lat="45.91806" lon="1.24638">
        <ele>372.2</ele>
        <time>2024-10-15T15:44:51Z</time>
      </trkpt>
      <trkpt lat="45.9179" lon="1.24638">
        <ele>370.3</ele>
        <time>2024-10-15T15:44:54Z</time>
      </trkpt>
      <trkpt lat="45.91769" lon="1.24641">
        <ele>368.3</ele>
        <time>2024-10-15T15:44:57Z</time>
      </trkpt>
      <trkpt lat="45.91748" lon="1.24644">
        <ele>366.2</ele>
        <time>2024-10-15T15:45:00Z</time>
      </trkpt>
      <trkpt lat="45.91726" lon="1.24643">
        <ele>364</ele>
        <time>2024-10-15T15:45:03Z</time>
      </trkpt>
      <trkpt lat="45.91703" lon="1.24637">
        <ele>361.6</ele>
        <time>2024-10-15T15:45:06Z</time>
      </trkpt>
      <trkpt lat="45.91678" lon="1.24633">
        <ele>359.3</ele>
        <time>2024-10-15T15:45:09Z</time>
      </trkpt>
      <trkpt lat="45.91653" lon="1.24634">
        <ele>357.8</ele>
        <time>2024-10-15T15:45:12Z</time>
      </trkpt>
      <trkpt lat="45.91629" lon="1.24638">
        <ele>357.5</ele>
        <time>2024-10-15T15:45:16Z</time>
      </trkpt>
      <trkpt lat="45.91608" lon="1.24642">
        <ele>358.1</ele>
        <time>2024-10-15T15:45:19Z</time>
      </trkpt>
      <trkpt lat="45.91591" lon="1.24649">
        <ele>359.3</ele>
        <time>2024-10-15T15:45:22Z</time>
      </trkpt>
      <trkpt lat="45.91577" lon="1.24652">
        <ele>360.9</ele>
        <time>2024-10-15T15:45:25Z</time>
      </trkpt>
      <trkpt lat="45.9157" lon="1.24653">
        <ele>361.7</ele>
        <time>2024-10-15T15:45:28Z</time>
      </trkpt>
      <trkpt lat="45.91565" lon="1.24653">
        <ele>362.3</ele>
        <time>2024-10-15T15:45:31Z</time>
      </trkpt>
      <trkpt lat="45.91557" lon="1.2466">
        <ele>362.9</ele>
        <time>2024-10-15T15:45:34Z</time>
      </trkpt>
      <trkpt lat="45.91547" lon="1.24665">
        <ele>363.4</ele>
        <time>2024-10-15T15:45:37Z</time>
      </trkpt>
      <trkpt lat="45.91536" lon="1.24669">
        <ele>363.9</ele>
        <time>2024-10-15T15:45:40Z</time>
      </trkpt>
      <trkpt lat="45.91524" lon="1.24673">
        <ele>364.3</ele>
        <time>2024-10-15T15:45:43Z</time>
      </trkpt>
      <trkpt lat="45.91513" lon="1.24678">
        <ele>364.7</ele>
        <time>2024-10-15T15:45:46Z</time>
      </trkpt>
      <trkpt lat="45.91502" lon="1.24683">
        <ele>365.2</ele>
        <time>2024-10-15T15:45:49Z</time>
      </trkpt>
      <trkpt lat="45.9149" lon="1.24687">
        <ele>365.7</ele>
        <time>2024-10-15T15:45:52Z</time>
      </trkpt>
      <trkpt lat="45.91478" lon="1.24692">
        <ele>366.1</ele>
        <time>2024-10-15T15:45:55Z</time>
      </trkpt>
      <trkpt lat="45.91467" lon="1.24696">
        <ele>366.5</ele>
        <time>2024-10-15T15:45:58Z</time>
      </trkpt>
      <trkpt lat="45.91456" lon="1.24701">
        <ele>366.8</ele>
        <time>2024-10-15T15:46:01Z</time>
      </trkpt>
      <trkpt lat="45.91445" lon="1.24707">
        <ele>367</ele>
        <time>2024-10-15T15:46:04Z</time>
      </trkpt>
      <trkpt lat="45.91433" lon="1.24712">
        <ele>367.2</ele>
        <time>2024-10-15T15:46:07Z</time>
      </trkpt>
      <trkpt lat="45.91421" lon="1.24715">
        <ele>367.2</ele>
        <time>2024-10-15T15:46:10Z</time>
      </trkpt>
      <trkpt lat="45.91409" lon="1.24718">
        <ele>367.1</ele>
        <time>2024-10-15T15:46:13Z</time>
      </trkpt>
      <trkpt lat="45.91395" lon="1.24718">
        <ele>367</ele>
        <time>2024-10-15T15:46:16Z</time>
      </trkpt>
      <trkpt lat="45.91384" lon="1.24713">
        <ele>366.9</ele>
        <time>2024-10-15T15:46:19Z</time>
      </trkpt>
      <trkpt lat="45.91375" lon="1.24708">
        <ele>367</ele>
        <time>2024-10-15T15:46:22Z</time>
      </trkpt>
      <trkpt lat="45.91365" lon="1.24701">
        <ele>367.1</ele>
        <time>2024-10-15T15:46:25Z</time>
      </trkpt>
      <trkpt lat="45.91356" lon="1.24693">
        <ele>367.2</ele>
        <time>2024-10-15T15:46:27Z</time>
      </trkpt>
      <trkpt lat="45.91346" lon="1.24685">
        <ele>367.4</ele>
        <time>2024-10-15T15:46:30Z</time>
      </trkpt>
      <trkpt lat="45.91337" lon="1.24677">
        <ele>367.6</ele>
        <time>2024-10-15T15:46:33Z</time>
      </trkpt>
      <trkpt lat="45.91327" lon="1.24669">
        <ele>367.8</ele>
        <time>2024-10-15T15:46:36Z</time>
      </trkpt>
      <trkpt lat="45.91319" lon="1.24662">
        <ele>368.2</ele>
        <time>2024-10-15T15:46:39Z</time>
      </trkpt>
      <trkpt lat="45.91312" lon="1.24653">
        <ele>368.6</ele>
        <time>2024-10-15T15:46:42Z</time>
      </trkpt>
      <trkpt lat="45.91304" lon="1.24645">
        <ele>369</ele>
        <time>2024-10-15T15:46:45Z</time>
      </trkpt>
      <trkpt lat="45.91296" lon="1.24638">
        <ele>369.5</ele>
        <time>2024-10-15T15:46:48Z</time>
      </trkpt>
      <trkpt lat="45.91289" lon="1.24632">
        <ele>369.9</ele>
        <time>2024-10-15T15:46:51Z</time>
      </trkpt>
      <trkpt lat="45.91282" lon="1.24626">
        <ele>370.4</ele>
        <time>2024-10-15T15:46:54Z</time>
      </trkpt>
      <trkpt lat="45.91274" lon="1.24619">
        <ele>370.8</ele>
        <time>2024-10-15T15:46:58Z</time>
      </trkpt>
      <trkpt lat="45.91266" lon="1.24614">
        <ele>371.3</ele>
        <time>2024-10-15T15:47:01Z</time>
      </trkpt>
      <trkpt lat="45.91259" lon="1.24608">
        <ele>371.7</ele>
        <time>2024-10-15T15:47:04Z</time>
      </trkpt>
      <trkpt lat="45.91253" lon="1.24602">
        <ele>372</ele>
        <time>2024-10-15T15:47:07Z</time>
      </trkpt>
      <trkpt lat="45.91246" lon="1.24596">
        <ele>372.4</ele>
        <time>2024-10-15T15:47:10Z</time>
      </trkpt>
      <trkpt lat="45.9124" lon="1.2459">
        <ele>372.7</ele>
        <time>2024-10-15T15:47:13Z</time>
      </trkpt>
      <trkpt lat="45.91232" lon="1.24583">
        <ele>373</ele>
        <time>2024-10-15T15:47:16Z</time>
      </trkpt>
      <trkpt lat="45.91224" lon="1.24576">
        <ele>373.2</ele>
        <time>2024-10-15T15:47:19Z</time>
      </trkpt>
      <trkpt lat="45.91216" lon="1.2457">
        <ele>373.4</ele>
        <time>2024-10-15T15:47:22Z</time>
      </trkpt>
      <trkpt lat="45.91209" lon="1.24562">
        <ele>373.6</ele>
        <time>2024-10-15T15:47:25Z</time>
      </trkpt>
      <trkpt lat="45.91201" lon="1.24556">
        <ele>373.8</ele>
        <time>2024-10-15T15:47:28Z</time>
      </trkpt>
      <trkpt lat="45.91194" lon="1.24549">
        <ele>373.9</ele>
        <time>2024-10-15T15:47:31Z</time>
      </trkpt>
      <trkpt lat="45.91186" lon="1.24543">
        <ele>374.1</ele>
        <time>2024-10-15T15:47:34Z</time>
      </trkpt>
      <trkpt lat="45.9118" lon="1.24536">
        <ele>374.3</ele>
        <time>2024-10-15T15:47:37Z</time>
      </trkpt>
      <trkpt lat="45.91173" lon="1.2453">
        <ele>374.5</ele>
        <time>2024-10-15T15:47:40Z</time>
      </trkpt>
      <trkpt lat="45.91166" lon="1.24525">
        <ele>374.7</ele>
        <time>2024-10-15T15:47:43Z</time>
      </trkpt>
      <trkpt lat="45.91159" lon="1.2452">
        <ele>375</ele>
        <time>2024-10-15T15:47:46Z</time>
      </trkpt>
      <trkpt lat="45.91151" lon="1.24516">
        <ele>375.3</ele>
        <time>2024-10-15T15:47:49Z</time>
      </trkpt>
      <trkpt lat="45.91144" lon="1.24511">
        <ele>375.6</ele>
        <time>2024-10-15T15:47:52Z</time>
      </trkpt>
      <trkpt lat="45.91137" lon="1.24508">
        <ele>376</ele>
        <time>2024-10-15T15:47:55Z</time>
      </trkpt>
      <trkpt lat="45.91131" lon="1.24504">
        <ele>376.4</ele>
        <time>2024-10-15T15:47:58Z</time>
      </trkpt>
      <trkpt lat="45.91124" lon="1.245">
        <ele>376.9</ele>
        <time>2024-10-15T15:48:01Z</time>
      </trkpt>
      <trkpt lat="45.91117" lon="1.24497">
        <ele>377.4</ele>
        <time>2024-10-15T15:48:03Z</time>
      </trkpt>
      <trkpt lat="45.9111" lon="1.24493">
        <ele>377.9</ele>
        <time>2024-10-15T15:48:06Z</time>
      </trkpt>
      <trkpt lat="45.91105" lon="1.24489">
        <ele>378.4</ele>
        <time>2024-10-15T15:48:09Z</time>
      </trkpt>
      <trkpt lat="45.91099" lon="1.24487">
        <ele>378.8</ele>
        <time>2024-10-15T15:48:12Z</time>
      </trkpt>
      <trkpt lat="45.91092" lon="1.24482">
        <ele>379.4</ele>
        <time>2024-10-15T15:48:15Z</time>
      </trkpt>
      <trkpt lat="45.91086" lon="1.24477">
        <ele>379.8</ele>
        <time>2024-10-15T15:48:19Z</time>
      </trkpt>
      <trkpt lat="45.91079" lon="1.24474">
        <ele>380.3</ele>
        <time>2024-10-15T15:48:21Z</time>
      </trkpt>
      <trkpt lat="45.91073" lon="1.2447">
        <ele>380.7</ele>
        <time>2024-10-15T15:48:24Z</time>
      </trkpt>
      <trkpt lat="45.91066" lon="1.24467">
        <ele>381.2</ele>
        <time>2024-10-15T15:48:28Z</time>
      </trkpt>
      <trkpt lat="45.91059" lon="1.24464">
        <ele>381.6</ele>
        <time>2024-10-15T15:48:31Z</time>
      </trkpt>
      <trkpt lat="45.91052" lon="1.2446">
        <ele>382</ele>
        <time>2024-10-15T15:48:34Z</time>
      </trkpt>
      <trkpt lat="45.91045" lon="1.24457">
        <ele>382.4</ele>
        <time>2024-10-15T15:48:37Z</time>
      </trkpt>
      <trkpt lat="45.91038" lon="1.24454">
        <ele>382.8</ele>
        <time>2024-10-15T15:48:40Z</time>
      </trkpt>
      <trkpt lat="45.91031" lon="1.24451">
        <ele>383.3</ele>
        <time>2024-10-15T15:48:43Z</time>
      </trkpt>
      <trkpt lat="45.91026" lon="1.2445">
        <ele>383.6</ele>
        <time>2024-10-15T15:48:46Z</time>
      </trkpt>
      <trkpt lat="45.91021" lon="1.24449">
        <ele>383.9</ele>
        <time>2024-10-15T15:48:49Z</time>
      </trkpt>
      <trkpt lat="45.91017" lon="1.24443">
        <ele>384.2</ele>
        <time>2024-10-15T15:48:52Z</time>
      </trkpt>
      <trkpt lat="45.91013" lon="1.2444">
        <ele>384.1</ele>
        <time>2024-10-15T15:48:55Z</time>
      </trkpt>
      <trkpt lat="45.91004" lon="1.24438">
        <ele>384.1</ele>
        <time>2024-10-15T15:48:58Z</time>
      </trkpt>
      <trkpt lat="45.90995" lon="1.24435">
        <ele>384</ele>
        <time>2024-10-15T15:49:01Z</time>
      </trkpt>
      <trkpt lat="45.90989" lon="1.24431">
        <ele>384</ele>
        <time>2024-10-15T15:49:04Z</time>
      </trkpt>
      <trkpt lat="45.90984" lon="1.24427">
        <ele>384.1</ele>
        <time>2024-10-15T15:49:07Z</time>
      </trkpt>
      <trkpt lat="45.9098" lon="1.24422">
        <ele>384.1</ele>
        <time>2024-10-15T15:49:10Z</time>
      </trkpt>
      <trkpt lat="45.90975" lon="1.24416">
        <ele>384.2</ele>
        <time>2024-10-15T15:49:13Z</time>
      </trkpt>
      <trkpt lat="45.9097" lon="1.24411">
        <ele>384.3</ele>
        <time>2024-10-15T15:49:16Z</time>
      </trkpt>
      <trkpt lat="45.90965" lon="1.24406">
        <ele>384.5</ele>
        <time>2024-10-15T15:49:19Z</time>
      </trkpt>
      <trkpt lat="45.90961" lon="1.244">
        <ele>384.7</ele>
        <time>2024-10-15T15:49:22Z</time>
      </trkpt>
      <trkpt lat="45.90956" lon="1.24393">
        <ele>385</ele>
        <time>2024-10-15T15:49:25Z</time>
      </trkpt>
      <trkpt lat="45.90951" lon="1.24387">
        <ele>385.3</ele>
        <time>2024-10-15T15:49:28Z</time>
      </trkpt>
      <trkpt lat="45.90947" lon="1.24381">
        <ele>385.6</ele>
        <time>2024-10-15T15:49:31Z</time>
      </trkpt>
      <trkpt lat="45.90942" lon="1.24375">
        <ele>385.9</ele>
        <time>2024-10-15T15:49:33Z</time>
      </trkpt>
      <trkpt lat="45.90938" lon="1.24368">
        <ele>386.3</ele>
        <time>2024-10-15T15:49:36Z</time>
      </trkpt>
      <trkpt lat="45.90933" lon="1.24363">
        <ele>386.7</ele>
        <time>2024-10-15T15:49:39Z</time>
      </trkpt>
      <trkpt lat="45.90928" lon="1.24357">
        <ele>387</ele>
        <time>2024-10-15T15:49:42Z</time>
      </trkpt>
      <trkpt lat="45.90923" lon="1.24351">
        <ele>387.4</ele>
        <time>2024-10-15T15:49:45Z</time>
      </trkpt>
      <trkpt lat="45.90918" lon="1.24344">
        <ele>387.7</ele>
        <time>2024-10-15T15:49:48Z</time>
      </trkpt>
      <trkpt lat="45.90912" lon="1.24338">
        <ele>388</ele>
        <time>2024-10-15T15:49:51Z</time>
      </trkpt>
      <trkpt lat="45.90906" lon="1.2433">
        <ele>388.2</ele>
        <time>2024-10-15T15:49:54Z</time>
      </trkpt>
      <trkpt lat="45.90901" lon="1.24324">
        <ele>388.5</ele>
        <time>2024-10-15T15:49:57Z</time>
      </trkpt>
      <trkpt lat="45.90895" lon="1.24318">
        <ele>388.7</ele>
        <time>2024-10-15T15:50:00Z</time>
      </trkpt>
      <trkpt lat="45.90889" lon="1.24312">
        <ele>388.9</ele>
        <time>2024-10-15T15:50:04Z</time>
      </trkpt>
      <trkpt lat="45.90882" lon="1.24307">
        <ele>389.2</ele>
        <time>2024-10-15T15:50:07Z</time>
      </trkpt>
      <trkpt lat="45.90875" lon="1.24302">
        <ele>389.4</ele>
        <time>2024-10-15T15:50:10Z</time>
      </trkpt>
      <trkpt lat="45.90868" lon="1.24297">
        <ele>389.7</ele>
        <time>2024-10-15T15:50:13Z</time>
      </trkpt>
      <trkpt lat="45.90862" lon="1.24293">
        <ele>389.9</ele>
        <time>2024-10-15T15:50:16Z</time>
      </trkpt>
      <trkpt lat="45.90857" lon="1.24288">
        <ele>390.2</ele>
        <time>2024-10-15T15:50:19Z</time>
      </trkpt>
      <trkpt lat="45.90851" lon="1.24281">
        <ele>390.5</ele>
        <time>2024-10-15T15:50:22Z</time>
      </trkpt>
      <trkpt lat="45.90846" lon="1.24274">
        <ele>390.8</ele>
        <time>2024-10-15T15:50:25Z</time>
      </trkpt>
      <trkpt lat="45.9084" lon="1.24266">
        <ele>391.1</ele>
        <time>2024-10-15T15:50:28Z</time>
      </trkpt>
      <trkpt lat="45.90835" lon="1.24257">
        <ele>391.4</ele>
        <time>2024-10-15T15:50:31Z</time>
      </trkpt>
      <trkpt lat="45.90831" lon="1.24248">
        <ele>391.7</ele>
        <time>2024-10-15T15:50:34Z</time>
      </trkpt>
      <trkpt lat="45.90827" lon="1.24239">
        <ele>391.9</ele>
        <time>2024-10-15T15:50:37Z</time>
      </trkpt>
      <trkpt lat="45.90822" lon="1.2423">
        <ele>392.2</ele>
        <time>2024-10-15T15:50:40Z</time>
      </trkpt>
      <trkpt lat="45.90817" lon="1.24221">
        <ele>392.4</ele>
        <time>2024-10-15T15:50:43Z</time>
      </trkpt>
      <trkpt lat="45.90812" lon="1.24211">
        <ele>392.7</ele>
        <time>2024-10-15T15:50:46Z</time>
      </trkpt>
      <trkpt lat="45.90807" lon="1.24202">
        <ele>392.9</ele>
        <time>2024-10-15T15:50:49Z</time>
      </trkpt>
      <trkpt lat="45.90803" lon="1.24192">
        <ele>393.1</ele>
        <time>2024-10-15T15:50:52Z</time>
      </trkpt>
      <trkpt lat="45.90799" lon="1.24183">
        <ele>393.4</ele>
        <time>2024-10-15T15:50:55Z</time>
      </trkpt>
      <trkpt lat="45.90794" lon="1.24173">
        <ele>393.6</ele>
        <time>2024-10-15T15:50:58Z</time>
      </trkpt>
      <trkpt lat="45.90789" lon="1.24165">
        <ele>393.8</ele>
        <time>2024-10-15T15:51:01Z</time>
      </trkpt>
      <trkpt lat="45.90786" lon="1.24156">
        <ele>394</ele>
        <time>2024-10-15T15:51:03Z</time>
      </trkpt>
      <trkpt lat="45.90781" lon="1.24147">
        <ele>394.2</ele>
        <time>2024-10-15T15:51:06Z</time>
      </trkpt>
      <trkpt lat="45.90779" lon="1.24138">
        <ele>394.5</ele>
        <time>2024-10-15T15:51:09Z</time>
      </trkpt>
      <trkpt lat="45.90782" lon="1.2413">
        <ele>394.8</ele>
        <time>2024-10-15T15:51:12Z</time>
      </trkpt>
      <trkpt lat="45.90784" lon="1.24121">
        <ele>394.9</ele>
        <time>2024-10-15T15:51:15Z</time>
      </trkpt>
      <trkpt lat="45.9078" lon="1.24122">
        <ele>394.9</ele>
        <time>2024-10-15T15:51:18Z</time>
      </trkpt>
      <trkpt lat="45.90779" lon="1.24128">
        <ele>394.9</ele>
        <time>2024-10-15T15:51:21Z</time>
      </trkpt>
      <trkpt lat="45.90783" lon="1.24127">
        <ele>395</ele>
        <time>2024-10-15T15:51:24Z</time>
      </trkpt>
      <trkpt lat="45.90786" lon="1.24121">
        <ele>395</ele>
        <time>2024-10-15T15:51:27Z</time>
      </trkpt>
      <trkpt lat="45.90782" lon="1.24118">
        <ele>395.1</ele>
        <time>2024-10-15T15:51:31Z</time>
      </trkpt>
      <trkpt lat="45.90778" lon="1.24125">
        <ele>395.1</ele>
        <time>2024-10-15T15:51:34Z</time>
      </trkpt>
      <trkpt lat="45.90782" lon="1.24129">
        <ele>395.2</ele>
        <time>2024-10-15T15:51:37Z</time>
      </trkpt>
      <trkpt lat="45.90788" lon="1.24126">
        <ele>395.2</ele>
        <time>2024-10-15T15:51:40Z</time>
      </trkpt>
      <trkpt lat="45.90785" lon="1.24118">
        <ele>395.3</ele>
        <time>2024-10-15T15:51:43Z</time>
      </trkpt>
      <trkpt lat="45.90778" lon="1.2412">
        <ele>395</ele>
        <time>2024-10-15T15:51:46Z</time>
      </trkpt>
      <trkpt lat="45.90779" lon="1.24128">
        <ele>394.8</ele>
        <time>2024-10-15T15:51:49Z</time>
      </trkpt>
      <trkpt lat="45.90779" lon="1.24136">
        <ele>394.6</ele>
        <time>2024-10-15T15:51:52Z</time>
      </trkpt>
      <trkpt lat="45.90772" lon="1.24148">
        <ele>394.3</ele>
        <time>2024-10-15T15:51:55Z</time>
      </trkpt>
      <trkpt lat="45.90766" lon="1.24163">
        <ele>394</ele>
        <time>2024-10-15T15:51:58Z</time>
      </trkpt>
      <trkpt lat="45.90758" lon="1.24178">
        <ele>393.6</ele>
        <time>2024-10-15T15:52:01Z</time>
      </trkpt>
      <trkpt lat="45.90751" lon="1.24194">
        <ele>393.3</ele>
        <time>2024-10-15T15:52:04Z</time>
      </trkpt>
      <trkpt lat="45.90743" lon="1.24209">
        <ele>393</ele>
        <time>2024-10-15T15:52:07Z</time>
      </trkpt>
      <trkpt lat="45.90737" lon="1.24218">
        <ele>392.8</ele>
        <time>2024-10-15T15:52:10Z</time>
      </trkpt>
      <trkpt lat="45.90734" lon="1.24222">
        <ele>392.7</ele>
        <time>2024-10-15T15:52:13Z</time>
      </trkpt>
      <trkpt lat="45.90732" lon="1.24227">
        <ele>392.6</ele>
        <time>2024-10-15T15:52:16Z</time>
      </trkpt>
      <trkpt lat="45.9073" lon="1.24231">
        <ele>392.5</ele>
        <time>2024-10-15T15:52:19Z</time>
      </trkpt>
      <trkpt lat="45.90727" lon="1.24232">
        <ele>392.5</ele>
        <time>2024-10-15T15:52:22Z</time>
      </trkpt>
      <trkpt lat="45.90728" lon="1.24234">
        <ele>392.5</ele>
        <time>2024-10-15T15:52:25Z</time>
      </trkpt>
      <trkpt lat="45.90731" lon="1.24228">
        <ele>392.6</ele>
        <time>2024-10-15T15:52:28Z</time>
      </trkpt>
      <trkpt lat="45.90735" lon="1.24217">
        <ele>392.8</ele>
        <time>2024-10-15T15:52:31Z</time>
      </trkpt>
      <trkpt lat="45.90741" lon="1.24205">
        <ele>393</ele>
        <time>2024-10-15T15:52:33Z</time>
      </trkpt>
      <trkpt lat="45.90744" lon="1.24197">
        <ele>393.2</ele>
        <time>2024-10-15T15:52:36Z</time>
      </trkpt>
      <trkpt lat="45.9075" lon="1.24186">
        <ele>393.4</ele>
        <time>2024-10-15T15:52:39Z</time>
      </trkpt>
      <trkpt lat="45.90754" lon="1.24175">
        <ele>393.6</ele>
        <time>2024-10-15T15:52:42Z</time>
      </trkpt>
      <trkpt lat="45.9076" lon="1.24164">
        <ele>393.9</ele>
        <time>2024-10-15T15:52:45Z</time>
      </trkpt>
      <trkpt lat="45.90767" lon="1.24154">
        <ele>394.2</ele>
        <time>2024-10-15T15:52:48Z</time>
      </trkpt>
      <trkpt lat="45.90773" lon="1.24144">
        <ele>394.4</ele>
        <time>2024-10-15T15:52:51Z</time>
      </trkpt>
      <trkpt lat="45.90777" lon="1.24134">
        <ele>394.6</ele>
        <time>2024-10-15T15:52:54Z</time>
      </trkpt>
      <trkpt lat="45.90779" lon="1.24124">
        <ele>394.6</ele>
        <time>2024-10-15T15:52:57Z</time>
      </trkpt>
      <trkpt lat="45.90777" lon="1.24116">
        <ele>394.5</ele>
        <time>2024-10-15T15:53:00Z</time>
      </trkpt>
      <trkpt lat="45.90774" lon="1.24107">
        <ele>394.3</ele>
        <time>2024-10-15T15:53:04Z</time>
      </trkpt>
      <trkpt lat="45.90768" lon="1.24096">
        <ele>393.8</ele>
        <time>2024-10-15T15:53:07Z</time>
      </trkpt>
      <trkpt lat="45.9076" lon="1.24083">
        <ele>393.3</ele>
        <time>2024-10-15T15:53:10Z</time>
      </trkpt>
      <trkpt lat="45.90753" lon="1.24067">
        <ele>392.6</ele>
        <time>2024-10-15T15:53:13Z</time>
      </trkpt>
      <trkpt lat="45.90746" lon="1.24051">
        <ele>391.9</ele>
        <time>2024-10-15T15:53:16Z</time>
      </trkpt>
      <trkpt lat="45.90736" lon="1.24034">
        <ele>391.3</ele>
        <time>2024-10-15T15:53:19Z</time>
      </trkpt>
      <trkpt lat="45.90727" lon="1.24017">
        <ele>390.8</ele>
        <time>2024-10-15T15:53:22Z</time>
      </trkpt>
      <trkpt lat="45.90719" lon="1.24002">
        <ele>390.5</ele>
        <time>2024-10-15T15:53:25Z</time>
      </trkpt>
      <trkpt lat="45.9071" lon="1.23988">
        <ele>390.3</ele>
        <time>2024-10-15T15:53:28Z</time>
      </trkpt>
      <trkpt lat="45.907" lon="1.23978">
        <ele>390.2</ele>
        <time>2024-10-15T15:53:31Z</time>
      </trkpt>
      <trkpt lat="45.90692" lon="1.23966">
        <ele>390.1</ele>
        <time>2024-10-15T15:53:34Z</time>
      </trkpt>
      <trkpt lat="45.90682" lon="1.23956">
        <ele>390.1</ele>
        <time>2024-10-15T15:53:37Z</time>
      </trkpt>
      <trkpt lat="45.90672" lon="1.23947">
        <ele>390</ele>
        <time>2024-10-15T15:53:40Z</time>
      </trkpt>
      <trkpt lat="45.90663" lon="1.23935">
        <ele>390</ele>
        <time>2024-10-15T15:53:43Z</time>
      </trkpt>
      <trkpt lat="45.90657" lon="1.23927">
        <ele>389.9</ele>
        <time>2024-10-15T15:53:46Z</time>
      </trkpt>
      <trkpt lat="45.9065" lon="1.23915">
        <ele>389.8</ele>
        <time>2024-10-15T15:53:49Z</time>
      </trkpt>
      <trkpt lat="45.90644" lon="1.23902">
        <ele>389.7</ele>
        <time>2024-10-15T15:53:52Z</time>
      </trkpt>
      <trkpt lat="45.90638" lon="1.2389">
        <ele>389.6</ele>
        <time>2024-10-15T15:53:55Z</time>
      </trkpt>
      <trkpt lat="45.90632" lon="1.23878">
        <ele>389.5</ele>
        <time>2024-10-15T15:53:58Z</time>
      </trkpt>
      <trkpt lat="45.90625" lon="1.23864">
        <ele>389.3</ele>
        <time>2024-10-15T15:54:01Z</time>
      </trkpt>
      <trkpt lat="45.90619" lon="1.23851">
        <ele>389.2</ele>
        <time>2024-10-15T15:54:03Z</time>
      </trkpt>
      <trkpt lat="45.90614" lon="1.23837">
        <ele>389.1</ele>
        <time>2024-10-15T15:54:06Z</time>
      </trkpt>
      <trkpt lat="45.90608" lon="1.23826">
        <ele>389</ele>
        <time>2024-10-15T15:54:09Z</time>
      </trkpt>
      <trkpt lat="45.90601" lon="1.23812">
        <ele>388.9</ele>
        <time>2024-10-15T15:54:12Z</time>
      </trkpt>
      <trkpt lat="45.90596" lon="1.23798">
        <ele>389</ele>
        <time>2024-10-15T15:54:16Z</time>
      </trkpt>
      <trkpt lat="45.90591" lon="1.23784">
        <ele>389.1</ele>
        <time>2024-10-15T15:54:18Z</time>
      </trkpt>
      <trkpt lat="45.90585" lon="1.23772">
        <ele>389.3</ele>
        <time>2024-10-15T15:54:21Z</time>
      </trkpt>
      <trkpt lat="45.9058" lon="1.2376">
        <ele>389.6</ele>
        <time>2024-10-15T15:54:24Z</time>
      </trkpt>
      <trkpt lat="45.90575" lon="1.23747">
        <ele>389.9</ele>
        <time>2024-10-15T15:54:28Z</time>
      </trkpt>
      <trkpt lat="45.90569" lon="1.23732">
        <ele>390.2</ele>
        <time>2024-10-15T15:54:30Z</time>
      </trkpt>
      <trkpt lat="45.90564" lon="1.23719">
        <ele>390.4</ele>
        <time>2024-10-15T15:54:34Z</time>
      </trkpt>
      <trkpt lat="45.90559" lon="1.23706">
        <ele>390.3</ele>
        <time>2024-10-15T15:54:37Z</time>
      </trkpt>
      <trkpt lat="45.90552" lon="1.23693">
        <ele>390.1</ele>
        <time>2024-10-15T15:54:40Z</time>
      </trkpt>
      <trkpt lat="45.90548" lon="1.23677">
        <ele>389.7</ele>
        <time>2024-10-15T15:54:43Z</time>
      </trkpt>
      <trkpt lat="45.90542" lon="1.23664">
        <ele>389.3</ele>
        <time>2024-10-15T15:54:46Z</time>
      </trkpt>
      <trkpt lat="45.90539" lon="1.23653">
        <ele>388.9</ele>
        <time>2024-10-15T15:54:49Z</time>
      </trkpt>
      <trkpt lat="45.90538" lon="1.23648">
        <ele>388.7</ele>
        <time>2024-10-15T15:54:52Z</time>
      </trkpt>
      <trkpt lat="45.90533" lon="1.23643">
        <ele>388.5</ele>
        <time>2024-10-15T15:54:55Z</time>
      </trkpt>
      <trkpt lat="45.90526" lon="1.23637">
        <ele>388.3</ele>
        <time>2024-10-15T15:54:58Z</time>
      </trkpt>
      <trkpt lat="45.90519" lon="1.23636">
        <ele>388.1</ele>
        <time>2024-10-15T15:55:01Z</time>
      </trkpt>
      <trkpt lat="45.90511" lon="1.23635">
        <ele>387.8</ele>
        <time>2024-10-15T15:55:04Z</time>
      </trkpt>
      <trkpt lat="45.90504" lon="1.2363">
        <ele>387.3</ele>
        <time>2024-10-15T15:55:07Z</time>
      </trkpt>
      <trkpt lat="45.90498" lon="1.23626">
        <ele>386.9</ele>
        <time>2024-10-15T15:55:10Z</time>
      </trkpt>
      <trkpt lat="45.90491" lon="1.23622">
        <ele>386.5</ele>
        <time>2024-10-15T15:55:13Z</time>
      </trkpt>
      <trkpt lat="45.90484" lon="1.23617">
        <ele>386</ele>
        <time>2024-10-15T15:55:16Z</time>
      </trkpt>
      <trkpt lat="45.90477" lon="1.23612">
        <ele>385.5</ele>
        <time>2024-10-15T15:55:19Z</time>
      </trkpt>
      <trkpt lat="45.90469" lon="1.23605">
        <ele>384.9</ele>
        <time>2024-10-15T15:55:22Z</time>
      </trkpt>
      <trkpt lat="45.9046" lon="1.23599">
        <ele>384.2</ele>
        <time>2024-10-15T15:55:25Z</time>
      </trkpt>
      <trkpt lat="45.9045" lon="1.23591">
        <ele>383.5</ele>
        <time>2024-10-15T15:55:28Z</time>
      </trkpt>
      <trkpt lat="45.9044" lon="1.23583">
        <ele>382.7</ele>
        <time>2024-10-15T15:55:31Z</time>
      </trkpt>
      <trkpt lat="45.9043" lon="1.23575">
        <ele>382</ele>
        <time>2024-10-15T15:55:33Z</time>
      </trkpt>
      <trkpt lat="45.90418" lon="1.23568">
        <ele>381.3</ele>
        <time>2024-10-15T15:55:37Z</time>
      </trkpt>
      <trkpt lat="45.90407" lon="1.23559">
        <ele>380.6</ele>
        <time>2024-10-15T15:55:40Z</time>
      </trkpt>
      <trkpt lat="45.90394" lon="1.23551">
        <ele>379.9</ele>
        <time>2024-10-15T15:55:42Z</time>
      </trkpt>
      <trkpt lat="45.90382" lon="1.23541">
        <ele>379.3</ele>
        <time>2024-10-15T15:55:45Z</time>
      </trkpt>
      <trkpt lat="45.90369" lon="1.23532">
        <ele>378.9</ele>
        <time>2024-10-15T15:55:48Z</time>
      </trkpt>
      <trkpt lat="45.90355" lon="1.23521">
        <ele>378.4</ele>
        <time>2024-10-15T15:55:51Z</time>
      </trkpt>
      <trkpt lat="45.90341" lon="1.23509">
        <ele>378</ele>
        <time>2024-10-15T15:55:54Z</time>
      </trkpt>
      <trkpt lat="45.90325" lon="1.23495">
        <ele>377.7</ele>
        <time>2024-10-15T15:55:57Z</time>
      </trkpt>
      <trkpt lat="45.90308" lon="1.2348">
        <ele>377.7</ele>
        <time>2024-10-15T15:56:00Z</time>
      </trkpt>
      <trkpt lat="45.90292" lon="1.23464">
        <ele>377.8</ele>
        <time>2024-10-15T15:56:04Z</time>
      </trkpt>
      <trkpt lat="45.90278" lon="1.23449">
        <ele>378.2</ele>
        <time>2024-10-15T15:56:06Z</time>
      </trkpt>
      <trkpt lat="45.90266" lon="1.23432">
        <ele>378.5</ele>
        <time>2024-10-15T15:56:09Z</time>
      </trkpt>
      <trkpt lat="45.90257" lon="1.23413">
        <ele>378.7</ele>
        <time>2024-10-15T15:56:13Z</time>
      </trkpt>
      <trkpt lat="45.90248" lon="1.23394">
        <ele>379</ele>
        <time>2024-10-15T15:56:16Z</time>
      </trkpt>
      <trkpt lat="45.9024" lon="1.23375">
        <ele>379.4</ele>
        <time>2024-10-15T15:56:19Z</time>
      </trkpt>
      <trkpt lat="45.90233" lon="1.23358">
        <ele>379.8</ele>
        <time>2024-10-15T15:56:22Z</time>
      </trkpt>
      <trkpt lat="45.90227" lon="1.23343">
        <ele>380.1</ele>
        <time>2024-10-15T15:56:25Z</time>
      </trkpt>
      <trkpt lat="45.90222" lon="1.23327">
        <ele>380.4</ele>
        <time>2024-10-15T15:56:28Z</time>
      </trkpt>
      <trkpt lat="45.90216" lon="1.2331">
        <ele>380.7</ele>
        <time>2024-10-15T15:56:31Z</time>
      </trkpt>
      <trkpt lat="45.9021" lon="1.23295">
        <ele>381</ele>
        <time>2024-10-15T15:56:34Z</time>
      </trkpt>
      <trkpt lat="45.90204" lon="1.23281">
        <ele>381</ele>
        <time>2024-10-15T15:56:37Z</time>
      </trkpt>
      <trkpt lat="45.90196" lon="1.23267">
        <ele>381.1</ele>
        <time>2024-10-15T15:56:40Z</time>
      </trkpt>
      <trkpt lat="45.90187" lon="1.23253">
        <ele>381.1</ele>
        <time>2024-10-15T15:56:43Z</time>
      </trkpt>
      <trkpt lat="45.90178" lon="1.23237">
        <ele>381.1</ele>
        <time>2024-10-15T15:56:46Z</time>
      </trkpt>
      <trkpt lat="45.90169" lon="1.23224">
        <ele>381.1</ele>
        <time>2024-10-15T15:56:49Z</time>
      </trkpt>
      <trkpt lat="45.9016" lon="1.2321">
        <ele>381.2</ele>
        <time>2024-10-15T15:56:52Z</time>
      </trkpt>
      <trkpt lat="45.9015" lon="1.23196">
        <ele>381.4</ele>
        <time>2024-10-15T15:56:55Z</time>
      </trkpt>
      <trkpt lat="45.90142" lon="1.23181">
        <ele>381.8</ele>
        <time>2024-10-15T15:56:58Z</time>
      </trkpt>
      <trkpt lat="45.90136" lon="1.23164">
        <ele>382.3</ele>
        <time>2024-10-15T15:57:01Z</time>
      </trkpt>
      <trkpt lat="45.90134" lon="1.23148">
        <ele>382.7</ele>
        <time>2024-10-15T15:57:04Z</time>
      </trkpt>
      <trkpt lat="45.90133" lon="1.23132">
        <ele>383.3</ele>
        <time>2024-10-15T15:57:07Z</time>
      </trkpt>
      <trkpt lat="45.90134" lon="1.23116">
        <ele>384</ele>
        <time>2024-10-15T15:57:10Z</time>
      </trkpt>
      <trkpt lat="45.90137" lon="1.23102">
        <ele>384.6</ele>
        <time>2024-10-15T15:57:13Z</time>
      </trkpt>
      <trkpt lat="45.90138" lon="1.23089">
        <ele>385.1</ele>
        <time>2024-10-15T15:57:15Z</time>
      </trkpt>
      <trkpt lat="45.9014" lon="1.23075">
        <ele>385.6</ele>
        <time>2024-10-15T15:57:18Z</time>
      </trkpt>
      <trkpt lat="45.9014" lon="1.23063">
        <ele>386.1</ele>
        <time>2024-10-15T15:57:21Z</time>
      </trkpt>
      <trkpt lat="45.90139" lon="1.23048">
        <ele>386.6</ele>
        <time>2024-10-15T15:57:24Z</time>
      </trkpt>
      <trkpt lat="45.90139" lon="1.23034">
        <ele>387</ele>
        <time>2024-10-15T15:57:27Z</time>
      </trkpt>
      <trkpt lat="45.90136" lon="1.23021">
        <ele>387.5</ele>
        <time>2024-10-15T15:57:30Z</time>
      </trkpt>
      <trkpt lat="45.90132" lon="1.23009">
        <ele>387.8</ele>
        <time>2024-10-15T15:57:33Z</time>
      </trkpt>
      <trkpt lat="45.90128" lon="1.22997">
        <ele>388.2</ele>
        <time>2024-10-15T15:57:36Z</time>
      </trkpt>
      <trkpt lat="45.90125" lon="1.22985">
        <ele>388.6</ele>
        <time>2024-10-15T15:57:40Z</time>
      </trkpt>
      <trkpt lat="45.90121" lon="1.22973">
        <ele>389</ele>
        <time>2024-10-15T15:57:43Z</time>
      </trkpt>
      <trkpt lat="45.90117" lon="1.22961">
        <ele>389.3</ele>
        <time>2024-10-15T15:57:46Z</time>
      </trkpt>
      <trkpt lat="45.90113" lon="1.22949">
        <ele>389.7</ele>
        <time>2024-10-15T15:57:49Z</time>
      </trkpt>
      <trkpt lat="45.9011" lon="1.22937">
        <ele>390.1</ele>
        <time>2024-10-15T15:57:52Z</time>
      </trkpt>
      <trkpt lat="45.90106" lon="1.22924">
        <ele>390.4</ele>
        <time>2024-10-15T15:57:55Z</time>
      </trkpt>
      <trkpt lat="45.90104" lon="1.22911">
        <ele>390.8</ele>
        <time>2024-10-15T15:57:58Z</time>
      </trkpt>
      <trkpt lat="45.90101" lon="1.229">
        <ele>391.2</ele>
        <time>2024-10-15T15:58:01Z</time>
      </trkpt>
      <trkpt lat="45.90099" lon="1.22888">
        <ele>391.5</ele>
        <time>2024-10-15T15:58:04Z</time>
      </trkpt>
      <trkpt lat="45.90096" lon="1.22876">
        <ele>391.9</ele>
        <time>2024-10-15T15:58:07Z</time>
      </trkpt>
      <trkpt lat="45.90094" lon="1.22864">
        <ele>392.2</ele>
        <time>2024-10-15T15:58:10Z</time>
      </trkpt>
      <trkpt lat="45.90092" lon="1.22852">
        <ele>392.6</ele>
        <time>2024-10-15T15:58:13Z</time>
      </trkpt>
      <trkpt lat="45.90091" lon="1.2284">
        <ele>392.9</ele>
        <time>2024-10-15T15:58:16Z</time>
      </trkpt>
      <trkpt lat="45.90089" lon="1.22828">
        <ele>393.2</ele>
        <time>2024-10-15T15:58:19Z</time>
      </trkpt>
      <trkpt lat="45.90087" lon="1.22816">
        <ele>393.6</ele>
        <time>2024-10-15T15:58:22Z</time>
      </trkpt>
      <trkpt lat="45.90084" lon="1.22804">
        <ele>393.9</ele>
        <time>2024-10-15T15:58:25Z</time>
      </trkpt>
      <trkpt lat="45.9008" lon="1.22792">
        <ele>394.1</ele>
        <time>2024-10-15T15:58:28Z</time>
      </trkpt>
      <trkpt lat="45.90073" lon="1.22781">
        <ele>394.4</ele>
        <time>2024-10-15T15:58:31Z</time>
      </trkpt>
      <trkpt lat="45.90066" lon="1.22772">
        <ele>394.7</ele>
        <time>2024-10-15T15:58:34Z</time>
      </trkpt>
      <trkpt lat="45.9006" lon="1.22766">
        <ele>394.8</ele>
        <time>2024-10-15T15:58:37Z</time>
      </trkpt>
      <trkpt lat="45.90056" lon="1.22764">
        <ele>394.9</ele>
        <time>2024-10-15T15:58:40Z</time>
      </trkpt>
      <trkpt lat="45.9005" lon="1.22764">
        <ele>394.9</ele>
        <time>2024-10-15T15:58:43Z</time>
      </trkpt>
      <trkpt lat="45.90041" lon="1.22765">
        <ele>395</ele>
        <time>2024-10-15T15:58:46Z</time>
      </trkpt>
      <trkpt lat="45.90033" lon="1.22758">
        <ele>395.1</ele>
        <time>2024-10-15T15:58:49Z</time>
      </trkpt>
      <trkpt lat="45.90028" lon="1.2275">
        <ele>395.1</ele>
        <time>2024-10-15T15:58:51Z</time>
      </trkpt>
      <trkpt lat="45.90025" lon="1.22741">
        <ele>395.2</ele>
        <time>2024-10-15T15:58:55Z</time>
      </trkpt>
      <trkpt lat="45.90022" lon="1.22732">
        <ele>395.2</ele>
        <time>2024-10-15T15:58:57Z</time>
      </trkpt>
      <trkpt lat="45.9002" lon="1.22725">
        <ele>395.2</ele>
        <time>2024-10-15T15:59:00Z</time>
      </trkpt>
      <trkpt lat="45.90019" lon="1.22723">
        <ele>395.2</ele>
        <time>2024-10-15T15:59:03Z</time>
      </trkpt>
      <trkpt lat="45.90019" lon="1.22723">
        <ele>395.2</ele>
        <time>2024-10-15T15:59:06Z</time>
      </trkpt>
      <trkpt lat="45.90018" lon="1.22722">
        <ele>395.2</ele>
        <time>2024-10-15T15:59:09Z</time>
      </trkpt>
      <trkpt lat="45.90019" lon="1.2272">
        <ele>395.2</ele>
        <time>2024-10-15T15:59:12Z</time>
      </trkpt>
      <trkpt lat="45.90019" lon="1.22718">
        <ele>395.2</ele>
        <time>2024-10-15T15:59:16Z</time>
      </trkpt>
      <trkpt lat="45.90025" lon="1.22714">
        <ele>395.3</ele>
        <time>2024-10-15T15:59:18Z</time>
      </trkpt>
      <trkpt lat="45.90035" lon="1.2271">
        <ele>395.4</ele>
        <time>2024-10-15T15:59:22Z</time>
      </trkpt>
      <trkpt lat="45.90045" lon="1.22702">
        <ele>395.5</ele>
        <time>2024-10-15T15:59:25Z</time>
      </trkpt>
      <trkpt lat="45.90053" lon="1.22688">
        <ele>395.7</ele>
        <time>2024-10-15T15:59:28Z</time>
      </trkpt>
      <trkpt lat="45.9006" lon="1.22672">
        <ele>396</ele>
        <time>2024-10-15T15:59:31Z</time>
      </trkpt>
      <trkpt lat="45.90068" lon="1.22652">
        <ele>396.1</ele>
        <time>2024-10-15T15:59:34Z</time>
      </trkpt>
      <trkpt lat="45.90081" lon="1.22637">
        <ele>396.3</ele>
        <time>2024-10-15T15:59:37Z</time>
      </trkpt>
      <trkpt lat="45.90096" lon="1.22625">
        <ele>396.5</ele>
        <time>2024-10-15T15:59:40Z</time>
      </trkpt>
      <trkpt lat="45.90111" lon="1.22613">
        <ele>396.6</ele>
        <time>2024-10-15T15:59:43Z</time>
      </trkpt>
      <trkpt lat="45.90125" lon="1.22602">
        <ele>396.7</ele>
        <time>2024-10-15T15:59:46Z</time>
      </trkpt>
      <trkpt lat="45.90142" lon="1.22598">
        <ele>396.8</ele>
        <time>2024-10-15T15:59:49Z</time>
      </trkpt>
      <trkpt lat="45.90157" lon="1.22606">
        <ele>396.9</ele>
        <time>2024-10-15T15:59:52Z</time>
      </trkpt>
      <trkpt lat="45.90174" lon="1.22609">
        <ele>397</ele>
        <time>2024-10-15T15:59:55Z</time>
      </trkpt>
      <trkpt lat="45.90189" lon="1.22598">
        <ele>397.1</ele>
        <time>2024-10-15T15:59:58Z</time>
      </trkpt>
      <trkpt lat="45.90198" lon="1.22574">
        <ele>397.1</ele>
        <time>2024-10-15T16:00:01Z</time>
      </trkpt>
      <trkpt lat="45.90196" lon="1.22548">
        <ele>397.2</ele>
        <time>2024-10-15T16:00:04Z</time>
      </trkpt>
      <trkpt lat="45.90186" lon="1.22525">
        <ele>397.2</ele>
        <time>2024-10-15T16:00:07Z</time>
      </trkpt>
      <trkpt lat="45.90181" lon="1.225">
        <ele>397.5</ele>
        <time>2024-10-15T16:00:10Z</time>
      </trkpt>
      <trkpt lat="45.90195" lon="1.22483">
        <ele>397.8</ele>
        <time>2024-10-15T16:00:13Z</time>
      </trkpt>
      <trkpt lat="45.90209" lon="1.22471">
        <ele>398.3</ele>
        <time>2024-10-15T16:00:16Z</time>
      </trkpt>
      <trkpt lat="45.90223" lon="1.2246">
        <ele>398.9</ele>
        <time>2024-10-15T16:00:19Z</time>
      </trkpt>
      <trkpt lat="45.90236" lon="1.22448">
        <ele>399.7</ele>
        <time>2024-10-15T16:00:22Z</time>
      </trkpt>
      <trkpt lat="45.90246" lon="1.22434">
        <ele>400.5</ele>
        <time>2024-10-15T16:00:25Z</time>
      </trkpt>
      <trkpt lat="45.90252" lon="1.22417">
        <ele>401.1</ele>
        <time>2024-10-15T16:00:28Z</time>
      </trkpt>
      <trkpt lat="45.90254" lon="1.22402">
        <ele>401.7</ele>
        <time>2024-10-15T16:00:30Z</time>
      </trkpt>
      <trkpt lat="45.90251" lon="1.22386">
        <ele>402.2</ele>
        <time>2024-10-15T16:00:33Z</time>
      </trkpt>
      <trkpt lat="45.90248" lon="1.2237">
        <ele>402.7</ele>
        <time>2024-10-15T16:00:36Z</time>
      </trkpt>
      <trkpt lat="45.90244" lon="1.22355">
        <ele>403.2</ele>
        <time>2024-10-15T16:00:39Z</time>
      </trkpt>
      <trkpt lat="45.90239" lon="1.2234">
        <ele>403.7</ele>
        <time>2024-10-15T16:00:42Z</time>
      </trkpt>
      <trkpt lat="45.90236" lon="1.22326">
        <ele>404.2</ele>
        <time>2024-10-15T16:00:45Z</time>
      </trkpt>
      <trkpt lat="45.90233" lon="1.22311">
        <ele>404.6</ele>
        <time>2024-10-15T16:00:48Z</time>
      </trkpt>
      <trkpt lat="45.90229" lon="1.22297">
        <ele>405</ele>
        <time>2024-10-15T16:00:52Z</time>
      </trkpt>
      <trkpt lat="45.90227" lon="1.22281">
        <ele>405.2</ele>
        <time>2024-10-15T16:00:54Z</time>
      </trkpt>
      <trkpt lat="45.90224" lon="1.22263">
        <ele>405.3</ele>
        <time>2024-10-15T16:00:58Z</time>
      </trkpt>
      <trkpt lat="45.9022" lon="1.22247">
        <ele>405.4</ele>
        <time>2024-10-15T16:01:01Z</time>
      </trkpt>
      <trkpt lat="45.90216" lon="1.2223">
        <ele>405.3</ele>
        <time>2024-10-15T16:01:04Z</time>
      </trkpt>
      <trkpt lat="45.90211" lon="1.22215">
        <ele>405.2</ele>
        <time>2024-10-15T16:01:07Z</time>
      </trkpt>
      <trkpt lat="45.90208" lon="1.22199">
        <ele>405</ele>
        <time>2024-10-15T16:01:10Z</time>
      </trkpt>
      <trkpt lat="45.90204" lon="1.22184">
        <ele>404.8</ele>
        <time>2024-10-15T16:01:13Z</time>
      </trkpt>
      <trkpt lat="45.902" lon="1.22168">
        <ele>404.5</ele>
        <time>2024-10-15T16:01:16Z</time>
      </trkpt>
      <trkpt lat="45.90196" lon="1.22153">
        <ele>404.2</ele>
        <time>2024-10-15T16:01:19Z</time>
      </trkpt>
      <trkpt lat="45.90192" lon="1.22137">
        <ele>403.7</ele>
        <time>2024-10-15T16:01:22Z</time>
      </trkpt>
      <trkpt lat="45.90186" lon="1.2212">
        <ele>403.2</ele>
        <time>2024-10-15T16:01:25Z</time>
      </trkpt>
      <trkpt lat="45.90183" lon="1.221">
        <ele>402.7</ele>
        <time>2024-10-15T16:01:28Z</time>
      </trkpt>
      <trkpt lat="45.90179" lon="1.2208">
        <ele>402</ele>
        <time>2024-10-15T16:01:31Z</time>
      </trkpt>
      <trkpt lat="45.90174" lon="1.22058">
        <ele>401.4</ele>
        <time>2024-10-15T16:01:34Z</time>
      </trkpt>
      <trkpt lat="45.90165" lon="1.22037">
        <ele>400.7</ele>
        <time>2024-10-15T16:01:37Z</time>
      </trkpt>
      <trkpt lat="45.90155" lon="1.22014">
        <ele>399.9</ele>
        <time>2024-10-15T16:01:40Z</time>
      </trkpt>
      <trkpt lat="45.90145" lon="1.21992">
        <ele>398.9</ele>
        <time>2024-10-15T16:01:43Z</time>
      </trkpt>
      <trkpt lat="45.90132" lon="1.21967">
        <ele>397.8</ele>
        <time>2024-10-15T16:01:46Z</time>
      </trkpt>
      <trkpt lat="45.90119" lon="1.2194">
        <ele>396.7</ele>
        <time>2024-10-15T16:01:49Z</time>
      </trkpt>
      <trkpt lat="45.90104" lon="1.21912">
        <ele>395.1</ele>
        <time>2024-10-15T16:01:52Z</time>
      </trkpt>
      <trkpt lat="45.90084" lon="1.21889">
        <ele>393.8</ele>
        <time>2024-10-15T16:01:55Z</time>
      </trkpt>
      <trkpt lat="45.90063" lon="1.21869">
        <ele>392.6</ele>
        <time>2024-10-15T16:01:58Z</time>
      </trkpt>
      <trkpt lat="45.9004" lon="1.21864">
        <ele>391.9</ele>
        <time>2024-10-15T16:02:00Z</time>
      </trkpt>
      <trkpt lat="45.90024" lon="1.21885">
        <ele>391.3</ele>
        <time>2024-10-15T16:02:03Z</time>
      </trkpt>
      <trkpt lat="45.90009" lon="1.21902">
        <ele>390.1</ele>
        <time>2024-10-15T16:02:06Z</time>
      </trkpt>
      <trkpt lat="45.89989" lon="1.21896">
        <ele>388.4</ele>
        <time>2024-10-15T16:02:09Z</time>
      </trkpt>
      <trkpt lat="45.89971" lon="1.21886">
        <ele>386.9</ele>
        <time>2024-10-15T16:02:12Z</time>
      </trkpt>
      <trkpt lat="45.89953" lon="1.21878">
        <ele>385.7</ele>
        <time>2024-10-15T16:02:15Z</time>
      </trkpt>
      <trkpt lat="45.8994" lon="1.21873">
        <ele>384.9</ele>
        <time>2024-10-15T16:02:18Z</time>
      </trkpt>
      <trkpt lat="45.89933" lon="1.21871">
        <ele>384.5</ele>
        <time>2024-10-15T16:02:21Z</time>
      </trkpt>
      <trkpt lat="45.89924" lon="1.21877">
        <ele>384.2</ele>
        <time>2024-10-15T16:02:24Z</time>
      </trkpt>
      <trkpt lat="45.89923" lon="1.21899">
        <ele>384.4</ele>
        <time>2024-10-15T16:02:27Z</time>
      </trkpt>
      <trkpt lat="45.89921" lon="1.21919">
        <ele>384.6</ele>
        <time>2024-10-15T16:02:31Z</time>
      </trkpt>
      <trkpt lat="45.89917" lon="1.2194">
        <ele>384.8</ele>
        <time>2024-10-15T16:02:34Z</time>
      </trkpt>
      <trkpt lat="45.89914" lon="1.2196">
        <ele>385.1</ele>
        <time>2024-10-15T16:02:37Z</time>
      </trkpt>
      <trkpt lat="45.89912" lon="1.21979">
        <ele>385.5</ele>
        <time>2024-10-15T16:02:40Z</time>
      </trkpt>
      <trkpt lat="45.89907" lon="1.21997">
        <ele>386</ele>
        <time>2024-10-15T16:02:43Z</time>
      </trkpt>
      <trkpt lat="45.89905" lon="1.22015">
        <ele>386.4</ele>
        <time>2024-10-15T16:02:46Z</time>
      </trkpt>
      <trkpt lat="45.89902" lon="1.22032">
        <ele>386.8</ele>
        <time>2024-10-15T16:02:49Z</time>
      </trkpt>
      <trkpt lat="45.89899" lon="1.22049">
        <ele>387.3</ele>
        <time>2024-10-15T16:02:52Z</time>
      </trkpt>
      <trkpt lat="45.89897" lon="1.22064">
        <ele>387.7</ele>
        <time>2024-10-15T16:02:55Z</time>
      </trkpt>
      <trkpt lat="45.89895" lon="1.22079">
        <ele>388</ele>
        <time>2024-10-15T16:02:58Z</time>
      </trkpt>
      <trkpt lat="45.89894" lon="1.22094">
        <ele>388.4</ele>
        <time>2024-10-15T16:03:01Z</time>
      </trkpt>
      <trkpt lat="45.89891" lon="1.22109">
        <ele>388.8</ele>
        <time>2024-10-15T16:03:04Z</time>
      </trkpt>
      <trkpt lat="45.89889" lon="1.22125">
        <ele>389.2</ele>
        <time>2024-10-15T16:03:07Z</time>
      </trkpt>
      <trkpt lat="45.89887" lon="1.2214">
        <ele>389.5</ele>
        <time>2024-10-15T16:03:10Z</time>
      </trkpt>
      <trkpt lat="45.89885" lon="1.22157">
        <ele>389.8</ele>
        <time>2024-10-15T16:03:13Z</time>
      </trkpt>
      <trkpt lat="45.89883" lon="1.22173">
        <ele>390.1</ele>
        <time>2024-10-15T16:03:16Z</time>
      </trkpt>
      <trkpt lat="45.89881" lon="1.22188">
        <ele>390.4</ele>
        <time>2024-10-15T16:03:19Z</time>
      </trkpt>
      <trkpt lat="45.89878" lon="1.22203">
        <ele>390.7</ele>
        <time>2024-10-15T16:03:22Z</time>
      </trkpt>
      <trkpt lat="45.89876" lon="1.22219">
        <ele>391.1</ele>
        <time>2024-10-15T16:03:25Z</time>
      </trkpt>
      <trkpt lat="45.89874" lon="1.22234">
        <ele>391.5</ele>
        <time>2024-10-15T16:03:28Z</time>
      </trkpt>
      <trkpt lat="45.8987" lon="1.22249">
        <ele>391.8</ele>
        <time>2024-10-15T16:03:31Z</time>
      </trkpt>
      <trkpt lat="45.89866" lon="1.22264">
        <ele>392.1</ele>
        <time>2024-10-15T16:03:34Z</time>
      </trkpt>
      <trkpt lat="45.89862" lon="1.22279">
        <ele>392.4</ele>
        <time>2024-10-15T16:03:37Z</time>
      </trkpt>
      <trkpt lat="45.89859" lon="1.22293">
        <ele>392.7</ele>
        <time>2024-10-15T16:03:40Z</time>
      </trkpt>
      <trkpt lat="45.89856" lon="1.22308">
        <ele>393</ele>
        <time>2024-10-15T16:03:42Z</time>
      </trkpt>
      <trkpt lat="45.89853" lon="1.22323">
        <ele>393.3</ele>
        <time>2024-10-15T16:03:45Z</time>
      </trkpt>
      <trkpt lat="45.8985" lon="1.22337">
        <ele>393.6</ele>
        <time>2024-10-15T16:03:48Z</time>
      </trkpt>
      <trkpt lat="45.89847" lon="1.2235">
        <ele>393.9</ele>
        <time>2024-10-15T16:03:51Z</time>
      </trkpt>
      <trkpt lat="45.89843" lon="1.22364">
        <ele>394.2</ele>
        <time>2024-10-15T16:03:54Z</time>
      </trkpt>
      <trkpt lat="45.8984" lon="1.22375">
        <ele>394.3</ele>
        <time>2024-10-15T16:03:57Z</time>
      </trkpt>
      <trkpt lat="45.89836" lon="1.22383">
        <ele>394.5</ele>
        <time>2024-10-15T16:04:00Z</time>
      </trkpt>
      <trkpt lat="45.8983" lon="1.22382">
        <ele>394.6</ele>
        <time>2024-10-15T16:04:04Z</time>
      </trkpt>
      <trkpt lat="45.89828" lon="1.22386">
        <ele>394.6</ele>
        <time>2024-10-15T16:04:06Z</time>
      </trkpt>
      <trkpt lat="45.89832" lon="1.22388">
        <ele>394.6</ele>
        <time>2024-10-15T16:04:10Z</time>
      </trkpt>
      <trkpt lat="45.89828" lon="1.22379">
        <ele>394.9</ele>
        <time>2024-10-15T16:04:13Z</time>
      </trkpt>
      <trkpt lat="45.89817" lon="1.22371">
        <ele>395.2</ele>
        <time>2024-10-15T16:04:16Z</time>
      </trkpt>
      <trkpt lat="45.89806" lon="1.22359">
        <ele>395.4</ele>
        <time>2024-10-15T16:04:19Z</time>
      </trkpt>
      <trkpt lat="45.89795" lon="1.22349">
        <ele>395.6</ele>
        <time>2024-10-15T16:04:22Z</time>
      </trkpt>
      <trkpt lat="45.89783" lon="1.22337">
        <ele>395.7</ele>
        <time>2024-10-15T16:04:25Z</time>
      </trkpt>
      <trkpt lat="45.89772" lon="1.22327">
        <ele>395.9</ele>
        <time>2024-10-15T16:04:28Z</time>
      </trkpt>
      <trkpt lat="45.89762" lon="1.22317">
        <ele>396</ele>
        <time>2024-10-15T16:04:31Z</time>
      </trkpt>
      <trkpt lat="45.89753" lon="1.22307">
        <ele>396.1</ele>
        <time>2024-10-15T16:04:34Z</time>
      </trkpt>
      <trkpt lat="45.89745" lon="1.22298">
        <ele>396.3</ele>
        <time>2024-10-15T16:04:37Z</time>
      </trkpt>
      <trkpt lat="45.89736" lon="1.22291">
        <ele>396.4</ele>
        <time>2024-10-15T16:04:40Z</time>
      </trkpt>
      <trkpt lat="45.89727" lon="1.22284">
        <ele>396.4</ele>
        <time>2024-10-15T16:04:43Z</time>
      </trkpt>
      <trkpt lat="45.89718" lon="1.22273">
        <ele>396.5</ele>
        <time>2024-10-15T16:04:46Z</time>
      </trkpt>
      <trkpt lat="45.89709" lon="1.22262">
        <ele>396.7</ele>
        <time>2024-10-15T16:04:49Z</time>
      </trkpt>
      <trkpt lat="45.897" lon="1.22251">
        <ele>396.7</ele>
        <time>2024-10-15T16:04:52Z</time>
      </trkpt>
      <trkpt lat="45.89691" lon="1.22242">
        <ele>396.8</ele>
        <time>2024-10-15T16:04:55Z</time>
      </trkpt>
      <trkpt lat="45.89681" lon="1.2223">
        <ele>396.8</ele>
        <time>2024-10-15T16:04:58Z</time>
      </trkpt>
      <trkpt lat="45.89671" lon="1.2222">
        <ele>396.7</ele>
        <time>2024-10-15T16:05:01Z</time>
      </trkpt>
      <trkpt lat="45.89661" lon="1.2221">
        <ele>396.7</ele>
        <time>2024-10-15T16:05:04Z</time>
      </trkpt>
      <trkpt lat="45.89651" lon="1.22199">
        <ele>396.6</ele>
        <time>2024-10-15T16:05:07Z</time>
      </trkpt>
      <trkpt lat="45.89639" lon="1.2219">
        <ele>396.5</ele>
        <time>2024-10-15T16:05:10Z</time>
      </trkpt>
      <trkpt lat="45.89626" lon="1.22179">
        <ele>396.4</ele>
        <time>2024-10-15T16:05:13Z</time>
      </trkpt>
      <trkpt lat="45.89614" lon="1.22169">
        <ele>396.3</ele>
        <time>2024-10-15T16:05:16Z</time>
      </trkpt>
      <trkpt lat="45.89603" lon="1.22157">
        <ele>396.3</ele>
        <time>2024-10-15T16:05:18Z</time>
      </trkpt>
      <trkpt lat="45.89591" lon="1.22144">
        <ele>396.3</ele>
        <time>2024-10-15T16:05:21Z</time>
      </trkpt>
      <trkpt lat="45.89579" lon="1.22131">
        <ele>396.2</ele>
        <time>2024-10-15T16:05:24Z</time>
      </trkpt>
      <trkpt lat="45.89567" lon="1.22119">
        <ele>396.3</ele>
        <time>2024-10-15T16:05:27Z</time>
      </trkpt>
      <trkpt lat="45.89555" lon="1.22108">
        <ele>396.4</ele>
        <time>2024-10-15T16:05:30Z</time>
      </trkpt>
      <trkpt lat="45.89543" lon="1.22097">
        <ele>396.5</ele>
        <time>2024-10-15T16:05:33Z</time>
      </trkpt>
      <trkpt lat="45.89533" lon="1.22085">
        <ele>396.5</ele>
        <time>2024-10-15T16:05:36Z</time>
      </trkpt>
      <trkpt lat="45.89523" lon="1.22073">
        <ele>396.5</ele>
        <time>2024-10-15T16:05:39Z</time>
      </trkpt>
      <trkpt lat="45.89514" lon="1.22064">
        <ele>396.5</ele>
        <time>2024-10-15T16:05:42Z</time>
      </trkpt>
      <trkpt lat="45.89506" lon="1.22057">
        <ele>396.5</ele>
        <time>2024-10-15T16:05:45Z</time>
      </trkpt>
      <trkpt lat="45.89496" lon="1.22058">
        <ele>396.5</ele>
        <time>2024-10-15T16:05:48Z</time>
      </trkpt>
      <trkpt lat="45.89487" lon="1.22066">
        <ele>396.4</ele>
        <time>2024-10-15T16:05:52Z</time>
      </trkpt>
      <trkpt lat="45.89481" lon="1.22079">
        <ele>396.2</ele>
        <time>2024-10-15T16:05:55Z</time>
      </trkpt>
      <trkpt lat="45.89474" lon="1.22093">
        <ele>396</ele>
        <time>2024-10-15T16:05:58Z</time>
      </trkpt>
      <trkpt lat="45.89467" lon="1.2211">
        <ele>395.7</ele>
        <time>2024-10-15T16:06:01Z</time>
      </trkpt>
      <trkpt lat="45.8946" lon="1.22128">
        <ele>395.3</ele>
        <time>2024-10-15T16:06:04Z</time>
      </trkpt>
      <trkpt lat="45.89449" lon="1.22144">
        <ele>394.8</ele>
        <time>2024-10-15T16:06:07Z</time>
      </trkpt>
      <trkpt lat="45.89433" lon="1.22138">
        <ele>394.7</ele>
        <time>2024-10-15T16:06:10Z</time>
      </trkpt>
      <trkpt lat="45.89419" lon="1.22125">
        <ele>394.7</ele>
        <time>2024-10-15T16:06:13Z</time>
      </trkpt>
      <trkpt lat="45.89405" lon="1.22111">
        <ele>394.7</ele>
        <time>2024-10-15T16:06:16Z</time>
      </trkpt>
      <trkpt lat="45.89392" lon="1.22098">
        <ele>394.7</ele>
        <time>2024-10-15T16:06:19Z</time>
      </trkpt>
      <trkpt lat="45.89381" lon="1.22087">
        <ele>394.7</ele>
        <time>2024-10-15T16:06:22Z</time>
      </trkpt>
      <trkpt lat="45.89369" lon="1.22078">
        <ele>394.6</ele>
        <time>2024-10-15T16:06:25Z</time>
      </trkpt>
      <trkpt lat="45.89356" lon="1.22079">
        <ele>394.4</ele>
        <time>2024-10-15T16:06:28Z</time>
      </trkpt>
      <trkpt lat="45.89343" lon="1.22083">
        <ele>394.1</ele>
        <time>2024-10-15T16:06:31Z</time>
      </trkpt>
      <trkpt lat="45.89331" lon="1.22085">
        <ele>393.6</ele>
        <time>2024-10-15T16:06:34Z</time>
      </trkpt>
      <trkpt lat="45.89315" lon="1.2208">
        <ele>393.1</ele>
        <time>2024-10-15T16:06:37Z</time>
      </trkpt>
      <trkpt lat="45.89299" lon="1.2207">
        <ele>392.6</ele>
        <time>2024-10-15T16:06:40Z</time>
      </trkpt>
      <trkpt lat="45.89282" lon="1.22059">
        <ele>392.2</ele>
        <time>2024-10-15T16:06:42Z</time>
      </trkpt>
      <trkpt lat="45.89265" lon="1.22049">
        <ele>391.9</ele>
        <time>2024-10-15T16:06:46Z</time>
      </trkpt>
      <trkpt lat="45.8925" lon="1.22043">
        <ele>391.6</ele>
        <time>2024-10-15T16:06:48Z</time>
      </trkpt>
      <trkpt lat="45.89238" lon="1.22038">
        <ele>391.5</ele>
        <time>2024-10-15T16:06:51Z</time>
      </trkpt>
      <trkpt lat="45.89219" lon="1.22033">
        <ele>391.1</ele>
        <time>2024-10-15T16:06:54Z</time>
      </trkpt>
      <trkpt lat="45.89203" lon="1.22028">
        <ele>390.7</ele>
        <time>2024-10-15T16:06:57Z</time>
      </trkpt>
      <trkpt lat="45.89186" lon="1.22025">
        <ele>390.3</ele>
        <time>2024-10-15T16:07:00Z</time>
      </trkpt>
      <trkpt lat="45.89171" lon="1.22016">
        <ele>390</ele>
        <time>2024-10-15T16:07:03Z</time>
      </trkpt>
      <trkpt lat="45.89154" lon="1.22011">
        <ele>389.8</ele>
        <time>2024-10-15T16:07:06Z</time>
      </trkpt>
      <trkpt lat="45.89137" lon="1.22003">
        <ele>389.8</ele>
        <time>2024-10-15T16:07:09Z</time>
      </trkpt>
      <trkpt lat="45.89122" lon="1.21995">
        <ele>390.1</ele>
        <time>2024-10-15T16:07:12Z</time>
      </trkpt>
      <trkpt lat="45.89109" lon="1.21988">
        <ele>390.4</ele>
        <time>2024-10-15T16:07:15Z</time>
      </trkpt>
      <trkpt lat="45.89098" lon="1.21981">
        <ele>390.7</ele>
        <time>2024-10-15T16:07:19Z</time>
      </trkpt>
      <trkpt lat="45.89086" lon="1.21969">
        <ele>391.1</ele>
        <time>2024-10-15T16:07:22Z</time>
      </trkpt>
      <trkpt lat="45.89075" lon="1.2196">
        <ele>391.4</ele>
        <time>2024-10-15T16:07:25Z</time>
      </trkpt>
      <trkpt lat="45.89065" lon="1.2195">
        <ele>391.7</ele>
        <time>2024-10-15T16:07:28Z</time>
      </trkpt>
      <trkpt lat="45.89057" lon="1.21942">
        <ele>391.9</ele>
        <time>2024-10-15T16:07:31Z</time>
      </trkpt>
      <trkpt lat="45.89049" lon="1.21935">
        <ele>392.1</ele>
        <time>2024-10-15T16:07:34Z</time>
      </trkpt>
      <trkpt lat="45.8904" lon="1.21926">
        <ele>392.2</ele>
        <time>2024-10-15T16:07:37Z</time>
      </trkpt>
      <trkpt lat="45.8903" lon="1.21917">
        <ele>392.2</ele>
        <time>2024-10-15T16:07:40Z</time>
      </trkpt>
      <trkpt lat="45.89019" lon="1.21906">
        <ele>392</ele>
        <time>2024-10-15T16:07:43Z</time>
      </trkpt>
      <trkpt lat="45.89008" lon="1.21894">
        <ele>391.9</ele>
        <time>2024-10-15T16:07:46Z</time>
      </trkpt>
      <trkpt lat="45.88998" lon="1.21883">
        <ele>391.7</ele>
        <time>2024-10-15T16:07:49Z</time>
      </trkpt>
      <trkpt lat="45.88988" lon="1.21872">
        <ele>391.5</ele>
        <time>2024-10-15T16:07:52Z</time>
      </trkpt>
      <trkpt lat="45.88981" lon="1.21861">
        <ele>391.4</ele>
        <time>2024-10-15T16:07:55Z</time>
      </trkpt>
      <trkpt lat="45.88973" lon="1.21852">
        <ele>391.3</ele>
        <time>2024-10-15T16:07:58Z</time>
      </trkpt>
      <trkpt lat="45.88967" lon="1.21846">
        <ele>391.2</ele>
        <time>2024-10-15T16:08:01Z</time>
      </trkpt>
      <trkpt lat="45.88962" lon="1.21846">
        <ele>390.9</ele>
        <time>2024-10-15T16:08:04Z</time>
      </trkpt>
      <trkpt lat="45.88955" lon="1.21863">
        <ele>390.5</ele>
        <time>2024-10-15T16:08:07Z</time>
      </trkpt>
      <trkpt lat="45.88946" lon="1.21882">
        <ele>390</ele>
        <time>2024-10-15T16:08:10Z</time>
      </trkpt>
      <trkpt lat="45.88936" lon="1.21904">
        <ele>389.3</ele>
        <time>2024-10-15T16:08:13Z</time>
      </trkpt>
      <trkpt lat="45.88926" lon="1.21926">
        <ele>388.8</ele>
        <time>2024-10-15T16:08:16Z</time>
      </trkpt>
      <trkpt lat="45.88916" lon="1.21945">
        <ele>388.2</ele>
        <time>2024-10-15T16:08:19Z</time>
      </trkpt>
      <trkpt lat="45.88907" lon="1.21958">
        <ele>387.8</ele>
        <time>2024-10-15T16:08:22Z</time>
      </trkpt>
      <trkpt lat="45.88895" lon="1.21958">
        <ele>387.6</ele>
        <time>2024-10-15T16:08:25Z</time>
      </trkpt>
      <trkpt lat="45.8888" lon="1.21955">
        <ele>387.3</ele>
        <time>2024-10-15T16:08:27Z</time>
      </trkpt>
      <trkpt lat="45.88863" lon="1.21953">
        <ele>387.2</ele>
        <time>2024-10-15T16:08:30Z</time>
      </trkpt>
      <trkpt lat="45.88845" lon="1.21952">
        <ele>387.1</ele>
        <time>2024-10-15T16:08:33Z</time>
      </trkpt>
      <trkpt lat="45.88827" lon="1.21954">
        <ele>387.1</ele>
        <time>2024-10-15T16:08:36Z</time>
      </trkpt>
      <trkpt lat="45.88808" lon="1.21956">
        <ele>387.3</ele>
        <time>2024-10-15T16:08:39Z</time>
      </trkpt>
      <trkpt lat="45.88792" lon="1.21956">
        <ele>387.5</ele>
        <time>2024-10-15T16:08:42Z</time>
      </trkpt>
      <trkpt lat="45.88777" lon="1.21953">
        <ele>387.8</ele>
        <time>2024-10-15T16:08:45Z</time>
      </trkpt>
      <trkpt lat="45.88764" lon="1.2195">
        <ele>388.1</ele>
        <time>2024-10-15T16:08:48Z</time>
      </trkpt>
      <trkpt lat="45.88751" lon="1.21947">
        <ele>388.1</ele>
        <time>2024-10-15T16:08:52Z</time>
      </trkpt>
      <trkpt lat="45.88739" lon="1.21944">
        <ele>388</ele>
        <time>2024-10-15T16:08:54Z</time>
      </trkpt>
      <trkpt lat="45.88728" lon="1.21942">
        <ele>387.9</ele>
        <time>2024-10-15T16:08:57Z</time>
      </trkpt>
      <trkpt lat="45.88717" lon="1.21943">
        <ele>387.7</ele>
        <time>2024-10-15T16:09:01Z</time>
      </trkpt>
      <trkpt lat="45.88706" lon="1.21945">
        <ele>387.5</ele>
        <time>2024-10-15T16:09:04Z</time>
      </trkpt>
      <trkpt lat="45.88692" lon="1.21948">
        <ele>387.3</ele>
        <time>2024-10-15T16:09:07Z</time>
      </trkpt>
      <trkpt lat="45.88678" lon="1.2195">
        <ele>387.1</ele>
        <time>2024-10-15T16:09:10Z</time>
      </trkpt>
      <trkpt lat="45.88663" lon="1.2195">
        <ele>387.1</ele>
        <time>2024-10-15T16:09:13Z</time>
      </trkpt>
      <trkpt lat="45.88649" lon="1.21953">
        <ele>387.1</ele>
        <time>2024-10-15T16:09:16Z</time>
      </trkpt>
      <trkpt lat="45.88637" lon="1.21958">
        <ele>387.1</ele>
        <time>2024-10-15T16:09:19Z</time>
      </trkpt>
      <trkpt lat="45.88626" lon="1.21961">
        <ele>387.2</ele>
        <time>2024-10-15T16:09:22Z</time>
      </trkpt>
      <trkpt lat="45.88613" lon="1.2196">
        <ele>387.6</ele>
        <time>2024-10-15T16:09:25Z</time>
      </trkpt>
      <trkpt lat="45.88598" lon="1.2196">
        <ele>388</ele>
        <time>2024-10-15T16:09:28Z</time>
      </trkpt>
      <trkpt lat="45.88584" lon="1.2196">
        <ele>388.4</ele>
        <time>2024-10-15T16:09:31Z</time>
      </trkpt>
      <trkpt lat="45.88572" lon="1.21962">
        <ele>388.7</ele>
        <time>2024-10-15T16:09:34Z</time>
      </trkpt>
      <trkpt lat="45.8856" lon="1.21963">
        <ele>388.9</ele>
        <time>2024-10-15T16:09:37Z</time>
      </trkpt>
      <trkpt lat="45.88549" lon="1.21962">
        <ele>389.1</ele>
        <time>2024-10-15T16:09:40Z</time>
      </trkpt>
      <trkpt lat="45.88539" lon="1.21958">
        <ele>389.3</ele>
        <time>2024-10-15T16:09:43Z</time>
      </trkpt>
      <trkpt lat="45.8853" lon="1.21955">
        <ele>389.3</ele>
        <time>2024-10-15T16:09:46Z</time>
      </trkpt>
      <trkpt lat="45.8852" lon="1.21954">
        <ele>389.4</ele>
        <time>2024-10-15T16:09:49Z</time>
      </trkpt>
      <trkpt lat="45.88512" lon="1.2196">
        <ele>389.5</ele>
        <time>2024-10-15T16:09:52Z</time>
      </trkpt>
      <trkpt lat="45.88503" lon="1.21966">
        <ele>389.6</ele>
        <time>2024-10-15T16:09:55Z</time>
      </trkpt>
      <trkpt lat="45.8849" lon="1.21972">
        <ele>389.8</ele>
        <time>2024-10-15T16:09:58Z</time>
      </trkpt>
      <trkpt lat="45.88475" lon="1.21976">
        <ele>390</ele>
        <time>2024-10-15T16:10:00Z</time>
      </trkpt>
      <trkpt lat="45.88464" lon="1.21976">
        <ele>390.2</ele>
        <time>2024-10-15T16:10:03Z</time>
      </trkpt>
      <trkpt lat="45.88461" lon="1.21966">
        <ele>389.5</ele>
        <time>2024-10-15T16:10:06Z</time>
      </trkpt>
      <trkpt lat="45.88455" lon="1.21965">
        <ele>389.3</ele>
        <time>2024-10-15T16:10:09Z</time>
      </trkpt>
      <trkpt lat="45.88455" lon="1.21974">
        <ele>389</ele>
        <time>2024-10-15T16:10:12Z</time>
      </trkpt>
      <trkpt lat="45.88464" lon="1.21972">
        <ele>388.7</ele>
        <time>2024-10-15T16:10:15Z</time>
      </trkpt>
      <trkpt lat="45.8847" lon="1.21962">
        <ele>388.3</ele>
        <time>2024-10-15T16:10:18Z</time>
      </trkpt>
      <trkpt lat="45.88468" lon="1.21941">
        <ele>387.9</ele>
        <time>2024-10-15T16:10:21Z</time>
      </trkpt>
      <trkpt lat="45.88466" lon="1.21917">
        <ele>387.5</ele>
        <time>2024-10-15T16:10:24Z</time>
      </trkpt>
      <trkpt lat="45.88462" lon="1.21889">
        <ele>387.1</ele>
        <time>2024-10-15T16:10:28Z</time>
      </trkpt>
      <trkpt lat="45.88455" lon="1.21863">
        <ele>386.7</ele>
        <time>2024-10-15T16:10:31Z</time>
      </trkpt>
      <trkpt lat="45.88446" lon="1.2184">
        <ele>386.4</ele>
        <time>2024-10-15T16:10:34Z</time>
      </trkpt>
      <trkpt lat="45.88437" lon="1.21816">
        <ele>386.1</ele>
        <time>2024-10-15T16:10:37Z</time>
      </trkpt>
      <trkpt lat="45.88426" lon="1.21795">
        <ele>385.7</ele>
        <time>2024-10-15T16:10:40Z</time>
      </trkpt>
      <trkpt lat="45.88416" lon="1.21772">
        <ele>385.3</ele>
        <time>2024-10-15T16:10:43Z</time>
      </trkpt>
      <trkpt lat="45.88408" lon="1.21749">
        <ele>385</ele>
        <time>2024-10-15T16:10:46Z</time>
      </trkpt>
      <trkpt lat="45.884" lon="1.21734">
        <ele>384.8</ele>
        <time>2024-10-15T16:10:49Z</time>
      </trkpt>
      <trkpt lat="45.88392" lon="1.21732">
        <ele>384.7</ele>
        <time>2024-10-15T16:10:52Z</time>
      </trkpt>
      <trkpt lat="45.88385" lon="1.2174">
        <ele>384.7</ele>
        <time>2024-10-15T16:10:55Z</time>
      </trkpt>
      <trkpt lat="45.88376" lon="1.21751">
        <ele>384.6</ele>
        <time>2024-10-15T16:10:58Z</time>
      </trkpt>
      <trkpt lat="45.88364" lon="1.21758">
        <ele>384.4</ele>
        <time>2024-10-15T16:11:01Z</time>
      </trkpt>
      <trkpt lat="45.8835" lon="1.21768">
        <ele>384.1</ele>
        <time>2024-10-15T16:11:04Z</time>
      </trkpt>
      <trkpt lat="45.88335" lon="1.21779">
        <ele>383.9</ele>
        <time>2024-10-15T16:11:07Z</time>
      </trkpt>
      <trkpt lat="45.88323" lon="1.2179">
        <ele>383.7</ele>
        <time>2024-10-15T16:11:10Z</time>
      </trkpt>
      <trkpt lat="45.88312" lon="1.21795">
        <ele>383.6</ele>
        <time>2024-10-15T16:11:13Z</time>
      </trkpt>
      <trkpt lat="45.88302" lon="1.21804">
        <ele>383.7</ele>
        <time>2024-10-15T16:11:16Z</time>
      </trkpt>
      <trkpt lat="45.88293" lon="1.21811">
        <ele>383.8</ele>
        <time>2024-10-15T16:11:19Z</time>
      </trkpt>
      <trkpt lat="45.88285" lon="1.21817">
        <ele>383.9</ele>
        <time>2024-10-15T16:11:22Z</time>
      </trkpt>
      <trkpt lat="45.88276" lon="1.21822">
        <ele>384</ele>
        <time>2024-10-15T16:11:25Z</time>
      </trkpt>
      <trkpt lat="45.8827" lon="1.21828">
        <ele>384</ele>
        <time>2024-10-15T16:11:28Z</time>
      </trkpt>
      <trkpt lat="45.88263" lon="1.21834">
        <ele>384</ele>
        <time>2024-10-15T16:11:31Z</time>
      </trkpt>
      <trkpt lat="45.88255" lon="1.21841">
        <ele>383.9</ele>
        <time>2024-10-15T16:11:34Z</time>
      </trkpt>
      <trkpt lat="45.88247" lon="1.21849">
        <ele>383.7</ele>
        <time>2024-10-15T16:11:36Z</time>
      </trkpt>
      <trkpt lat="45.88238" lon="1.21857">
        <ele>383.4</ele>
        <time>2024-10-15T16:11:39Z</time>
      </trkpt>
      <trkpt lat="45.8823" lon="1.21864">
        <ele>383.1</ele>
        <time>2024-10-15T16:11:42Z</time>
      </trkpt>
      <trkpt lat="45.88218" lon="1.21868">
        <ele>382.5</ele>
        <time>2024-10-15T16:11:45Z</time>
      </trkpt>
      <trkpt lat="45.88204" lon="1.21873">
        <ele>381.9</ele>
        <time>2024-10-15T16:11:48Z</time>
      </trkpt>
      <trkpt lat="45.8819" lon="1.2188">
        <ele>381.4</ele>
        <time>2024-10-15T16:11:51Z</time>
      </trkpt>
      <trkpt lat="45.88176" lon="1.21887">
        <ele>381.1</ele>
        <time>2024-10-15T16:11:54Z</time>
      </trkpt>
      <trkpt lat="45.88166" lon="1.21891">
        <ele>380.8</ele>
        <time>2024-10-15T16:11:57Z</time>
      </trkpt>
      <trkpt lat="45.88153" lon="1.219">
        <ele>380.5</ele>
        <time>2024-10-15T16:12:00Z</time>
      </trkpt>
      <trkpt lat="45.88141" lon="1.21911">
        <ele>380.2</ele>
        <time>2024-10-15T16:12:03Z</time>
      </trkpt>
      <trkpt lat="45.88127" lon="1.21919">
        <ele>380</ele>
        <time>2024-10-15T16:12:07Z</time>
      </trkpt>
      <trkpt lat="45.88115" lon="1.21932">
        <ele>379.9</ele>
        <time>2024-10-15T16:12:09Z</time>
      </trkpt>
      <trkpt lat="45.88102" lon="1.21946">
        <ele>379.7</ele>
        <time>2024-10-15T16:12:13Z</time>
      </trkpt>
      <trkpt lat="45.88091" lon="1.21961">
        <ele>379.7</ele>
        <time>2024-10-15T16:12:15Z</time>
      </trkpt>
      <trkpt lat="45.88084" lon="1.21971">
        <ele>379.6</ele>
        <time>2024-10-15T16:12:19Z</time>
      </trkpt>
      <trkpt lat="45.8808" lon="1.21976">
        <ele>379.6</ele>
        <time>2024-10-15T16:12:22Z</time>
      </trkpt>
      <trkpt lat="45.8808" lon="1.21991">
        <ele>379.9</ele>
        <time>2024-10-15T16:12:25Z</time>
      </trkpt>
      <trkpt lat="45.88087" lon="1.2201">
        <ele>380.2</ele>
        <time>2024-10-15T16:12:28Z</time>
      </trkpt>
      <trkpt lat="45.88094" lon="1.22029">
        <ele>380.2</ele>
        <time>2024-10-15T16:12:31Z</time>
      </trkpt>
      <trkpt lat="45.88101" lon="1.22051">
        <ele>380.1</ele>
        <time>2024-10-15T16:12:34Z</time>
      </trkpt>
      <trkpt lat="45.8811" lon="1.22074">
        <ele>379.8</ele>
        <time>2024-10-15T16:12:37Z</time>
      </trkpt>
      <trkpt lat="45.88118" lon="1.22098">
        <ele>379.5</ele>
        <time>2024-10-15T16:12:40Z</time>
      </trkpt>
      <trkpt lat="45.88116" lon="1.22124">
        <ele>378.4</ele>
        <time>2024-10-15T16:12:43Z</time>
      </trkpt>
      <trkpt lat="45.88103" lon="1.22148">
        <ele>377</ele>
        <time>2024-10-15T16:12:46Z</time>
      </trkpt>
      <trkpt lat="45.88087" lon="1.2217">
        <ele>375.8</ele>
        <time>2024-10-15T16:12:49Z</time>
      </trkpt>
      <trkpt lat="45.88069" lon="1.22193">
        <ele>374.5</ele>
        <time>2024-10-15T16:12:52Z</time>
      </trkpt>
      <trkpt lat="45.88051" lon="1.22216">
        <ele>373.3</ele>
        <time>2024-10-15T16:12:55Z</time>
      </trkpt>
      <trkpt lat="45.88034" lon="1.22239">
        <ele>372.1</ele>
        <time>2024-10-15T16:12:58Z</time>
      </trkpt>
      <trkpt lat="45.88017" lon="1.22262">
        <ele>371.1</ele>
        <time>2024-10-15T16:13:01Z</time>
      </trkpt>
      <trkpt lat="45.87998" lon="1.22285">
        <ele>370</ele>
        <time>2024-10-15T16:13:04Z</time>
      </trkpt>
      <trkpt lat="45.87984" lon="1.22305">
        <ele>369</ele>
        <time>2024-10-15T16:13:07Z</time>
      </trkpt>
      <trkpt lat="45.87971" lon="1.22309">
        <ele>368.8</ele>
        <time>2024-10-15T16:13:10Z</time>
      </trkpt>
      <trkpt lat="45.87962" lon="1.22296">
        <ele>369.1</ele>
        <time>2024-10-15T16:13:12Z</time>
      </trkpt>
      <trkpt lat="45.87953" lon="1.22278">
        <ele>369.6</ele>
        <time>2024-10-15T16:13:15Z</time>
      </trkpt>
      <trkpt lat="45.87943" lon="1.22259">
        <ele>369.9</ele>
        <time>2024-10-15T16:13:18Z</time>
      </trkpt>
      <trkpt lat="45.87933" lon="1.22238">
        <ele>370.1</ele>
        <time>2024-10-15T16:13:21Z</time>
      </trkpt>
      <trkpt lat="45.87921" lon="1.22221">
        <ele>370.1</ele>
        <time>2024-10-15T16:13:24Z</time>
      </trkpt>
      <trkpt lat="45.87905" lon="1.22219">
        <ele>369.9</ele>
        <time>2024-10-15T16:13:27Z</time>
      </trkpt>
      <trkpt lat="45.87889" lon="1.22228">
        <ele>369.4</ele>
        <time>2024-10-15T16:13:30Z</time>
      </trkpt>
      <trkpt lat="45.87873" lon="1.22236">
        <ele>369</ele>
        <time>2024-10-15T16:13:33Z</time>
      </trkpt>
      <trkpt lat="45.87854" lon="1.22246">
        <ele>368.5</ele>
        <time>2024-10-15T16:13:36Z</time>
      </trkpt>
      <trkpt lat="45.87836" lon="1.22256">
        <ele>368</ele>
        <time>2024-10-15T16:13:39Z</time>
      </trkpt>
      <trkpt lat="45.87817" lon="1.22266">
        <ele>367.4</ele>
        <time>2024-10-15T16:13:42Z</time>
      </trkpt>
      <trkpt lat="45.87798" lon="1.22276">
        <ele>366.6</ele>
        <time>2024-10-15T16:13:46Z</time>
      </trkpt>
      <trkpt lat="45.87778" lon="1.22288">
        <ele>365.8</ele>
        <time>2024-10-15T16:13:49Z</time>
      </trkpt>
      <trkpt lat="45.87758" lon="1.22298">
        <ele>365</ele>
        <time>2024-10-15T16:13:52Z</time>
      </trkpt>
      <trkpt lat="45.87737" lon="1.22309">
        <ele>364.1</ele>
        <time>2024-10-15T16:13:55Z</time>
      </trkpt>
      <trkpt lat="45.87716" lon="1.22323">
        <ele>362.8</ele>
        <time>2024-10-15T16:13:58Z</time>
      </trkpt>
      <trkpt lat="45.87695" lon="1.22334">
        <ele>361.5</ele>
        <time>2024-10-15T16:14:01Z</time>
      </trkpt>
      <trkpt lat="45.87674" lon="1.22347">
        <ele>359.8</ele>
        <time>2024-10-15T16:14:04Z</time>
      </trkpt>
      <trkpt lat="45.87651" lon="1.22364">
        <ele>357.6</ele>
        <time>2024-10-15T16:14:07Z</time>
      </trkpt>
      <trkpt lat="45.8763" lon="1.22374">
        <ele>354.5</ele>
        <time>2024-10-15T16:14:10Z</time>
      </trkpt>
      <trkpt lat="45.87603" lon="1.22385">
        <ele>349.7</ele>
        <time>2024-10-15T16:14:13Z</time>
      </trkpt>
      <trkpt lat="45.87566" lon="1.22405">
        <ele>343.7</ele>
        <time>2024-10-15T16:14:16Z</time>
      </trkpt>
      <trkpt lat="45.87532" lon="1.2242">
        <ele>340.2</ele>
        <time>2024-10-15T16:14:19Z</time>
      </trkpt>
      <trkpt lat="45.87505" lon="1.22435">
        <ele>338.8</ele>
        <time>2024-10-15T16:14:22Z</time>
      </trkpt>
      <trkpt lat="45.87483" lon="1.22457">
        <ele>337.9</ele>
        <time>2024-10-15T16:14:25Z</time>
      </trkpt>
      <trkpt lat="45.87462" lon="1.22478">
        <ele>336.7</ele>
        <time>2024-10-15T16:14:28Z</time>
      </trkpt>
      <trkpt lat="45.87441" lon="1.225">
        <ele>334.5</ele>
        <time>2024-10-15T16:14:31Z</time>
      </trkpt>
      <trkpt lat="45.87418" lon="1.22526">
        <ele>331.5</ele>
        <time>2024-10-15T16:14:34Z</time>
      </trkpt>
      <trkpt lat="45.87398" lon="1.22548">
        <ele>329.9</ele>
        <time>2024-10-15T16:14:37Z</time>
      </trkpt>
      <trkpt lat="45.87376" lon="1.22555">
        <ele>329.1</ele>
        <time>2024-10-15T16:14:40Z</time>
      </trkpt>
      <trkpt lat="45.87356" lon="1.22553">
        <ele>328.5</ele>
        <time>2024-10-15T16:14:43Z</time>
      </trkpt>
      <trkpt lat="45.87334" lon="1.22555">
        <ele>328</ele>
        <time>2024-10-15T16:14:46Z</time>
      </trkpt>
      <trkpt lat="45.87319" lon="1.22558">
        <ele>327.6</ele>
        <time>2024-10-15T16:14:49Z</time>
      </trkpt>
      <trkpt lat="45.87313" lon="1.22575">
        <ele>327.4</ele>
        <time>2024-10-15T16:14:52Z</time>
      </trkpt>
      <trkpt lat="45.87303" lon="1.22596">
        <ele>327.3</ele>
        <time>2024-10-15T16:14:55Z</time>
      </trkpt>
      <trkpt lat="45.87288" lon="1.22612">
        <ele>327.3</ele>
        <time>2024-10-15T16:14:58Z</time>
      </trkpt>
      <trkpt lat="45.87275" lon="1.22629">
        <ele>327.5</ele>
        <time>2024-10-15T16:15:00Z</time>
      </trkpt>
      <trkpt lat="45.8726" lon="1.22644">
        <ele>327.9</ele>
        <time>2024-10-15T16:15:03Z</time>
      </trkpt>
      <trkpt lat="45.87246" lon="1.2266">
        <ele>328.5</ele>
        <time>2024-10-15T16:15:06Z</time>
      </trkpt>
      <trkpt lat="45.87234" lon="1.22676">
        <ele>328.9</ele>
        <time>2024-10-15T16:15:09Z</time>
      </trkpt>
      <trkpt lat="45.87223" lon="1.22689">
        <ele>329.1</ele>
        <time>2024-10-15T16:15:12Z</time>
      </trkpt>
      <trkpt lat="45.87212" lon="1.22702">
        <ele>329.1</ele>
        <time>2024-10-15T16:15:15Z</time>
      </trkpt>
      <trkpt lat="45.87201" lon="1.22716">
        <ele>329.2</ele>
        <time>2024-10-15T16:15:18Z</time>
      </trkpt>
      <trkpt lat="45.87191" lon="1.22729">
        <ele>329.3</ele>
        <time>2024-10-15T16:15:21Z</time>
      </trkpt>
      <trkpt lat="45.87182" lon="1.22742">
        <ele>329.7</ele>
        <time>2024-10-15T16:15:24Z</time>
      </trkpt>
      <trkpt lat="45.87174" lon="1.22758">
        <ele>330.3</ele>
        <time>2024-10-15T16:15:28Z</time>
      </trkpt>
      <trkpt lat="45.87168" lon="1.22772">
        <ele>330.9</ele>
        <time>2024-10-15T16:15:31Z</time>
      </trkpt>
      <trkpt lat="45.87165" lon="1.22785">
        <ele>331.7</ele>
        <time>2024-10-15T16:15:34Z</time>
      </trkpt>
      <trkpt lat="45.87163" lon="1.22796">
        <ele>332.3</ele>
        <time>2024-10-15T16:15:37Z</time>
      </trkpt>
      <trkpt lat="45.87159" lon="1.22806">
        <ele>333.1</ele>
        <time>2024-10-15T16:15:40Z</time>
      </trkpt>
      <trkpt lat="45.87155" lon="1.22817">
        <ele>334</ele>
        <time>2024-10-15T16:15:43Z</time>
      </trkpt>
      <trkpt lat="45.87152" lon="1.22825">
        <ele>334.8</ele>
        <time>2024-10-15T16:15:46Z</time>
      </trkpt>
      <trkpt lat="45.87148" lon="1.22833">
        <ele>335.5</ele>
        <time>2024-10-15T16:15:49Z</time>
      </trkpt>
      <trkpt lat="45.87145" lon="1.22839">
        <ele>336.2</ele>
        <time>2024-10-15T16:15:52Z</time>
      </trkpt>
      <trkpt lat="45.87141" lon="1.22846">
        <ele>336.9</ele>
        <time>2024-10-15T16:15:55Z</time>
      </trkpt>
      <trkpt lat="45.87138" lon="1.22851">
        <ele>337.5</ele>
        <time>2024-10-15T16:15:58Z</time>
      </trkpt>
      <trkpt lat="45.87134" lon="1.22858">
        <ele>338.1</ele>
        <time>2024-10-15T16:16:01Z</time>
      </trkpt>
      <trkpt lat="45.8713" lon="1.22863">
        <ele>338.6</ele>
        <time>2024-10-15T16:16:04Z</time>
      </trkpt>
      <trkpt lat="45.87126" lon="1.2287">
        <ele>339.1</ele>
        <time>2024-10-15T16:16:07Z</time>
      </trkpt>
      <trkpt lat="45.87122" lon="1.22877">
        <ele>339.6</ele>
        <time>2024-10-15T16:16:10Z</time>
      </trkpt>
      <trkpt lat="45.87117" lon="1.22883">
        <ele>339.9</ele>
        <time>2024-10-15T16:16:13Z</time>
      </trkpt>
      <trkpt lat="45.87114" lon="1.22888">
        <ele>340.1</ele>
        <time>2024-10-15T16:16:16Z</time>
      </trkpt>
      <trkpt lat="45.87112" lon="1.22892">
        <ele>340.3</ele>
        <time>2024-10-15T16:16:19Z</time>
      </trkpt>
      <trkpt lat="45.87109" lon="1.22897">
        <ele>340.4</ele>
        <time>2024-10-15T16:16:22Z</time>
      </trkpt>
      <trkpt lat="45.87106" lon="1.22903">
        <ele>340.6</ele>
        <time>2024-10-15T16:16:25Z</time>
      </trkpt>
      <trkpt lat="45.87103" lon="1.22907">
        <ele>340.7</ele>
        <time>2024-10-15T16:16:28Z</time>
      </trkpt>
      <trkpt lat="45.871" lon="1.22911">
        <ele>340.8</ele>
        <time>2024-10-15T16:16:31Z</time>
      </trkpt>
      <trkpt lat="45.87096" lon="1.22916">
        <ele>340.9</ele>
        <time>2024-10-15T16:16:34Z</time>
      </trkpt>
      <trkpt lat="45.87091" lon="1.22923">
        <ele>341</ele>
        <time>2024-10-15T16:16:36Z</time>
      </trkpt>
      <trkpt lat="45.87092" lon="1.2293">
        <ele>341</ele>
        <time>2024-10-15T16:16:39Z</time>
      </trkpt>
      <trkpt lat="45.87096" lon="1.22938">
        <ele>341.1</ele>
        <time>2024-10-15T16:16:42Z</time>
      </trkpt>
      <trkpt lat="45.87096" lon="1.22948">
        <ele>341.1</ele>
        <time>2024-10-15T16:16:45Z</time>
      </trkpt>
      <trkpt lat="45.87088" lon="1.22952">
        <ele>341.2</ele>
        <time>2024-10-15T16:16:48Z</time>
      </trkpt>
      <trkpt lat="45.87081" lon="1.22958">
        <ele>341.2</ele>
        <time>2024-10-15T16:16:51Z</time>
      </trkpt>
      <trkpt lat="45.87075" lon="1.22965">
        <ele>341.3</ele>
        <time>2024-10-15T16:16:54Z</time>
      </trkpt>
      <trkpt lat="45.8707" lon="1.22973">
        <ele>341.4</ele>
        <time>2024-10-15T16:16:57Z</time>
      </trkpt>
      <trkpt lat="45.87065" lon="1.22982">
        <ele>341.5</ele>
        <time>2024-10-15T16:17:00Z</time>
      </trkpt>
      <trkpt lat="45.8706" lon="1.22991">
        <ele>341.6</ele>
        <time>2024-10-15T16:17:04Z</time>
      </trkpt>
      <trkpt lat="45.87054" lon="1.23">
        <ele>341.7</ele>
        <time>2024-10-15T16:17:07Z</time>
      </trkpt>
      <trkpt lat="45.87049" lon="1.23007">
        <ele>341.7</ele>
        <time>2024-10-15T16:17:10Z</time>
      </trkpt>
      <trkpt lat="45.87044" lon="1.23015">
        <ele>341.8</ele>
        <time>2024-10-15T16:17:13Z</time>
      </trkpt>
      <trkpt lat="45.87039" lon="1.23023">
        <ele>341.8</ele>
        <time>2024-10-15T16:17:16Z</time>
      </trkpt>
      <trkpt lat="45.87035" lon="1.2303">
        <ele>341.8</ele>
        <time>2024-10-15T16:17:19Z</time>
      </trkpt>
      <trkpt lat="45.87033" lon="1.23035">
        <ele>342.3</ele>
        <time>2024-10-15T16:17:22Z</time>
      </trkpt>
      <trkpt lat="45.87035" lon="1.23043">
        <ele>342.7</ele>
        <time>2024-10-15T16:17:25Z</time>
      </trkpt>
      <trkpt lat="45.87038" lon="1.23048">
        <ele>343</ele>
        <time>2024-10-15T16:17:28Z</time>
      </trkpt>
      <trkpt lat="45.87042" lon="1.23049">
        <ele>343</ele>
        <time>2024-10-15T16:17:31Z</time>
      </trkpt>
      <trkpt lat="45.87042" lon="1.23048">
        <ele>343.1</ele>
        <time>2024-10-15T16:17:34Z</time>
      </trkpt>
      <trkpt lat="45.87042" lon="1.23048">
        <ele>343.1</ele>
        <time>2024-10-15T16:17:37Z</time>
      </trkpt>
      <trkpt lat="45.87042" lon="1.23048">
        <ele>343.1</ele>
        <time>2024-10-15T16:17:40Z</time>
      </trkpt>
      <trkpt lat="45.87042" lon="1.23048">
        <ele>343.2</ele>
        <time>2024-10-15T16:17:43Z</time>
      </trkpt>
      <trkpt lat="45.87042" lon="1.23048">
        <ele>343.2</ele>
        <time>2024-10-15T16:17:46Z</time>
      </trkpt>
      <trkpt lat="45.87042" lon="1.23048">
        <ele>343.3</ele>
        <time>2024-10-15T16:17:49Z</time>
      </trkpt>
      <trkpt lat="45.87042" lon="1.23048">
        <ele>343.3</ele>
        <time>2024-10-15T16:17:52Z</time>
      </trkpt>
      <trkpt lat="45.87042" lon="1.23047">
        <ele>343.3</ele>
        <time>2024-10-15T16:17:55Z</time>
      </trkpt>
      <trkpt lat="45.87042" lon="1.23046">
        <ele>343.1</ele>
        <time>2024-10-15T16:17:58Z</time>
      </trkpt>
      <trkpt lat="45.87042" lon="1.23046">
        <ele>343.1</ele>
        <time>2024-10-15T16:18:01Z</time>
      </trkpt>
      <trkpt lat="45.87042" lon="1.23045">
        <ele>343.2</ele>
        <time>2024-10-15T16:18:03Z</time>
      </trkpt>
      <trkpt lat="45.87042" lon="1.23045">
        <ele>343.2</ele>
        <time>2024-10-15T16:18:06Z</time>
      </trkpt>
      <trkpt lat="45.87042" lon="1.23045">
        <ele>343.2</ele>
        <time>2024-10-15T16:18:09Z</time>
      </trkpt>
      <trkpt lat="45.87042" lon="1.23045">
        <ele>343.3</ele>
        <time>2024-10-15T16:18:12Z</time>
      </trkpt>
      <trkpt lat="45.87042" lon="1.23045">
        <ele>343.3</ele>
        <time>2024-10-15T16:18:15Z</time>
      </trkpt>
      <trkpt lat="45.87043" lon="1.23045">
        <ele>343.3</ele>
        <time>2024-10-15T16:18:18Z</time>
      </trkpt>
      <trkpt lat="45.87043" lon="1.23045">
        <ele>343.4</ele>
        <time>2024-10-15T16:18:22Z</time>
      </trkpt>
      <trkpt lat="45.87043" lon="1.23045">
        <ele>343.4</ele>
        <time>2024-10-15T16:18:24Z</time>
      </trkpt>
      <trkpt lat="45.87044" lon="1.23045">
        <ele>343.5</ele>
        <time>2024-10-15T16:18:28Z</time>
      </trkpt>
      <trkpt lat="45.87044" lon="1.23045">
        <ele>343.5</ele>
        <time>2024-10-15T16:18:30Z</time>
      </trkpt>
      <trkpt lat="45.87044" lon="1.23045">
        <ele>343.5</ele>
        <time>2024-10-15T16:18:33Z</time>
      </trkpt>
      <trkpt lat="45.87045" lon="1.23046">
        <ele>343.6</ele>
        <time>2024-10-15T16:18:37Z</time>
      </trkpt>
      <trkpt lat="45.87045" lon="1.23046">
        <ele>343.6</ele>
        <time>2024-10-15T16:18:40Z</time>
      </trkpt>
      <trkpt lat="45.87045" lon="1.23047">
        <ele>343.6</ele>
        <time>2024-10-15T16:18:43Z</time>
      </trkpt>
      <trkpt lat="45.87045" lon="1.23047">
        <ele>344</ele>
        <time>2024-10-15T16:18:46Z</time>
      </trkpt>
      <trkpt lat="45.87045" lon="1.23048">
        <ele>344</ele>
        <time>2024-10-15T16:18:49Z</time>
      </trkpt>
      <trkpt lat="45.87045" lon="1.23048">
        <ele>344.1</ele>
        <time>2024-10-15T16:18:52Z</time>
      </trkpt>
      <trkpt lat="45.87046" lon="1.23048">
        <ele>344.1</ele>
        <time>2024-10-15T16:18:55Z</time>
      </trkpt>
      <trkpt lat="45.87046" lon="1.23048">
        <ele>344.2</ele>
        <time>2024-10-15T16:18:58Z</time>
      </trkpt>
      <trkpt lat="45.87046" lon="1.23047">
        <ele>344.2</ele>
        <time>2024-10-15T16:19:01Z</time>
      </trkpt>
      <trkpt lat="45.87046" lon="1.23047">
        <ele>344.2</ele>
        <time>2024-10-15T16:19:04Z</time>
      </trkpt>
      <trkpt lat="45.87046" lon="1.23048">
        <ele>344.2</ele>
        <time>2024-10-15T16:19:07Z</time>
      </trkpt>
      <trkpt lat="45.87046" lon="1.23047">
        <ele>344.2</ele>
        <time>2024-10-15T16:19:10Z</time>
      </trkpt>
      <trkpt lat="45.87045" lon="1.23047">
        <ele>344.2</ele>
        <time>2024-10-15T16:19:13Z</time>
      </trkpt>
      <trkpt lat="45.87044" lon="1.23046">
        <ele>344.2</ele>
        <time>2024-10-15T16:19:16Z</time>
      </trkpt>
      <trkpt lat="45.87044" lon="1.23045">
        <ele>344.3</ele>
        <time>2024-10-15T16:19:19Z</time>
      </trkpt>
      <trkpt lat="45.87043" lon="1.23045">
        <ele>344.3</ele>
        <time>2024-10-15T16:19:22Z</time>
      </trkpt>
      <trkpt lat="45.87043" lon="1.23045">
        <ele>344.3</ele>
        <time>2024-10-15T16:19:25Z</time>
      </trkpt>
      <trkpt lat="45.87043" lon="1.23046">
        <ele>344.3</ele>
        <time>2024-10-15T16:19:28Z</time>
      </trkpt>
      <trkpt lat="45.87043" lon="1.23046">
        <ele>344.3</ele>
        <time>2024-10-15T16:19:31Z</time>
      </trkpt>
      <trkpt lat="45.87043" lon="1.23046">
        <ele>344.3</ele>
        <time>2024-10-15T16:19:34Z</time>
      </trkpt>
      <trkpt lat="45.87043" lon="1.23046">
        <ele>344.3</ele>
        <time>2024-10-15T16:19:37Z</time>
      </trkpt>
      <trkpt lat="45.87044" lon="1.23046">
        <ele>344.3</ele>
        <time>2024-10-15T16:19:40Z</time>
      </trkpt>
      <trkpt lat="45.87044" lon="1.23046">
        <ele>344.3</ele>
        <time>2024-10-15T16:19:42Z</time>
      </trkpt>
      <trkpt lat="45.87043" lon="1.23046">
        <ele>344.4</ele>
        <time>2024-10-15T16:19:45Z</time>
      </trkpt>
      <trkpt lat="45.87042" lon="1.23046">
        <ele>344.4</ele>
        <time>2024-10-15T16:19:48Z</time>
      </trkpt>
      <trkpt lat="45.87042" lon="1.23046">
        <ele>344.4</ele>
        <time>2024-10-15T16:19:51Z</time>
      </trkpt>
      <trkpt lat="45.87042" lon="1.23046">
        <ele>344.4</ele>
        <time>2024-10-15T16:19:54Z</time>
      </trkpt>
      <trkpt lat="45.87042" lon="1.23047">
        <ele>344.4</ele>
        <time>2024-10-15T16:19:57Z</time>
      </trkpt>
      <trkpt lat="45.87042" lon="1.23047">
        <ele>344.5</ele>
        <time>2024-10-15T16:20:00Z</time>
      </trkpt>
      <trkpt lat="45.87042" lon="1.23047">
        <ele>344.5</ele>
        <time>2024-10-15T16:20:04Z</time>
      </trkpt>
      <trkpt lat="45.87041" lon="1.23047">
        <ele>344.5</ele>
        <time>2024-10-15T16:20:06Z</time>
      </trkpt>
      <trkpt lat="45.87041" lon="1.23047">
        <ele>344.5</ele>
        <time>2024-10-15T16:20:09Z</time>
      </trkpt>
      <trkpt lat="45.87041" lon="1.23047">
        <ele>344.5</ele>
        <time>2024-10-15T16:20:12Z</time>
      </trkpt>
      <trkpt lat="45.8704" lon="1.23047">
        <ele>344.5</ele>
        <time>2024-10-15T16:20:16Z</time>
      </trkpt>
      <trkpt lat="45.8704" lon="1.23047">
        <ele>344.5</ele>
        <time>2024-10-15T16:20:19Z</time>
      </trkpt>
      <trkpt lat="45.8704" lon="1.23047">
        <ele>344.5</ele>
        <time>2024-10-15T16:20:22Z</time>
      </trkpt>
      <trkpt lat="45.8704" lon="1.23047">
        <ele>344.6</ele>
        <time>2024-10-15T16:20:25Z</time>
      </trkpt>
      <trkpt lat="45.87039" lon="1.23047">
        <ele>344.6</ele>
        <time>2024-10-15T16:20:28Z</time>
      </trkpt>
      <trkpt lat="45.87039" lon="1.23047">
        <ele>344.6</ele>
        <time>2024-10-15T16:20:31Z</time>
      </trkpt>
      <trkpt lat="45.87039" lon="1.23047">
        <ele>344.6</ele>
        <time>2024-10-15T16:20:34Z</time>
      </trkpt>
      <trkpt lat="45.87039" lon="1.23047">
        <ele>344.6</ele>
        <time>2024-10-15T16:20:37Z</time>
      </trkpt>
      <trkpt lat="45.87039" lon="1.23046">
        <ele>344.6</ele>
        <time>2024-10-15T16:20:40Z</time>
      </trkpt>
      <trkpt lat="45.87039" lon="1.23046">
        <ele>344.6</ele>
        <time>2024-10-15T16:20:43Z</time>
      </trkpt>
      <trkpt lat="45.87038" lon="1.23046">
        <ele>344.7</ele>
        <time>2024-10-15T16:20:46Z</time>
      </trkpt>
      <trkpt lat="45.87038" lon="1.23046">
        <ele>344.7</ele>
        <time>2024-10-15T16:20:49Z</time>
      </trkpt>
      <trkpt lat="45.87038" lon="1.23046">
        <ele>344.7</ele>
        <time>2024-10-15T16:20:52Z</time>
      </trkpt>
      <trkpt lat="45.87038" lon="1.23045">
        <ele>344.7</ele>
        <time>2024-10-15T16:20:55Z</time>
      </trkpt>
      <trkpt lat="45.87038" lon="1.23045">
        <ele>344.7</ele>
        <time>2024-10-15T16:20:58Z</time>
      </trkpt>
      <trkpt lat="45.87039" lon="1.23045">
        <ele>344.7</ele>
        <time>2024-10-15T16:21:01Z</time>
      </trkpt>
      <trkpt lat="45.87039" lon="1.23045">
        <ele>344.7</ele>
        <time>2024-10-15T16:21:04Z</time>
      </trkpt>
      <trkpt lat="45.87039" lon="1.23045">
        <ele>344.7</ele>
        <time>2024-10-15T16:21:07Z</time>
      </trkpt>
      <trkpt lat="45.87039" lon="1.23046">
        <ele>344.7</ele>
        <time>2024-10-15T16:21:10Z</time>
      </trkpt>
      <trkpt lat="45.8704" lon="1.23047">
        <ele>344.8</ele>
        <time>2024-10-15T16:21:12Z</time>
      </trkpt>
      <trkpt lat="45.8704" lon="1.23047">
        <ele>344.8</ele>
        <time>2024-10-15T16:21:15Z</time>
      </trkpt>
      <trkpt lat="45.8704" lon="1.23048">
        <ele>344.8</ele>
        <time>2024-10-15T16:21:18Z</time>
      </trkpt>
      <trkpt lat="45.8704" lon="1.23048">
        <ele>344.8</ele>
        <time>2024-10-15T16:21:21Z</time>
      </trkpt>
      <trkpt lat="45.8704" lon="1.23048">
        <ele>344.8</ele>
        <time>2024-10-15T16:21:24Z</time>
      </trkpt>
      <trkpt lat="45.8704" lon="1.23048">
        <ele>344.8</ele>
        <time>2024-10-15T16:21:27Z</time>
      </trkpt>
      <trkpt lat="45.8704" lon="1.23048">
        <ele>344.8</ele>
        <time>2024-10-15T16:21:30Z</time>
      </trkpt>
      <trkpt lat="45.8704" lon="1.23048">
        <ele>344.8</ele>
        <time>2024-10-15T16:21:34Z</time>
      </trkpt>
      <trkpt lat="45.8704" lon="1.23048">
        <ele>344.8</ele>
        <time>2024-10-15T16:21:37Z</time>
      </trkpt>
      <trkpt lat="45.8704" lon="1.23048">
        <ele>344.8</ele>
        <time>2024-10-15T16:21:40Z</time>
      </trkpt>
      <trkpt lat="45.8704" lon="1.23048">
        <ele>344.8</ele>
        <time>2024-10-15T16:21:43Z</time>
      </trkpt>
      <trkpt lat="45.8704" lon="1.23048">
        <ele>344.8</ele>
        <time>2024-10-15T16:21:46Z</time>
      </trkpt>
      <trkpt lat="45.8704" lon="1.23049">
        <ele>344.9</ele>
        <time>2024-10-15T16:21:49Z</time>
      </trkpt>
      <trkpt lat="45.87041" lon="1.23049">
        <ele>344.9</ele>
        <time>2024-10-15T16:21:52Z</time>
      </trkpt>
      <trkpt lat="45.8704" lon="1.23049">
        <ele>344.9</ele>
        <time>2024-10-15T16:21:55Z</time>
      </trkpt>
      <trkpt lat="45.87041" lon="1.23048">
        <ele>344.9</ele>
        <time>2024-10-15T16:21:58Z</time>
      </trkpt>
      <trkpt lat="45.87041" lon="1.23048">
        <ele>344.9</ele>
        <time>2024-10-15T16:22:01Z</time>
      </trkpt>
      <trkpt lat="45.87041" lon="1.23048">
        <ele>344.9</ele>
        <time>2024-10-15T16:22:04Z</time>
      </trkpt>
      <trkpt lat="45.87041" lon="1.23048">
        <ele>344.9</ele>
        <time>2024-10-15T16:22:07Z</time>
      </trkpt>
      <trkpt lat="45.87041" lon="1.23048">
        <ele>344.9</ele>
        <time>2024-10-15T16:22:10Z</time>
      </trkpt>
      <trkpt lat="45.87041" lon="1.23048">
        <ele>344.9</ele>
        <time>2024-10-15T16:22:13Z</time>
      </trkpt>
      <trkpt lat="45.87041" lon="1.23048">
        <ele>344.9</ele>
        <time>2024-10-15T16:22:16Z</time>
      </trkpt>
      <trkpt lat="45.8704" lon="1.23048">
        <ele>345</ele>
        <time>2024-10-15T16:22:19Z</time>
      </trkpt>
      <trkpt lat="45.87041" lon="1.23047">
        <ele>345</ele>
        <time>2024-10-15T16:22:22Z</time>
      </trkpt>
      <trkpt lat="45.87041" lon="1.23048">
        <ele>345</ele>
        <time>2024-10-15T16:22:25Z</time>
      </trkpt>
      <trkpt lat="45.87041" lon="1.23048">
        <ele>345</ele>
        <time>2024-10-15T16:22:28Z</time>
      </trkpt>
      <trkpt lat="45.87042" lon="1.23048">
        <ele>345</ele>
        <time>2024-10-15T16:22:31Z</time>
      </trkpt>
      <trkpt lat="45.87042" lon="1.23048">
        <ele>345</ele>
        <time>2024-10-15T16:22:34Z</time>
      </trkpt>
      <trkpt lat="45.87041" lon="1.23048">
        <ele>345</ele>
        <time>2024-10-15T16:22:37Z</time>
      </trkpt>
      <trkpt lat="45.87041" lon="1.23048">
        <ele>345.1</ele>
        <time>2024-10-15T16:22:40Z</time>
      </trkpt>
      <trkpt lat="45.87041" lon="1.23047">
        <ele>345.1</ele>
        <time>2024-10-15T16:22:43Z</time>
      </trkpt>
      <trkpt lat="45.87041" lon="1.23047">
        <ele>345.1</ele>
        <time>2024-10-15T16:22:45Z</time>
      </trkpt>
      <trkpt lat="45.87041" lon="1.23048">
        <ele>345.1</ele>
        <time>2024-10-15T16:22:48Z</time>
      </trkpt>
      <trkpt lat="45.87041" lon="1.23048">
        <ele>345.1</ele>
        <time>2024-10-15T16:22:51Z</time>
      </trkpt>
      <trkpt lat="45.87041" lon="1.23048">
        <ele>345.1</ele>
        <time>2024-10-15T16:22:54Z</time>
      </trkpt>
      <trkpt lat="45.87041" lon="1.23048">
        <ele>345.1</ele>
        <time>2024-10-15T16:22:58Z</time>
      </trkpt>
      <trkpt lat="45.87041" lon="1.23048">
        <ele>345.1</ele>
        <time>2024-10-15T16:23:00Z</time>
      </trkpt>
      <trkpt lat="45.87041" lon="1.23048">
        <ele>345.1</ele>
        <time>2024-10-15T16:23:03Z</time>
      </trkpt>
      <trkpt lat="45.87041" lon="1.23047">
        <ele>345.1</ele>
        <time>2024-10-15T16:23:07Z</time>
      </trkpt>
      <trkpt lat="45.87042" lon="1.23047">
        <ele>345.2</ele>
        <time>2024-10-15T16:23:10Z</time>
      </trkpt>
      <trkpt lat="45.87042" lon="1.23048">
        <ele>345.2</ele>
        <time>2024-10-15T16:23:13Z</time>
      </trkpt>
      <trkpt lat="45.87043" lon="1.23048">
        <ele>345.2</ele>
        <time>2024-10-15T16:23:16Z</time>
      </trkpt>
      <trkpt lat="45.87043" lon="1.23049">
        <ele>345.2</ele>
        <time>2024-10-15T16:23:19Z</time>
      </trkpt>
      <trkpt lat="45.87043" lon="1.23049">
        <ele>345.2</ele>
        <time>2024-10-15T16:23:22Z</time>
      </trkpt>
      <trkpt lat="45.87043" lon="1.2305">
        <ele>345.2</ele>
        <time>2024-10-15T16:23:25Z</time>
      </trkpt>
      <trkpt lat="45.87043" lon="1.23049">
        <ele>345.3</ele>
        <time>2024-10-15T16:23:28Z</time>
      </trkpt>
      <trkpt lat="45.87043" lon="1.23049">
        <ele>345.3</ele>
        <time>2024-10-15T16:23:31Z</time>
      </trkpt>
      <trkpt lat="45.87043" lon="1.23049">
        <ele>345.3</ele>
        <time>2024-10-15T16:23:34Z</time>
      </trkpt>
      <trkpt lat="45.87042" lon="1.2305">
        <ele>345.3</ele>
        <time>2024-10-15T16:23:37Z</time>
      </trkpt>
      <trkpt lat="45.87042" lon="1.23049">
        <ele>345.3</ele>
        <time>2024-10-15T16:23:40Z</time>
      </trkpt>
      <trkpt lat="45.87042" lon="1.2305">
        <ele>345.3</ele>
        <time>2024-10-15T16:23:43Z</time>
      </trkpt>
      <trkpt lat="45.87042" lon="1.23049">
        <ele>345.3</ele>
        <time>2024-10-15T16:23:46Z</time>
      </trkpt>
      <trkpt lat="45.87041" lon="1.23049">
        <ele>345.3</ele>
        <time>2024-10-15T16:23:49Z</time>
      </trkpt>
      <trkpt lat="45.87041" lon="1.23049">
        <ele>345.4</ele>
        <time>2024-10-15T16:23:52Z</time>
      </trkpt>
      <trkpt lat="45.87041" lon="1.2305">
        <ele>345.4</ele>
        <time>2024-10-15T16:23:55Z</time>
      </trkpt>
      <trkpt lat="45.87041" lon="1.23051">
        <ele>345.4</ele>
        <time>2024-10-15T16:23:58Z</time>
      </trkpt>
      <trkpt lat="45.87041" lon="1.2305">
        <ele>345.4</ele>
        <time>2024-10-15T16:24:01Z</time>
      </trkpt>
      <trkpt lat="45.87042" lon="1.2305">
        <ele>345.4</ele>
        <time>2024-10-15T16:24:04Z</time>
      </trkpt>
      <trkpt lat="45.87042" lon="1.2305">
        <ele>345.4</ele>
        <time>2024-10-15T16:24:07Z</time>
      </trkpt>
      <trkpt lat="45.87042" lon="1.23055">
        <ele>345.6</ele>
        <time>2024-10-15T16:24:10Z</time>
      </trkpt>
      <trkpt lat="45.87043" lon="1.23061">
        <ele>345.8</ele>
        <time>2024-10-15T16:24:12Z</time>
      </trkpt>
      <trkpt lat="45.87044" lon="1.23069">
        <ele>346</ele>
        <time>2024-10-15T16:24:15Z</time>
      </trkpt>
      <trkpt lat="45.87048" lon="1.23077">
        <ele>346.2</ele>
        <time>2024-10-15T16:24:18Z</time>
      </trkpt>
      <trkpt lat="45.87051" lon="1.23085">
        <ele>346.5</ele>
        <time>2024-10-15T16:24:21Z</time>
      </trkpt>
      <trkpt lat="45.87052" lon="1.23094">
        <ele>346.7</ele>
        <time>2024-10-15T16:24:24Z</time>
      </trkpt>
      <trkpt lat="45.87048" lon="1.23102">
        <ele>346.7</ele>
        <time>2024-10-15T16:24:27Z</time>
      </trkpt>
      <trkpt lat="45.87039" lon="1.23108">
        <ele>346.1</ele>
        <time>2024-10-15T16:24:30Z</time>
      </trkpt>
      <trkpt lat="45.87027" lon="1.23113">
        <ele>345.6</ele>
        <time>2024-10-15T16:24:33Z</time>
      </trkpt>
      <trkpt lat="45.87012" lon="1.23117">
        <ele>345.4</ele>
        <time>2024-10-15T16:24:37Z</time>
      </trkpt>
      <trkpt lat="45.86997" lon="1.23112">
        <ele>345.2</ele>
        <time>2024-10-15T16:24:39Z</time>
      </trkpt>
      <trkpt lat="45.86982" lon="1.23107">
        <ele>345.1</ele>
        <time>2024-10-15T16:24:43Z</time>
      </trkpt>
      <trkpt lat="45.86966" lon="1.23103">
        <ele>345.1</ele>
        <time>2024-10-15T16:24:46Z</time>
      </trkpt>
      <trkpt lat="45.86951" lon="1.23099">
        <ele>345.4</ele>
        <time>2024-10-15T16:24:49Z</time>
      </trkpt>
      <trkpt lat="45.8694" lon="1.23105">
        <ele>346.6</ele>
        <time>2024-10-15T16:24:52Z</time>
      </trkpt>
      <trkpt lat="45.86939" lon="1.2312">
        <ele>347.8</ele>
        <time>2024-10-15T16:24:55Z</time>
      </trkpt>
      <trkpt lat="45.86939" lon="1.23134">
        <ele>348.9</ele>
        <time>2024-10-15T16:24:58Z</time>
      </trkpt>
      <trkpt lat="45.86936" lon="1.23146">
        <ele>349.7</ele>
        <time>2024-10-15T16:25:01Z</time>
      </trkpt>
      <trkpt lat="45.86925" lon="1.23149">
        <ele>349.6</ele>
        <time>2024-10-15T16:25:04Z</time>
      </trkpt>
      <trkpt lat="45.86913" lon="1.23155">
        <ele>349.5</ele>
        <time>2024-10-15T16:25:07Z</time>
      </trkpt>
      <trkpt lat="45.86899" lon="1.23162">
        <ele>349.2</ele>
        <time>2024-10-15T16:25:10Z</time>
      </trkpt>
      <trkpt lat="45.86883" lon="1.23169">
        <ele>348.8</ele>
        <time>2024-10-15T16:25:13Z</time>
      </trkpt>
      <trkpt lat="45.86867" lon="1.23176">
        <ele>348.5</ele>
        <time>2024-10-15T16:25:16Z</time>
      </trkpt>
      <trkpt lat="45.8685" lon="1.23184">
        <ele>347.9</ele>
        <time>2024-10-15T16:25:19Z</time>
      </trkpt>
      <trkpt lat="45.86832" lon="1.23193">
        <ele>346.3</ele>
        <time>2024-10-15T16:25:22Z</time>
      </trkpt>
      <trkpt lat="45.86812" lon="1.23208">
        <ele>343.4</ele>
        <time>2024-10-15T16:25:25Z</time>
      </trkpt>
      <trkpt lat="45.86788" lon="1.23231">
        <ele>339.7</ele>
        <time>2024-10-15T16:25:28Z</time>
      </trkpt>
      <trkpt lat="45.86765" lon="1.23262">
        <ele>337.5</ele>
        <time>2024-10-15T16:25:31Z</time>
      </trkpt>
      <trkpt lat="45.86744" lon="1.23297">
        <ele>335.8</ele>
        <time>2024-10-15T16:25:34Z</time>
      </trkpt>
      <trkpt lat="45.86723" lon="1.23331">
        <ele>334.3</ele>
        <time>2024-10-15T16:25:37Z</time>
      </trkpt>
      <trkpt lat="45.86708" lon="1.23358">
        <ele>333.4</ele>
        <time>2024-10-15T16:25:40Z</time>
      </trkpt>
      <trkpt lat="45.86696" lon="1.23382">
        <ele>332.8</ele>
        <time>2024-10-15T16:25:43Z</time>
      </trkpt>
      <trkpt lat="45.86681" lon="1.23401">
        <ele>331.9</ele>
        <time>2024-10-15T16:25:45Z</time>
      </trkpt>
      <trkpt lat="45.8667" lon="1.23423">
        <ele>330.7</ele>
        <time>2024-10-15T16:25:48Z</time>
      </trkpt>
      <trkpt lat="45.86657" lon="1.23443">
        <ele>333.4</ele>
        <time>2024-10-15T16:25:51Z</time>
      </trkpt>
      <trkpt lat="45.86645" lon="1.23463">
        <ele>333.7</ele>
        <time>2024-10-15T16:25:54Z</time>
      </trkpt>
      <trkpt lat="45.86634" lon="1.23481">
        <ele>334.1</ele>
        <time>2024-10-15T16:25:57Z</time>
      </trkpt>
      <trkpt lat="45.86622" lon="1.23499">
        <ele>334.6</ele>
        <time>2024-10-15T16:26:00Z</time>
      </trkpt>
      <trkpt lat="45.86611" lon="1.23513">
        <ele>335.1</ele>
        <time>2024-10-15T16:26:04Z</time>
      </trkpt>
      <trkpt lat="45.866" lon="1.23527">
        <ele>335.6</ele>
        <time>2024-10-15T16:26:07Z</time>
      </trkpt>
      <trkpt lat="45.86588" lon="1.23539">
        <ele>336.1</ele>
        <time>2024-10-15T16:26:10Z</time>
      </trkpt>
      <trkpt lat="45.86578" lon="1.23553">
        <ele>336.7</ele>
        <time>2024-10-15T16:26:13Z</time>
      </trkpt>
      <trkpt lat="45.86568" lon="1.23564">
        <ele>337.2</ele>
        <time>2024-10-15T16:26:16Z</time>
      </trkpt>
      <trkpt lat="45.86558" lon="1.23576">
        <ele>337.3</ele>
        <time>2024-10-15T16:26:19Z</time>
      </trkpt>
      <trkpt lat="45.86556" lon="1.23592">
        <ele>337.5</ele>
        <time>2024-10-15T16:26:22Z</time>
      </trkpt>
      <trkpt lat="45.86563" lon="1.23608">
        <ele>337.5</ele>
        <time>2024-10-15T16:26:25Z</time>
      </trkpt>
      <trkpt lat="45.86572" lon="1.23625">
        <ele>337.4</ele>
        <time>2024-10-15T16:26:28Z</time>
      </trkpt>
      <trkpt lat="45.86582" lon="1.23645">
        <ele>337.3</ele>
        <time>2024-10-15T16:26:31Z</time>
      </trkpt>
      <trkpt lat="45.86592" lon="1.23665">
        <ele>337.4</ele>
        <time>2024-10-15T16:26:34Z</time>
      </trkpt>
      <trkpt lat="45.86601" lon="1.23684">
        <ele>337.7</ele>
        <time>2024-10-15T16:26:37Z</time>
      </trkpt>
      <trkpt lat="45.86611" lon="1.23702">
        <ele>338.1</ele>
        <time>2024-10-15T16:26:40Z</time>
      </trkpt>
      <trkpt lat="45.8662" lon="1.2372">
        <ele>338.9</ele>
        <time>2024-10-15T16:26:43Z</time>
      </trkpt>
      <trkpt lat="45.86627" lon="1.23736">
        <ele>339.7</ele>
        <time>2024-10-15T16:26:46Z</time>
      </trkpt>
      <trkpt lat="45.86634" lon="1.23751">
        <ele>340.4</ele>
        <time>2024-10-15T16:26:49Z</time>
      </trkpt>
      <trkpt lat="45.86643" lon="1.23767">
        <ele>341.1</ele>
        <time>2024-10-15T16:26:52Z</time>
      </trkpt>
      <trkpt lat="45.8665" lon="1.23783">
        <ele>341.6</ele>
        <time>2024-10-15T16:26:55Z</time>
      </trkpt>
      <trkpt lat="45.86656" lon="1.238">
        <ele>342.2</ele>
        <time>2024-10-15T16:26:58Z</time>
      </trkpt>
      <trkpt lat="45.8666" lon="1.23811">
        <ele>342.5</ele>
        <time>2024-10-15T16:27:01Z</time>
      </trkpt>
      <trkpt lat="45.8665" lon="1.23812">
        <ele>342.2</ele>
        <time>2024-10-15T16:27:04Z</time>
      </trkpt>
      <trkpt lat="45.86635" lon="1.23814">
        <ele>341.7</ele>
        <time>2024-10-15T16:27:07Z</time>
      </trkpt>
      <trkpt lat="45.8662" lon="1.23813">
        <ele>341.3</ele>
        <time>2024-10-15T16:27:09Z</time>
      </trkpt>
      <trkpt lat="45.86605" lon="1.23812">
        <ele>341</ele>
        <time>2024-10-15T16:27:12Z</time>
      </trkpt>
      <trkpt lat="45.8659" lon="1.23811">
        <ele>340.7</ele>
        <time>2024-10-15T16:27:15Z</time>
      </trkpt>
      <trkpt lat="45.86574" lon="1.23811">
        <ele>340.4</ele>
        <time>2024-10-15T16:27:18Z</time>
      </trkpt>
      <trkpt lat="45.86559" lon="1.23808">
        <ele>340.1</ele>
        <time>2024-10-15T16:27:21Z</time>
      </trkpt>
      <trkpt lat="45.86546" lon="1.23806">
        <ele>339.8</ele>
        <time>2024-10-15T16:27:24Z</time>
      </trkpt>
      <trkpt lat="45.86535" lon="1.23804">
        <ele>339.6</ele>
        <time>2024-10-15T16:27:27Z</time>
      </trkpt>
      <trkpt lat="45.86526" lon="1.23803">
        <ele>339.4</ele>
        <time>2024-10-15T16:27:30Z</time>
      </trkpt>
      <trkpt lat="45.86522" lon="1.23802">
        <ele>339.4</ele>
        <time>2024-10-15T16:27:34Z</time>
      </trkpt>
      <trkpt lat="45.86519" lon="1.23793">
        <ele>339.2</ele>
        <time>2024-10-15T16:27:37Z</time>
      </trkpt>
      <trkpt lat="45.86518" lon="1.23781">
        <ele>339.1</ele>
        <time>2024-10-15T16:27:40Z</time>
      </trkpt>
      <trkpt lat="45.86513" lon="1.23776">
        <ele>338.9</ele>
        <time>2024-10-15T16:27:43Z</time>
      </trkpt>
      <trkpt lat="45.86512" lon="1.23783">
        <ele>338.8</ele>
        <time>2024-10-15T16:27:46Z</time>
      </trkpt>
      <trkpt lat="45.86513" lon="1.23787">
        <ele>338.8</ele>
        <time>2024-10-15T16:27:49Z</time>
      </trkpt>
      <trkpt lat="45.86513" lon="1.23787">
        <ele>338.8</ele>
        <time>2024-10-15T16:27:52Z</time>
      </trkpt>
      <trkpt lat="45.86513" lon="1.23787">
        <ele>338.8</ele>
        <time>2024-10-15T16:27:55Z</time>
      </trkpt>
      <trkpt lat="45.86513" lon="1.23787">
        <ele>338.8</ele>
        <time>2024-10-15T16:27:58Z</time>
      </trkpt>
      <trkpt lat="45.86513" lon="1.23787">
        <ele>338.8</ele>
        <time>2024-10-15T16:28:01Z</time>
      </trkpt>
      <trkpt lat="45.86513" lon="1.23787">
        <ele>338.8</ele>
        <time>2024-10-15T16:28:01Z</time>
      </trkpt>
    </trkseg>
  </trk>
</gpx>